<?xml version='1.0' encoding='UTF-8'?><gpx version="1.1" creator="JPX - https://github.com/jenetics/jpx" xmlns="http://www.topografix.com/GPX/1/1"><trk><trkseg><trkpt lat="45.78590659469195" lon="14.33923687961488"><ele>555.0</ele><time>2026-05-01T10:15:23Z</time></trkpt><trkpt lat="45.785875757914816" lon="14.339317224554696"><ele>555.0</ele><time>2026-05-01T10:15:27Z</time></trkpt><trkpt lat="45.785816089537484" lon="14.339389993429302"><ele>555.0</ele><time>2026-05-01T10:15:36Z</time></trkpt><trkpt lat="45.785887344946566" lon="14.339400548407811"><ele>555.0</ele><time>2026-05-01T10:15:53Z</time></trkpt><trkpt lat="45.78593742933874" lon="14.339320373757076"><ele>555.0</ele><time>2026-05-01T10:15:56Z</time></trkpt><trkpt lat="45.78600626150986" lon="14.339243576259415"><ele>555.0</ele><time>2026-05-01T10:15:59Z</time></trkpt><trkpt lat="45.78607579398702" lon="14.339158000583685"><ele>554.6666666666666</ele><time>2026-05-01T10:16:02Z</time></trkpt><trkpt lat="45.78614858146807" lon="14.33907744326025"><ele>554.3333333333334</ele><time>2026-05-01T10:16:05Z</time></trkpt><trkpt lat="45.78621369675624" lon="14.338993156759482"><ele>554.0</ele><time>2026-05-01T10:16:08Z</time></trkpt><trkpt lat="45.78627930067842" lon="14.33890764339682"><ele>553.6666666666667</ele><time>2026-05-01T10:16:11Z</time></trkpt><trkpt lat="45.78633834361962" lon="14.338822719418639"><ele>553.3333333333334</ele><time>2026-05-01T10:16:14Z</time></trkpt><trkpt lat="45.786397958530166" lon="14.338718949298505"><ele>553.0</ele><time>2026-05-01T10:16:17Z</time></trkpt><trkpt lat="45.7864418798819" lon="14.338646503702757"><ele>553.8</ele><time>2026-05-01T10:16:19Z</time></trkpt><trkpt lat="45.78648791525386" lon="14.33856417896119"><ele>554.5999999999999</ele><time>2026-05-01T10:16:21Z</time></trkpt><trkpt lat="45.786547017344084" lon="14.338457262498059"><ele>555.4000000000001</ele><time>2026-05-01T10:16:23Z</time></trkpt><trkpt lat="45.78660641978772" lon="14.338344904242184"><ele>556.2</ele><time>2026-05-01T10:16:25Z</time></trkpt><trkpt lat="45.78666684365235" lon="14.338228397341775"><ele>557.0</ele><time>2026-05-01T10:16:27Z</time></trkpt><trkpt lat="45.786727881985406" lon="14.338113562443269"><ele>557.8333333333333</ele><time>2026-05-01T10:16:29Z</time></trkpt><trkpt lat="45.78678333791977" lon="14.337996370773386"><ele>558.6666666666666</ele><time>2026-05-01T10:16:31Z</time></trkpt><trkpt lat="45.786829410399264" lon="14.337894997678983"><ele>559.5</ele><time>2026-05-01T10:16:32.999Z</time></trkpt><trkpt lat="45.786871364146926" lon="14.33781335564269"><ele>560.3333333333334</ele><time>2026-05-01T10:16:36.999Z</time></trkpt><trkpt lat="45.78689023414671" lon="14.337724913568263"><ele>561.1666666666667</ele><time>2026-05-01T10:16:48.999Z</time></trkpt><trkpt lat="45.78694513055673" lon="14.337639802162329"><ele>562.0</ele><time>2026-05-01T10:16:53Z</time></trkpt><trkpt lat="45.786996997741454" lon="14.337534351565932"><ele>560.8333333333334</ele><time>2026-05-01T10:16:56Z</time></trkpt><trkpt lat="45.78704280760767" lon="14.337455062261567"><ele>559.6666666666667</ele><time>2026-05-01T10:16:58Z</time></trkpt><trkpt lat="45.78709809933971" lon="14.337377786913166"><ele>558.5</ele><time>2026-05-01T10:17:00Z</time></trkpt><trkpt lat="45.78716028353149" lon="14.33730002674695"><ele>557.3333333333334</ele><time>2026-05-01T10:17:02Z</time></trkpt><trkpt lat="45.78721316795468" lon="14.33722655043843"><ele>556.1666666666666</ele><time>2026-05-01T10:17:04Z</time></trkpt><trkpt lat="45.78727334376918" lon="14.33716516635625"><ele>555.0</ele><time>2026-05-01T10:17:07Z</time></trkpt><trkpt lat="45.78731097072699" lon="14.337074846452762"><ele>555.0000000000001</ele><time>2026-05-01T10:17:11Z</time></trkpt><trkpt lat="45.787348901037824" lon="14.336997760702502"><ele>555.0</ele><time>2026-05-01T10:17:16Z</time></trkpt><trkpt lat="45.78739057998658" lon="14.336902514993831"><ele>555.0</ele><time>2026-05-01T10:17:45Z</time></trkpt><trkpt lat="45.78739966401681" lon="14.336795112716496"><ele>555.0</ele><time>2026-05-01T10:17:48Z</time></trkpt><trkpt lat="45.787409047478775" lon="14.33670212695271"><ele>555.0</ele><time>2026-05-01T10:17:51Z</time></trkpt><trkpt lat="45.787421269412114" lon="14.336584559113648"><ele>555.0000000000001</ele><time>2026-05-01T10:17:54Z</time></trkpt><trkpt lat="45.787425328476516" lon="14.336491279170389"><ele>555.0</ele><time>2026-05-01T10:17:56Z</time></trkpt><trkpt lat="45.78743503727057" lon="14.336399387680498"><ele>555.1666666666666</ele><time>2026-05-01T10:17:58Z</time></trkpt><trkpt lat="45.78744533029335" lon="14.336289984694453"><ele>555.3333333333334</ele><time>2026-05-01T10:18:00Z</time></trkpt><trkpt lat="45.787446621142585" lon="14.336168522735687"><ele>555.5</ele><time>2026-05-01T10:18:02Z</time></trkpt><trkpt lat="45.78745237094979" lon="14.336034879076623"><ele>555.6666666666667</ele><time>2026-05-01T10:18:04Z</time></trkpt><trkpt lat="45.787456259236635" lon="14.335907468396876"><ele>555.8333333333334</ele><time>2026-05-01T10:18:06Z</time></trkpt><trkpt lat="45.78746159607237" lon="14.335775007021109"><ele>556.0</ele><time>2026-05-01T10:18:08Z</time></trkpt><trkpt lat="45.78747045395322" lon="14.335644597714992"><ele>556.2</ele><time>2026-05-01T10:18:10Z</time></trkpt><trkpt lat="45.78748018592313" lon="14.335508074758868"><ele>556.4000000000001</ele><time>2026-05-01T10:18:12Z</time></trkpt><trkpt lat="45.787497604481025" lon="14.335372785398524"><ele>556.6</ele><time>2026-05-01T10:18:14Z</time></trkpt><trkpt lat="45.78750809176244" lon="14.335241080323815"><ele>556.8000000000001</ele><time>2026-05-01T10:18:16Z</time></trkpt><trkpt lat="45.787515519730256" lon="14.335115196953485"><ele>557.0</ele><time>2026-05-01T10:18:18Z</time></trkpt><trkpt lat="45.78752741227786" lon="14.334996626247605"><ele>557.0</ele><time>2026-05-01T10:18:20Z</time></trkpt><trkpt lat="45.78753537320847" lon="14.334884153926664"><ele>557.0</ele><time>2026-05-01T10:18:22Z</time></trkpt><trkpt lat="45.787543844289274" lon="14.33477088501674"><ele>557.0</ele><time>2026-05-01T10:18:24Z</time></trkpt><trkpt lat="45.787548289003496" lon="14.334655345758827"><ele>557.0</ele><time>2026-05-01T10:18:26Z</time></trkpt><trkpt lat="45.78754867477349" lon="14.334533448390232"><ele>557.0</ele><time>2026-05-01T10:18:28Z</time></trkpt><trkpt lat="45.78755118334136" lon="14.334409540321847"><ele>557.0</ele><time>2026-05-01T10:18:30Z</time></trkpt><trkpt lat="45.78754818347218" lon="14.334285784158734"><ele>557.0</ele><time>2026-05-01T10:18:32Z</time></trkpt><trkpt lat="45.787564098790625" lon="14.334162853270078"><ele>557.0</ele><time>2026-05-01T10:18:34Z</time></trkpt><trkpt lat="45.78755918017459" lon="14.334042824933798"><ele>557.0</ele><time>2026-05-01T10:18:36Z</time></trkpt><trkpt lat="45.78756471917857" lon="14.333923921975924"><ele>557.0</ele><time>2026-05-01T10:18:38Z</time></trkpt><trkpt lat="45.787572638187136" lon="14.33380439265429"><ele>557.0</ele><time>2026-05-01T10:18:40Z</time></trkpt><trkpt lat="45.78758403749156" lon="14.333692338583672"><ele>557.0</ele><time>2026-05-01T10:18:41.999Z</time></trkpt><trkpt lat="45.78760249657009" lon="14.333590017036942"><ele>557.5714285714286</ele><time>2026-05-01T10:18:43.999Z</time></trkpt><trkpt lat="45.787622141323055" lon="14.333470406108653"><ele>558.1428571428571</ele><time>2026-05-01T10:18:46.999Z</time></trkpt><trkpt lat="45.78762393817497" lon="14.333374587845537"><ele>558.7142857142857</ele><time>2026-05-01T10:18:49.999Z</time></trkpt><trkpt lat="45.787643877231396" lon="14.333281028583704"><ele>559.2857142857142</ele><time>2026-05-01T10:18:51.999Z</time></trkpt><trkpt lat="45.78765941986135" lon="14.333163821664602"><ele>559.8571428571428</ele><time>2026-05-01T10:18:53.999Z</time></trkpt><trkpt lat="45.787659341604375" lon="14.333067080198376"><ele>560.4285714285714</ele><time>2026-05-01T10:18:55.999Z</time></trkpt><trkpt lat="45.78766316741481" lon="14.332969235930294"><ele>561.0</ele><time>2026-05-01T10:18:57.999Z</time></trkpt><trkpt lat="45.787686303375594" lon="14.33285569270688"><ele>559.4</ele><time>2026-05-01T10:19:00Z</time></trkpt><trkpt lat="45.78769343372701" lon="14.332722265924767"><ele>557.8</ele><time>2026-05-01T10:19:02Z</time></trkpt><trkpt lat="45.78770876666279" lon="14.332589095451105"><ele>556.1999999999999</ele><time>2026-05-01T10:19:04Z</time></trkpt><trkpt lat="45.78772495248604" lon="14.332459339988697"><ele>554.6</ele><time>2026-05-01T10:19:06Z</time></trkpt><trkpt lat="45.7877495887927" lon="14.332331351451437"><ele>553.0</ele><time>2026-05-01T10:19:08Z</time></trkpt><trkpt lat="45.78777826437747" lon="14.332205487336095"><ele>553.0</ele><time>2026-05-01T10:19:10Z</time></trkpt><trkpt lat="45.78781344092359" lon="14.332083045197118"><ele>553.0</ele><time>2026-05-01T10:19:12Z</time></trkpt><trkpt lat="45.78784619141081" lon="14.331972339024743"><ele>553.0</ele><time>2026-05-01T10:19:14Z</time></trkpt><trkpt lat="45.7878856958981" lon="14.331868291870459"><ele>553.0</ele><time>2026-05-01T10:19:16Z</time></trkpt><trkpt lat="45.787925171693445" lon="14.3317746230818"><ele>553.0</ele><time>2026-05-01T10:19:18Z</time></trkpt><trkpt lat="45.7879703002794" lon="14.331686475136447"><ele>553.0</ele><time>2026-05-01T10:19:20Z</time></trkpt><trkpt lat="45.78801946578659" lon="14.331603576865112"><ele>553.0</ele><time>2026-05-01T10:19:22Z</time></trkpt><trkpt lat="45.78806674918619" lon="14.331532001981763"><ele>553.0</ele><time>2026-05-01T10:19:24Z</time></trkpt><trkpt lat="45.788121114853965" lon="14.33148159705724"><ele>553.0</ele><time>2026-05-01T10:19:26Z</time></trkpt><trkpt lat="45.788173717829665" lon="14.331422641789116"><ele>553.0</ele><time>2026-05-01T10:19:28Z</time></trkpt><trkpt lat="45.788227565934356" lon="14.33136015461331"><ele>553.0</ele><time>2026-05-01T10:19:31Z</time></trkpt><trkpt lat="45.78827362066804" lon="14.331243353017436"><ele>553.0</ele><time>2026-05-01T10:21:13Z</time></trkpt><trkpt lat="45.788328598627274" lon="14.331140516004641"><ele>554.4285714285714</ele><time>2026-05-01T10:21:16Z</time></trkpt><trkpt lat="45.78833783791309" lon="14.33104631836356"><ele>555.8571428571429</ele><time>2026-05-01T10:21:18Z</time></trkpt><trkpt lat="45.78835298223822" lon="14.330953436399943"><ele>557.2857142857142</ele><time>2026-05-01T10:21:20Z</time></trkpt><trkpt lat="45.78836869396333" lon="14.330851690103284"><ele>558.7142857142858</ele><time>2026-05-01T10:21:22Z</time></trkpt><trkpt lat="45.7883938090007" lon="14.330746723154226"><ele>560.1428571428571</ele><time>2026-05-01T10:21:24Z</time></trkpt><trkpt lat="45.7884191526102" lon="14.330634415631053"><ele>561.5714285714286</ele><time>2026-05-01T10:21:26Z</time></trkpt><trkpt lat="45.78845349251363" lon="14.330528550379865"><ele>563.0</ele><time>2026-05-01T10:21:28Z</time></trkpt><trkpt lat="45.78849043576792" lon="14.330420958176402"><ele>561.1666666666666</ele><time>2026-05-01T10:21:30Z</time></trkpt><trkpt lat="45.788533966377095" lon="14.330326118388525"><ele>559.3333333333333</ele><time>2026-05-01T10:21:32Z</time></trkpt><trkpt lat="45.78856439077156" lon="14.330219122024607"><ele>557.5</ele><time>2026-05-01T10:21:34Z</time></trkpt><trkpt lat="45.78859780015282" lon="14.330111414229426"><ele>555.6666666666666</ele><time>2026-05-01T10:21:36Z</time></trkpt><trkpt lat="45.788642389369045" lon="14.330009341746887"><ele>553.8333333333334</ele><time>2026-05-01T10:21:38Z</time></trkpt><trkpt lat="45.7886614571511" lon="14.32990252244304"><ele>552.0</ele><time>2026-05-01T10:21:40Z</time></trkpt><trkpt lat="45.788676608434635" lon="14.329788313132278"><ele>553.1428571428571</ele><time>2026-05-01T10:21:42Z</time></trkpt><trkpt lat="45.78869134234961" lon="14.329677249667629"><ele>554.2857142857143</ele><time>2026-05-01T10:21:44Z</time></trkpt><trkpt lat="45.788707566327744" lon="14.329580325135955"><ele>555.4285714285714</ele><time>2026-05-01T10:21:46Z</time></trkpt><trkpt lat="45.788725801607335" lon="14.32948228771259"><ele>556.5714285714286</ele><time>2026-05-01T10:21:48Z</time></trkpt><trkpt lat="45.788750162952915" lon="14.329395566241889"><ele>557.7142857142858</ele><time>2026-05-01T10:21:50Z</time></trkpt><trkpt lat="45.78877506674877" lon="14.329282890626324"><ele>558.8571428571429</ele><time>2026-05-01T10:21:53Z</time></trkpt><trkpt lat="45.78882722497227" lon="14.329194693274014"><ele>560.0</ele><time>2026-05-01T10:21:56Z</time></trkpt><trkpt lat="45.78888383498936" lon="14.329116310517"><ele>560.0</ele><time>2026-05-01T10:21:59Z</time></trkpt><trkpt lat="45.78894271653554" lon="14.329042385095748"><ele>560.0</ele><time>2026-05-01T10:22:02Z</time></trkpt><trkpt lat="45.788997293255356" lon="14.328967154268904"><ele>560.0</ele><time>2026-05-01T10:22:05Z</time></trkpt><trkpt lat="45.7890434833542" lon="14.328896347962868"><ele>560.0</ele><time>2026-05-01T10:22:08Z</time></trkpt><trkpt lat="45.789089083928225" lon="14.328822853796659"><ele>560.0</ele><time>2026-05-01T10:22:11Z</time></trkpt><trkpt lat="45.78914784929502" lon="14.328758319439329"><ele>560.0</ele><time>2026-05-01T10:22:14Z</time></trkpt><trkpt lat="45.78919406779194" lon="14.328677625679127"><ele>560.0</ele><time>2026-05-01T10:22:17Z</time></trkpt><trkpt lat="45.789234351022216" lon="14.32860577372512"><ele>558.8</ele><time>2026-05-01T10:22:19Z</time></trkpt><trkpt lat="45.789279047556434" lon="14.328526049852428"><ele>557.6</ele><time>2026-05-01T10:22:21Z</time></trkpt><trkpt lat="45.78932891065538" lon="14.328439776289216"><ele>556.4</ele><time>2026-05-01T10:22:23Z</time></trkpt><trkpt lat="45.78939195249202" lon="14.328342004367775"><ele>555.2</ele><time>2026-05-01T10:22:25Z</time></trkpt><trkpt lat="45.789473631479886" lon="14.328232520340446"><ele>554.0</ele><time>2026-05-01T10:22:27Z</time></trkpt><trkpt lat="45.78956987036886" lon="14.32812581232022"><ele>554.0</ele><time>2026-05-01T10:22:29Z</time></trkpt><trkpt lat="45.78963834164302" lon="14.32809956814853"><ele>554.0</ele><time>2026-05-01T10:22:30Z</time></trkpt><trkpt lat="45.789714343132445" lon="14.328077434621267"><ele>554.0</ele><time>2026-05-01T10:22:31Z</time></trkpt><trkpt lat="45.789776898448494" lon="14.328051401853054"><ele>554.0</ele><time>2026-05-01T10:22:32Z</time></trkpt><trkpt lat="45.78990738004586" lon="14.328017605208828"><ele>554.0</ele><time>2026-05-01T10:22:34Z</time></trkpt><trkpt lat="45.79001408599206" lon="14.327970743826633"><ele>555.6666666666666</ele><time>2026-05-01T10:22:36Z</time></trkpt><trkpt lat="45.79010991837015" lon="14.32793742239963"><ele>557.3333333333333</ele><time>2026-05-01T10:22:38Z</time></trkpt><trkpt lat="45.790195842726455" lon="14.327893368498975"><ele>559.0</ele><time>2026-05-01T10:22:40Z</time></trkpt><trkpt lat="45.79026741925153" lon="14.327823604007666"><ele>560.6666666666666</ele><time>2026-05-01T10:22:42Z</time></trkpt><trkpt lat="45.79033200877533" lon="14.327756178217452"><ele>562.3333333333334</ele><time>2026-05-01T10:22:44Z</time></trkpt><trkpt lat="45.790390506363835" lon="14.327665153600414"><ele>564.0</ele><time>2026-05-01T10:22:46Z</time></trkpt><trkpt lat="45.79044521082674" lon="14.327582148083202"><ele>564.0</ele><time>2026-05-01T10:22:48Z</time></trkpt><trkpt lat="45.79050450501774" lon="14.327495499869102"><ele>564.0</ele><time>2026-05-01T10:22:50Z</time></trkpt><trkpt lat="45.79056136232591" lon="14.327431386385971"><ele>564.0</ele><time>2026-05-01T10:22:52Z</time></trkpt><trkpt lat="45.7906126103225" lon="14.32737675043507"><ele>564.0</ele><time>2026-05-01T10:22:54Z</time></trkpt><trkpt lat="45.79068561498394" lon="14.32729983885695"><ele>564.0</ele><time>2026-05-01T10:22:57Z</time></trkpt><trkpt lat="45.79076113788562" lon="14.327228107823007"><ele>564.0</ele><time>2026-05-01T10:23:00Z</time></trkpt><trkpt lat="45.79082784612737" lon="14.32716857494464"><ele>564.8571428571429</ele><time>2026-05-01T10:23:03Z</time></trkpt><trkpt lat="45.79090594602756" lon="14.32712462563399"><ele>565.7142857142857</ele><time>2026-05-01T10:23:06Z</time></trkpt><trkpt lat="45.79098083718052" lon="14.327097905779858"><ele>566.5714285714286</ele><time>2026-05-01T10:23:08.999Z</time></trkpt><trkpt lat="45.79104335005409" lon="14.327079524278316"><ele>567.4285714285714</ele><time>2026-05-01T10:23:12Z</time></trkpt><trkpt lat="45.791113452725" lon="14.32704145180656"><ele>568.2857142857143</ele><time>2026-05-01T10:23:15Z</time></trkpt><trkpt lat="45.79118526932379" lon="14.327014714406815"><ele>569.1428571428571</ele><time>2026-05-01T10:23:18Z</time></trkpt><trkpt lat="45.79125954666564" lon="14.327006703378173"><ele>570.0</ele><time>2026-05-01T10:23:21Z</time></trkpt><trkpt lat="45.79132713891145" lon="14.326959439957621"><ele>570.0</ele><time>2026-05-01T10:23:24Z</time></trkpt><trkpt lat="45.79138777482816" lon="14.326889403391277"><ele>570.0</ele><time>2026-05-01T10:23:27Z</time></trkpt><trkpt lat="45.791453496121996" lon="14.326808402906702"><ele>570.0</ele><time>2026-05-01T10:23:30Z</time></trkpt><trkpt lat="45.79150775952944" lon="14.326706248468353"><ele>570.0</ele><time>2026-05-01T10:23:33Z</time></trkpt><trkpt lat="45.79155013193626" lon="14.326636946075448"><ele>570.0</ele><time>2026-05-01T10:23:35Z</time></trkpt><trkpt lat="45.791598442739804" lon="14.326528936035043"><ele>570.0</ele><time>2026-05-01T10:23:38Z</time></trkpt><trkpt lat="45.79164630565059" lon="14.326416389812083"><ele>570.8</ele><time>2026-05-01T10:23:41Z</time></trkpt><trkpt lat="45.79169689144399" lon="14.326309307205042"><ele>571.6</ele><time>2026-05-01T10:23:44Z</time></trkpt><trkpt lat="45.79175300548716" lon="14.326194979472476"><ele>572.4</ele><time>2026-05-01T10:23:47Z</time></trkpt><trkpt lat="45.79180551743281" lon="14.32611074783236"><ele>573.2</ele><time>2026-05-01T10:23:49Z</time></trkpt><trkpt lat="45.79187143658101" lon="14.326032573825701"><ele>574.0</ele><time>2026-05-01T10:23:51Z</time></trkpt><trkpt lat="45.791950202086056" lon="14.325949906550024"><ele>572.8</ele><time>2026-05-01T10:23:53Z</time></trkpt><trkpt lat="45.79204130618818" lon="14.325859120705255"><ele>571.5999999999999</ele><time>2026-05-01T10:23:55Z</time></trkpt><trkpt lat="45.79211547308252" lon="14.325752954069156"><ele>570.4</ele><time>2026-05-01T10:23:57Z</time></trkpt><trkpt lat="45.79218540008074" lon="14.325640106097492"><ele>569.1999999999999</ele><time>2026-05-01T10:23:59Z</time></trkpt><trkpt lat="45.792225651901276" lon="14.325526868814578"><ele>568.0</ele><time>2026-05-01T10:24:01Z</time></trkpt><trkpt lat="45.79224858561393" lon="14.325398740990716"><ele>568.0</ele><time>2026-05-01T10:24:03Z</time></trkpt><trkpt lat="45.79227922019698" lon="14.325240558291851"><ele>568.0</ele><time>2026-05-01T10:24:05Z</time></trkpt><trkpt lat="45.792309817587835" lon="14.325087373196427"><ele>568.0</ele><time>2026-05-01T10:24:07Z</time></trkpt><trkpt lat="45.792346877767166" lon="14.32495418785353"><ele>568.0</ele><time>2026-05-01T10:24:09Z</time></trkpt><trkpt lat="45.79237823193446" lon="14.324794428016682"><ele>568.0</ele><time>2026-05-01T10:24:11Z</time></trkpt><trkpt lat="45.79244027393714" lon="14.324657633732707"><ele>567.6</ele><time>2026-05-01T10:24:13Z</time></trkpt><trkpt lat="45.792515907591564" lon="14.324544660647275"><ele>567.1999999999999</ele><time>2026-05-01T10:24:15Z</time></trkpt><trkpt lat="45.79257452196546" lon="14.324421461151724"><ele>566.8</ele><time>2026-05-01T10:24:17Z</time></trkpt><trkpt lat="45.79263658284968" lon="14.324302901179328"><ele>566.4</ele><time>2026-05-01T10:24:19Z</time></trkpt><trkpt lat="45.79268034335835" lon="14.324183859707006"><ele>566.0</ele><time>2026-05-01T10:24:21Z</time></trkpt><trkpt lat="45.792716906422754" lon="14.324074934033257"><ele>566.0</ele><time>2026-05-01T10:24:23Z</time></trkpt><trkpt lat="45.792756553606736" lon="14.323973513587013"><ele>566.0</ele><time>2026-05-01T10:24:25Z</time></trkpt><trkpt lat="45.792796223740915" lon="14.323880202738998"><ele>566.0</ele><time>2026-05-01T10:24:27Z</time></trkpt><trkpt lat="45.792839287689766" lon="14.323801304491198"><ele>566.0</ele><time>2026-05-01T10:24:29Z</time></trkpt><trkpt lat="45.79287860266973" lon="14.32371861265655"><ele>566.0</ele><time>2026-05-01T10:24:31Z</time></trkpt><trkpt lat="45.792922357191024" lon="14.32364130531396"><ele>566.0</ele><time>2026-05-01T10:24:33Z</time></trkpt><trkpt lat="45.79300151471758" lon="14.323581907063437"><ele>567.1666666666666</ele><time>2026-05-01T10:24:36Z</time></trkpt><trkpt lat="45.79305992622574" lon="14.323544570055699"><ele>568.3333333333333</ele><time>2026-05-01T10:24:38Z</time></trkpt><trkpt lat="45.793132509931496" lon="14.323518479451051"><ele>569.5</ele><time>2026-05-01T10:24:41Z</time></trkpt><trkpt lat="45.79320822100365" lon="14.323500440173063"><ele>570.6666666666666</ele><time>2026-05-01T10:24:44Z</time></trkpt><trkpt lat="45.793276169258675" lon="14.323517190929518"><ele>571.8333333333334</ele><time>2026-05-01T10:25:12Z</time></trkpt><trkpt lat="45.793341863727065" lon="14.323517190930158"><ele>573.0</ele><time>2026-05-01T10:25:17Z</time></trkpt><trkpt lat="45.79333650680518" lon="14.323337891689397"><ele>573.0</ele><time>2026-05-01T10:25:19Z</time></trkpt><trkpt lat="45.793345072743186" lon="14.323216830817303"><ele>573.0</ele><time>2026-05-01T10:25:22Z</time></trkpt><trkpt lat="45.79334852199396" lon="14.323102514033115"><ele>573.0</ele><time>2026-05-01T10:25:25Z</time></trkpt><trkpt lat="45.79336265245969" lon="14.322974623368356"><ele>573.0</ele><time>2026-05-01T10:25:28Z</time></trkpt><trkpt lat="45.79336756659502" lon="14.322884164452738"><ele>573.0</ele><time>2026-05-01T10:25:30Z</time></trkpt><trkpt lat="45.79336841470731" lon="14.322761215442762"><ele>573.0</ele><time>2026-05-01T10:25:33Z</time></trkpt><trkpt lat="45.793373044179944" lon="14.322638562974317"><ele>574.1666666666666</ele><time>2026-05-01T10:25:36Z</time></trkpt><trkpt lat="45.793372756410896" lon="14.322520133121834"><ele>575.3333333333334</ele><time>2026-05-01T10:25:39Z</time></trkpt><trkpt lat="45.793365736891765" lon="14.322405224513039"><ele>576.5</ele><time>2026-05-01T10:25:42Z</time></trkpt><trkpt lat="45.79335632853835" lon="14.322282217130583"><ele>577.6666666666667</ele><time>2026-05-01T10:25:45Z</time></trkpt><trkpt lat="45.793349868201744" lon="14.322192375296614"><ele>578.8333333333334</ele><time>2026-05-01T10:25:47Z</time></trkpt><trkpt lat="45.7933315276705" lon="14.322065282157375"><ele>580.0</ele><time>2026-05-01T10:25:50Z</time></trkpt><trkpt lat="45.79331367541428" lon="14.321958287588368"><ele>580.0</ele><time>2026-05-01T10:25:53Z</time></trkpt><trkpt lat="45.79330954849049" lon="14.321856195703344"><ele>580.0</ele><time>2026-05-01T10:25:58Z</time></trkpt><trkpt lat="45.79328459352372" lon="14.321744242291937"><ele>580.0</ele><time>2026-05-01T10:26:19Z</time></trkpt><trkpt lat="45.7932973737134" lon="14.32164873398004"><ele>580.0</ele><time>2026-05-01T10:26:24Z</time></trkpt><trkpt lat="45.793304834800146" lon="14.32153722575129"><ele>580.0</ele><time>2026-05-01T10:26:28Z</time></trkpt><trkpt lat="45.793326072281424" lon="14.321434134614927"><ele>580.0</ele><time>2026-05-01T10:26:32Z</time></trkpt><trkpt lat="45.793350061438815" lon="14.321337295356082"><ele>580.0</ele><time>2026-05-01T10:26:35Z</time></trkpt><trkpt lat="45.7933721334037" lon="14.321213553206853"><ele>581.0</ele><time>2026-05-01T10:26:38Z</time></trkpt><trkpt lat="45.79338731783969" lon="14.321108529725205"><ele>582.0</ele><time>2026-05-01T10:26:41Z</time></trkpt><trkpt lat="45.79339924890313" lon="14.320992045986637"><ele>583.0</ele><time>2026-05-01T10:26:44Z</time></trkpt><trkpt lat="45.79339370258537" lon="14.320896146794938"><ele>584.0</ele><time>2026-05-01T10:26:46Z</time></trkpt><trkpt lat="45.79338507585182" lon="14.32077062844972"><ele>585.0</ele><time>2026-05-01T10:26:48.999Z</time></trkpt><trkpt lat="45.793412264550774" lon="14.320655468863986"><ele>586.0</ele><time>2026-05-01T10:26:51.999Z</time></trkpt><trkpt lat="45.79345793434092" lon="14.320558335263666"><ele>585.3333333333334</ele><time>2026-05-01T10:26:54.999Z</time></trkpt><trkpt lat="45.79351687722261" lon="14.32048199879748"><ele>584.6666666666667</ele><time>2026-05-01T10:26:57.999Z</time></trkpt><trkpt lat="45.79356956511282" lon="14.320409698762093"><ele>584.0</ele><time>2026-05-01T10:27:00.999Z</time></trkpt><trkpt lat="45.793614754551356" lon="14.320338888072055"><ele>583.3333333333334</ele><time>2026-05-01T10:27:02.999Z</time></trkpt><trkpt lat="45.79366008871433" lon="14.320246194390863"><ele>582.6666666666666</ele><time>2026-05-01T10:27:05.999Z</time></trkpt><trkpt lat="45.793710885473395" lon="14.320151424726067"><ele>582.0</ele><time>2026-05-01T10:27:08.999Z</time></trkpt><trkpt lat="45.793764855142875" lon="14.320051563929452"><ele>582.0</ele><time>2026-05-01T10:27:11.999Z</time></trkpt><trkpt lat="45.79381900510024" lon="14.31994104388265"><ele>582.0</ele><time>2026-05-01T10:27:14.999Z</time></trkpt><trkpt lat="45.793855953695605" lon="14.31986273934507"><ele>582.0</ele><time>2026-05-01T10:27:16.999Z</time></trkpt><trkpt lat="45.79388847459339" lon="14.319751496948571"><ele>582.0</ele><time>2026-05-01T10:27:19.999Z</time></trkpt><trkpt lat="45.79391641372768" lon="14.319652762510001"><ele>582.0</ele><time>2026-05-01T10:27:22.999Z</time></trkpt><trkpt lat="45.79389265473324" lon="14.31953726759193"><ele>582.0</ele><time>2026-05-01T10:27:25.999Z</time></trkpt><trkpt lat="45.79384137144635" lon="14.319460940803369"><ele>582.5714285714286</ele><time>2026-05-01T10:27:28.999Z</time></trkpt><trkpt lat="45.79379321560606" lon="14.319400627411305"><ele>583.1428571428571</ele><time>2026-05-01T10:27:31.999Z</time></trkpt><trkpt lat="45.79373284139193" lon="14.319328277636625"><ele>583.7142857142857</ele><time>2026-05-01T10:27:35.999Z</time></trkpt><trkpt lat="45.79367403658167" lon="14.319249416583808"><ele>584.2857142857142</ele><time>2026-05-01T10:27:39.999Z</time></trkpt><trkpt lat="45.79362070959404" lon="14.319158021130411"><ele>584.8571428571429</ele><time>2026-05-01T10:27:43.999Z</time></trkpt><trkpt lat="45.79359411396609" lon="14.319055479981182"><ele>585.4285714285713</ele><time>2026-05-01T10:27:47.999Z</time></trkpt><trkpt lat="45.79358074778227" lon="14.31896224005383"><ele>586.0</ele><time>2026-05-01T10:27:50.999Z</time></trkpt><trkpt lat="45.79360812601643" lon="14.318862980608802"><ele>586.8333333333334</ele><time>2026-05-01T10:27:53.999Z</time></trkpt><trkpt lat="45.79364661588187" lon="14.318769631915286"><ele>587.6666666666667</ele><time>2026-05-01T10:27:56.999Z</time></trkpt><trkpt lat="45.7936831273256" lon="14.318688210687235"><ele>588.5</ele><time>2026-05-01T10:27:59.999Z</time></trkpt><trkpt lat="45.793720121990404" lon="14.318572308605532"><ele>589.3333333333334</ele><time>2026-05-01T10:28:02.999Z</time></trkpt><trkpt lat="45.79376394538873" lon="14.318482914144315"><ele>590.1666666666666</ele><time>2026-05-01T10:28:05.999Z</time></trkpt><trkpt lat="45.793803713467184" lon="14.318387139062343"><ele>591.0</ele><time>2026-05-01T10:28:08.999Z</time></trkpt><trkpt lat="45.79383241900667" lon="14.318293669625174"><ele>591.0</ele><time>2026-05-01T10:28:11.999Z</time></trkpt><trkpt lat="45.793882120474564" lon="14.318211445860884"><ele>591.0</ele><time>2026-05-01T10:28:14.999Z</time></trkpt><trkpt lat="45.79391895418585" lon="14.318112035962633"><ele>591.0</ele><time>2026-05-01T10:28:17.999Z</time></trkpt><trkpt lat="45.793960410387015" lon="14.31802303862067"><ele>591.0</ele><time>2026-05-01T10:28:20.999Z</time></trkpt><trkpt lat="45.79400119809747" lon="14.317928912508428"><ele>591.0</ele><time>2026-05-01T10:28:23.999Z</time></trkpt><trkpt lat="45.79404223960571" lon="14.317845843042726"><ele>591.0</ele><time>2026-05-01T10:28:26.999Z</time></trkpt><trkpt lat="45.794084543208655" lon="14.31776149614149"><ele>591.0</ele><time>2026-05-01T10:28:29.999Z</time></trkpt><trkpt lat="45.794131663134884" lon="14.317666107902337"><ele>591.0</ele><time>2026-05-01T10:28:32.999Z</time></trkpt><trkpt lat="45.79416576469458" lon="14.317575819422634"><ele>591.0</ele><time>2026-05-01T10:28:35.999Z</time></trkpt><trkpt lat="45.794213218311654" lon="14.317514551671717"><ele>591.0</ele><time>2026-05-01T10:28:38.999Z</time></trkpt><trkpt lat="45.79425958842555" lon="14.317438740452362"><ele>591.0</ele><time>2026-05-01T10:28:41.999Z</time></trkpt><trkpt lat="45.7943089890454" lon="14.3173579477952"><ele>591.0</ele><time>2026-05-01T10:28:44.999Z</time></trkpt><trkpt lat="45.79434434066049" lon="14.31727957754409"><ele>591.0</ele><time>2026-05-01T10:28:47.999Z</time></trkpt><trkpt lat="45.794395876065586" lon="14.317201430483356"><ele>591.0</ele><time>2026-05-01T10:28:50.999Z</time></trkpt><trkpt lat="45.79443438397661" lon="14.317127319643497"><ele>591.0</ele><time>2026-05-01T10:28:53.999Z</time></trkpt><trkpt lat="45.79447973085151" lon="14.317045783483897"><ele>591.0</ele><time>2026-05-01T10:28:56.999Z</time></trkpt><trkpt lat="45.79452600395011" lon="14.3169497652333"><ele>591.0</ele><time>2026-05-01T10:28:59.999Z</time></trkpt><trkpt lat="45.79456038196895" lon="14.316852913758808"><ele>591.0</ele><time>2026-05-01T10:29:02.999Z</time></trkpt><trkpt lat="45.79459616023079" lon="14.316753235498618"><ele>591.0</ele><time>2026-05-01T10:29:05.999Z</time></trkpt><trkpt lat="45.79462600805756" lon="14.316659326153754"><ele>591.0</ele><time>2026-05-01T10:29:08.999Z</time></trkpt><trkpt lat="45.794655495845156" lon="14.316569633405425"><ele>591.0</ele><time>2026-05-01T10:29:11.999Z</time></trkpt><trkpt lat="45.79468896161228" lon="14.31648541370169"><ele>591.0</ele><time>2026-05-01T10:29:14.999Z</time></trkpt><trkpt lat="45.7947181078029" lon="14.316394102734161"><ele>591.0</ele><time>2026-05-01T10:29:17.999Z</time></trkpt><trkpt lat="45.79474728591983" lon="14.316290592004362"><ele>591.0</ele><time>2026-05-01T10:29:20.999Z</time></trkpt><trkpt lat="45.79477330157997" lon="14.316199838413336"><ele>591.0</ele><time>2026-05-01T10:29:23.999Z</time></trkpt><trkpt lat="45.79481438579921" lon="14.316073558496255"><ele>591.0</ele><time>2026-05-01T10:29:26.999Z</time></trkpt><trkpt lat="45.794835925583854" lon="14.315983494827108"><ele>591.0</ele><time>2026-05-01T10:29:28.999Z</time></trkpt><trkpt lat="45.794870455633216" lon="14.315901469167983"><ele>592.1666666666666</ele><time>2026-05-01T10:29:30.999Z</time></trkpt><trkpt lat="45.79489858370268" lon="14.315816283148584"><ele>593.3333333333334</ele><time>2026-05-01T10:29:32.999Z</time></trkpt><trkpt lat="45.79492356266564" lon="14.315718362287562"><ele>594.5</ele><time>2026-05-01T10:29:34.999Z</time></trkpt><trkpt lat="45.794937928740836" lon="14.315619247521765"><ele>595.6666666666667</ele><time>2026-05-01T10:29:36.999Z</time></trkpt><trkpt lat="45.794961109439626" lon="14.31550255881168"><ele>596.8333333333334</ele><time>2026-05-01T10:29:38.999Z</time></trkpt><trkpt lat="45.794964047744855" lon="14.315390590942377"><ele>598.0</ele><time>2026-05-01T10:29:40.999Z</time></trkpt><trkpt lat="45.794982316232236" lon="14.315263911711812"><ele>598.1666666666667</ele><time>2026-05-01T10:29:42.999Z</time></trkpt><trkpt lat="45.79499717137782" lon="14.315146404981556"><ele>598.3333333333334</ele><time>2026-05-01T10:29:44.999Z</time></trkpt><trkpt lat="45.79502282629676" lon="14.31503708336292"><ele>598.5</ele><time>2026-05-01T10:29:46.999Z</time></trkpt><trkpt lat="45.7950511823438" lon="14.314922824270376"><ele>598.6666666666666</ele><time>2026-05-01T10:29:48.999Z</time></trkpt><trkpt lat="45.79508764217476" lon="14.314805697255013"><ele>598.8333333333333</ele><time>2026-05-01T10:29:50.999Z</time></trkpt><trkpt lat="45.79512536361272" lon="14.314695837443127"><ele>599.0</ele><time>2026-05-01T10:29:52.999Z</time></trkpt><trkpt lat="45.795166971987975" lon="14.31459542234904"><ele>597.5</ele><time>2026-05-01T10:29:54.999Z</time></trkpt><trkpt lat="45.79520840164211" lon="14.314485002538756"><ele>596.0</ele><time>2026-05-01T10:29:56.999Z</time></trkpt><trkpt lat="45.795248684778485" lon="14.314376212615281"><ele>594.5</ele><time>2026-05-01T10:29:58.999Z</time></trkpt><trkpt lat="45.7952731052181" lon="14.31425987941266"><ele>593.0</ele><time>2026-05-01T10:30:00.999Z</time></trkpt><trkpt lat="45.795283918900324" lon="14.314156940744281"><ele>591.5</ele><time>2026-05-01T10:30:02.999Z</time></trkpt><trkpt lat="45.7952970860804" lon="14.31405592406923"><ele>590.0</ele><time>2026-05-01T10:30:04.999Z</time></trkpt><trkpt lat="45.795305516136544" lon="14.313931982419327"><ele>590.0</ele><time>2026-05-01T10:30:06.999Z</time></trkpt><trkpt lat="45.79531665782223" lon="14.313814121161581"><ele>590.0</ele><time>2026-05-01T10:30:08.999Z</time></trkpt><trkpt lat="45.795316047416144" lon="14.313681770900796"><ele>590.0</ele><time>2026-05-01T10:30:10.999Z</time></trkpt><trkpt lat="45.795322844409185" lon="14.313560544006977"><ele>590.0</ele><time>2026-05-01T10:30:12.999Z</time></trkpt><trkpt lat="45.7953293697064" lon="14.31343722921093"><ele>590.0</ele><time>2026-05-01T10:30:14.999Z</time></trkpt><trkpt lat="45.795356629010385" lon="14.313317375085893"><ele>590.0</ele><time>2026-05-01T10:30:16.999Z</time></trkpt><trkpt lat="45.795401184510865" lon="14.313213312248147"><ele>590.0</ele><time>2026-05-01T10:30:18.999Z</time></trkpt><trkpt lat="45.795466925257394" lon="14.313118781755652"><ele>590.0</ele><time>2026-05-01T10:30:20.999Z</time></trkpt><trkpt lat="45.795541161955164" lon="14.31303571655101"><ele>590.0</ele><time>2026-05-01T10:30:22.999Z</time></trkpt><trkpt lat="45.79561231251139" lon="14.312945278211105"><ele>590.0</ele><time>2026-05-01T10:30:24.999Z</time></trkpt><trkpt lat="45.795679263003876" lon="14.312863767719222"><ele>590.0</ele><time>2026-05-01T10:30:26.999Z</time></trkpt><trkpt lat="45.79571470753239" lon="14.312784640505676"><ele>590.0</ele><time>2026-05-01T10:30:28.999Z</time></trkpt><trkpt lat="45.79574418211349" lon="14.312699803392347"><ele>590.0</ele><time>2026-05-01T10:30:31.999Z</time></trkpt><trkpt lat="45.79574033164084" lon="14.312604272708487"><ele>590.0</ele><time>2026-05-01T10:38:06Z</time></trkpt><trkpt lat="45.79574432595919" lon="14.31250854850574"><ele>590.0</ele><time>2026-05-01T10:38:11Z</time></trkpt><trkpt lat="45.79598746581212" lon="14.312383439402963"><ele>590.0</ele><time>2026-05-01T10:38:13Z</time></trkpt><trkpt lat="45.79605172564876" lon="14.312317355224703"><ele>589.8571428571429</ele><time>2026-05-01T10:38:15Z</time></trkpt><trkpt lat="45.79611448318695" lon="14.312247980188873"><ele>589.7142857142858</ele><time>2026-05-01T10:38:17Z</time></trkpt><trkpt lat="45.79617535283392" lon="14.312195144846317"><ele>589.5714285714286</ele><time>2026-05-01T10:38:19Z</time></trkpt><trkpt lat="45.79623037600796" lon="14.312143600178473"><ele>589.4285714285714</ele><time>2026-05-01T10:38:21Z</time></trkpt><trkpt lat="45.79628778220768" lon="14.312079484296383"><ele>589.2857142857142</ele><time>2026-05-01T10:38:23Z</time></trkpt><trkpt lat="45.79635125144081" lon="14.31201344996533"><ele>589.1428571428571</ele><time>2026-05-01T10:38:25Z</time></trkpt><trkpt lat="45.79641821393236" lon="14.311954746559566"><ele>589.0</ele><time>2026-05-01T10:38:27Z</time></trkpt><trkpt lat="45.79649168701311" lon="14.311909887714926"><ele>589.0</ele><time>2026-05-01T10:38:29Z</time></trkpt><trkpt lat="45.796568302136215" lon="14.311881573967314"><ele>589.0</ele><time>2026-05-01T10:38:31Z</time></trkpt><trkpt lat="45.79665029491815" lon="14.311866313913464"><ele>589.0</ele><time>2026-05-01T10:38:33Z</time></trkpt><trkpt lat="45.79672942305964" lon="14.311853863197754"><ele>589.0</ele><time>2026-05-01T10:38:35Z</time></trkpt><trkpt lat="45.79680764152047" lon="14.311840753106162"><ele>589.0</ele><time>2026-05-01T10:38:37Z</time></trkpt><trkpt lat="45.79689083917193" lon="14.311823223266307"><ele>589.0</ele><time>2026-05-01T10:38:39Z</time></trkpt><trkpt lat="45.79697968236771" lon="14.31181526857661"><ele>589.2</ele><time>2026-05-01T10:38:41Z</time></trkpt><trkpt lat="45.79706696116067" lon="14.31179266475116"><ele>589.4</ele><time>2026-05-01T10:38:43Z</time></trkpt><trkpt lat="45.79717340917156" lon="14.311742882353945"><ele>589.6</ele><time>2026-05-01T10:38:45Z</time></trkpt><trkpt lat="45.7972806226612" lon="14.31166930420841"><ele>589.8</ele><time>2026-05-01T10:38:47Z</time></trkpt><trkpt lat="45.79739156504" lon="14.31158963080204"><ele>590.0</ele><time>2026-05-01T10:38:49Z</time></trkpt><trkpt lat="45.79748227185984" lon="14.311498681286233"><ele>589.6</ele><time>2026-05-01T10:38:51Z</time></trkpt><trkpt lat="45.79756509628627" lon="14.311394148638088"><ele>589.2</ele><time>2026-05-01T10:38:53Z</time></trkpt><trkpt lat="45.797643859493874" lon="14.311296939018533"><ele>588.8</ele><time>2026-05-01T10:38:55Z</time></trkpt><trkpt lat="45.79771449156066" lon="14.31118777548879"><ele>588.4</ele><time>2026-05-01T10:38:57Z</time></trkpt><trkpt lat="45.79777598997148" lon="14.311065124147781"><ele>588.0</ele><time>2026-05-01T10:38:59Z</time></trkpt><trkpt lat="45.79781660056079" lon="14.310933515596536"><ele>588.1666666666666</ele><time>2026-05-01T10:39:01Z</time></trkpt><trkpt lat="45.79785509235105" lon="14.310811417721665"><ele>588.3333333333334</ele><time>2026-05-01T10:39:03Z</time></trkpt><trkpt lat="45.79788739894974" lon="14.310702784631053"><ele>588.5</ele><time>2026-05-01T10:39:04.999Z</time></trkpt><trkpt lat="45.79791834292105" lon="14.310618433424146"><ele>588.6666666666667</ele><time>2026-05-01T10:39:06.999Z</time></trkpt><trkpt lat="45.797948892380695" lon="14.310512978238762"><ele>588.8333333333334</ele><time>2026-05-01T10:39:09.999Z</time></trkpt><trkpt lat="45.79797248279517" lon="14.310425372158733"><ele>589.0</ele><time>2026-05-01T10:39:50.999Z</time></trkpt><trkpt lat="45.79795553888303" lon="14.31031652103081"><ele>589.0</ele><time>2026-05-01T10:39:53.999Z</time></trkpt><trkpt lat="45.79795365761451" lon="14.310221450657199"><ele>589.0</ele><time>2026-05-01T10:39:55.999Z</time></trkpt><trkpt lat="45.79795519249709" lon="14.31011868333835"><ele>589.0</ele><time>2026-05-01T10:39:58Z</time></trkpt><trkpt lat="45.79794747428399" lon="14.310004437297483"><ele>589.0</ele><time>2026-05-01T10:40:01Z</time></trkpt><trkpt lat="45.797935916441006" lon="14.309913376836269"><ele>589.0</ele><time>2026-05-01T10:40:03Z</time></trkpt><trkpt lat="45.797936214002796" lon="14.309819751157269"><ele>589.0</ele><time>2026-05-01T10:40:05Z</time></trkpt><trkpt lat="45.79790570086487" lon="14.309703603804696"><ele>589.0</ele><time>2026-05-01T10:40:08Z</time></trkpt><trkpt lat="45.7978323542168" lon="14.309626250961927"><ele>588.0</ele><time>2026-05-01T10:40:11Z</time></trkpt><trkpt lat="45.797770272333864" lon="14.309575500358992"><ele>587.0</ele><time>2026-05-01T10:40:13Z</time></trkpt><trkpt lat="45.79770845235266" lon="14.309530360633868"><ele>586.0</ele><time>2026-05-01T10:40:15Z</time></trkpt><trkpt lat="45.79762975927355" lon="14.309497613457589"><ele>585.0</ele><time>2026-05-01T10:40:18Z</time></trkpt><trkpt lat="45.79756344416002" lon="14.309458846316955"><ele>584.0</ele><time>2026-05-01T10:40:20Z</time></trkpt><trkpt lat="45.79749808483721" lon="14.309387255550835"><ele>583.0</ele><time>2026-05-01T10:40:22Z</time></trkpt><trkpt lat="45.797429017836876" lon="14.309305984625285"><ele>582.5</ele><time>2026-05-01T10:40:24Z</time></trkpt><trkpt lat="45.79733607835989" lon="14.309269160283646"><ele>582.0</ele><time>2026-05-01T10:40:26Z</time></trkpt><trkpt lat="45.79725764209984" lon="14.309230956235032"><ele>581.5</ele><time>2026-05-01T10:40:28Z</time></trkpt><trkpt lat="45.79720354107563" lon="14.309158709656495"><ele>581.0</ele><time>2026-05-01T10:40:30Z</time></trkpt><trkpt lat="45.797160177899734" lon="14.309044693551403"><ele>580.5</ele><time>2026-05-01T10:40:33Z</time></trkpt><trkpt lat="45.797121373067526" lon="14.308926997720183"><ele>580.0</ele><time>2026-05-01T10:40:36Z</time></trkpt><trkpt lat="45.79710726474374" lon="14.308804651735812"><ele>579.8333333333334</ele><time>2026-05-01T10:40:39Z</time></trkpt><trkpt lat="45.79709072007206" lon="14.308687092189423"><ele>579.6666666666667</ele><time>2026-05-01T10:40:41Z</time></trkpt><trkpt lat="45.79705658320902" lon="14.308574989360412"><ele>579.5</ele><time>2026-05-01T10:40:43Z</time></trkpt><trkpt lat="45.797018371041446" lon="14.308470704431052"><ele>579.3333333333334</ele><time>2026-05-01T10:40:45Z</time></trkpt><trkpt lat="45.79695788396269" lon="14.308372534523714"><ele>579.1666666666666</ele><time>2026-05-01T10:40:47Z</time></trkpt><trkpt lat="45.7968948147604" lon="14.30831438535313"><ele>579.0</ele><time>2026-05-01T10:40:49Z</time></trkpt><trkpt lat="45.79684098640018" lon="14.308262358571392"><ele>579.8333333333334</ele><time>2026-05-01T10:40:51Z</time></trkpt><trkpt lat="45.79677665116911" lon="14.3081778197335"><ele>580.6666666666666</ele><time>2026-05-01T10:40:54Z</time></trkpt><trkpt lat="45.79672247914872" lon="14.308119859164266"><ele>581.5</ele><time>2026-05-01T10:40:57Z</time></trkpt><trkpt lat="45.79664870102043" lon="14.308056572027947"><ele>582.3333333333333</ele><time>2026-05-01T10:41:01Z</time></trkpt><trkpt lat="45.79656992738249" lon="14.308017613858997"><ele>583.1666666666666</ele><time>2026-05-01T10:41:04Z</time></trkpt><trkpt lat="45.79649746451599" lon="14.307977292207111"><ele>584.0</ele><time>2026-05-01T10:41:06Z</time></trkpt><trkpt lat="45.79642928258305" lon="14.307954957830518"><ele>584.3333333333333</ele><time>2026-05-01T10:41:09Z</time></trkpt><trkpt lat="45.79635066030414" lon="14.30796521129557"><ele>584.6666666666666</ele><time>2026-05-01T10:41:12Z</time></trkpt><trkpt lat="45.79625932544647" lon="14.307964703514026"><ele>585.0</ele><time>2026-05-01T10:41:14.999Z</time></trkpt><trkpt lat="45.79619815934122" lon="14.307933330128103"><ele>585.3333333333334</ele><time>2026-05-01T10:41:16.999Z</time></trkpt><trkpt lat="45.79614056878632" lon="14.30785823733992"><ele>585.6666666666667</ele><time>2026-05-01T10:41:20.999Z</time></trkpt><trkpt lat="45.796094469265235" lon="14.30778350443634"><ele>586.0</ele><time>2026-05-01T10:41:53.999Z</time></trkpt><trkpt lat="45.79601192812165" lon="14.307725177151413"><ele>586.3333333333334</ele><time>2026-05-01T10:41:56.999Z</time></trkpt><trkpt lat="45.79595013489015" lon="14.307687488397178"><ele>586.6666666666667</ele><time>2026-05-01T10:41:58.999Z</time></trkpt><trkpt lat="45.79588307460952" lon="14.30762257632261"><ele>587.0</ele><time>2026-05-01T10:42:00.999Z</time></trkpt><trkpt lat="45.795818893901604" lon="14.307523780595547"><ele>587.3333333333334</ele><time>2026-05-01T10:42:03Z</time></trkpt><trkpt lat="45.79574339443527" lon="14.307442550859925"><ele>587.6666666666666</ele><time>2026-05-01T10:42:05Z</time></trkpt><trkpt lat="45.795680545135944" lon="14.30737041398761"><ele>588.0</ele><time>2026-05-01T10:42:07Z</time></trkpt><trkpt lat="45.79560727711069" lon="14.30729721892723"><ele>587.4285714285714</ele><time>2026-05-01T10:42:10Z</time></trkpt><trkpt lat="45.795564939010944" lon="14.307222599566634"><ele>586.8571428571429</ele><time>2026-05-01T10:42:12Z</time></trkpt><trkpt lat="45.795515530327336" lon="14.307151674609388"><ele>586.2857142857142</ele><time>2026-05-01T10:42:14Z</time></trkpt><trkpt lat="45.795453876685414" lon="14.307111153125067"><ele>585.7142857142858</ele><time>2026-05-01T10:42:17Z</time></trkpt><trkpt lat="45.79540282943209" lon="14.30704207204604"><ele>585.1428571428571</ele><time>2026-05-01T10:42:45Z</time></trkpt><trkpt lat="45.7953853716868" lon="14.306944032642626"><ele>584.5714285714286</ele><time>2026-05-01T10:42:47Z</time></trkpt><trkpt lat="45.79536624223315" lon="14.306801782733793"><ele>584.0</ele><time>2026-05-01T10:42:50Z</time></trkpt><trkpt lat="45.795355557172634" lon="14.306698272816297"><ele>584.0</ele><time>2026-05-01T10:42:52Z</time></trkpt><trkpt lat="45.79534275301557" lon="14.306599412957247"><ele>584.0</ele><time>2026-05-01T10:42:54Z</time></trkpt><trkpt lat="45.79530546454844" lon="14.306476600776541"><ele>584.0</ele><time>2026-05-01T10:42:57Z</time></trkpt><trkpt lat="45.795285388107075" lon="14.306368023285062"><ele>584.0</ele><time>2026-05-01T10:43:00Z</time></trkpt><trkpt lat="45.79523911001091" lon="14.306265428208716"><ele>584.0</ele><time>2026-05-01T10:43:03Z</time></trkpt><trkpt lat="45.79518839213275" lon="14.30618380624842"><ele>584.0</ele><time>2026-05-01T10:43:06Z</time></trkpt><trkpt lat="45.795137019208774" lon="14.306091457600647"><ele>584.0</ele><time>2026-05-01T10:43:09Z</time></trkpt><trkpt lat="45.79507400546461" lon="14.30599769458751"><ele>584.0</ele><time>2026-05-01T10:43:12Z</time></trkpt><trkpt lat="45.794997576668415" lon="14.30593483013231"><ele>584.0</ele><time>2026-05-01T10:43:15Z</time></trkpt><trkpt lat="45.79496314169646" lon="14.305834204117769"><ele>584.0</ele><time>2026-05-01T10:43:18Z</time></trkpt><trkpt lat="45.794899669794155" lon="14.305735330964481"><ele>584.0</ele><time>2026-05-01T10:43:21Z</time></trkpt><trkpt lat="45.79486069681902" lon="14.305619927591428"><ele>584.0</ele><time>2026-05-01T10:43:24Z</time></trkpt><trkpt lat="45.79481491523949" lon="14.30550709162201"><ele>584.0</ele><time>2026-05-01T10:43:27Z</time></trkpt><trkpt lat="45.79477291716974" lon="14.305403452298142"><ele>584.0</ele><time>2026-05-01T10:43:29.999Z</time></trkpt><trkpt lat="45.79472920941186" lon="14.305323450782383"><ele>584.0</ele><time>2026-05-01T10:43:31.999Z</time></trkpt><trkpt lat="45.79467555343908" lon="14.30522327644312"><ele>584.0</ele><time>2026-05-01T10:43:33.999Z</time></trkpt><trkpt lat="45.794612294150724" lon="14.305143160987823"><ele>584.0</ele><time>2026-05-01T10:43:36.999Z</time></trkpt><trkpt lat="45.79459381193376" lon="14.305023910003449"><ele>584.0</ele><time>2026-05-01T10:43:40.999Z</time></trkpt><trkpt lat="45.794601839257105" lon="14.304911004176612"><ele>584.0</ele><time>2026-05-01T10:43:43.999Z</time></trkpt><trkpt lat="45.79461319927224" lon="14.304783682366876"><ele>584.0</ele><time>2026-05-01T10:43:47.999Z</time></trkpt><trkpt lat="45.79464425277651" lon="14.304653303605885"><ele>584.0</ele><time>2026-05-01T10:43:50.999Z</time></trkpt><trkpt lat="45.79461723825891" lon="14.304528171811521"><ele>584.0</ele><time>2026-05-01T10:43:53.999Z</time></trkpt><trkpt lat="45.794608115614324" lon="14.304418501981605"><ele>584.0</ele><time>2026-05-01T10:43:56.999Z</time></trkpt><trkpt lat="45.794565532509885" lon="14.3043274170471"><ele>584.0</ele><time>2026-05-01T10:43:59.999Z</time></trkpt><trkpt lat="45.79452958121106" lon="14.304251396720483"><ele>584.2857142857142</ele><time>2026-05-01T10:44:01.999Z</time></trkpt><trkpt lat="45.79448230294672" lon="14.304190456991373"><ele>584.5714285714286</ele><time>2026-05-01T10:44:04.999Z</time></trkpt><trkpt lat="45.79444987380386" lon="14.304105784941953"><ele>584.8571428571429</ele><time>2026-05-01T10:44:14Z</time></trkpt><trkpt lat="45.794410252336114" lon="14.304030600294272"><ele>585.1428571428571</ele><time>2026-05-01T10:44:49Z</time></trkpt><trkpt lat="45.79435417244125" lon="14.303976372373477"><ele>585.4285714285714</ele><time>2026-05-01T10:44:52Z</time></trkpt><trkpt lat="45.79429781550546" lon="14.303934717802528"><ele>585.7142857142857</ele><time>2026-05-01T10:44:55Z</time></trkpt><trkpt lat="45.79421695702955" lon="14.30390619451214"><ele>586.0</ele><time>2026-05-01T10:44:58Z</time></trkpt><trkpt lat="45.79414956274058" lon="14.30388568342412"><ele>583.8333333333334</ele><time>2026-05-01T10:45:00Z</time></trkpt><trkpt lat="45.7940725106278" lon="14.30382006853514"><ele>581.6666666666667</ele><time>2026-05-01T10:45:03Z</time></trkpt><trkpt lat="45.79400681805338" lon="14.30373801974778"><ele>579.5</ele><time>2026-05-01T10:45:06Z</time></trkpt><trkpt lat="45.79395337557544" lon="14.303678980911886"><ele>577.3333333333334</ele><time>2026-05-01T10:45:08Z</time></trkpt><trkpt lat="45.79389402673304" lon="14.303594279731236"><ele>575.1666666666666</ele><time>2026-05-01T10:45:10Z</time></trkpt><trkpt lat="45.79384712399516" lon="14.3035089969207"><ele>573.0</ele><time>2026-05-01T10:45:12Z</time></trkpt><trkpt lat="45.793793491910684" lon="14.303452532574791"><ele>573.0</ele><time>2026-05-01T10:45:14Z</time></trkpt><trkpt lat="45.79373682789345" lon="14.303382242850281"><ele>573.0</ele><time>2026-05-01T10:45:16Z</time></trkpt><trkpt lat="45.7936788703974" lon="14.303331015179195"><ele>573.0</ele><time>2026-05-01T10:45:18Z</time></trkpt><trkpt lat="45.793647606376304" lon="14.303242476269553"><ele>573.0</ele><time>2026-05-01T10:45:20Z</time></trkpt><trkpt lat="45.793607521807424" lon="14.303135828566102"><ele>573.0</ele><time>2026-05-01T10:45:23Z</time></trkpt><trkpt lat="45.79355024478991" lon="14.303052172448538"><ele>573.0</ele><time>2026-05-01T10:45:25Z</time></trkpt><trkpt lat="45.793472343604726" lon="14.302955396242808"><ele>571.8333333333334</ele><time>2026-05-01T10:45:28Z</time></trkpt><trkpt lat="45.79340771813599" lon="14.30290795101125"><ele>570.6666666666666</ele><time>2026-05-01T10:45:48.999Z</time></trkpt><trkpt lat="45.79334468549389" lon="14.302847271024254"><ele>569.5</ele><time>2026-05-01T10:45:51.999Z</time></trkpt><trkpt lat="45.793300113656215" lon="14.30276907878821"><ele>568.3333333333333</ele><time>2026-05-01T10:45:53.999Z</time></trkpt><trkpt lat="45.793233516156604" lon="14.302709599015929"><ele>567.1666666666666</ele><time>2026-05-01T10:45:56.999Z</time></trkpt><trkpt lat="45.79316645953658" lon="14.302707205215912"><ele>566.0</ele><time>2026-05-01T10:45:58.999Z</time></trkpt><trkpt lat="45.79307427387965" lon="14.30271787704193"><ele>566.0</ele><time>2026-05-01T10:46:00.999Z</time></trkpt><trkpt lat="45.79300035057962" lon="14.302681995395158"><ele>566.0</ele><time>2026-05-01T10:46:02.999Z</time></trkpt><trkpt lat="45.79292966156727" lon="14.302653100975672"><ele>566.0</ele><time>2026-05-01T10:46:05.999Z</time></trkpt><trkpt lat="45.792857541564835" lon="14.30266120467716"><ele>566.0</ele><time>2026-05-01T10:46:08.999Z</time></trkpt><trkpt lat="45.79293377911986" lon="14.30265088845314"><ele>566.0</ele><time>2026-05-01T10:46:38Z</time></trkpt><trkpt lat="45.79299893511129" lon="14.302677822952079"><ele>566.0</ele><time>2026-05-01T10:46:41Z</time></trkpt><trkpt lat="45.793076107640935" lon="14.302701722215062"><ele>566.0</ele><time>2026-05-01T10:46:44Z</time></trkpt><trkpt lat="45.79316337468545" lon="14.302698122559226"><ele>566.0</ele><time>2026-05-01T10:46:47Z</time></trkpt><trkpt lat="45.79322543873731" lon="14.302679579636022"><ele>566.0</ele><time>2026-05-01T10:46:50Z</time></trkpt><trkpt lat="45.79329304600125" lon="14.302732423460423"><ele>566.0</ele><time>2026-05-01T10:46:53Z</time></trkpt><trkpt lat="45.79332668090792" lon="14.302811218979281"><ele>566.0</ele><time>2026-05-01T10:46:55Z</time></trkpt><trkpt lat="45.79339021377994" lon="14.302875974266184"><ele>566.0</ele><time>2026-05-01T10:46:58Z</time></trkpt><trkpt lat="45.793457642819234" lon="14.302842606784345"><ele>566.0</ele><time>2026-05-01T10:47:23Z</time></trkpt><trkpt lat="45.793481480253995" lon="14.302744322237107"><ele>566.0</ele><time>2026-05-01T10:47:26Z</time></trkpt><trkpt lat="45.793483818020455" lon="14.302626868332245"><ele>566.0</ele><time>2026-05-01T10:47:47Z</time></trkpt><trkpt lat="45.79345138500479" lon="14.302499733151771"><ele>566.0</ele><time>2026-05-01T10:47:50.999Z</time></trkpt><trkpt lat="45.79340994843553" lon="14.302401425338209"><ele>566.0</ele><time>2026-05-01T10:47:54.999Z</time></trkpt><trkpt lat="45.79341001617449" lon="14.302302531710948"><ele>566.0</ele><time>2026-05-01T10:47:56.999Z</time></trkpt><trkpt lat="45.7934157810283" lon="14.302454403382079"><ele>566.0</ele><time>2026-05-01T10:48:19.999Z</time></trkpt><trkpt lat="45.79345094866215" lon="14.302556977267656"><ele>566.0</ele><time>2026-05-01T10:48:23Z</time></trkpt><trkpt lat="45.79346767910922" lon="14.30266641891983"><ele>566.0</ele><time>2026-05-01T10:48:27Z</time></trkpt><trkpt lat="45.793445104289056" lon="14.30276445427669"><ele>566.0</ele><time>2026-05-01T10:48:29Z</time></trkpt><trkpt lat="45.79345532239662" lon="14.302651753401138"><ele>566.0</ele><time>2026-05-01T10:48:51Z</time></trkpt><trkpt lat="45.79343622727262" lon="14.302554865370935"><ele>566.0</ele><time>2026-05-01T10:48:54Z</time></trkpt><trkpt lat="45.79340790785435" lon="14.302468620247367"><ele>566.0</ele><time>2026-05-01T10:48:57Z</time></trkpt><trkpt lat="45.79339315352957" lon="14.302362010876816"><ele>566.0</ele><time>2026-05-01T10:48:59Z</time></trkpt><trkpt lat="45.793376514679515" lon="14.302257138501806"><ele>566.0</ele><time>2026-05-01T10:49:02Z</time></trkpt><trkpt lat="45.793327684653974" lon="14.302179053947896"><ele>566.2857142857143</ele><time>2026-05-01T10:49:06Z</time></trkpt><trkpt lat="45.793291584478624" lon="14.302103731856116"><ele>566.5714285714287</ele><time>2026-05-01T10:49:32Z</time></trkpt><trkpt lat="45.793262628244754" lon="14.302002475331493"><ele>566.8571428571429</ele><time>2026-05-01T10:49:35Z</time></trkpt><trkpt lat="45.79323977437944" lon="14.301883395393057"><ele>567.1428571428571</ele><time>2026-05-01T10:49:38Z</time></trkpt><trkpt lat="45.79320667596528" lon="14.301800482589034"><ele>567.4285714285713</ele><time>2026-05-01T10:49:42Z</time></trkpt><trkpt lat="45.79324735767198" lon="14.301882832621049"><ele>567.7142857142857</ele><time>2026-05-01T10:50:42Z</time></trkpt><trkpt lat="45.79327833303239" lon="14.301980705927697"><ele>568.0</ele><time>2026-05-01T10:50:46Z</time></trkpt><trkpt lat="45.793301398087316" lon="14.302076934431119"><ele>568.0</ele><time>2026-05-01T10:50:50Z</time></trkpt><trkpt lat="45.79334283518101" lon="14.30217040891019"><ele>568.0</ele><time>2026-05-01T10:50:54Z</time></trkpt><trkpt lat="45.793388934512855" lon="14.30226028429465"><ele>568.0</ele><time>2026-05-01T10:51:04Z</time></trkpt><trkpt lat="45.7934054257969" lon="14.30236395903667"><ele>568.0</ele><time>2026-05-01T10:52:24.999Z</time></trkpt><trkpt lat="45.79342941965442" lon="14.30247687104825"><ele>568.0</ele><time>2026-05-01T10:52:27.999Z</time></trkpt><trkpt lat="45.7934639556223" lon="14.302570283239302"><ele>568.0</ele><time>2026-05-01T10:52:29.999Z</time></trkpt><trkpt lat="45.79347475102813" lon="14.302660182966427"><ele>568.0</ele><time>2026-05-01T10:52:33Z</time></trkpt><trkpt lat="45.79345935147067" lon="14.302761137323088"><ele>567.6666666666667</ele><time>2026-05-01T10:52:36Z</time></trkpt><trkpt lat="45.79344447296677" lon="14.302863667228547"><ele>567.3333333333334</ele><time>2026-05-01T10:52:40Z</time></trkpt><trkpt lat="45.793373633516524" lon="14.302839720049285"><ele>567.0</ele><time>2026-05-01T10:52:55Z</time></trkpt><trkpt lat="45.793318298802006" lon="14.302770716684154"><ele>566.6666666666666</ele><time>2026-05-01T10:52:58Z</time></trkpt><trkpt lat="45.793246123627625" lon="14.302709258339297"><ele>566.3333333333333</ele><time>2026-05-01T10:53:01Z</time></trkpt><trkpt lat="45.79316377703867" lon="14.302713409259628"><ele>566.0</ele><time>2026-05-01T10:53:04Z</time></trkpt><trkpt lat="45.7930977622917" lon="14.302720103984358"><ele>566.0</ele><time>2026-05-01T10:53:06Z</time></trkpt><trkpt lat="45.79302913073249" lon="14.302686954996092"><ele>566.0</ele><time>2026-05-01T10:53:09Z</time></trkpt><trkpt lat="45.792933193679396" lon="14.30264446919131"><ele>566.0</ele><time>2026-05-01T10:53:12Z</time></trkpt><trkpt lat="45.7928691389041" lon="14.302668916467566"><ele>566.0</ele><time>2026-05-01T10:53:14Z</time></trkpt><trkpt lat="45.792794849153" lon="14.302713726404747"><ele>566.0</ele><time>2026-05-01T10:53:43Z</time></trkpt><trkpt lat="45.792737744498346" lon="14.302789243989132"><ele>566.0</ele><time>2026-05-01T10:53:47Z</time></trkpt><trkpt lat="45.79271048856488" lon="14.302911786303925"><ele>566.0</ele><time>2026-05-01T10:53:51Z</time></trkpt><trkpt lat="45.79271409815608" lon="14.303025673077993"><ele>566.0</ele><time>2026-05-01T10:53:54Z</time></trkpt><trkpt lat="45.79276013799463" lon="14.303117905925093"><ele>566.0</ele><time>2026-05-01T10:53:58Z</time></trkpt><trkpt lat="45.79276099363881" lon="14.30321670882451"><ele>566.0</ele><time>2026-05-01T10:54:01Z</time></trkpt><trkpt lat="45.792728560343896" lon="14.303307675426492"><ele>566.0</ele><time>2026-05-01T10:54:04Z</time></trkpt><trkpt lat="45.79269040747615" lon="14.303407623124654"><ele>566.0</ele><time>2026-05-01T10:54:10Z</time></trkpt><trkpt lat="45.792625949683284" lon="14.3034491416227"><ele>566.0</ele><time>2026-05-01T10:54:12Z</time></trkpt><trkpt lat="45.79253546740401" lon="14.303445048486177"><ele>566.0</ele><time>2026-05-01T10:54:14Z</time></trkpt><trkpt lat="45.792737744498346" lon="14.302789243989132"><ele>566.0</ele><time>2026-05-01T10:53:47Z</time></trkpt><trkpt lat="45.79271048856488" lon="14.302911786303925"><ele>566.0</ele><time>2026-05-01T10:53:51Z</time></trkpt><trkpt lat="45.79271409815608" lon="14.303025673077993"><ele>566.0</ele><time>2026-05-01T10:53:54Z</time></trkpt><trkpt lat="45.79276013799463" lon="14.303117905925093"><ele>566.0</ele><time>2026-05-01T10:53:58Z</time></trkpt><trkpt lat="45.79276099363881" lon="14.30321670882451"><ele>566.0</ele><time>2026-05-01T10:54:01Z</time></trkpt><trkpt lat="45.792728560343896" lon="14.303307675426492"><ele>566.0</ele><time>2026-05-01T10:54:04Z</time></trkpt><trkpt lat="45.79269040747615" lon="14.303407623124654"><ele>563.3333333333333</ele><time>2026-05-01T10:54:10Z</time></trkpt><trkpt lat="45.792625949683284" lon="14.3034491416227"><ele>560.6666666666666</ele><time>2026-05-01T10:54:12Z</time></trkpt><trkpt lat="45.79253546740401" lon="14.303445048486177"><ele>558.0</ele><time>2026-05-01T10:54:14Z</time></trkpt><trkpt lat="45.79245326403719" lon="14.303473863797901"><ele>555.3333333333334</ele><time>2026-05-01T10:55:10Z</time></trkpt><trkpt lat="45.7923982899165" lon="14.303544381810156"><ele>552.6666666666667</ele><time>2026-05-01T10:55:15Z</time></trkpt><trkpt lat="45.792342942418735" lon="14.30364187212065"><ele>550.0</ele><time>2026-05-01T10:55:18Z</time></trkpt><trkpt lat="45.79226696125042" lon="14.303706342244721"><ele>550.0</ele><time>2026-05-01T10:55:21Z</time></trkpt><trkpt lat="45.79219565288549" lon="14.303758961081762"><ele>550.0</ele><time>2026-05-01T10:55:24Z</time></trkpt><trkpt lat="45.79212729371061" lon="14.303808915582337"><ele>550.0</ele><time>2026-05-01T10:55:27Z</time></trkpt><trkpt lat="45.79206999077718" lon="14.3038474747415"><ele>550.0</ele><time>2026-05-01T10:55:30Z</time></trkpt><trkpt lat="45.792032012753296" lon="14.303929618198412"><ele>550.0</ele><time>2026-05-01T10:55:33Z</time></trkpt><trkpt lat="45.79204214708403" lon="14.304047566557147"><ele>550.0</ele><time>2026-05-01T10:55:36Z</time></trkpt><trkpt lat="45.79207008434356" lon="14.30412995825929"><ele>550.0</ele><time>2026-05-01T10:55:38Z</time></trkpt><trkpt lat="45.7920898489879" lon="14.304216508389057"><ele>550.5</ele><time>2026-05-01T10:55:40Z</time></trkpt><trkpt lat="45.79210857544754" lon="14.304336841601058"><ele>551.0</ele><time>2026-05-01T10:55:43Z</time></trkpt><trkpt lat="45.79212939438637" lon="14.304468773109123"><ele>551.5</ele><time>2026-05-01T10:55:46Z</time></trkpt><trkpt lat="45.792117036182546" lon="14.304562427709406"><ele>552.0</ele><time>2026-05-01T10:55:48Z</time></trkpt><trkpt lat="45.79208851686506" lon="14.304656058318185"><ele>552.5</ele><time>2026-05-01T10:55:50Z</time></trkpt><trkpt lat="45.7920351816187" lon="14.304717930301273"><ele>553.0</ele><time>2026-05-01T10:55:52Z</time></trkpt><trkpt lat="45.79197199209842" lon="14.304763524992675"><ele>553.0</ele><time>2026-05-01T10:55:54Z</time></trkpt><trkpt lat="45.791907192355495" lon="14.30478018199025"><ele>553.0</ele><time>2026-05-01T10:55:56Z</time></trkpt><trkpt lat="45.79182475314431" lon="14.304736874055648"><ele>553.0</ele><time>2026-05-01T10:55:59Z</time></trkpt><trkpt lat="45.791757905403465" lon="14.304643941535295"><ele>553.0</ele><time>2026-05-01T10:56:02Z</time></trkpt><trkpt lat="45.79171496523535" lon="14.304529259908561"><ele>553.0</ele><time>2026-05-01T10:56:05Z</time></trkpt><trkpt lat="45.79167767548283" lon="14.304439494313868"><ele>553.0</ele><time>2026-05-01T10:56:08Z</time></trkpt><trkpt lat="45.79161179142857" lon="14.304378814704986"><ele>553.0</ele><time>2026-05-01T10:56:11Z</time></trkpt><trkpt lat="45.791546615217975" lon="14.304356585198473"><ele>553.0</ele><time>2026-05-01T10:56:13Z</time></trkpt><trkpt lat="45.791460457460936" lon="14.304351241900891"><ele>553.0</ele><time>2026-05-01T10:56:16Z</time></trkpt><trkpt lat="45.79138463996427" lon="14.304338175399337"><ele>553.0</ele><time>2026-05-01T10:56:19Z</time></trkpt><trkpt lat="45.791304447826455" lon="14.304319379360837"><ele>553.0</ele><time>2026-05-01T10:56:22Z</time></trkpt><trkpt lat="45.79123321973883" lon="14.304290001730626"><ele>553.0</ele><time>2026-05-01T10:56:25Z</time></trkpt><trkpt lat="45.79115077781391" lon="14.304274978995714"><ele>553.0</ele><time>2026-05-01T10:56:28Z</time></trkpt><trkpt lat="45.79108822881532" lon="14.30423206403139"><ele>553.0</ele><time>2026-05-01T10:56:31Z</time></trkpt><trkpt lat="45.79101542954827" lon="14.304165466666232"><ele>553.0</ele><time>2026-05-01T10:56:34Z</time></trkpt><trkpt lat="45.79094797018668" lon="14.304116329153489"><ele>553.0</ele><time>2026-05-01T10:56:37Z</time></trkpt><trkpt lat="45.790877582073776" lon="14.30406656852131"><ele>553.0</ele><time>2026-05-01T10:56:40Z</time></trkpt><trkpt lat="45.79079793533468" lon="14.304014768212683"><ele>553.0</ele><time>2026-05-01T10:56:43Z</time></trkpt><trkpt lat="45.79073233236431" lon="14.303960193300751"><ele>552.8571428571429</ele><time>2026-05-01T10:56:46Z</time></trkpt><trkpt lat="45.790653578098414" lon="14.303915168879389"><ele>552.7142857142858</ele><time>2026-05-01T10:56:50Z</time></trkpt><trkpt lat="45.790583749067245" lon="14.303881900292469"><ele>552.5714285714286</ele><time>2026-05-01T10:56:53Z</time></trkpt><trkpt lat="45.79052411447384" lon="14.303852890500952"><ele>552.4285714285714</ele><time>2026-05-01T10:56:56Z</time></trkpt><trkpt lat="45.79046144174225" lon="14.303829916285707"><ele>552.2857142857143</ele><time>2026-05-01T10:57:00Z</time></trkpt><trkpt lat="45.79048674444371" lon="14.303926128106227"><ele>552.1428571428571</ele><time>2026-05-01T10:57:41Z</time></trkpt><trkpt lat="45.7904733327265" lon="14.304019116265877"><ele>552.0</ele><time>2026-05-01T10:58:01Z</time></trkpt><trkpt lat="45.790510605643014" lon="14.304096750345758"><ele>552.0</ele><time>2026-05-01T10:58:05Z</time></trkpt><trkpt lat="45.79056150353268" lon="14.304168192639274"><ele>552.0</ele><time>2026-05-01T10:58:09Z</time></trkpt><trkpt lat="45.790616807958486" lon="14.304221560070177"><ele>552.0</ele><time>2026-05-01T10:58:13Z</time></trkpt><trkpt lat="45.79067687798098" lon="14.304253118146374"><ele>552.0</ele><time>2026-05-01T10:58:17Z</time></trkpt><trkpt lat="45.790742103562856" lon="14.30427599406944"><ele>552.0</ele><time>2026-05-01T10:58:21Z</time></trkpt><trkpt lat="45.790803817684946" lon="14.304316349734481"><ele>552.0</ele><time>2026-05-01T10:58:25Z</time></trkpt><trkpt lat="45.7908587307315" lon="14.304391329667322"><ele>552.0</ele><time>2026-05-01T10:58:30Z</time></trkpt><trkpt lat="45.790927350203106" lon="14.30444153451985"><ele>552.0</ele><time>2026-05-01T11:00:14.999Z</time></trkpt><trkpt lat="45.79100459521363" lon="14.304479938433495"><ele>552.0</ele><time>2026-05-01T11:00:17.999Z</time></trkpt><trkpt lat="45.79105848000428" lon="14.304555310723334"><ele>552.0</ele><time>2026-05-01T11:00:20.999Z</time></trkpt><trkpt lat="45.79110721892534" lon="14.304629459841905"><ele>552.0</ele><time>2026-05-01T11:00:24.999Z</time></trkpt><trkpt lat="45.791171612136964" lon="14.304586736300013"><ele>552.0</ele><time>2026-05-01T11:01:28.999Z</time></trkpt><trkpt lat="45.79124824380758" lon="14.304623494380467"><ele>552.0</ele><time>2026-05-01T11:01:32.999Z</time></trkpt><trkpt lat="45.791341694788784" lon="14.30468679244691"><ele>552.1428571428571</ele><time>2026-05-01T11:01:36.999Z</time></trkpt><trkpt lat="45.79140209539238" lon="14.304733904212247"><ele>552.2857142857143</ele><time>2026-05-01T11:01:38.999Z</time></trkpt><trkpt lat="45.791457477009" lon="14.304779014610496"><ele>552.4285714285714</ele><time>2026-05-01T11:01:40.999Z</time></trkpt><trkpt lat="45.791515953146394" lon="14.30482215136227"><ele>552.5714285714286</ele><time>2026-05-01T11:01:42.999Z</time></trkpt><trkpt lat="45.79157910240803" lon="14.304911960881938"><ele>552.7142857142858</ele><time>2026-05-01T11:01:45.999Z</time></trkpt><trkpt lat="45.79161686608951" lon="14.30498532730893"><ele>552.8571428571429</ele><time>2026-05-01T11:01:47.999Z</time></trkpt><trkpt lat="45.79166288485394" lon="14.305069398188625"><ele>553.0</ele><time>2026-05-01T11:01:50.999Z</time></trkpt><trkpt lat="45.7916919301435" lon="14.305155551520578"><ele>553.5714285714286</ele><time>2026-05-01T11:01:54.999Z</time></trkpt><trkpt lat="45.79171221544197" lon="14.305252057365117"><ele>554.1428571428571</ele><time>2026-05-01T11:02:00.999Z</time></trkpt><trkpt lat="45.791672758882335" lon="14.305322942513289"><ele>554.7142857142858</ele><time>2026-05-01T11:02:33.999Z</time></trkpt><trkpt lat="45.7916449614476" lon="14.305405726503164"><ele>555.2857142857142</ele><time>2026-05-01T11:02:38.999Z</time></trkpt><trkpt lat="45.79162376230609" lon="14.305504076352355"><ele>555.8571428571429</ele><time>2026-05-01T11:02:41.999Z</time></trkpt><trkpt lat="45.79159744423428" lon="14.305592916435984"><ele>556.4285714285714</ele><time>2026-05-01T11:02:44.999Z</time></trkpt><trkpt lat="45.791560248600874" lon="14.30567176687689"><ele>557.0</ele><time>2026-05-01T11:02:49.999Z</time></trkpt><trkpt lat="45.79158856668758" lon="14.305766905443148"><ele>557.4285714285714</ele><time>2026-05-01T11:02:54.999Z</time></trkpt><trkpt lat="45.79159034222675" lon="14.305871831320799"><ele>557.8571428571429</ele><time>2026-05-01T11:02:58.999Z</time></trkpt><trkpt lat="45.79155939925333" lon="14.305971159978673"><ele>558.2857142857142</ele><time>2026-05-01T11:03:25Z</time></trkpt><trkpt lat="45.79157484222146" lon="14.306061232671507"><ele>558.7142857142858</ele><time>2026-05-01T11:03:59.999Z</time></trkpt><trkpt lat="45.79162438624733" lon="14.306131223333528"><ele>559.1428571428571</ele><time>2026-05-01T11:05:37.999Z</time></trkpt><trkpt lat="45.79169217900814" lon="14.306126208206821"><ele>559.5714285714286</ele><time>2026-05-01T11:05:46.999Z</time></trkpt><trkpt lat="45.79166382798233" lon="14.306227492655404"><ele>560.0</ele><time>2026-05-01T11:06:06.999Z</time></trkpt><trkpt lat="45.79169033928207" lon="14.306140593000356"><ele>560.0</ele><time>2026-05-01T11:06:52.999Z</time></trkpt><trkpt lat="45.79163405656799" lon="14.306051302088232"><ele>560.0</ele><time>2026-05-01T11:07:19Z</time></trkpt><trkpt lat="45.7915286621428" lon="14.306054415696913"><ele>560.0</ele><time>2026-05-01T11:08:32.999Z</time></trkpt><trkpt lat="45.791596604037984" lon="14.305966069669799"><ele>560.0</ele><time>2026-05-01T11:12:28Z</time></trkpt><trkpt lat="45.79156946941991" lon="14.305870080752648"><ele>560.0</ele><time>2026-05-01T11:12:37.999Z</time></trkpt><trkpt lat="45.791576941271295" lon="14.305776537177469"><ele>560.0</ele><time>2026-05-01T11:12:46.999Z</time></trkpt><trkpt lat="45.79155106548863" lon="14.305680094244009"><ele>559.5</ele><time>2026-05-01T11:12:54.999Z</time></trkpt><trkpt lat="45.79156331742983" lon="14.305573356070513"><ele>559.0</ele><time>2026-05-01T11:14:28Z</time></trkpt><trkpt lat="45.79160365948126" lon="14.305490636604786"><ele>558.5</ele><time>2026-05-01T11:14:31Z</time></trkpt><trkpt lat="45.79162960890852" lon="14.305400450760372"><ele>558.0</ele><time>2026-05-01T11:14:35Z</time></trkpt><trkpt lat="45.79167542538592" lon="14.305307489266726"><ele>557.5</ele><time>2026-05-01T11:14:38Z</time></trkpt><trkpt lat="45.7917088798451" lon="14.30522258392433"><ele>557.0</ele><time>2026-05-01T11:16:01Z</time></trkpt><trkpt lat="45.791676032846034" lon="14.305104858763743"><ele>557.0</ele><time>2026-05-01T11:16:06Z</time></trkpt><trkpt lat="45.791646016988786" lon="14.305016469225238"><ele>557.0</ele><time>2026-05-01T11:16:08Z</time></trkpt><trkpt lat="45.79158938930325" lon="14.304924493060229"><ele>557.0</ele><time>2026-05-01T11:16:10Z</time></trkpt><trkpt lat="45.79153203678277" lon="14.304845573205858"><ele>557.0</ele><time>2026-05-01T11:16:12Z</time></trkpt><trkpt lat="45.79144615529555" lon="14.3047698357031"><ele>557.0</ele><time>2026-05-01T11:16:15Z</time></trkpt><trkpt lat="45.79138437199133" lon="14.304733941975183"><ele>557.0</ele><time>2026-05-01T11:16:17Z</time></trkpt><trkpt lat="45.7913127449461" lon="14.304683533133765"><ele>557.0</ele><time>2026-05-01T11:16:20Z</time></trkpt><trkpt lat="45.79124915823096" lon="14.30464503585354"><ele>557.0</ele><time>2026-05-01T11:16:23Z</time></trkpt><trkpt lat="45.79116865531902" lon="14.30461532077078"><ele>557.0</ele><time>2026-05-01T11:16:27Z</time></trkpt><trkpt lat="45.79109711160124" lon="14.304629151364612"><ele>557.0</ele><time>2026-05-01T11:16:58Z</time></trkpt><trkpt lat="45.79103902081737" lon="14.304688032172958"><ele>557.0</ele><time>2026-05-01T11:22:21Z</time></trkpt><trkpt lat="45.791003518978876" lon="14.304764945081477"><ele>557.0</ele><time>2026-05-01T11:22:24Z</time></trkpt><trkpt lat="45.790982914752846" lon="14.304866855884622"><ele>557.0</ele><time>2026-05-01T11:22:28Z</time></trkpt><trkpt lat="45.790945042059064" lon="14.304968985204338"><ele>557.0</ele><time>2026-05-01T11:22:32Z</time></trkpt><trkpt lat="45.79091971616315" lon="14.30506046702346"><ele>557.0</ele><time>2026-05-01T11:22:36Z</time></trkpt><trkpt lat="45.790888912812854" lon="14.30517160546983"><ele>557.0</ele><time>2026-05-01T11:22:40Z</time></trkpt><trkpt lat="45.790857167244255" lon="14.30526778238347"><ele>557.0</ele><time>2026-05-01T11:22:43Z</time></trkpt><trkpt lat="45.790816746195965" lon="14.305358110563182"><ele>557.0</ele><time>2026-05-01T11:22:46Z</time></trkpt><trkpt lat="45.79078302964087" lon="14.30543575163128"><ele>557.0</ele><time>2026-05-01T11:22:49Z</time></trkpt><trkpt lat="45.79072557001757" lon="14.305491529649702"><ele>557.0</ele><time>2026-05-01T11:22:52Z</time></trkpt><trkpt lat="45.79066473505275" lon="14.3055343112045"><ele>557.0</ele><time>2026-05-01T11:22:55Z</time></trkpt><trkpt lat="45.79059550876879" lon="14.305564108660356"><ele>557.0</ele><time>2026-05-01T11:22:58Z</time></trkpt><trkpt lat="45.79051634362264" lon="14.305585259291224"><ele>557.0</ele><time>2026-05-01T11:23:01Z</time></trkpt><trkpt lat="45.790442091470396" lon="14.305618276743484"><ele>557.0</ele><time>2026-05-01T11:23:04Z</time></trkpt><trkpt lat="45.79037902025476" lon="14.305659768603613"><ele>557.0</ele><time>2026-05-01T11:23:08Z</time></trkpt><trkpt lat="45.79031362242518" lon="14.305700895124957"><ele>557.0</ele><time>2026-05-01T11:23:47.999Z</time></trkpt><trkpt lat="45.790254918508886" lon="14.305745481427254"><ele>557.0</ele><time>2026-05-01T11:23:50.999Z</time></trkpt><trkpt lat="45.790188102841874" lon="14.305823798966134"><ele>558.0</ele><time>2026-05-01T11:23:53.999Z</time></trkpt><trkpt lat="45.790149749386636" lon="14.305901128732117"><ele>559.0</ele><time>2026-05-01T11:23:55.999Z</time></trkpt><trkpt lat="45.79010777248233" lon="14.30598135188594"><ele>560.0</ele><time>2026-05-01T11:23:57.999Z</time></trkpt><trkpt lat="45.79006443461006" lon="14.30607004912952"><ele>561.0</ele><time>2026-05-01T11:23:59.999Z</time></trkpt><trkpt lat="45.790034076250016" lon="14.306160854920366"><ele>562.0</ele><time>2026-05-01T11:24:02Z</time></trkpt><trkpt lat="45.790003414268696" lon="14.306249317685864"><ele>563.0</ele><time>2026-05-01T11:24:04Z</time></trkpt><trkpt lat="45.78998148225757" lon="14.306335125955622"><ele>564.0</ele><time>2026-05-01T11:24:06Z</time></trkpt><trkpt lat="45.79000443599859" lon="14.306457405153948"><ele>564.5</ele><time>2026-05-01T11:24:09Z</time></trkpt><trkpt lat="45.79005534008837" lon="14.306548294793224"><ele>565.0</ele><time>2026-05-01T11:24:12Z</time></trkpt><trkpt lat="45.790124606845254" lon="14.306616078126229"><ele>565.5</ele><time>2026-05-01T11:24:15Z</time></trkpt><trkpt lat="45.79019639874803" lon="14.306656962628807"><ele>566.0</ele><time>2026-05-01T11:24:18Z</time></trkpt><trkpt lat="45.79027149057397" lon="14.306705990165703"><ele>566.5</ele><time>2026-05-01T11:24:21Z</time></trkpt><trkpt lat="45.79035846240788" lon="14.306766968591358"><ele>567.0</ele><time>2026-05-01T11:24:24Z</time></trkpt><trkpt lat="45.79041229227072" lon="14.306844283979974"><ele>567.1666666666666</ele><time>2026-05-01T11:24:26Z</time></trkpt><trkpt lat="45.79046486988776" lon="14.306932775539062"><ele>567.3333333333334</ele><time>2026-05-01T11:24:28Z</time></trkpt><trkpt lat="45.79052086094037" lon="14.307037729251501"><ele>567.5</ele><time>2026-05-01T11:24:30Z</time></trkpt><trkpt lat="45.79057841123978" lon="14.30711075727194"><ele>567.6666666666667</ele><time>2026-05-01T11:24:32Z</time></trkpt><trkpt lat="45.79063158643016" lon="14.30716629601782"><ele>567.8333333333334</ele><time>2026-05-01T11:24:34Z</time></trkpt><trkpt lat="45.79070413946876" lon="14.30723899155723"><ele>568.0</ele><time>2026-05-01T11:24:37Z</time></trkpt><trkpt lat="45.79078140377961" lon="14.30731017191181"><ele>568.6666666666667</ele><time>2026-05-01T11:24:40Z</time></trkpt><trkpt lat="45.7908512401796" lon="14.30735881658227"><ele>569.3333333333334</ele><time>2026-05-01T11:24:42Z</time></trkpt><trkpt lat="45.790942415189726" lon="14.307421789057686"><ele>570.0</ele><time>2026-05-01T11:24:44Z</time></trkpt><trkpt lat="45.791026984571495" lon="14.30748428857939"><ele>570.6666666666666</ele><time>2026-05-01T11:24:46Z</time></trkpt><trkpt lat="45.79110771633205" lon="14.30752704143574"><ele>571.3333333333333</ele><time>2026-05-01T11:24:48Z</time></trkpt><trkpt lat="45.791176919299424" lon="14.307573732649734"><ele>572.0</ele><time>2026-05-01T11:24:50Z</time></trkpt><trkpt lat="45.79123448099353" lon="14.307615385383734"><ele>571.9999999999999</ele><time>2026-05-01T11:24:52Z</time></trkpt><trkpt lat="45.79129933225801" lon="14.307645555358738"><ele>572.0</ele><time>2026-05-01T11:24:54Z</time></trkpt><trkpt lat="45.79136599016971" lon="14.307673721059102"><ele>572.0</ele><time>2026-05-01T11:24:56Z</time></trkpt><trkpt lat="45.79142969981415" lon="14.30771463357953"><ele>572.0</ele><time>2026-05-01T11:24:58Z</time></trkpt><trkpt lat="45.79149351515784" lon="14.307744092284047"><ele>572.0</ele><time>2026-05-01T11:25:00Z</time></trkpt><trkpt lat="45.79155398592794" lon="14.307776015963912"><ele>571.9999999999999</ele><time>2026-05-01T11:25:02Z</time></trkpt><trkpt lat="45.79161040362542" lon="14.307817025931117"><ele>572.0</ele><time>2026-05-01T11:25:04Z</time></trkpt><trkpt lat="45.79168668600771" lon="14.307878267036426"><ele>571.9999999999999</ele><time>2026-05-01T11:25:07Z</time></trkpt><trkpt lat="45.791759498010954" lon="14.307918746792538"><ele>572.0</ele><time>2026-05-01T11:25:10Z</time></trkpt><trkpt lat="45.791826249400366" lon="14.307956787605667"><ele>572.0</ele><time>2026-05-01T11:25:13Z</time></trkpt><trkpt lat="45.79190165912732" lon="14.307970145892869"><ele>572.0</ele><time>2026-05-01T11:25:17Z</time></trkpt><trkpt lat="45.79196652743314" lon="14.30799065487813"><ele>572.0</ele><time>2026-05-01T11:25:20Z</time></trkpt><trkpt lat="45.7920440000137" lon="14.308000987368533"><ele>571.9999999999999</ele><time>2026-05-01T11:25:24Z</time></trkpt><trkpt lat="45.792116382317914" lon="14.308014043233392"><ele>572.0</ele><time>2026-05-01T11:25:28Z</time></trkpt><trkpt lat="45.79202734889934" lon="14.307962858593354"><ele>572.0</ele><time>2026-05-01T11:26:49Z</time></trkpt><trkpt lat="45.791954419837275" lon="14.307965305570757"><ele>572.0</ele><time>2026-05-01T11:26:52Z</time></trkpt><trkpt lat="45.791861437636236" lon="14.307943173080805"><ele>572.0</ele><time>2026-05-01T11:26:55Z</time></trkpt><trkpt lat="45.79179736902212" lon="14.307921715004735"><ele>572.0</ele><time>2026-05-01T11:26:57Z</time></trkpt><trkpt lat="45.791724135491876" lon="14.307881085365034"><ele>572.0</ele><time>2026-05-01T11:26:59Z</time></trkpt><trkpt lat="45.79164281653568" lon="14.307821575681066"><ele>572.0</ele><time>2026-05-01T11:27:01Z</time></trkpt><trkpt lat="45.79155489704113" lon="14.30776852563098"><ele>572.0</ele><time>2026-05-01T11:27:03Z</time></trkpt><trkpt lat="45.791440164486644" lon="14.307711971923064"><ele>572.0</ele><time>2026-05-01T11:27:05Z</time></trkpt><trkpt lat="45.791332161118994" lon="14.307654426950245"><ele>572.0</ele><time>2026-05-01T11:27:07Z</time></trkpt><trkpt lat="45.79124834245273" lon="14.307551955961607"><ele>572.0</ele><time>2026-05-01T11:27:09Z</time></trkpt><trkpt lat="45.791148586173314" lon="14.30748614386015"><ele>572.0</ele><time>2026-05-01T11:27:11Z</time></trkpt><trkpt lat="45.79104825514706" lon="14.30741995259494"><ele>572.0</ele><time>2026-05-01T11:27:13Z</time></trkpt><trkpt lat="45.790957222680476" lon="14.307358905812574"><ele>572.0</ele><time>2026-05-01T11:27:15Z</time></trkpt><trkpt lat="45.790874487090555" lon="14.307301076645592"><ele>572.0</ele><time>2026-05-01T11:27:17Z</time></trkpt><trkpt lat="45.790801562451975" lon="14.307247811709647"><ele>572.0</ele><time>2026-05-01T11:27:19Z</time></trkpt><trkpt lat="45.79074366729551" lon="14.307203170127941"><ele>571.3333333333333</ele><time>2026-05-01T11:27:21Z</time></trkpt><trkpt lat="45.790663482625945" lon="14.307132978980352"><ele>570.6666666666666</ele><time>2026-05-01T11:27:24Z</time></trkpt><trkpt lat="45.790589640908024" lon="14.307048220720414"><ele>570.0</ele><time>2026-05-01T11:27:27Z</time></trkpt><trkpt lat="45.790545443150364" lon="14.30695699864726"><ele>569.3333333333334</ele><time>2026-05-01T11:27:29Z</time></trkpt><trkpt lat="45.79048690072494" lon="14.306863542771403"><ele>568.6666666666667</ele><time>2026-05-01T11:27:31Z</time></trkpt><trkpt lat="45.79042407041925" lon="14.306773361800566"><ele>568.0</ele><time>2026-05-01T11:27:33Z</time></trkpt><trkpt lat="45.79035611548073" lon="14.306693623022358"><ele>568.0</ele><time>2026-05-01T11:27:35Z</time></trkpt><trkpt lat="45.790291985097525" lon="14.306646483440302"><ele>568.0</ele><time>2026-05-01T11:27:37Z</time></trkpt><trkpt lat="45.790211359124505" lon="14.306586448979292"><ele>568.0</ele><time>2026-05-01T11:27:40Z</time></trkpt><trkpt lat="45.79013306608684" lon="14.306528151620059"><ele>568.0</ele><time>2026-05-01T11:27:43Z</time></trkpt><trkpt lat="45.7900729962503" lon="14.306467453457087"><ele>568.0</ele><time>2026-05-01T11:27:47Z</time></trkpt><trkpt lat="45.79003295314233" lon="14.30639768022512"><ele>568.0</ele><time>2026-05-01T11:28:06Z</time></trkpt><trkpt lat="45.790075908880084" lon="14.30647182839649"><ele>568.0</ele><time>2026-05-01T11:28:34Z</time></trkpt><trkpt lat="45.7901328570944" lon="14.306527616764416"><ele>568.0</ele><time>2026-05-01T11:28:39Z</time></trkpt><trkpt lat="45.79019821777726" lon="14.306576663901303"><ele>568.0</ele><time>2026-05-01T11:28:44Z</time></trkpt><trkpt lat="45.790126991743044" lon="14.306522694066235"><ele>568.0</ele><time>2026-05-01T11:29:07Z</time></trkpt><trkpt lat="45.79006786607995" lon="14.306460548660674"><ele>568.0</ele><time>2026-05-01T11:29:10Z</time></trkpt><trkpt lat="45.79002763260007" lon="14.306382920682502"><ele>568.0</ele><time>2026-05-01T11:29:12Z</time></trkpt><trkpt lat="45.79001188398293" lon="14.306265972572549"><ele>568.0</ele><time>2026-05-01T11:29:14Z</time></trkpt><trkpt lat="45.790062510859705" lon="14.306127829878879"><ele>567.3333333333334</ele><time>2026-05-01T11:29:16Z</time></trkpt><trkpt lat="45.790112907022646" lon="14.305995973450505"><ele>566.6666666666667</ele><time>2026-05-01T11:29:18Z</time></trkpt><trkpt lat="45.79017371525067" lon="14.305889178709318"><ele>566.0</ele><time>2026-05-01T11:29:20Z</time></trkpt><trkpt lat="45.79022442042489" lon="14.305800291935018"><ele>565.3333333333334</ele><time>2026-05-01T11:29:22Z</time></trkpt><trkpt lat="45.79028191807387" lon="14.305737591223593"><ele>564.6666666666666</ele><time>2026-05-01T11:29:24Z</time></trkpt><trkpt lat="45.7903487066812" lon="14.305690707519297"><ele>564.0</ele><time>2026-05-01T11:29:26Z</time></trkpt><trkpt lat="45.79041905981723" lon="14.305670522994095"><ele>563.8333333333334</ele><time>2026-05-01T11:29:28Z</time></trkpt><trkpt lat="45.79048986579279" lon="14.305629735742315"><ele>563.6666666666666</ele><time>2026-05-01T11:29:30Z</time></trkpt><trkpt lat="45.79056178694937" lon="14.30559841869418"><ele>563.5</ele><time>2026-05-01T11:29:32Z</time></trkpt><trkpt lat="45.79063506296671" lon="14.305570691107516"><ele>563.3333333333333</ele><time>2026-05-01T11:29:34Z</time></trkpt><trkpt lat="45.79071170022925" lon="14.30553014429942"><ele>563.1666666666666</ele><time>2026-05-01T11:29:36Z</time></trkpt><trkpt lat="45.79077755406995" lon="14.30546681899004"><ele>563.0</ele><time>2026-05-01T11:29:38Z</time></trkpt><trkpt lat="45.790826169970266" lon="14.30536104704199"><ele>561.8</ele><time>2026-05-01T11:29:40Z</time></trkpt><trkpt lat="45.790878034244955" lon="14.305275797099483"><ele>560.5999999999999</ele><time>2026-05-01T11:29:42Z</time></trkpt><trkpt lat="45.79091361822312" lon="14.30512454880779"><ele>559.4000000000001</ele><time>2026-05-01T11:29:44Z</time></trkpt><trkpt lat="45.7909730753162" lon="14.30497130537305"><ele>558.2</ele><time>2026-05-01T11:29:46Z</time></trkpt><trkpt lat="45.79103822093725" lon="14.304843921105237"><ele>557.0</ele><time>2026-05-01T11:29:48Z</time></trkpt><trkpt lat="45.79105899691042" lon="14.304707798186664"><ele>556.3333333333333</ele><time>2026-05-01T11:29:50Z</time></trkpt><trkpt lat="45.79107514313547" lon="14.304563607246868"><ele>555.6666666666666</ele><time>2026-05-01T11:29:52Z</time></trkpt><trkpt lat="45.7910188247779" lon="14.30442835340919"><ele>555.0</ele><time>2026-05-01T11:29:54Z</time></trkpt><trkpt lat="45.79095170675043" lon="14.304413563845058"><ele>554.3333333333334</ele><time>2026-05-01T11:29:55Z</time></trkpt><trkpt lat="45.790891734632616" lon="14.30434479763733"><ele>553.6666666666667</ele><time>2026-05-01T11:29:57Z</time></trkpt><trkpt lat="45.79082368961976" lon="14.304321978800246"><ele>553.0</ele><time>2026-05-01T11:29:59Z</time></trkpt><trkpt lat="45.79074551410238" lon="14.304250135072522"><ele>552.8333333333334</ele><time>2026-05-01T11:30:02Z</time></trkpt><trkpt lat="45.79067631247782" lon="14.304200340457074"><ele>552.6666666666667</ele><time>2026-05-01T11:30:04Z</time></trkpt><trkpt lat="45.79060039806342" lon="14.304142801775361"><ele>552.5</ele><time>2026-05-01T11:30:06Z</time></trkpt><trkpt lat="45.79052846627287" lon="14.30407707496593"><ele>552.3333333333334</ele><time>2026-05-01T11:30:08Z</time></trkpt><trkpt lat="45.79048579906918" lon="14.304001163088017"><ele>552.1666666666666</ele><time>2026-05-01T11:30:10Z</time></trkpt><trkpt lat="45.790446127522785" lon="14.30387917077906"><ele>552.0</ele><time>2026-05-01T11:30:13Z</time></trkpt><trkpt lat="45.790411671767934" lon="14.303785699560805"><ele>550.5714285714286</ele><time>2026-05-01T11:30:15Z</time></trkpt><trkpt lat="45.79033180565655" lon="14.303795911369036"><ele>549.1428571428572</ele><time>2026-05-01T11:30:16Z</time></trkpt><trkpt lat="45.79027115772475" lon="14.303749278379868"><ele>547.7142857142858</ele><time>2026-05-01T11:30:32.001Z</time></trkpt><trkpt lat="45.790206757426766" lon="14.303709437419426"><ele>546.2857142857143</ele><time>2026-05-01T11:30:36Z</time></trkpt><trkpt lat="45.79013139641251" lon="14.303684880605699"><ele>544.8571428571429</ele><time>2026-05-01T11:30:40Z</time></trkpt><trkpt lat="45.79006704686305" lon="14.303666842538108"><ele>543.4285714285714</ele><time>2026-05-01T11:30:45Z</time></trkpt><trkpt lat="45.789988401419485" lon="14.303653904737855"><ele>542.0</ele><time>2026-05-01T11:30:52Z</time></trkpt><trkpt lat="45.78992219540232" lon="14.303643313519705"><ele>542.0</ele><time>2026-05-01T11:30:56Z</time></trkpt><trkpt lat="45.78998802829262" lon="14.303653844273791"><ele>542.0</ele><time>2026-05-01T11:31:13Z</time></trkpt><trkpt lat="45.79007582103347" lon="14.30366930206918"><ele>542.0</ele><time>2026-05-01T11:31:20Z</time></trkpt><trkpt lat="45.790142511022275" lon="14.303687996182134"><ele>542.0</ele><time>2026-05-01T11:31:24Z</time></trkpt><trkpt lat="45.79022569661823" lon="14.303716118740924"><ele>542.0</ele><time>2026-05-01T11:31:28Z</time></trkpt><trkpt lat="45.79015820173725" lon="14.303722863978425"><ele>542.0</ele><time>2026-05-01T11:32:31.001Z</time></trkpt><trkpt lat="45.790079395296274" lon="14.303716869387003"><ele>541.8333333333333</ele><time>2026-05-01T11:33:32.999Z</time></trkpt><trkpt lat="45.79000114705037" lon="14.303692836753084"><ele>541.6666666666666</ele><time>2026-05-01T11:33:35.999Z</time></trkpt><trkpt lat="45.789915037814936" lon="14.30369073591423"><ele>541.5</ele><time>2026-05-01T11:33:38.999Z</time></trkpt><trkpt lat="45.78984996322823" lon="14.303680392864237"><ele>541.3333333333334</ele><time>2026-05-01T11:33:40.999Z</time></trkpt><trkpt lat="45.78975882379254" lon="14.303679912232077"><ele>541.1666666666667</ele><time>2026-05-01T11:33:43.999Z</time></trkpt><trkpt lat="45.78967518856458" lon="14.303745217766991"><ele>541.0</ele><time>2026-05-01T11:33:46.999Z</time></trkpt><trkpt lat="45.78963289980618" lon="14.303820581188093"><ele>541.0</ele><time>2026-05-01T11:33:48.999Z</time></trkpt><trkpt lat="45.78958077093175" lon="14.303907196015986"><ele>541.0</ele><time>2026-05-01T11:33:50.999Z</time></trkpt><trkpt lat="45.789505848659175" lon="14.30397554814348"><ele>541.0</ele><time>2026-05-01T11:33:52.999Z</time></trkpt><trkpt lat="45.78942873628506" lon="14.30405180804356"><ele>541.0</ele><time>2026-05-01T11:33:54.999Z</time></trkpt><trkpt lat="45.78936406005749" lon="14.30411622921165"><ele>541.0</ele><time>2026-05-01T11:33:56.999Z</time></trkpt><trkpt lat="45.789281461381655" lon="14.304157620596822"><ele>541.0</ele><time>2026-05-01T11:33:58.999Z</time></trkpt><trkpt lat="45.78919278093316" lon="14.304189470348412"><ele>540.8333333333334</ele><time>2026-05-01T11:34:00.999Z</time></trkpt><trkpt lat="45.78911205149235" lon="14.304182503369558"><ele>540.6666666666667</ele><time>2026-05-01T11:34:02.999Z</time></trkpt><trkpt lat="45.789027024331425" lon="14.304189982845964"><ele>540.5</ele><time>2026-05-01T11:34:04.999Z</time></trkpt><trkpt lat="45.78893775582624" lon="14.304158611720718"><ele>540.3333333333334</ele><time>2026-05-01T11:34:06.999Z</time></trkpt><trkpt lat="45.78889600056506" lon="14.304086314562715"><ele>540.1666666666666</ele><time>2026-05-01T11:34:07.999Z</time></trkpt><trkpt lat="45.78886744244223" lon="14.30393568189253"><ele>540.0</ele><time>2026-05-01T11:34:09.999Z</time></trkpt><trkpt lat="45.788828656469384" lon="14.303837618580468"><ele>540.0</ele><time>2026-05-01T11:34:11.999Z</time></trkpt><trkpt lat="45.78876322767063" lon="14.303796355015102"><ele>540.0</ele><time>2026-05-01T11:34:13.999Z</time></trkpt><trkpt lat="45.78868853408001" lon="14.3037560976501"><ele>540.0</ele><time>2026-05-01T11:34:15.999Z</time></trkpt><trkpt lat="45.78860911501344" lon="14.303681814279495"><ele>540.0</ele><time>2026-05-01T11:34:17.999Z</time></trkpt><trkpt lat="45.78852557780109" lon="14.30365460751412"><ele>540.0</ele><time>2026-05-01T11:34:19.999Z</time></trkpt><trkpt lat="45.78844492960427" lon="14.303591476973606"><ele>540.0</ele><time>2026-05-01T11:34:21.999Z</time></trkpt><trkpt lat="45.788361320470315" lon="14.30352430387802"><ele>541.4</ele><time>2026-05-01T11:34:23.999Z</time></trkpt><trkpt lat="45.788307023371274" lon="14.303380788362881"><ele>542.8</ele><time>2026-05-01T11:34:25.999Z</time></trkpt><trkpt lat="45.78827225172047" lon="14.303217788159515"><ele>544.2</ele><time>2026-05-01T11:34:27.999Z</time></trkpt><trkpt lat="45.788248050715886" lon="14.303129463245803"><ele>545.6</ele><time>2026-05-01T11:34:28.999Z</time></trkpt><trkpt lat="45.788248234928815" lon="14.303038532489394"><ele>547.0</ele><time>2026-05-01T11:34:29.999Z</time></trkpt><trkpt lat="45.788241413282684" lon="14.302859744474057"><ele>544.2</ele><time>2026-05-01T11:34:32Z</time></trkpt><trkpt lat="45.788233778523335" lon="14.30270370589615"><ele>541.4000000000001</ele><time>2026-05-01T11:34:34Z</time></trkpt><trkpt lat="45.78823159664519" lon="14.302547589106167"><ele>538.5999999999999</ele><time>2026-05-01T11:34:36Z</time></trkpt><trkpt lat="45.788235178613" lon="14.30240750582342"><ele>535.8</ele><time>2026-05-01T11:34:38Z</time></trkpt><trkpt lat="45.78825267341178" lon="14.302284580290314"><ele>533.0</ele><time>2026-05-01T11:34:40Z</time></trkpt><trkpt lat="45.78830729364354" lon="14.302176702877889"><ele>532.1666666666666</ele><time>2026-05-01T11:34:42Z</time></trkpt><trkpt lat="45.78837374048174" lon="14.302050686288167"><ele>531.3333333333333</ele><time>2026-05-01T11:34:44Z</time></trkpt><trkpt lat="45.78844292512516" lon="14.30191586686807"><ele>530.5</ele><time>2026-05-01T11:34:46Z</time></trkpt><trkpt lat="45.78848561700355" lon="14.301840763838051"><ele>529.6666666666666</ele><time>2026-05-01T11:34:48Z</time></trkpt><trkpt lat="45.788497677631625" lon="14.301750694627716"><ele>528.8333333333334</ele><time>2026-05-01T11:36:32.999Z</time></trkpt><trkpt lat="45.788502479999" lon="14.30165553484036"><ele>528.0</ele><time>2026-05-01T11:36:38Z</time></trkpt><trkpt lat="45.78851771051636" lon="14.301541071252478"><ele>528.4</ele><time>2026-05-01T11:36:41Z</time></trkpt><trkpt lat="45.788527269727055" lon="14.301449716572348"><ele>528.8</ele><time>2026-05-01T11:36:43Z</time></trkpt><trkpt lat="45.78854501793223" lon="14.301343442585024"><ele>529.2</ele><time>2026-05-01T11:36:45Z</time></trkpt><trkpt lat="45.78854638785179" lon="14.301216508636497"><ele>529.6</ele><time>2026-05-01T11:36:47Z</time></trkpt><trkpt lat="45.78852610312965" lon="14.301063739201869"><ele>530.0</ele><time>2026-05-01T11:36:49Z</time></trkpt><trkpt lat="45.788497635830865" lon="14.300903473171203"><ele>530.0</ele><time>2026-05-01T11:36:51Z</time></trkpt><trkpt lat="45.7884852802261" lon="14.300748885896217"><ele>530.0</ele><time>2026-05-01T11:36:53Z</time></trkpt><trkpt lat="45.78846496242968" lon="14.300625905031579"><ele>530.0</ele><time>2026-05-01T11:36:55Z</time></trkpt><trkpt lat="45.78846103803596" lon="14.300518131209339"><ele>530.0</ele><time>2026-05-01T11:36:57Z</time></trkpt><trkpt lat="45.788470657813214" lon="14.30042109381561"><ele>530.0</ele><time>2026-05-01T11:36:59Z</time></trkpt><trkpt lat="45.78848003340723" lon="14.300327454993358"><ele>530.0</ele><time>2026-05-01T11:37:01Z</time></trkpt><trkpt lat="45.78849218036511" lon="14.300232248491714"><ele>528.6666666666666</ele><time>2026-05-01T11:37:03Z</time></trkpt><trkpt lat="45.78851459443642" lon="14.300130446137306"><ele>527.3333333333333</ele><time>2026-05-01T11:37:05Z</time></trkpt><trkpt lat="45.788531274279755" lon="14.300013948108601"><ele>526.0</ele><time>2026-05-01T11:37:06.999Z</time></trkpt><trkpt lat="45.788553168664755" lon="14.29989545226766"><ele>524.6666666666666</ele><time>2026-05-01T11:37:08.999Z</time></trkpt><trkpt lat="45.78856531338373" lon="14.299777436665472"><ele>523.3333333333334</ele><time>2026-05-01T11:37:10.999Z</time></trkpt><trkpt lat="45.788599663409656" lon="14.299661077167091"><ele>522.0</ele><time>2026-05-01T11:37:12.999Z</time></trkpt><trkpt lat="45.78862140577788" lon="14.299518717957087"><ele>522.0</ele><time>2026-05-01T11:37:14.999Z</time></trkpt><trkpt lat="45.78863034564582" lon="14.299380191937544"><ele>522.0</ele><time>2026-05-01T11:37:16.999Z</time></trkpt><trkpt lat="45.788652743225754" lon="14.299250007802193"><ele>522.0</ele><time>2026-05-01T11:37:18.999Z</time></trkpt><trkpt lat="45.788624838684505" lon="14.299107038604632"><ele>522.0</ele><time>2026-05-01T11:37:20.999Z</time></trkpt><trkpt lat="45.788598215336435" lon="14.29897594928713"><ele>522.0</ele><time>2026-05-01T11:37:22.999Z</time></trkpt><trkpt lat="45.78856878272819" lon="14.29885295534019"><ele>522.0</ele><time>2026-05-01T11:37:24.999Z</time></trkpt><trkpt lat="45.788554763135444" lon="14.298733508179007"><ele>522.0</ele><time>2026-05-01T11:37:26.999Z</time></trkpt><trkpt lat="45.78852961131386" lon="14.298623564983691"><ele>522.0</ele><time>2026-05-01T11:37:28.999Z</time></trkpt><trkpt lat="45.78850681651555" lon="14.29852422578519"><ele>522.0</ele><time>2026-05-01T11:37:30.999Z</time></trkpt><trkpt lat="45.78848312389098" lon="14.298412330855621"><ele>522.0</ele><time>2026-05-01T11:37:33.999Z</time></trkpt><trkpt lat="45.78846573598081" lon="14.298304838599034"><ele>522.0</ele><time>2026-05-01T11:37:37.999Z</time></trkpt><trkpt lat="45.78845030436706" lon="14.298211343932904"><ele>524.0</ele><time>2026-05-01T11:38:03.999Z</time></trkpt><trkpt lat="45.78828066209712" lon="14.298368456372058"><ele>526.0</ele><time>2026-05-01T11:38:07.999Z</time></trkpt><trkpt lat="45.788199784512145" lon="14.298475128795147"><ele>528.0</ele><time>2026-05-01T11:38:09.999Z</time></trkpt><trkpt lat="45.78810874391468" lon="14.298588709843107"><ele>530.0</ele><time>2026-05-01T11:38:11.999Z</time></trkpt><trkpt lat="45.78806529018969" lon="14.298657794021157"><ele>530.0</ele><time>2026-05-01T11:38:12.999Z</time></trkpt><trkpt lat="45.787978162518286" lon="14.298774976706367"><ele>530.0</ele><time>2026-05-01T11:38:14.999Z</time></trkpt><trkpt lat="45.78789130953258" lon="14.298899329340527"><ele>530.0</ele><time>2026-05-01T11:38:16.999Z</time></trkpt><trkpt lat="45.78780889351686" lon="14.299012687888347"><ele>530.0</ele><time>2026-05-01T11:38:18.999Z</time></trkpt><trkpt lat="45.78772911924647" lon="14.299095254901756"><ele>529.8</ele><time>2026-05-01T11:38:20.999Z</time></trkpt><trkpt lat="45.78765248475223" lon="14.29919924746302"><ele>529.6</ele><time>2026-05-01T11:38:22.999Z</time></trkpt><trkpt lat="45.7875781105262" lon="14.299300172870948"><ele>529.4</ele><time>2026-05-01T11:38:24.999Z</time></trkpt><trkpt lat="45.787505038933254" lon="14.299399330562151"><ele>529.2</ele><time>2026-05-01T11:38:26.999Z</time></trkpt><trkpt lat="45.78743752853807" lon="14.299500276331143"><ele>529.0</ele><time>2026-05-01T11:38:28.999Z</time></trkpt><trkpt lat="45.78738664126158" lon="14.299604820477875"><ele>529.0</ele><time>2026-05-01T11:38:30.999Z</time></trkpt><trkpt lat="45.78732310208845" lon="14.299662221878545"><ele>529.0</ele><time>2026-05-01T11:38:32.999Z</time></trkpt><trkpt lat="45.78725391836655" lon="14.299717311492309"><ele>529.0</ele><time>2026-05-01T11:38:35.999Z</time></trkpt><trkpt lat="45.78717786982647" lon="14.299758780753395"><ele>529.0</ele><time>2026-05-01T11:38:38.999Z</time></trkpt><trkpt lat="45.78711111839913" lon="14.299771314271323"><ele>529.0</ele><time>2026-05-01T11:38:42Z</time></trkpt><trkpt lat="45.78703530328734" lon="14.299793074807713"><ele>529.0</ele><time>2026-05-01T11:38:45Z</time></trkpt><trkpt lat="45.78695775475822" lon="14.29979244343738"><ele>528.8571428571429</ele><time>2026-05-01T11:38:48Z</time></trkpt><trkpt lat="45.78687304030967" lon="14.299775423329086"><ele>528.7142857142857</ele><time>2026-05-01T11:38:51Z</time></trkpt><trkpt lat="45.786800718244805" lon="14.299783284894984"><ele>528.5714285714286</ele><time>2026-05-01T11:38:53Z</time></trkpt><trkpt lat="45.78673668027305" lon="14.29973846841333"><ele>528.4285714285714</ele><time>2026-05-01T11:38:55Z</time></trkpt><trkpt lat="45.786650688503784" lon="14.29971628740884"><ele>528.2857142857143</ele><time>2026-05-01T11:38:58Z</time></trkpt><trkpt lat="45.78658675355287" lon="14.299685501405873"><ele>528.1428571428571</ele><time>2026-05-01T11:39:01Z</time></trkpt><trkpt lat="45.78652865542048" lon="14.299646817093763"><ele>528.0</ele><time>2026-05-01T11:39:05Z</time></trkpt><trkpt lat="45.786446289794476" lon="14.299596533525383"><ele>527.7142857142857</ele><time>2026-05-01T11:39:08Z</time></trkpt><trkpt lat="45.78638530794137" lon="14.299556676700988"><ele>527.4285714285714</ele><time>2026-05-01T11:39:10Z</time></trkpt><trkpt lat="45.78632181174393" lon="14.299512806224007"><ele>527.1428571428571</ele><time>2026-05-01T11:39:12Z</time></trkpt><trkpt lat="45.78625598270023" lon="14.299449396200645"><ele>526.8571428571429</ele><time>2026-05-01T11:39:14Z</time></trkpt><trkpt lat="45.78618130406961" lon="14.299406572267397"><ele>526.5714285714286</ele><time>2026-05-01T11:39:16Z</time></trkpt><trkpt lat="45.78612756039875" lon="14.29932046571328"><ele>526.2857142857142</ele><time>2026-05-01T11:39:18Z</time></trkpt><trkpt lat="45.78607658819532" lon="14.299259440731367"><ele>526.0</ele><time>2026-05-01T11:39:19.999Z</time></trkpt><trkpt lat="45.78601400400079" lon="14.29918451365287"><ele>526.1428571428571</ele><time>2026-05-01T11:39:22.999Z</time></trkpt><trkpt lat="45.785950492051356" lon="14.299110076151777"><ele>526.2857142857142</ele><time>2026-05-01T11:39:26.999Z</time></trkpt><trkpt lat="45.78589384552471" lon="14.299047114663272"><ele>526.4285714285714</ele><time>2026-05-01T11:39:29.999Z</time></trkpt><trkpt lat="45.78583677314521" lon="14.29898210398298"><ele>526.5714285714286</ele><time>2026-05-01T11:39:32.999Z</time></trkpt><trkpt lat="45.78578193387741" lon="14.298919636982742"><ele>526.7142857142858</ele><time>2026-05-01T11:39:35.999Z</time></trkpt><trkpt lat="45.78572059916353" lon="14.298849770089863"><ele>526.8571428571429</ele><time>2026-05-01T11:39:38.999Z</time></trkpt><trkpt lat="45.78566400886241" lon="14.298785307447057"><ele>527.0</ele><time>2026-05-01T11:39:41.999Z</time></trkpt><trkpt lat="45.78559754985127" lon="14.29873114345765"><ele>527.8333333333333</ele><time>2026-05-01T11:39:44.999Z</time></trkpt><trkpt lat="45.78552599895454" lon="14.298698314017813"><ele>528.6666666666666</ele><time>2026-05-01T11:39:47.999Z</time></trkpt><trkpt lat="45.7854405697435" lon="14.298675001607661"><ele>529.5</ele><time>2026-05-01T11:39:50.999Z</time></trkpt><trkpt lat="45.785344413403855" lon="14.298683048396356"><ele>530.3333333333334</ele><time>2026-05-01T11:39:53.999Z</time></trkpt><trkpt lat="45.785254997891506" lon="14.298676141291892"><ele>531.1666666666667</ele><time>2026-05-01T11:39:55.999Z</time></trkpt><trkpt lat="45.78515673011693" lon="14.298697051466739"><ele>532.0</ele><time>2026-05-01T11:39:57.999Z</time></trkpt><trkpt lat="45.785049955691406" lon="14.298744520149013"><ele>532.0</ele><time>2026-05-01T11:39:59.999Z</time></trkpt><trkpt lat="45.78495179701283" lon="14.298764778567541"><ele>532.0</ele><time>2026-05-01T11:40:01.999Z</time></trkpt><trkpt lat="45.784871082271955" lon="14.298783758736066"><ele>532.0</ele><time>2026-05-01T11:40:03.999Z</time></trkpt><trkpt lat="45.7848069584727" lon="14.29877096760412"><ele>532.0</ele><time>2026-05-01T11:40:05.999Z</time></trkpt><trkpt lat="45.78473790604196" lon="14.298767996065752"><ele>532.0</ele><time>2026-05-01T11:40:09.999Z</time></trkpt><trkpt lat="45.78466416186972" lon="14.298741681124802"><ele>532.0</ele><time>2026-05-01T11:42:20.999Z</time></trkpt><trkpt lat="45.78459123103404" lon="14.298720472280417"><ele>532.0</ele><time>2026-05-01T11:42:24.999Z</time></trkpt><trkpt lat="45.78452241403241" lon="14.298698594912803"><ele>532.0</ele><time>2026-05-01T11:42:28.999Z</time></trkpt><trkpt lat="45.78445543835722" lon="14.298697753227776"><ele>532.0</ele><time>2026-05-01T11:42:32.999Z</time></trkpt><trkpt lat="45.78439850538065" lon="14.29865601547537"><ele>532.0</ele><time>2026-05-01T11:42:35.999Z</time></trkpt><trkpt lat="45.784333599438995" lon="14.298625546598354"><ele>532.0</ele><time>2026-05-01T11:42:38.999Z</time></trkpt><trkpt lat="45.7842606905671" lon="14.298594988560136"><ele>532.0</ele><time>2026-05-01T11:42:42.999Z</time></trkpt><trkpt lat="45.78418048659004" lon="14.298562421186624"><ele>532.0</ele><time>2026-05-01T11:42:46.999Z</time></trkpt><trkpt lat="45.784114914135614" lon="14.29853579476101"><ele>531.5714285714286</ele><time>2026-05-01T11:42:49.999Z</time></trkpt><trkpt lat="45.784049626645285" lon="14.298520928277501"><ele>531.1428571428571</ele><time>2026-05-01T11:42:52.999Z</time></trkpt><trkpt lat="45.7839876257722" lon="14.29849122402421"><ele>530.7142857142858</ele><time>2026-05-01T11:42:56Z</time></trkpt><trkpt lat="45.783921105773544" lon="14.298411743637997"><ele>530.2857142857142</ele><time>2026-05-01T11:43:00Z</time></trkpt><trkpt lat="45.7838518705067" lon="14.298384276326743"><ele>529.8571428571429</ele><time>2026-05-01T11:43:03Z</time></trkpt><trkpt lat="45.78378007554361" lon="14.298372138633734"><ele>529.4285714285714</ele><time>2026-05-01T11:43:07Z</time></trkpt><trkpt lat="45.78372137391178" lon="14.298427052479125"><ele>529.0</ele><time>2026-05-01T11:43:10Z</time></trkpt><trkpt lat="45.78367191473745" lon="14.298484247925266"><ele>529.0</ele><time>2026-05-01T11:43:15Z</time></trkpt><trkpt lat="45.78363037199538" lon="14.298562506975726"><ele>529.0</ele><time>2026-05-01T11:43:22Z</time></trkpt><trkpt lat="45.78402483901659" lon="14.2985074893064"><ele>529.0</ele><time>2026-05-01T11:45:12Z</time></trkpt><trkpt lat="45.78409862696463" lon="14.298525355827778"><ele>529.0</ele><time>2026-05-01T11:45:15Z</time></trkpt><trkpt lat="45.78417735305042" lon="14.298561148832349"><ele>529.0</ele><time>2026-05-01T11:45:18Z</time></trkpt><trkpt lat="45.78423990264982" lon="14.298586547530904"><ele>529.0</ele><time>2026-05-01T11:45:20Z</time></trkpt><trkpt lat="45.784306457962174" lon="14.298613572781166"><ele>529.0</ele><time>2026-05-01T11:45:22Z</time></trkpt><trkpt lat="45.78438285450172" lon="14.298648548433814"><ele>529.0</ele><time>2026-05-01T11:45:24Z</time></trkpt><trkpt lat="45.784468667007644" lon="14.298681508578092"><ele>529.5</ele><time>2026-05-01T11:45:26Z</time></trkpt><trkpt lat="45.7845507822433" lon="14.29870761347344"><ele>530.0</ele><time>2026-05-01T11:45:28Z</time></trkpt><trkpt lat="45.784609255678184" lon="14.298750418553352"><ele>530.5</ele><time>2026-05-01T11:45:30Z</time></trkpt><trkpt lat="45.78467754377427" lon="14.298744668625561"><ele>531.0</ele><time>2026-05-01T11:45:32Z</time></trkpt><trkpt lat="45.78476697452822" lon="14.298762738690645"><ele>531.5</ele><time>2026-05-01T11:45:35Z</time></trkpt><trkpt lat="45.784749498163734" lon="14.298921898400156"><ele>532.0</ele><time>2026-05-01T11:45:46Z</time></trkpt><trkpt lat="45.78474378092257" lon="14.299014917248703"><ele>531.1428571428571</ele><time>2026-05-01T11:45:48Z</time></trkpt><trkpt lat="45.784742168987194" lon="14.299110053901952"><ele>530.2857142857142</ele><time>2026-05-01T11:45:51Z</time></trkpt><trkpt lat="45.7847818815851" lon="14.299189556566981"><ele>529.4285714285714</ele><time>2026-05-01T11:45:55Z</time></trkpt><trkpt lat="45.78482310329827" lon="14.299264848253449"><ele>528.5714285714286</ele><time>2026-05-01T11:45:58Z</time></trkpt><trkpt lat="45.78489453598309" lon="14.299322981892358"><ele>527.7142857142857</ele><time>2026-05-01T11:46:00.999Z</time></trkpt><trkpt lat="45.78496279373333" lon="14.29937108961"><ele>526.8571428571429</ele><time>2026-05-01T11:46:03.999Z</time></trkpt><trkpt lat="45.78501102128302" lon="14.299433462677214"><ele>526.0</ele><time>2026-05-01T11:46:06.999Z</time></trkpt><trkpt lat="45.78508542944002" lon="14.299452170379986"><ele>526.0</ele><time>2026-05-01T11:46:10.999Z</time></trkpt><trkpt lat="45.7851526596208" lon="14.299464740803053"><ele>526.0</ele><time>2026-05-01T11:46:16.999Z</time></trkpt><trkpt lat="45.78522671802203" lon="14.299463485704681"><ele>526.0</ele><time>2026-05-01T11:46:19.999Z</time></trkpt><trkpt lat="45.78528005026632" lon="14.2993930570668"><ele>526.0</ele><time>2026-05-01T11:46:23.999Z</time></trkpt><trkpt lat="45.78534178514157" lon="14.299324323934945"><ele>526.0</ele><time>2026-05-01T11:46:27.999Z</time></trkpt><trkpt lat="45.78540135756461" lon="14.299263274469322"><ele>526.0</ele><time>2026-05-01T11:46:31.999Z</time></trkpt><trkpt lat="45.78544928031574" lon="14.299204586695472"><ele>526.0</ele><time>2026-05-01T11:46:34.999Z</time></trkpt><trkpt lat="45.7855102704108" lon="14.299126173469269"><ele>526.1428571428571</ele><time>2026-05-01T11:46:38.999Z</time></trkpt><trkpt lat="45.78555922067541" lon="14.299065501323648"><ele>526.2857142857142</ele><time>2026-05-01T11:46:42.999Z</time></trkpt><trkpt lat="45.7856264740855" lon="14.299019990077019"><ele>526.4285714285714</ele><time>2026-05-01T11:46:46.999Z</time></trkpt><trkpt lat="45.785706939590625" lon="14.29899576873925"><ele>526.5714285714286</ele><time>2026-05-01T11:46:50.999Z</time></trkpt><trkpt lat="45.78578452374625" lon="14.298995268161704"><ele>526.7142857142858</ele><time>2026-05-01T11:46:56.999Z</time></trkpt><trkpt lat="45.78583771748519" lon="14.299048494350119"><ele>526.8571428571429</ele><time>2026-05-01T11:47:01.999Z</time></trkpt><trkpt lat="45.78590348259789" lon="14.299106012371707"><ele>527.0</ele><time>2026-05-01T11:47:06Z</time></trkpt><trkpt lat="45.785955549386344" lon="14.299160541637233"><ele>526.8000000000001</ele><time>2026-05-01T11:47:09Z</time></trkpt><trkpt lat="45.78601886888832" lon="14.299234720127693"><ele>526.6</ele><time>2026-05-01T11:47:11Z</time></trkpt><trkpt lat="45.78612407314782" lon="14.299341416333409"><ele>526.4000000000001</ele><time>2026-05-01T11:47:13Z</time></trkpt><trkpt lat="45.78618021923714" lon="14.29940343841893"><ele>526.2</ele><time>2026-05-01T11:47:14Z</time></trkpt><trkpt lat="45.78623527186737" lon="14.299462764313516"><ele>526.0</ele><time>2026-05-01T11:47:15Z</time></trkpt><trkpt lat="45.786328664153196" lon="14.299559209941082"><ele>526.0</ele><time>2026-05-01T11:47:17Z</time></trkpt><trkpt lat="45.7864218840532" lon="14.299631060594063"><ele>526.0</ele><time>2026-05-01T11:47:19Z</time></trkpt><trkpt lat="45.78650272132199" lon="14.299684893060698"><ele>526.0</ele><time>2026-05-01T11:47:21Z</time></trkpt><trkpt lat="45.78658956662027" lon="14.29971638976561"><ele>526.0</ele><time>2026-05-01T11:47:23Z</time></trkpt><trkpt lat="45.786673071077345" lon="14.299755009852367"><ele>526.0</ele><time>2026-05-01T11:47:25Z</time></trkpt><trkpt lat="45.78675241075664" lon="14.299784329316141"><ele>525.8333333333334</ele><time>2026-05-01T11:47:27Z</time></trkpt><trkpt lat="45.78683738784381" lon="14.299803106037611"><ele>525.6666666666667</ele><time>2026-05-01T11:47:29Z</time></trkpt><trkpt lat="45.78691756417729" lon="14.299807713160742"><ele>525.5</ele><time>2026-05-01T11:47:31Z</time></trkpt><trkpt lat="45.7869976377247" lon="14.299807055952186"><ele>525.3333333333334</ele><time>2026-05-01T11:47:33Z</time></trkpt><trkpt lat="45.787073256242614" lon="14.299799436722392"><ele>525.1666666666666</ele><time>2026-05-01T11:47:35Z</time></trkpt><trkpt lat="45.78714055630254" lon="14.299788160330214"><ele>525.0</ele><time>2026-05-01T11:47:37Z</time></trkpt><trkpt lat="45.787210116637176" lon="14.299763480682602"><ele>525.6666666666666</ele><time>2026-05-01T11:47:39Z</time></trkpt><trkpt lat="45.78726935969762" lon="14.299724854501568"><ele>526.3333333333334</ele><time>2026-05-01T11:47:41Z</time></trkpt><trkpt lat="45.78733644253035" lon="14.29970800673057"><ele>527.0</ele><time>2026-05-01T11:47:43Z</time></trkpt><trkpt lat="45.78739623178636" lon="14.29962852958752"><ele>527.6666666666667</ele><time>2026-05-01T11:47:45Z</time></trkpt><trkpt lat="45.78746846334802" lon="14.299537180998355"><ele>528.3333333333334</ele><time>2026-05-01T11:47:47Z</time></trkpt><trkpt lat="45.78753712369771" lon="14.29943332277869"><ele>529.0</ele><time>2026-05-01T11:47:49Z</time></trkpt><trkpt lat="45.787589232246205" lon="14.299329181389393"><ele>529.0</ele><time>2026-05-01T11:47:51Z</time></trkpt><trkpt lat="45.787663032398086" lon="14.299250540232721"><ele>529.0</ele><time>2026-05-01T11:47:53Z</time></trkpt><trkpt lat="45.787735892295345" lon="14.299151669772968"><ele>529.0</ele><time>2026-05-01T11:47:55Z</time></trkpt><trkpt lat="45.787797616508755" lon="14.299045895950359"><ele>529.0</ele><time>2026-05-01T11:47:57Z</time></trkpt><trkpt lat="45.78786169898582" lon="14.298948976793012"><ele>529.0</ele><time>2026-05-01T11:47:59Z</time></trkpt><trkpt lat="45.78793303220775" lon="14.29886217728202"><ele>529.2</ele><time>2026-05-01T11:48:01Z</time></trkpt><trkpt lat="45.7879968085437" lon="14.298764982867345"><ele>529.4</ele><time>2026-05-01T11:48:03Z</time></trkpt><trkpt lat="45.78807113528202" lon="14.298675077562923"><ele>529.6</ele><time>2026-05-01T11:48:05Z</time></trkpt><trkpt lat="45.78813334705267" lon="14.298592053438025"><ele>529.8</ele><time>2026-05-01T11:48:07Z</time></trkpt><trkpt lat="45.78819504300443" lon="14.298518717071595"><ele>530.0</ele><time>2026-05-01T11:48:09Z</time></trkpt><trkpt lat="45.78827860452313" lon="14.298456228873828"><ele>530.0</ele><time>2026-05-01T11:48:12Z</time></trkpt><trkpt lat="45.78834049334104" lon="14.298388763519943"><ele>530.0</ele><time>2026-05-01T11:48:14.999Z</time></trkpt><trkpt lat="45.78838446463011" lon="14.298315462718943"><ele>530.0</ele><time>2026-05-01T11:48:18.999Z</time></trkpt><trkpt lat="45.78844998422089" lon="14.298269406904108"><ele>530.0</ele><time>2026-05-01T11:48:24.999Z</time></trkpt><trkpt lat="45.78851242858816" lon="14.298201334821586"><ele>530.0</ele><time>2026-05-01T11:48:29.999Z</time></trkpt><trkpt lat="45.78845316814795" lon="14.297994560503835"><ele>530.1666666666666</ele><time>2026-05-01T11:48:31.999Z</time></trkpt><trkpt lat="45.788473021297115" lon="14.297901442416185"><ele>530.3333333333333</ele><time>2026-05-01T11:48:34.999Z</time></trkpt><trkpt lat="45.78849475550298" lon="14.297806802887113"><ele>530.5</ele><time>2026-05-01T11:48:38.999Z</time></trkpt><trkpt lat="45.78852223265017" lon="14.297713941426785"><ele>530.6666666666666</ele><time>2026-05-01T11:48:43.999Z</time></trkpt><trkpt lat="45.78852669403649" lon="14.2976204413356"><ele>530.8333333333334</ele><time>2026-05-01T11:49:14Z</time></trkpt><trkpt lat="45.788549362010706" lon="14.297513661199677"><ele>531.0</ele><time>2026-05-01T11:49:17Z</time></trkpt><trkpt lat="45.78892248932677" lon="14.297435793059947"><ele>529.7142857142858</ele><time>2026-05-01T11:50:34.999Z</time></trkpt><trkpt lat="45.78896450379924" lon="14.29750506397518"><ele>528.4285714285714</ele><time>2026-05-01T11:53:28Z</time></trkpt><trkpt lat="45.78898910451" lon="14.29761144210465"><ele>527.1428571428571</ele><time>2026-05-01T12:22:36Z</time></trkpt><trkpt lat="45.78895251443015" lon="14.297689197179764"><ele>525.8571428571429</ele><time>2026-05-01T12:22:38Z</time></trkpt><trkpt lat="45.78892921367259" lon="14.297784180492888"><ele>524.5714285714286</ele><time>2026-05-01T12:22:40Z</time></trkpt><trkpt lat="45.78887829935358" lon="14.297869000069422"><ele>523.2857142857143</ele><time>2026-05-01T12:22:43Z</time></trkpt><trkpt lat="45.78879841114149" lon="14.297898111648038"><ele>522.0</ele><time>2026-05-01T12:22:47Z</time></trkpt><trkpt lat="45.78872939724392" lon="14.297835203906702"><ele>522.0</ele><time>2026-05-01T12:22:50Z</time></trkpt><trkpt lat="45.78866431651998" lon="14.29775355298588"><ele>522.0</ele><time>2026-05-01T12:22:54Z</time></trkpt><trkpt lat="45.788596663019526" lon="14.297717359815636"><ele>522.0</ele><time>2026-05-01T12:22:57Z</time></trkpt><trkpt lat="45.78852908738352" lon="14.297701213931981"><ele>522.0</ele><time>2026-05-01T12:23:00Z</time></trkpt><trkpt lat="45.78850489815587" lon="14.297616336888856"><ele>522.0</ele><time>2026-05-01T12:23:03Z</time></trkpt><trkpt lat="45.788525459155395" lon="14.297519629087528"><ele>522.0</ele><time>2026-05-01T12:23:05Z</time></trkpt><trkpt lat="45.78854965175903" lon="14.297407261039773"><ele>522.0</ele><time>2026-05-01T12:23:07Z</time></trkpt><trkpt lat="45.788580411223016" lon="14.297260965240575"><ele>522.5</ele><time>2026-05-01T12:23:09Z</time></trkpt><trkpt lat="45.78861621282858" lon="14.297089942294859"><ele>523.0</ele><time>2026-05-01T12:23:11Z</time></trkpt><trkpt lat="45.78863697015123" lon="14.297001873733363"><ele>523.5</ele><time>2026-05-01T12:23:12Z</time></trkpt><trkpt lat="45.78866148717694" lon="14.296911633803841"><ele>524.0</ele><time>2026-05-01T12:23:13Z</time></trkpt><trkpt lat="45.78868393480931" lon="14.296823726925108"><ele>524.5</ele><time>2026-05-01T12:23:14Z</time></trkpt><trkpt lat="45.788718170070155" lon="14.296735955954032"><ele>525.0</ele><time>2026-05-01T12:23:15Z</time></trkpt><trkpt lat="45.7887430546824" lon="14.29665128354873"><ele>525.0</ele><time>2026-05-01T12:23:16Z</time></trkpt><trkpt lat="45.788796098371456" lon="14.296504520046007"><ele>525.0</ele><time>2026-05-01T12:23:18Z</time></trkpt><trkpt lat="45.78883293809234" lon="14.296422089602013"><ele>525.0</ele><time>2026-05-01T12:23:19Z</time></trkpt><trkpt lat="45.788873072146195" lon="14.296343199623786"><ele>525.0</ele><time>2026-05-01T12:23:20Z</time></trkpt><trkpt lat="45.78894072829608" lon="14.296216289330198"><ele>525.0</ele><time>2026-05-01T12:23:22Z</time></trkpt><trkpt lat="45.789012732840476" lon="14.29612145027588"><ele>526.0</ele><time>2026-05-01T12:23:24Z</time></trkpt><trkpt lat="45.789079042509776" lon="14.296026153551368"><ele>527.0</ele><time>2026-05-01T12:23:26Z</time></trkpt><trkpt lat="45.789130075761875" lon="14.295912385621962"><ele>528.0</ele><time>2026-05-01T12:23:28Z</time></trkpt><trkpt lat="45.78919267904498" lon="14.295790335892958"><ele>529.0</ele><time>2026-05-01T12:23:30Z</time></trkpt><trkpt lat="45.78923463552798" lon="14.295659692778877"><ele>530.0</ele><time>2026-05-01T12:23:32Z</time></trkpt><trkpt lat="45.7892672354833" lon="14.295513133484265"><ele>530.2</ele><time>2026-05-01T12:23:34Z</time></trkpt><trkpt lat="45.7893172798286" lon="14.29536259087185"><ele>530.4</ele><time>2026-05-01T12:23:36Z</time></trkpt><trkpt lat="45.78936256429513" lon="14.295208992961978"><ele>530.6</ele><time>2026-05-01T12:23:38Z</time></trkpt><trkpt lat="45.78940171383345" lon="14.295077235385788"><ele>530.8</ele><time>2026-05-01T12:23:40Z</time></trkpt><trkpt lat="45.789432781168564" lon="14.294937804299177"><ele>531.0</ele><time>2026-05-01T12:23:42Z</time></trkpt><trkpt lat="45.789475044262154" lon="14.294806688805597"><ele>530.0</ele><time>2026-05-01T12:23:44Z</time></trkpt><trkpt lat="45.789536650332174" lon="14.294694639757402"><ele>529.0</ele><time>2026-05-01T12:23:46Z</time></trkpt><trkpt lat="45.78963298782882" lon="14.294626543479946"><ele>528.0</ele><time>2026-05-01T12:23:48Z</time></trkpt><trkpt lat="45.78972353108001" lon="14.294606932380189"><ele>527.0</ele><time>2026-05-01T12:23:50Z</time></trkpt><trkpt lat="45.789804484576315" lon="14.294610767119595"><ele>526.0</ele><time>2026-05-01T12:23:52Z</time></trkpt><trkpt lat="45.789888730983165" lon="14.294580341224973"><ele>526.0</ele><time>2026-05-01T12:23:54Z</time></trkpt><trkpt lat="45.789990982376075" lon="14.294580184137432"><ele>526.0</ele><time>2026-05-01T12:23:56Z</time></trkpt><trkpt lat="45.79007343485607" lon="14.294531766475455"><ele>526.0</ele><time>2026-05-01T12:23:58Z</time></trkpt><trkpt lat="45.79016117290558" lon="14.294473113559178"><ele>526.0</ele><time>2026-05-01T12:24:00Z</time></trkpt><trkpt lat="45.79024277259369" lon="14.294399973787451"><ele>526.0</ele><time>2026-05-01T12:24:02Z</time></trkpt><trkpt lat="45.79031736871516" lon="14.294324143215668"><ele>525.0</ele><time>2026-05-01T12:24:04Z</time></trkpt><trkpt lat="45.79038292033995" lon="14.29424531089744"><ele>524.0</ele><time>2026-05-01T12:24:06Z</time></trkpt><trkpt lat="45.79042556770157" lon="14.294157040393516"><ele>523.0</ele><time>2026-05-01T12:24:08Z</time></trkpt><trkpt lat="45.79046109813768" lon="14.294076261751083"><ele>522.0</ele><time>2026-05-01T12:24:10Z</time></trkpt><trkpt lat="45.790486430100536" lon="14.293975814706629"><ele>521.0</ele><time>2026-05-01T12:24:12Z</time></trkpt><trkpt lat="45.79051679669102" lon="14.293870710550417"><ele>520.0</ele><time>2026-05-01T12:24:14Z</time></trkpt><trkpt lat="45.79054502631755" lon="14.293761883415065"><ele>520.0</ele><time>2026-05-01T12:24:16Z</time></trkpt><trkpt lat="45.79057166404383" lon="14.293640883912492"><ele>520.0</ele><time>2026-05-01T12:24:18Z</time></trkpt><trkpt lat="45.79058890770692" lon="14.293517943174315"><ele>520.0</ele><time>2026-05-01T12:24:20Z</time></trkpt><trkpt lat="45.79062501324267" lon="14.29340570924314"><ele>520.0</ele><time>2026-05-01T12:24:22Z</time></trkpt><trkpt lat="45.79066091191644" lon="14.29329814579097"><ele>520.0</ele><time>2026-05-01T12:24:24Z</time></trkpt><trkpt lat="45.79070489290549" lon="14.293187350146212"><ele>520.0</ele><time>2026-05-01T12:24:27Z</time></trkpt><trkpt lat="45.790732106677474" lon="14.293084487338174"><ele>520.6666666666667</ele><time>2026-05-01T12:24:30Z</time></trkpt><trkpt lat="45.790774254715565" lon="14.29300129266084"><ele>521.3333333333334</ele><time>2026-05-01T12:24:33Z</time></trkpt><trkpt lat="45.79083422604073" lon="14.292912784784075"><ele>522.0</ele><time>2026-05-01T12:24:36Z</time></trkpt><trkpt lat="45.79089614039159" lon="14.292840736117101"><ele>522.6666666666666</ele><time>2026-05-01T12:24:38Z</time></trkpt><trkpt lat="45.790959539927535" lon="14.292762324194888"><ele>523.3333333333333</ele><time>2026-05-01T12:24:40Z</time></trkpt><trkpt lat="45.791021029128906" lon="14.292691244107619"><ele>524.0</ele><time>2026-05-01T12:24:42Z</time></trkpt><trkpt lat="45.79108090788526" lon="14.292642748550028"><ele>524.0</ele><time>2026-05-01T12:24:44Z</time></trkpt><trkpt lat="45.79113769544625" lon="14.29257976396158"><ele>524.0</ele><time>2026-05-01T12:24:46Z</time></trkpt><trkpt lat="45.79119694633563" lon="14.292518504086862"><ele>524.0</ele><time>2026-05-01T12:24:48Z</time></trkpt><trkpt lat="45.79125970389902" lon="14.292466889090544"><ele>524.0</ele><time>2026-05-01T12:24:50Z</time></trkpt><trkpt lat="45.791316611991085" lon="14.292418358698413"><ele>524.0</ele><time>2026-05-01T12:24:52Z</time></trkpt><trkpt lat="45.79137525617596" lon="14.292363479211074"><ele>524.0</ele><time>2026-05-01T12:24:54Z</time></trkpt><trkpt lat="45.79142821215619" lon="14.292309509127524"><ele>524.0</ele><time>2026-05-01T12:24:56Z</time></trkpt><trkpt lat="45.79148388454628" lon="14.29226065893328"><ele>524.1666666666666</ele><time>2026-05-01T12:24:58Z</time></trkpt><trkpt lat="45.79154420068208" lon="14.292202880409455"><ele>524.3333333333333</ele><time>2026-05-01T12:25:00Z</time></trkpt><trkpt lat="45.791608551341994" lon="14.292144187101394"><ele>524.5</ele><time>2026-05-01T12:25:02Z</time></trkpt><trkpt lat="45.79167198815705" lon="14.292093804912565"><ele>524.6666666666666</ele><time>2026-05-01T12:25:04Z</time></trkpt><trkpt lat="45.79173417457483" lon="14.29205412795862"><ele>524.8333333333334</ele><time>2026-05-01T12:25:06Z</time></trkpt><trkpt lat="45.791802017077224" lon="14.292029478450798"><ele>525.0</ele><time>2026-05-01T12:25:09Z</time></trkpt><trkpt lat="45.79188895739922" lon="14.292280721802978"><ele>525.0</ele><time>2026-05-01T12:25:32Z</time></trkpt><trkpt lat="45.79192373664979" lon="14.292383039960338"><ele>525.0</ele><time>2026-05-01T12:25:34Z</time></trkpt><trkpt lat="45.79193701878345" lon="14.292471543663062"><ele>525.0</ele><time>2026-05-01T12:25:39Z</time></trkpt><trkpt lat="45.79190438344251" lon="14.292600376236296"><ele>525.0</ele><time>2026-05-01T12:25:43Z</time></trkpt><trkpt lat="45.79188497438806" lon="14.292704613358728"><ele>525.0</ele><time>2026-05-01T12:25:45Z</time></trkpt><trkpt lat="45.791866904008806" lon="14.292792788886732"><ele>525.0</ele><time>2026-05-01T12:25:47Z</time></trkpt><trkpt lat="45.791852309074415" lon="14.292882494777942"><ele>525.0</ele><time>2026-05-01T12:26:00Z</time></trkpt><trkpt lat="45.79186700019189" lon="14.292741106749943"><ele>525.0</ele><time>2026-05-01T12:26:18Z</time></trkpt><trkpt lat="45.7918832894322" lon="14.292618224185258"><ele>525.0</ele><time>2026-05-01T12:26:20Z</time></trkpt><trkpt lat="45.79191056145075" lon="14.29253002152045"><ele>525.0</ele><time>2026-05-01T12:26:23Z</time></trkpt><trkpt lat="45.791967672094344" lon="14.292429816862148"><ele>525.0</ele><time>2026-05-01T12:27:01Z</time></trkpt><trkpt lat="45.792038301160126" lon="14.292380709334063"><ele>525.0</ele><time>2026-05-01T12:27:48Z</time></trkpt><trkpt lat="45.79208504707044" lon="14.292449900054724"><ele>525.0</ele><time>2026-05-01T12:27:53Z</time></trkpt><trkpt lat="45.792152623232795" lon="14.292490397595815"><ele>525.0</ele><time>2026-05-01T12:27:56Z</time></trkpt><trkpt lat="45.792217985551154" lon="14.292551138494938"><ele>525.0</ele><time>2026-05-01T12:27:59Z</time></trkpt><trkpt lat="45.79228400078043" lon="14.29254156544734"><ele>525.0</ele><time>2026-05-01T12:28:02Z</time></trkpt><trkpt lat="45.79234893837351" lon="14.29255646916304"><ele>525.0</ele><time>2026-05-01T12:28:04Z</time></trkpt><trkpt lat="45.79243187751593" lon="14.29257824167428"><ele>525.0</ele><time>2026-05-01T12:28:07Z</time></trkpt><trkpt lat="45.79250954138042" lon="14.292591938917555"><ele>525.0</ele><time>2026-05-01T12:28:11Z</time></trkpt><trkpt lat="45.79257122994795" lon="14.292640999153491"><ele>525.0</ele><time>2026-05-01T12:28:14Z</time></trkpt><trkpt lat="45.79263535036273" lon="14.292701104533032"><ele>524.2857142857143</ele><time>2026-05-01T12:28:17Z</time></trkpt><trkpt lat="45.79269716767644" lon="14.292771962825235"><ele>523.5714285714286</ele><time>2026-05-01T12:28:20Z</time></trkpt><trkpt lat="45.792774253031475" lon="14.292735904999857"><ele>522.8571428571429</ele><time>2026-05-01T12:28:23Z</time></trkpt><trkpt lat="45.79283326530865" lon="14.292690217792511"><ele>522.1428571428571</ele><time>2026-05-01T12:28:26Z</time></trkpt><trkpt lat="45.79291121566032" lon="14.292657412753176"><ele>521.4285714285714</ele><time>2026-05-01T12:28:40Z</time></trkpt><trkpt lat="45.792978209877404" lon="14.29265013720657"><ele>520.7142857142858</ele><time>2026-05-01T12:29:03Z</time></trkpt><trkpt lat="45.79304213447812" lon="14.292639159245386"><ele>520.0</ele><time>2026-05-01T12:29:30Z</time></trkpt><trkpt lat="45.79312335938415" lon="14.292607476654267"><ele>520.0</ele><time>2026-05-01T12:29:36Z</time></trkpt><trkpt lat="45.79316413759855" lon="14.292401114582681"><ele>520.0</ele><time>2026-05-01T12:29:38Z</time></trkpt><trkpt lat="45.79321651860105" lon="14.292604430990776"><ele>520.0</ele><time>2026-05-01T12:29:39Z</time></trkpt><trkpt lat="45.793286119384696" lon="14.292635160998737"><ele>520.0</ele><time>2026-05-01T12:29:42Z</time></trkpt><trkpt lat="45.79334427092698" lon="14.292708879679159"><ele>520.0000000000001</ele><time>2026-05-01T12:29:44Z</time></trkpt><trkpt lat="45.79340934353218" lon="14.292728162307403"><ele>520.0</ele><time>2026-05-01T12:29:48Z</time></trkpt><trkpt lat="45.7934717584807" lon="14.29278044782368"><ele>520.0</ele><time>2026-05-01T12:29:54Z</time></trkpt><trkpt lat="45.79352555163487" lon="14.292834644296947"><ele>520.0</ele><time>2026-05-01T12:29:57Z</time></trkpt><trkpt lat="45.79358934633359" lon="14.292812042714736"><ele>520.0</ele><time>2026-05-01T12:30:01Z</time></trkpt><trkpt lat="45.79354420743819" lon="14.292738151948448"><ele>520.0000000000001</ele><time>2026-05-01T12:30:12Z</time></trkpt><trkpt lat="45.793541366617276" lon="14.292622904915053"><ele>520.0</ele><time>2026-05-01T12:31:53Z</time></trkpt><trkpt lat="45.79347107904393" lon="14.292564346244102"><ele>520.0</ele><time>2026-05-01T12:31:56Z</time></trkpt><trkpt lat="45.79345723535869" lon="14.292464101736382"><ele>520.0</ele><time>2026-05-01T12:31:59Z</time></trkpt><trkpt lat="45.79343720103358" lon="14.292343169336014"><ele>520.0</ele><time>2026-05-01T12:32:03Z</time></trkpt><trkpt lat="45.793461298584326" lon="14.292240182843274"><ele>520.0</ele><time>2026-05-01T12:33:26Z</time></trkpt><trkpt lat="45.7935084493035" lon="14.292170886213606"><ele>520.0</ele><time>2026-05-01T12:33:28Z</time></trkpt><trkpt lat="45.79356190904927" lon="14.292068451862084"><ele>520.0</ele><time>2026-05-01T12:33:31Z</time></trkpt><trkpt lat="45.793625473057965" lon="14.291963963374451"><ele>519.3333333333334</ele><time>2026-05-01T12:33:33Z</time></trkpt><trkpt lat="45.79369065657313" lon="14.291862500681045"><ele>518.6666666666667</ele><time>2026-05-01T12:33:35Z</time></trkpt><trkpt lat="45.79374049393257" lon="14.291775821026182"><ele>518.0</ele><time>2026-05-01T12:33:37Z</time></trkpt><trkpt lat="45.79378673694261" lon="14.291694198023828"><ele>517.3333333333334</ele><time>2026-05-01T12:33:39Z</time></trkpt><trkpt lat="45.793835039569274" lon="14.29160735017631"><ele>516.6666666666666</ele><time>2026-05-01T12:33:41Z</time></trkpt><trkpt lat="45.793879190256874" lon="14.291517055624022"><ele>516.0</ele><time>2026-05-01T12:33:43Z</time></trkpt><trkpt lat="45.793922506359614" lon="14.291435900256424"><ele>517.3333333333334</ele><time>2026-05-01T12:33:45Z</time></trkpt><trkpt lat="45.793965405262306" lon="14.291333213047325"><ele>518.6666666666666</ele><time>2026-05-01T12:33:48Z</time></trkpt><trkpt lat="45.79399918371654" lon="14.291256414966576"><ele>520.0</ele><time>2026-05-01T12:33:52Z</time></trkpt><trkpt lat="45.79405860246141" lon="14.291224334650565"><ele>521.3333333333333</ele><time>2026-05-01T12:33:56Z</time></trkpt><trkpt lat="45.794098297694816" lon="14.291100444632997"><ele>522.6666666666666</ele><time>2026-05-01T12:34:37Z</time></trkpt><trkpt lat="45.794110742089636" lon="14.290996545221116"><ele>524.0</ele><time>2026-05-01T12:34:41Z</time></trkpt><trkpt lat="45.79414913120342" lon="14.290906273269762"><ele>524.0</ele><time>2026-05-01T12:34:44Z</time></trkpt><trkpt lat="45.79418570124933" lon="14.290816257606311"><ele>524.0</ele><time>2026-05-01T12:34:47Z</time></trkpt><trkpt lat="45.79423982476234" lon="14.290731687735802"><ele>524.0</ele><time>2026-05-01T12:34:50Z</time></trkpt><trkpt lat="45.79428759588353" lon="14.290641666924206"><ele>524.0</ele><time>2026-05-01T12:34:53Z</time></trkpt><trkpt lat="45.79433542568072" lon="14.290532447062674"><ele>524.0</ele><time>2026-05-01T12:34:56Z</time></trkpt><trkpt lat="45.79437732999756" lon="14.29042796808252"><ele>524.0</ele><time>2026-05-01T12:34:59Z</time></trkpt><trkpt lat="45.794418838761324" lon="14.290325956906637"><ele>524.3333333333333</ele><time>2026-05-01T12:35:02Z</time></trkpt><trkpt lat="45.79445867111844" lon="14.290218068477904"><ele>524.6666666666666</ele><time>2026-05-01T12:35:05Z</time></trkpt><trkpt lat="45.794501632885286" lon="14.29010159065776"><ele>525.0</ele><time>2026-05-01T12:35:08Z</time></trkpt><trkpt lat="45.79454542329806" lon="14.28999363309527"><ele>525.3333333333334</ele><time>2026-05-01T12:35:11Z</time></trkpt><trkpt lat="45.7945959570318" lon="14.289883806163235"><ele>525.6666666666667</ele><time>2026-05-01T12:35:14Z</time></trkpt><trkpt lat="45.79465098461157" lon="14.289775679598035"><ele>526.0</ele><time>2026-05-01T12:35:17Z</time></trkpt><trkpt lat="45.794695872850546" lon="14.289653047034712"><ele>526.1666666666667</ele><time>2026-05-01T12:35:20Z</time></trkpt><trkpt lat="45.794732524155606" lon="14.289559197542589"><ele>526.3333333333334</ele><time>2026-05-01T12:35:22Z</time></trkpt><trkpt lat="45.79476043542606" lon="14.289472683940204"><ele>526.5</ele><time>2026-05-01T12:35:24Z</time></trkpt><trkpt lat="45.794785747963246" lon="14.289355609143948"><ele>526.6666666666666</ele><time>2026-05-01T12:35:27Z</time></trkpt><trkpt lat="45.79480871253262" lon="14.289244488171189"><ele>526.8333333333333</ele><time>2026-05-01T12:35:30Z</time></trkpt><trkpt lat="45.79482182870676" lon="14.289130767122197"><ele>527.0</ele><time>2026-05-01T12:35:33Z</time></trkpt><trkpt lat="45.79482626215793" lon="14.28903387414067"><ele>527.0</ele><time>2026-05-01T12:35:37Z</time></trkpt><trkpt lat="45.79481180062023" lon="14.288930066144765"><ele>527.0</ele><time>2026-05-01T12:36:22Z</time></trkpt><trkpt lat="45.794749789094" lon="14.288852984487555"><ele>527.0</ele><time>2026-05-01T12:36:26Z</time></trkpt><trkpt lat="45.79468453997127" lon="14.288773731444866"><ele>527.0</ele><time>2026-05-01T12:36:30Z</time></trkpt><trkpt lat="45.794624965081745" lon="14.288701396526898"><ele>527.0</ele><time>2026-05-01T12:36:33Z</time></trkpt><trkpt lat="45.79456552484157" lon="14.288626681056947"><ele>527.0</ele><time>2026-05-01T12:36:36Z</time></trkpt><trkpt lat="45.79451330920366" lon="14.28854319729061"><ele>527.6666666666666</ele><time>2026-05-01T12:36:39Z</time></trkpt><trkpt lat="45.79446218565338" lon="14.28846256354268"><ele>528.3333333333333</ele><time>2026-05-01T12:36:42Z</time></trkpt><trkpt lat="45.794409605579894" lon="14.288376312083464"><ele>529.0</ele><time>2026-05-01T12:36:45Z</time></trkpt><trkpt lat="45.794353675367745" lon="14.288295901956143"><ele>529.6666666666666</ele><time>2026-05-01T12:36:48Z</time></trkpt><trkpt lat="45.79428765327072" lon="14.28822764550296"><ele>530.3333333333334</ele><time>2026-05-01T12:36:51Z</time></trkpt><trkpt lat="45.79422006819717" lon="14.288172918022859"><ele>531.0</ele><time>2026-05-01T12:36:54Z</time></trkpt><trkpt lat="45.79414809926702" lon="14.28812334915254"><ele>532.1666666666666</ele><time>2026-05-01T12:36:57Z</time></trkpt><trkpt lat="45.79407485789857" lon="14.28808572505817"><ele>533.3333333333334</ele><time>2026-05-01T12:37:00Z</time></trkpt><trkpt lat="45.79400107122994" lon="14.288048342722016"><ele>534.5</ele><time>2026-05-01T12:37:03Z</time></trkpt><trkpt lat="45.79392500113343" lon="14.288021211616561"><ele>535.6666666666667</ele><time>2026-05-01T12:37:06Z</time></trkpt><trkpt lat="45.793846208536536" lon="14.288000162013638"><ele>536.8333333333334</ele><time>2026-05-01T12:37:09Z</time></trkpt><trkpt lat="45.79377333423963" lon="14.28795649776909"><ele>538.0</ele><time>2026-05-01T12:37:12Z</time></trkpt><trkpt lat="45.79369862256465" lon="14.287936293184613"><ele>538.0</ele><time>2026-05-01T12:37:15Z</time></trkpt><trkpt lat="45.79362692797305" lon="14.287908770600701"><ele>538.0</ele><time>2026-05-01T12:37:18Z</time></trkpt><trkpt lat="45.79355791869959" lon="14.28787664704565"><ele>538.0</ele><time>2026-05-01T12:37:21Z</time></trkpt><trkpt lat="45.79349581805052" lon="14.28783681386537"><ele>538.0</ele><time>2026-05-01T12:37:24Z</time></trkpt><trkpt lat="45.793462955978335" lon="14.287732124614907"><ele>538.0</ele><time>2026-05-01T12:37:27Z</time></trkpt><trkpt lat="45.79345251661745" lon="14.287632786812273"><ele>538.0</ele><time>2026-05-01T12:37:31Z</time></trkpt><trkpt lat="45.793522833501946" lon="14.287562957780132"><ele>538.0</ele><time>2026-05-01T12:37:32Z</time></trkpt><trkpt lat="45.79360749294591" lon="14.287536832167168"><ele>538.0</ele><time>2026-05-01T12:37:35Z</time></trkpt><trkpt lat="45.793683170782195" lon="14.287532565637573"><ele>538.0</ele><time>2026-05-01T12:37:38Z</time></trkpt><trkpt lat="45.793753814978196" lon="14.287551547672429"><ele>538.0</ele><time>2026-05-01T12:37:41Z</time></trkpt><trkpt lat="45.79381686100322" lon="14.287565298667039"><ele>538.0</ele><time>2026-05-01T12:37:44Z</time></trkpt><trkpt lat="45.793899189664614" lon="14.287586322902015"><ele>538.0</ele><time>2026-05-01T12:37:47Z</time></trkpt><trkpt lat="45.793976039797954" lon="14.287604174534254"><ele>538.0</ele><time>2026-05-01T12:37:50Z</time></trkpt><trkpt lat="45.79404915799604" lon="14.287630142475294"><ele>538.0</ele><time>2026-05-01T12:37:53Z</time></trkpt><trkpt lat="45.79412380886125" lon="14.287645296602035"><ele>538.0</ele><time>2026-05-01T12:37:56Z</time></trkpt><trkpt lat="45.79419606377828" lon="14.287657722046934"><ele>538.0</ele><time>2026-05-01T12:37:59Z</time></trkpt><trkpt lat="45.794268505572724" lon="14.287645618442943"><ele>538.0</ele><time>2026-05-01T12:38:02Z</time></trkpt><trkpt lat="45.794336715362526" lon="14.28763734947589"><ele>538.0</ele><time>2026-05-01T12:38:05Z</time></trkpt><trkpt lat="45.79440589776116" lon="14.28762735735164"><ele>538.0</ele><time>2026-05-01T12:38:08Z</time></trkpt><trkpt lat="45.79447819087366" lon="14.287618367704448"><ele>537.2857142857143</ele><time>2026-05-01T12:38:11Z</time></trkpt><trkpt lat="45.794551762145986" lon="14.287610877554936"><ele>536.5714285714287</ele><time>2026-05-01T12:38:15Z</time></trkpt><trkpt lat="45.794616379693544" lon="14.28760564873658"><ele>535.8571428571429</ele><time>2026-05-01T12:38:20Z</time></trkpt><trkpt lat="45.79468152107884" lon="14.287643712458921"><ele>535.1428571428571</ele><time>2026-05-01T12:40:35Z</time></trkpt><trkpt lat="45.79474493416651" lon="14.287653270127153"><ele>534.4285714285713</ele><time>2026-05-01T12:40:38Z</time></trkpt><trkpt lat="45.794822665668754" lon="14.287652807857194"><ele>533.7142857142857</ele><time>2026-05-01T12:40:42Z</time></trkpt><trkpt lat="45.79488942166517" lon="14.287684616777149"><ele>533.0</ele><time>2026-05-01T12:40:46Z</time></trkpt><trkpt lat="45.79495166423171" lon="14.287708420111382"><ele>533.0</ele><time>2026-05-01T12:40:50Z</time></trkpt><trkpt lat="45.79500702477" lon="14.287752501268232"><ele>533.0</ele><time>2026-05-01T12:41:36Z</time></trkpt><trkpt lat="45.79508294639815" lon="14.287760797711098"><ele>533.0</ele><time>2026-05-01T12:41:40Z</time></trkpt><trkpt lat="45.795136917830945" lon="14.2878074900905"><ele>533.0</ele><time>2026-05-01T12:41:43Z</time></trkpt><trkpt lat="45.7952016936115" lon="14.28783078994404"><ele>533.0</ele><time>2026-05-01T12:41:46Z</time></trkpt><trkpt lat="45.79526485919281" lon="14.287849991379643"><ele>533.0</ele><time>2026-05-01T12:41:49Z</time></trkpt><trkpt lat="45.79532931273871" lon="14.287869719594605"><ele>533.0</ele><time>2026-05-01T12:41:52Z</time></trkpt><trkpt lat="45.79539426459962" lon="14.287877112260425"><ele>533.8333333333333</ele><time>2026-05-01T12:41:55Z</time></trkpt><trkpt lat="45.79546086665614" lon="14.287903540463086"><ele>534.6666666666666</ele><time>2026-05-01T12:42:00Z</time></trkpt><trkpt lat="45.79553906905171" lon="14.287926122232138"><ele>535.5</ele><time>2026-05-01T12:42:05Z</time></trkpt><trkpt lat="45.79561312160419" lon="14.287959708841097"><ele>536.3333333333334</ele><time>2026-05-01T12:42:09Z</time></trkpt><trkpt lat="45.79569115631858" lon="14.28798620392389"><ele>537.1666666666667</ele><time>2026-05-01T12:42:13Z</time></trkpt><trkpt lat="45.79575435614698" lon="14.288037125498503"><ele>538.0</ele><time>2026-05-01T12:42:18Z</time></trkpt><trkpt lat="45.7958279879296" lon="14.288026533916833"><ele>538.0</ele><time>2026-05-01T12:42:52.999Z</time></trkpt><trkpt lat="45.79591444667174" lon="14.288016454175084"><ele>538.0</ele><time>2026-05-01T12:42:55.999Z</time></trkpt><trkpt lat="45.79600209403447" lon="14.288026853626763"><ele>538.0</ele><time>2026-05-01T12:42:58.999Z</time></trkpt><trkpt lat="45.79607172885952" lon="14.288021771840532"><ele>538.0</ele><time>2026-05-01T12:43:00.999Z</time></trkpt><trkpt lat="45.796146515248644" lon="14.288023829741212"><ele>538.0</ele><time>2026-05-01T12:43:02.999Z</time></trkpt><trkpt lat="45.79622566151046" lon="14.288003578105249"><ele>538.0</ele><time>2026-05-01T12:43:04.999Z</time></trkpt><trkpt lat="45.79630193208521" lon="14.287950798410066"><ele>539.0</ele><time>2026-05-01T12:43:06.999Z</time></trkpt><trkpt lat="45.79636712783981" lon="14.287866205967998"><ele>540.0</ele><time>2026-05-01T12:43:08.999Z</time></trkpt><trkpt lat="45.796415018160594" lon="14.287752659252282"><ele>541.0</ele><time>2026-05-01T12:43:10.999Z</time></trkpt><trkpt lat="45.79644383735215" lon="14.287617777188014"><ele>542.0</ele><time>2026-05-01T12:43:12.999Z</time></trkpt><trkpt lat="45.79646480831664" lon="14.28747038338261"><ele>543.0</ele><time>2026-05-01T12:43:14.999Z</time></trkpt><trkpt lat="45.796508913925415" lon="14.287326045178164"><ele>543.25</ele><time>2026-05-01T12:43:16.999Z</time></trkpt><trkpt lat="45.796570065003436" lon="14.287187322023431"><ele>543.5</ele><time>2026-05-01T12:43:18.999Z</time></trkpt><trkpt lat="45.796653524908656" lon="14.287071360145521"><ele>543.75</ele><time>2026-05-01T12:43:20.999Z</time></trkpt><trkpt lat="45.79674845750084" lon="14.286979140910447"><ele>544.0</ele><time>2026-05-01T12:43:22.999Z</time></trkpt><trkpt lat="45.796836161846365" lon="14.286885633376201"><ele>544.0</ele><time>2026-05-01T12:43:24.999Z</time></trkpt><trkpt lat="45.79692618701263" lon="14.286796668780285"><ele>544.0</ele><time>2026-05-01T12:43:26.999Z</time></trkpt><trkpt lat="45.79703341051099" lon="14.28674305356274"><ele>544.0</ele><time>2026-05-01T12:43:28.999Z</time></trkpt><trkpt lat="45.79713762691316" lon="14.286672462459231"><ele>544.0</ele><time>2026-05-01T12:43:30.999Z</time></trkpt><trkpt lat="45.797246655006695" lon="14.28662292438297"><ele>544.0</ele><time>2026-05-01T12:43:32.999Z</time></trkpt><trkpt lat="45.79735844038206" lon="14.286623591826645"><ele>544.0</ele><time>2026-05-01T12:43:34.999Z</time></trkpt><trkpt lat="45.79743897336873" lon="14.28673579522905"><ele>544.0</ele><time>2026-05-01T12:43:36.999Z</time></trkpt><trkpt lat="45.79749744127986" lon="14.286812829546763"><ele>544.0</ele><time>2026-05-01T12:43:38.999Z</time></trkpt><trkpt lat="45.797564925778" lon="14.286879726632527"><ele>544.0</ele><time>2026-05-01T12:43:40.999Z</time></trkpt><trkpt lat="45.797622948803976" lon="14.286929949330869"><ele>543.1428571428571</ele><time>2026-05-01T12:43:42.999Z</time></trkpt><trkpt lat="45.79768548740536" lon="14.286959402505788"><ele>542.2857142857142</ele><time>2026-05-01T12:43:47Z</time></trkpt><trkpt lat="45.79775866361751" lon="14.286965304827508"><ele>541.4285714285714</ele><time>2026-05-01T12:45:22.999Z</time></trkpt><trkpt lat="45.7978290613703" lon="14.286988546709225"><ele>540.5714285714286</ele><time>2026-05-01T12:45:27.999Z</time></trkpt><trkpt lat="45.797892736165004" lon="14.286935254830887"><ele>539.7142857142858</ele><time>2026-05-01T12:45:31.999Z</time></trkpt><trkpt lat="45.797944337863214" lon="14.286880102531564"><ele>538.8571428571429</ele><time>2026-05-01T12:45:35.999Z</time></trkpt><trkpt lat="45.798003077302084" lon="14.286808718290148"><ele>538.0</ele><time>2026-05-01T12:45:38.999Z</time></trkpt><trkpt lat="45.79806062512431" lon="14.286737959976103"><ele>538.0</ele><time>2026-05-01T12:45:41.999Z</time></trkpt><trkpt lat="45.79797874850971" lon="14.286787109009797"><ele>538.0</ele><time>2026-05-01T12:46:33.999Z</time></trkpt><trkpt lat="45.79791296482985" lon="14.28686472716789"><ele>538.0</ele><time>2026-05-01T12:46:36.999Z</time></trkpt><trkpt lat="45.797852781394106" lon="14.28693633307812"><ele>538.0</ele><time>2026-05-01T12:46:39.999Z</time></trkpt><trkpt lat="45.797774622356435" lon="14.286970932846586"><ele>538.0</ele><time>2026-05-01T12:46:43.999Z</time></trkpt><trkpt lat="45.79765200868177" lon="14.287201107479655"><ele>538.7142857142858</ele><time>2026-05-01T12:46:48.999Z</time></trkpt><trkpt lat="45.79761893706979" lon="14.287286139234869"><ele>539.4285714285714</ele><time>2026-05-01T12:46:50.999Z</time></trkpt><trkpt lat="45.797595167046" lon="14.287385419309485"><ele>540.1428571428571</ele><time>2026-05-01T12:46:52.999Z</time></trkpt><trkpt lat="45.7975618912395" lon="14.287470623154764"><ele>540.8571428571429</ele><time>2026-05-01T12:46:56.999Z</time></trkpt><trkpt lat="45.797511192256266" lon="14.287542787068062"><ele>541.5714285714286</ele><time>2026-05-01T12:46:59.999Z</time></trkpt><trkpt lat="45.7974791156039" lon="14.287622266072603"><ele>542.2857142857143</ele><time>2026-05-01T12:47:01.999Z</time></trkpt><trkpt lat="45.797456439523565" lon="14.287713969981096"><ele>543.0</ele><time>2026-05-01T12:47:03.999Z</time></trkpt><trkpt lat="45.797456177451075" lon="14.287810750957235"><ele>543.0</ele><time>2026-05-01T12:47:05.999Z</time></trkpt><trkpt lat="45.797441020827506" lon="14.287906555288433"><ele>543.0</ele><time>2026-05-01T12:47:07.999Z</time></trkpt><trkpt lat="45.79743230771481" lon="14.287999264163059"><ele>543.0</ele><time>2026-05-01T12:47:09.999Z</time></trkpt><trkpt lat="45.797437153633155" lon="14.288125874582141"><ele>543.0</ele><time>2026-05-01T12:47:12.999Z</time></trkpt><trkpt lat="45.79744675498913" lon="14.288243900032112"><ele>543.0</ele><time>2026-05-01T12:47:15.999Z</time></trkpt><trkpt lat="45.79745592061095" lon="14.288359438451016"><ele>543.0</ele><time>2026-05-01T12:47:18.999Z</time></trkpt><trkpt lat="45.79746574859832" lon="14.28847340916803"><ele>543.2857142857143</ele><time>2026-05-01T12:47:21.999Z</time></trkpt><trkpt lat="45.79747285972024" lon="14.288564593434213"><ele>543.5714285714286</ele><time>2026-05-01T12:47:23.999Z</time></trkpt><trkpt lat="45.79747830674795" lon="14.288660906063438"><ele>543.8571428571429</ele><time>2026-05-01T12:47:25.999Z</time></trkpt><trkpt lat="45.797484567912214" lon="14.288755096687959"><ele>544.1428571428571</ele><time>2026-05-01T12:47:27.999Z</time></trkpt><trkpt lat="45.797487767711544" lon="14.288856418473712"><ele>544.4285714285714</ele><time>2026-05-01T12:47:29.999Z</time></trkpt><trkpt lat="45.797489298671856" lon="14.28896444636012"><ele>544.7142857142858</ele><time>2026-05-01T12:47:31.999Z</time></trkpt><trkpt lat="45.797492453274145" lon="14.289091020127167"><ele>545.0</ele><time>2026-05-01T12:47:33.999Z</time></trkpt><trkpt lat="45.797495225609076" lon="14.289229702947226"><ele>545.0</ele><time>2026-05-01T12:47:35.999Z</time></trkpt><trkpt lat="45.797511000450434" lon="14.28935987272863"><ele>545.0</ele><time>2026-05-01T12:47:37.999Z</time></trkpt><trkpt lat="45.79752808889205" lon="14.289484326017838"><ele>545.0</ele><time>2026-05-01T12:47:39.999Z</time></trkpt><trkpt lat="45.79755070887734" lon="14.289602111510785"><ele>545.0</ele><time>2026-05-01T12:47:41.999Z</time></trkpt><trkpt lat="45.79758401504079" lon="14.289722939280146"><ele>545.0</ele><time>2026-05-01T12:47:43.999Z</time></trkpt><trkpt lat="45.79762344490647" lon="14.289848366898681"><ele>545.6</ele><time>2026-05-01T12:47:45.999Z</time></trkpt><trkpt lat="45.79767095873108" lon="14.289987121750691"><ele>546.2</ele><time>2026-05-01T12:47:47.999Z</time></trkpt><trkpt lat="45.797705986056236" lon="14.290119080486201"><ele>546.8</ele><time>2026-05-01T12:47:49.999Z</time></trkpt><trkpt lat="45.797738468288635" lon="14.290259609414255"><ele>547.4</ele><time>2026-05-01T12:47:51.999Z</time></trkpt><trkpt lat="45.797724358877986" lon="14.29042708836835"><ele>548.0</ele><time>2026-05-01T12:47:53.999Z</time></trkpt><trkpt lat="45.79766633689937" lon="14.29047852371217"><ele>548.0</ele><time>2026-05-01T12:47:54.999Z</time></trkpt><trkpt lat="45.79755646584923" lon="14.290532310744423"><ele>548.0</ele><time>2026-05-01T12:47:57Z</time></trkpt><trkpt lat="45.79747627573204" lon="14.290643199199726"><ele>548.0</ele><time>2026-05-01T12:47:59Z</time></trkpt><trkpt lat="45.79741037703454" lon="14.290754456683997"><ele>548.0</ele><time>2026-05-01T12:48:01Z</time></trkpt><trkpt lat="45.79734227899087" lon="14.29086103053175"><ele>548.0</ele><time>2026-05-01T12:48:03Z</time></trkpt><trkpt lat="45.79727510452767" lon="14.290952574153593"><ele>547.6</ele><time>2026-05-01T12:48:05Z</time></trkpt><trkpt lat="45.79720053651298" lon="14.291025465163582"><ele>547.1999999999999</ele><time>2026-05-01T12:48:07Z</time></trkpt><trkpt lat="45.797114449482656" lon="14.291104681718092"><ele>546.8</ele><time>2026-05-01T12:48:09Z</time></trkpt><trkpt lat="45.79702907950003" lon="14.291180774071613"><ele>546.4</ele><time>2026-05-01T12:48:11Z</time></trkpt><trkpt lat="45.796945784894795" lon="14.291256955808983"><ele>546.0</ele><time>2026-05-01T12:48:13Z</time></trkpt><trkpt lat="45.79687100232663" lon="14.291342353125334"><ele>541.8333333333334</ele><time>2026-05-01T12:48:15Z</time></trkpt><trkpt lat="45.79682008721141" lon="14.291424506123562"><ele>537.6666666666666</ele><time>2026-05-01T12:48:17Z</time></trkpt><trkpt lat="45.796783307034595" lon="14.29150192106141"><ele>533.5</ele><time>2026-05-01T12:48:19Z</time></trkpt><trkpt lat="45.796769760737206" lon="14.291605345596919"><ele>529.3333333333333</ele><time>2026-05-01T12:48:26.999Z</time></trkpt><trkpt lat="45.79673310851242" lon="14.29171501182473"><ele>525.1666666666666</ele><time>2026-05-01T12:48:29.999Z</time></trkpt><trkpt lat="45.79670460198441" lon="14.291810277992104"><ele>521.0</ele><time>2026-05-01T12:48:31.999Z</time></trkpt><trkpt lat="45.79666885864766" lon="14.29192852293324"><ele>521.0</ele><time>2026-05-01T12:48:33.999Z</time></trkpt><trkpt lat="45.79664815999076" lon="14.292076186360804"><ele>521.0</ele><time>2026-05-01T12:48:35.999Z</time></trkpt><trkpt lat="45.79662742718232" lon="14.29223413338483"><ele>521.0</ele><time>2026-05-01T12:48:37.999Z</time></trkpt><trkpt lat="45.79661540445077" lon="14.292399021797834"><ele>521.0</ele><time>2026-05-01T12:48:39.999Z</time></trkpt><trkpt lat="45.79661402485707" lon="14.292558269357386"><ele>521.0</ele><time>2026-05-01T12:48:41.999Z</time></trkpt><trkpt lat="45.79661631623954" lon="14.292706472769932"><ele>522.4</ele><time>2026-05-01T12:48:43.999Z</time></trkpt><trkpt lat="45.79662038939072" lon="14.292850488175171"><ele>523.8</ele><time>2026-05-01T12:48:45.999Z</time></trkpt><trkpt lat="45.796638819417595" lon="14.293014855224754"><ele>525.1999999999999</ele><time>2026-05-01T12:48:47.999Z</time></trkpt><trkpt lat="45.79663578250325" lon="14.293179078487215"><ele>526.6</ele><time>2026-05-01T12:48:49.999Z</time></trkpt><trkpt lat="45.79663439054467" lon="14.293328451281573"><ele>528.0</ele><time>2026-05-01T12:48:51.999Z</time></trkpt><trkpt lat="45.79663682015841" lon="14.293497204229714"><ele>529.4</ele><time>2026-05-01T12:48:53.999Z</time></trkpt><trkpt lat="45.796634780193884" lon="14.29364628489569"><ele>530.8</ele><time>2026-05-01T12:48:55.999Z</time></trkpt><trkpt lat="45.79659595073768" lon="14.293773551061586"><ele>532.2</ele><time>2026-05-01T12:48:57.999Z</time></trkpt><trkpt lat="45.79652552349395" lon="14.293843910782554"><ele>533.6</ele><time>2026-05-01T12:48:59.999Z</time></trkpt><trkpt lat="45.79645479759968" lon="14.293915775466763"><ele>535.0</ele><time>2026-05-01T12:49:01.999Z</time></trkpt><trkpt lat="45.79638089947855" lon="14.293987101706069"><ele>536.0</ele><time>2026-05-01T12:49:03.999Z</time></trkpt><trkpt lat="45.79629876812149" lon="14.294057483934898"><ele>537.0</ele><time>2026-05-01T12:49:05.999Z</time></trkpt><trkpt lat="45.79622634244251" lon="14.294110367465956"><ele>538.0</ele><time>2026-05-01T12:49:07.999Z</time></trkpt><trkpt lat="45.7961452262902" lon="14.294158107116246"><ele>539.0</ele><time>2026-05-01T12:49:09.999Z</time></trkpt><trkpt lat="45.796059140725134" lon="14.294200871387511"><ele>540.0</ele><time>2026-05-01T12:49:11.999Z</time></trkpt><trkpt lat="45.79597542564582" lon="14.294234448128492"><ele>541.0</ele><time>2026-05-01T12:49:13.999Z</time></trkpt><trkpt lat="45.79590197229742" lon="14.294255321538145"><ele>541.0</ele><time>2026-05-01T12:49:15.999Z</time></trkpt><trkpt lat="45.79583071840751" lon="14.294268592322357"><ele>541.0</ele><time>2026-05-01T12:49:17.999Z</time></trkpt><trkpt lat="45.79575378119601" lon="14.294272081354638"><ele>541.0</ele><time>2026-05-01T12:49:19.999Z</time></trkpt><trkpt lat="45.79566796155606" lon="14.294264903383388"><ele>541.0</ele><time>2026-05-01T12:49:21.999Z</time></trkpt><trkpt lat="45.795605882459384" lon="14.294234434510033"><ele>541.0</ele><time>2026-05-01T12:49:23.999Z</time></trkpt><trkpt lat="45.7955204672801" lon="14.294186198059625"><ele>541.0</ele><time>2026-05-01T12:49:25.999Z</time></trkpt><trkpt lat="45.79543269228626" lon="14.294150004276808"><ele>541.0</ele><time>2026-05-01T12:49:27.999Z</time></trkpt><trkpt lat="45.79534954170996" lon="14.294131391753933"><ele>541.0</ele><time>2026-05-01T12:49:29.999Z</time></trkpt><trkpt lat="45.79527825907641" lon="14.294115475447832"><ele>541.0</ele><time>2026-05-01T12:49:31.999Z</time></trkpt><trkpt lat="45.79520872300278" lon="14.294121075225531"><ele>541.0</ele><time>2026-05-01T12:49:33.999Z</time></trkpt><trkpt lat="45.79514231242373" lon="14.294104804640847"><ele>541.0</ele><time>2026-05-01T12:49:35.999Z</time></trkpt><trkpt lat="45.79507864361286" lon="14.294103265461079"><ele>541.0</ele><time>2026-05-01T12:49:37.999Z</time></trkpt><trkpt lat="45.79498495855636" lon="14.294083127235709"><ele>540.7142857142858</ele><time>2026-05-01T12:49:40.999Z</time></trkpt><trkpt lat="45.79492171764889" lon="14.294080461285766"><ele>540.4285714285714</ele><time>2026-05-01T12:49:42.999Z</time></trkpt><trkpt lat="45.79484854192989" lon="14.2940773765923"><ele>540.1428571428571</ele><time>2026-05-01T12:49:44.999Z</time></trkpt><trkpt lat="45.79477034646512" lon="14.294076271249482"><ele>539.8571428571429</ele><time>2026-05-01T12:49:46.999Z</time></trkpt><trkpt lat="45.79470106682219" lon="14.294090648839566"><ele>539.5714285714286</ele><time>2026-05-01T12:49:48.999Z</time></trkpt><trkpt lat="45.794616383841394" lon="14.294061167731037"><ele>539.2857142857143</ele><time>2026-05-01T12:49:51.999Z</time></trkpt><trkpt lat="45.7945525195157" lon="14.294056453917765"><ele>539.0</ele><time>2026-05-01T12:49:53.999Z</time></trkpt><trkpt lat="45.794484014166144" lon="14.294077115861164"><ele>539.0</ele><time>2026-05-01T12:49:55.999Z</time></trkpt><trkpt lat="45.79441796588034" lon="14.294080110156695"><ele>539.0</ele><time>2026-05-01T12:49:57.999Z</time></trkpt><trkpt lat="45.794346543274145" lon="14.294106493305291"><ele>539.0</ele><time>2026-05-01T12:49:59.999Z</time></trkpt><trkpt lat="45.79428065574434" lon="14.294136917024119"><ele>539.0</ele><time>2026-05-01T12:50:02Z</time></trkpt><trkpt lat="45.794213450902674" lon="14.294172526903818"><ele>539.0</ele><time>2026-05-01T12:50:04Z</time></trkpt><trkpt lat="45.79414323756251" lon="14.294214605396885"><ele>539.0</ele><time>2026-05-01T12:50:06Z</time></trkpt><trkpt lat="45.79407013865861" lon="14.294261178239863"><ele>539.0</ele><time>2026-05-01T12:50:08Z</time></trkpt><trkpt lat="45.7939988412556" lon="14.294307328378617"><ele>537.7142857142857</ele><time>2026-05-01T12:50:10Z</time></trkpt><trkpt lat="45.793937001227185" lon="14.294347356852981"><ele>536.4285714285714</ele><time>2026-05-01T12:50:12Z</time></trkpt><trkpt lat="45.79387038459379" lon="14.294392320505397"><ele>535.1428571428571</ele><time>2026-05-01T12:50:14Z</time></trkpt><trkpt lat="45.79381419951889" lon="14.294457706641795"><ele>533.8571428571429</ele><time>2026-05-01T12:50:16Z</time></trkpt><trkpt lat="45.79374278738594" lon="14.294505078511108"><ele>532.5714285714286</ele><time>2026-05-01T12:50:18Z</time></trkpt><trkpt lat="45.793675976597214" lon="14.294550836084769"><ele>531.2857142857142</ele><time>2026-05-01T12:50:20Z</time></trkpt><trkpt lat="45.79360677371865" lon="14.294600602083825"><ele>530.0</ele><time>2026-05-01T12:50:22Z</time></trkpt><trkpt lat="45.793539747866554" lon="14.294651188009636"><ele>531.1666666666666</ele><time>2026-05-01T12:50:24Z</time></trkpt><trkpt lat="45.79346520902706" lon="14.294686137257239"><ele>532.3333333333333</ele><time>2026-05-01T12:50:26Z</time></trkpt><trkpt lat="45.793402679944435" lon="14.294756059314174"><ele>533.5</ele><time>2026-05-01T12:50:28Z</time></trkpt><trkpt lat="45.79333297688992" lon="14.29480714555413"><ele>534.6666666666666</ele><time>2026-05-01T12:50:30Z</time></trkpt><trkpt lat="45.793261905471205" lon="14.294858087566858"><ele>535.8333333333334</ele><time>2026-05-01T12:50:32Z</time></trkpt><trkpt lat="45.79318832439864" lon="14.294904086117"><ele>537.0</ele><time>2026-05-01T12:50:34Z</time></trkpt><trkpt lat="45.7931101034495" lon="14.294954376648564"><ele>537.0</ele><time>2026-05-01T12:50:36Z</time></trkpt><trkpt lat="45.79304057776457" lon="14.295006631634335"><ele>537.0</ele><time>2026-05-01T12:50:38Z</time></trkpt><trkpt lat="45.792967221231464" lon="14.295057701165268"><ele>537.0</ele><time>2026-05-01T12:50:40Z</time></trkpt><trkpt lat="45.79289918416066" lon="14.295116676715738"><ele>537.0</ele><time>2026-05-01T12:50:42Z</time></trkpt><trkpt lat="45.79283100049678" lon="14.295181138280839"><ele>537.0</ele><time>2026-05-01T12:50:44Z</time></trkpt><trkpt lat="45.79276178392578" lon="14.295246317196025"><ele>537.0</ele><time>2026-05-01T12:50:45.999Z</time></trkpt><trkpt lat="45.79269261823229" lon="14.295314174975834"><ele>537.3333333333334</ele><time>2026-05-01T12:50:47.999Z</time></trkpt><trkpt lat="45.79262876955936" lon="14.295380721916597"><ele>537.6666666666666</ele><time>2026-05-01T12:50:49.999Z</time></trkpt><trkpt lat="45.79257724697654" lon="14.295453407468292"><ele>538.0</ele><time>2026-05-01T12:50:51.999Z</time></trkpt><trkpt lat="45.7925332923393" lon="14.295531814642274"><ele>538.3333333333333</ele><time>2026-05-01T12:50:53.999Z</time></trkpt><trkpt lat="45.79248854425237" lon="14.295624858741037"><ele>538.6666666666666</ele><time>2026-05-01T12:50:55.999Z</time></trkpt><trkpt lat="45.792439762521816" lon="14.295712754702725"><ele>539.0</ele><time>2026-05-01T12:50:57.999Z</time></trkpt><trkpt lat="45.79239644527304" lon="14.29581630695503"><ele>539.0</ele><time>2026-05-01T12:50:59.999Z</time></trkpt><trkpt lat="45.79232820991606" lon="14.295880002734423"><ele>539.0</ele><time>2026-05-01T12:51:01.999Z</time></trkpt><trkpt lat="45.792265127729756" lon="14.29595820028132"><ele>539.0</ele><time>2026-05-01T12:51:03.999Z</time></trkpt><trkpt lat="45.79219756946936" lon="14.296040672362576"><ele>539.0</ele><time>2026-05-01T12:51:05.999Z</time></trkpt><trkpt lat="45.79212854116838" lon="14.29612493907398"><ele>539.0</ele><time>2026-05-01T12:51:07.999Z</time></trkpt><trkpt lat="45.792064516439346" lon="14.296211771319145"><ele>539.0</ele><time>2026-05-01T12:51:09.999Z</time></trkpt><trkpt lat="45.79198594926519" lon="14.296275968713623"><ele>539.0</ele><time>2026-05-01T12:51:11.999Z</time></trkpt><trkpt lat="45.79192404088999" lon="14.296362020959165"><ele>539.0</ele><time>2026-05-01T12:51:13.999Z</time></trkpt><trkpt lat="45.79187703956873" lon="14.296450839233415"><ele>539.0</ele><time>2026-05-01T12:51:15.999Z</time></trkpt><trkpt lat="45.79185970318044" lon="14.296554404677014"><ele>539.0</ele><time>2026-05-01T12:51:17.999Z</time></trkpt><trkpt lat="45.79186381675973" lon="14.296667337083404"><ele>539.0</ele><time>2026-05-01T12:51:19.999Z</time></trkpt><trkpt lat="45.79186697632117" lon="14.296795841731665"><ele>539.0</ele><time>2026-05-01T12:51:21.999Z</time></trkpt><trkpt lat="45.79185913770669" lon="14.296927477391455"><ele>539.0</ele><time>2026-05-01T12:51:23.999Z</time></trkpt><trkpt lat="45.79183616967614" lon="14.297048123218945"><ele>539.0</ele><time>2026-05-01T12:51:25.999Z</time></trkpt><trkpt lat="45.79181230690365" lon="14.297147943485507"><ele>539.0</ele><time>2026-05-01T12:51:27.999Z</time></trkpt><trkpt lat="45.79175833818317" lon="14.297203196132932"><ele>539.0</ele><time>2026-05-01T12:51:29.999Z</time></trkpt><trkpt lat="45.79168547059538" lon="14.297259432843576"><ele>539.0</ele><time>2026-05-01T12:51:31.999Z</time></trkpt><trkpt lat="45.791605719151036" lon="14.29730814467304"><ele>539.0</ele><time>2026-05-01T12:51:33.999Z</time></trkpt><trkpt lat="45.791533401563235" lon="14.297348285972038"><ele>539.1666666666666</ele><time>2026-05-01T12:51:35.999Z</time></trkpt><trkpt lat="45.79146448279372" lon="14.297398626639461"><ele>539.3333333333333</ele><time>2026-05-01T12:51:37.999Z</time></trkpt><trkpt lat="45.79139138492561" lon="14.297448027714317"><ele>539.5</ele><time>2026-05-01T12:51:39.999Z</time></trkpt><trkpt lat="45.79132993246827" lon="14.297516087272736"><ele>539.6666666666666</ele><time>2026-05-01T12:51:41.999Z</time></trkpt><trkpt lat="45.79128373225914" lon="14.297615757642886"><ele>539.8333333333334</ele><time>2026-05-01T12:51:43.999Z</time></trkpt><trkpt lat="45.79125081098543" lon="14.29772376473102"><ele>540.0</ele><time>2026-05-01T12:51:45.999Z</time></trkpt><trkpt lat="45.791231862761244" lon="14.297832940495619"><ele>540.0</ele><time>2026-05-01T12:51:47.999Z</time></trkpt><trkpt lat="45.791221557582034" lon="14.297938883534592"><ele>540.0</ele><time>2026-05-01T12:51:49.999Z</time></trkpt><trkpt lat="45.79121461079087" lon="14.298055076834626"><ele>540.0</ele><time>2026-05-01T12:51:51.999Z</time></trkpt><trkpt lat="45.79120378824561" lon="14.298169181816409"><ele>540.0</ele><time>2026-05-01T12:51:53.999Z</time></trkpt><trkpt lat="45.79118171139015" lon="14.298285210675061"><ele>540.0</ele><time>2026-05-01T12:51:55.999Z</time></trkpt><trkpt lat="45.79114401673254" lon="14.298398001544589"><ele>540.0</ele><time>2026-05-01T12:51:57.999Z</time></trkpt><trkpt lat="45.79111486323093" lon="14.29849671015378"><ele>540.0</ele><time>2026-05-01T12:51:59.999Z</time></trkpt><trkpt lat="45.791101590087415" lon="14.298595646854853"><ele>540.0</ele><time>2026-05-01T12:52:01.999Z</time></trkpt><trkpt lat="45.79112583269329" lon="14.298679886674648"><ele>540.0</ele><time>2026-05-01T12:52:04.999Z</time></trkpt><trkpt lat="45.79124219721098" lon="14.298731742523032"><ele>540.0</ele><time>2026-05-01T12:53:06.999Z</time></trkpt><trkpt lat="45.79130386278582" lon="14.298752750903295"><ele>540.0</ele><time>2026-05-01T12:53:08.999Z</time></trkpt><trkpt lat="45.791371411782976" lon="14.298782338535355"><ele>540.0</ele><time>2026-05-01T12:53:10.999Z</time></trkpt><trkpt lat="45.79143725956698" lon="14.298826559439611"><ele>540.0</ele><time>2026-05-01T12:53:12.999Z</time></trkpt><trkpt lat="45.79149279823758" lon="14.298889801849294"><ele>540.0</ele><time>2026-05-01T12:53:14.999Z</time></trkpt><trkpt lat="45.791533527987575" lon="14.298975666350229"><ele>540.0</ele><time>2026-05-01T12:53:16.999Z</time></trkpt><trkpt lat="45.791556193539385" lon="14.299065928882074"><ele>540.0</ele><time>2026-05-01T12:53:18.999Z</time></trkpt><trkpt lat="45.79156579077016" lon="14.299156323162507"><ele>540.0</ele><time>2026-05-01T12:53:20.999Z</time></trkpt><trkpt lat="45.791563818264976" lon="14.299257846611937"><ele>540.0</ele><time>2026-05-01T12:53:22.999Z</time></trkpt><trkpt lat="45.79154741918162" lon="14.299356786613416"><ele>540.0</ele><time>2026-05-01T12:53:24.999Z</time></trkpt><trkpt lat="45.791494214715065" lon="14.299437484180677"><ele>540.1428571428571</ele><time>2026-05-01T12:53:26.999Z</time></trkpt><trkpt lat="45.79144226781011" lon="14.299508531881319"><ele>540.2857142857142</ele><time>2026-05-01T12:53:28.999Z</time></trkpt><trkpt lat="45.79138492006559" lon="14.299569593499196"><ele>540.4285714285714</ele><time>2026-05-01T12:53:30.999Z</time></trkpt><trkpt lat="45.791323565534434" lon="14.299629885483267"><ele>540.5714285714286</ele><time>2026-05-01T12:53:32.999Z</time></trkpt><trkpt lat="45.791262094806015" lon="14.29966480899302"><ele>540.7142857142858</ele><time>2026-05-01T12:53:34.999Z</time></trkpt><trkpt lat="45.79118606707727" lon="14.299700376484015"><ele>540.8571428571429</ele><time>2026-05-01T12:53:36.999Z</time></trkpt><trkpt lat="45.79111789529775" lon="14.299735882086198"><ele>541.0</ele><time>2026-05-01T12:53:38.999Z</time></trkpt><trkpt lat="45.791065715325345" lon="14.299810785761014"><ele>541.0</ele><time>2026-05-01T12:53:40.999Z</time></trkpt><trkpt lat="45.79108256887043" lon="14.299935110069638"><ele>541.0</ele><time>2026-05-01T12:53:42.999Z</time></trkpt><trkpt lat="45.79111874466169" lon="14.300033381190774"><ele>541.0</ele><time>2026-05-01T12:53:44.999Z</time></trkpt><trkpt lat="45.79116071190598" lon="14.300129057323964"><ele>541.0</ele><time>2026-05-01T12:53:46.999Z</time></trkpt><trkpt lat="45.79117533538322" lon="14.300235504170017"><ele>541.0</ele><time>2026-05-01T12:53:48.999Z</time></trkpt><trkpt lat="45.7912163307258" lon="14.300335419999435"><ele>541.0</ele><time>2026-05-01T12:53:50.999Z</time></trkpt><trkpt lat="45.791232540252594" lon="14.30044227913359"><ele>541.0</ele><time>2026-05-01T12:53:52.999Z</time></trkpt><trkpt lat="45.79124844108155" lon="14.300545023623213"><ele>541.0</ele><time>2026-05-01T12:53:54.999Z</time></trkpt><trkpt lat="45.791260529611804" lon="14.30065732491401"><ele>541.0</ele><time>2026-05-01T12:53:56.999Z</time></trkpt><trkpt lat="45.7912645666967" lon="14.300768107867333"><ele>541.0</ele><time>2026-05-01T12:53:58.999Z</time></trkpt><trkpt lat="45.79125115220433" lon="14.300880964765017"><ele>541.0</ele><time>2026-05-01T12:54:00.999Z</time></trkpt><trkpt lat="45.79122374638691" lon="14.300988331124403"><ele>541.0</ele><time>2026-05-01T12:54:02.999Z</time></trkpt><trkpt lat="45.79118298952342" lon="14.301074620935902"><ele>541.0</ele><time>2026-05-01T12:54:04.999Z</time></trkpt><trkpt lat="45.79113863958377" lon="14.301150173880949"><ele>541.0</ele><time>2026-05-01T12:54:06.999Z</time></trkpt><trkpt lat="45.791084963129464" lon="14.301241661097636"><ele>541.0</ele><time>2026-05-01T12:54:08.999Z</time></trkpt><trkpt lat="45.79102193484869" lon="14.30131152987436"><ele>541.0</ele><time>2026-05-01T12:54:10.999Z</time></trkpt><trkpt lat="45.79096495924697" lon="14.301385360142348"><ele>541.0</ele><time>2026-05-01T12:54:12.999Z</time></trkpt><trkpt lat="45.79111874466169" lon="14.300033381190774"><ele>541.0</ele><time>2026-05-01T12:53:44.999Z</time></trkpt><trkpt lat="45.79116071190598" lon="14.300129057323964"><ele>541.0</ele><time>2026-05-01T12:53:46.999Z</time></trkpt><trkpt lat="45.79117533538322" lon="14.300235504170017"><ele>541.0</ele><time>2026-05-01T12:53:48.999Z</time></trkpt><trkpt lat="45.7912163307258" lon="14.300335419999435"><ele>541.0</ele><time>2026-05-01T12:53:50.999Z</time></trkpt><trkpt lat="45.791232540252594" lon="14.30044227913359"><ele>541.0</ele><time>2026-05-01T12:53:52.999Z</time></trkpt><trkpt lat="45.79124844108155" lon="14.300545023623213"><ele>541.0</ele><time>2026-05-01T12:53:54.999Z</time></trkpt><trkpt lat="45.791260529611804" lon="14.30065732491401"><ele>541.6666666666667</ele><time>2026-05-01T12:53:56.999Z</time></trkpt><trkpt lat="45.7912645666967" lon="14.300768107867333"><ele>542.3333333333334</ele><time>2026-05-01T12:53:58.999Z</time></trkpt><trkpt lat="45.79125115220433" lon="14.300880964765017"><ele>543.0</ele><time>2026-05-01T12:54:00.999Z</time></trkpt><trkpt lat="45.79122374638691" lon="14.300988331124403"><ele>543.6666666666666</ele><time>2026-05-01T12:54:02.999Z</time></trkpt><trkpt lat="45.79118298952342" lon="14.301074620935902"><ele>544.3333333333333</ele><time>2026-05-01T12:54:04.999Z</time></trkpt><trkpt lat="45.79113863958377" lon="14.301150173880949"><ele>545.0</ele><time>2026-05-01T12:54:06.999Z</time></trkpt><trkpt lat="45.791084963129464" lon="14.301241661097636"><ele>545.0</ele><time>2026-05-01T12:54:08.999Z</time></trkpt><trkpt lat="45.79102193484869" lon="14.30131152987436"><ele>545.0</ele><time>2026-05-01T12:54:10.999Z</time></trkpt><trkpt lat="45.79096495924697" lon="14.301385360142348"><ele>545.0</ele><time>2026-05-01T12:54:12.999Z</time></trkpt><trkpt lat="45.7909099991036" lon="14.301453229408736"><ele>545.0</ele><time>2026-05-01T12:54:15Z</time></trkpt><trkpt lat="45.790858421830954" lon="14.301520353569988"><ele>545.0</ele><time>2026-05-01T12:54:17Z</time></trkpt><trkpt lat="45.79082098862743" lon="14.301600877188786"><ele>545.0</ele><time>2026-05-01T12:54:19Z</time></trkpt><trkpt lat="45.79078109394532" lon="14.301677123683023"><ele>545.0</ele><time>2026-05-01T12:54:21Z</time></trkpt><trkpt lat="45.79077637178815" lon="14.30177458276448"><ele>544.8571428571429</ele><time>2026-05-01T12:54:23Z</time></trkpt><trkpt lat="45.79079315936475" lon="14.301874516293886"><ele>544.7142857142858</ele><time>2026-05-01T12:54:25Z</time></trkpt><trkpt lat="45.79082707060575" lon="14.301972949058047"><ele>544.5714285714286</ele><time>2026-05-01T12:54:27Z</time></trkpt><trkpt lat="45.79087179853268" lon="14.302062883484092"><ele>544.4285714285714</ele><time>2026-05-01T12:54:29Z</time></trkpt><trkpt lat="45.79091466332708" lon="14.302144109522212"><ele>544.2857142857142</ele><time>2026-05-01T12:54:31Z</time></trkpt><trkpt lat="45.790954039328184" lon="14.302225805403685"><ele>544.1428571428571</ele><time>2026-05-01T12:54:33Z</time></trkpt><trkpt lat="45.790993170834675" lon="14.302309252193506"><ele>544.0</ele><time>2026-05-01T12:54:35Z</time></trkpt><trkpt lat="45.79103981582833" lon="14.302397029718591"><ele>543.9999999999999</ele><time>2026-05-01T12:54:37Z</time></trkpt><trkpt lat="45.79108952437378" lon="14.302480591082483"><ele>544.0</ele><time>2026-05-01T12:54:39Z</time></trkpt><trkpt lat="45.791156372304265" lon="14.302513658134657"><ele>544.0</ele><time>2026-05-01T12:54:41Z</time></trkpt><trkpt lat="45.79122460522749" lon="14.302525838664618"><ele>544.0</ele><time>2026-05-01T12:54:43Z</time></trkpt><trkpt lat="45.7912935372508" lon="14.302550098076624"><ele>544.0</ele><time>2026-05-01T12:54:45Z</time></trkpt><trkpt lat="45.79137218914425" lon="14.302544756791017"><ele>543.9999999999999</ele><time>2026-05-01T12:54:47Z</time></trkpt><trkpt lat="45.79144598307185" lon="14.302523841170549"><ele>544.0</ele><time>2026-05-01T12:54:49Z</time></trkpt><trkpt lat="45.79151406953103" lon="14.302512022980958"><ele>544.0</ele><time>2026-05-01T12:54:51Z</time></trkpt><trkpt lat="45.79159234799026" lon="14.302479867536725"><ele>544.0</ele><time>2026-05-01T12:54:53Z</time></trkpt><trkpt lat="45.79167556083083" lon="14.302466449609087"><ele>544.0</ele><time>2026-05-01T12:54:55Z</time></trkpt><trkpt lat="45.791753035320006" lon="14.302480010963093"><ele>544.0</ele><time>2026-05-01T12:54:57Z</time></trkpt><trkpt lat="45.79182679941307" lon="14.302515570293652"><ele>544.0</ele><time>2026-05-01T12:54:59Z</time></trkpt><trkpt lat="45.79189354423901" lon="14.302561197339427"><ele>544.0</ele><time>2026-05-01T12:55:01Z</time></trkpt><trkpt lat="45.79196347009462" lon="14.302614515224253"><ele>545.6666666666667</ele><time>2026-05-01T12:55:03Z</time></trkpt><trkpt lat="45.792026053890496" lon="14.3026699846269"><ele>547.3333333333334</ele><time>2026-05-01T12:55:05Z</time></trkpt><trkpt lat="45.79208915398428" lon="14.302727859834333"><ele>549.0</ele><time>2026-05-01T12:55:07Z</time></trkpt><trkpt lat="45.79215719066041" lon="14.302776098479042"><ele>550.6666666666666</ele><time>2026-05-01T12:55:09Z</time></trkpt><trkpt lat="45.792222106842125" lon="14.302822452990826"><ele>552.3333333333333</ele><time>2026-05-01T12:55:11Z</time></trkpt><trkpt lat="45.79228746751791" lon="14.302871847607884"><ele>554.0</ele><time>2026-05-01T12:55:13Z</time></trkpt><trkpt lat="45.79234454010201" lon="14.302950277707563"><ele>554.0</ele><time>2026-05-01T12:55:15Z</time></trkpt><trkpt lat="45.79238795816616" lon="14.30304523460186"><ele>554.0</ele><time>2026-05-01T12:55:17Z</time></trkpt><trkpt lat="45.79242249986223" lon="14.303142770178683"><ele>554.0</ele><time>2026-05-01T12:55:18.999Z</time></trkpt><trkpt lat="45.79244926504585" lon="14.303248103479298"><ele>554.0</ele><time>2026-05-01T12:55:20.999Z</time></trkpt><trkpt lat="45.79244239510008" lon="14.30336373962"><ele>554.0</ele><time>2026-05-01T12:55:22.999Z</time></trkpt><trkpt lat="45.79241009802515" lon="14.303469015017534"><ele>554.0</ele><time>2026-05-01T12:55:24.999Z</time></trkpt><trkpt lat="45.792354638947515" lon="14.303535960097602"><ele>553.8571428571429</ele><time>2026-05-01T12:55:26.999Z</time></trkpt><trkpt lat="45.79230286382432" lon="14.303604068001158"><ele>553.7142857142857</ele><time>2026-05-01T12:55:28.999Z</time></trkpt><trkpt lat="45.792246341756716" lon="14.30365965685751"><ele>553.5714285714286</ele><time>2026-05-01T12:55:30.999Z</time></trkpt><trkpt lat="45.79218221117005" lon="14.303691270602377"><ele>553.4285714285714</ele><time>2026-05-01T12:55:32.999Z</time></trkpt><trkpt lat="45.79211092104601" lon="14.303730875536981"><ele>553.2857142857142</ele><time>2026-05-01T12:55:34.999Z</time></trkpt><trkpt lat="45.79204030888131" lon="14.303812158408139"><ele>553.1428571428571</ele><time>2026-05-01T12:55:36.999Z</time></trkpt><trkpt lat="45.792034402944495" lon="14.303919881753721"><ele>553.0</ele><time>2026-05-01T12:55:38.999Z</time></trkpt><trkpt lat="45.79202604477679" lon="14.304042215148023"><ele>553.0</ele><time>2026-05-01T12:55:41.999Z</time></trkpt><trkpt lat="45.79204900673319" lon="14.304154869554148"><ele>553.0</ele><time>2026-05-01T12:55:44.999Z</time></trkpt><trkpt lat="45.79206795491065" lon="14.304243093121002"><ele>553.0</ele><time>2026-05-01T12:55:46.999Z</time></trkpt><trkpt lat="45.7921040862873" lon="14.30436084416134"><ele>553.0</ele><time>2026-05-01T12:55:49.999Z</time></trkpt><trkpt lat="45.79210649956002" lon="14.30449896960473"><ele>553.0</ele><time>2026-05-01T12:55:52.999Z</time></trkpt><trkpt lat="45.792079567763516" lon="14.304623546553893"><ele>553.0</ele><time>2026-05-01T12:57:05Z</time></trkpt><trkpt lat="45.79205008759547" lon="14.30472722521464"><ele>553.0</ele><time>2026-05-01T12:57:10Z</time></trkpt><trkpt lat="45.79196456691508" lon="14.304715477710003"><ele>553.0</ele><time>2026-05-01T12:57:13Z</time></trkpt><trkpt lat="45.791887637970646" lon="14.304714418859945"><ele>553.0</ele><time>2026-05-01T12:57:16Z</time></trkpt><trkpt lat="45.79183193916517" lon="14.304653192519918"><ele>553.0</ele><time>2026-05-01T12:57:19Z</time></trkpt><trkpt lat="45.79178721552951" lon="14.30458929967731"><ele>553.0</ele><time>2026-05-01T12:57:22Z</time></trkpt><trkpt lat="45.79173080335019" lon="14.304495767457016"><ele>553.0</ele><time>2026-05-01T12:57:25Z</time></trkpt><trkpt lat="45.79167456277617" lon="14.304417291662133"><ele>553.0</ele><time>2026-05-01T12:57:28Z</time></trkpt><trkpt lat="45.79162411496178" lon="14.304361465237067"><ele>553.0</ele><time>2026-05-01T12:57:30Z</time></trkpt><trkpt lat="45.79155654948829" lon="14.304319642873423"><ele>553.0</ele><time>2026-05-01T12:57:31.999Z</time></trkpt><trkpt lat="45.791470087402686" lon="14.304294999276102"><ele>553.0</ele><time>2026-05-01T12:57:34.999Z</time></trkpt><trkpt lat="45.79137460200437" lon="14.304279771495422"><ele>553.0</ele><time>2026-05-01T12:57:37.999Z</time></trkpt><trkpt lat="45.791283354662646" lon="14.304275350920546"><ele>553.0</ele><time>2026-05-01T12:57:40.999Z</time></trkpt><trkpt lat="45.79120825580273" lon="14.304262096881814"><ele>553.0</ele><time>2026-05-01T12:57:43.999Z</time></trkpt><trkpt lat="45.791136157147875" lon="14.304230512476275"><ele>553.0</ele><time>2026-05-01T12:57:46.999Z</time></trkpt><trkpt lat="45.791064551919355" lon="14.304183654174812"><ele>553.0</ele><time>2026-05-01T12:57:49.999Z</time></trkpt><trkpt lat="45.79100287260364" lon="14.304138351300846"><ele>553.0</ele><time>2026-05-01T12:57:51.999Z</time></trkpt><trkpt lat="45.79094519220086" lon="14.304092565527728"><ele>553.0</ele><time>2026-05-01T12:57:53.999Z</time></trkpt><trkpt lat="45.7908851109494" lon="14.304041974763717"><ele>553.0</ele><time>2026-05-01T12:57:55.999Z</time></trkpt><trkpt lat="45.79082906316254" lon="14.303994780290552"><ele>553.0</ele><time>2026-05-01T12:57:57.999Z</time></trkpt><trkpt lat="45.79076416624535" lon="14.303940807932184"><ele>551.4285714285714</ele><time>2026-05-01T12:57:59.999Z</time></trkpt><trkpt lat="45.790697188393466" lon="14.303883446632382"><ele>549.8571428571429</ele><time>2026-05-01T12:58:02.999Z</time></trkpt><trkpt lat="45.790644091805184" lon="14.30383047117272"><ele>548.2857142857142</ele><time>2026-05-01T12:58:04.999Z</time></trkpt><trkpt lat="45.79057630409121" lon="14.303882956523156"><ele>546.7142857142858</ele><time>2026-05-01T12:58:06.999Z</time></trkpt><trkpt lat="45.79050217853739" lon="14.303845608410567"><ele>545.1428571428571</ele><time>2026-05-01T12:58:09.999Z</time></trkpt><trkpt lat="45.79043640921742" lon="14.30385176106326"><ele>543.5714285714286</ele><time>2026-05-01T12:59:05Z</time></trkpt><trkpt lat="45.79049968256898" lon="14.303815738698972"><ele>542.0</ele><time>2026-05-01T12:59:14Z</time></trkpt><trkpt lat="45.790574017653434" lon="14.303790504096542"><ele>542.0</ele><time>2026-05-01T12:59:18Z</time></trkpt><trkpt lat="45.790706684886445" lon="14.303892133070278"><ele>542.0</ele><time>2026-05-01T12:59:22Z</time></trkpt><trkpt lat="45.79077768738196" lon="14.303951953590376"><ele>542.0</ele><time>2026-05-01T12:59:26Z</time></trkpt><trkpt lat="45.790853609847844" lon="14.304015449615225"><ele>542.0</ele><time>2026-05-01T12:59:29Z</time></trkpt><trkpt lat="45.79091178400699" lon="14.304064434956633"><ele>542.0</ele><time>2026-05-01T12:59:31Z</time></trkpt><trkpt lat="45.79097466485186" lon="14.30411655808185"><ele>544.2</ele><time>2026-05-01T12:59:33Z</time></trkpt><trkpt lat="45.7910468921049" lon="14.304170779422805"><ele>546.4000000000001</ele><time>2026-05-01T12:59:35Z</time></trkpt><trkpt lat="45.7911248444785" lon="14.3042268261363"><ele>548.5999999999999</ele><time>2026-05-01T12:59:37Z</time></trkpt><trkpt lat="45.791241131117786" lon="14.30428055717782"><ele>550.8</ele><time>2026-05-01T12:59:39Z</time></trkpt><trkpt lat="45.791320655945235" lon="14.304285754294208"><ele>553.0</ele><time>2026-05-01T12:59:41Z</time></trkpt><trkpt lat="45.791403728791074" lon="14.304281182927511"><ele>553.0</ele><time>2026-05-01T12:59:43Z</time></trkpt><trkpt lat="45.79149699788944" lon="14.304298448114661"><ele>553.0</ele><time>2026-05-01T12:59:45Z</time></trkpt><trkpt lat="45.79157971156011" lon="14.304312932046281"><ele>553.0</ele><time>2026-05-01T12:59:46.999Z</time></trkpt><trkpt lat="45.79165548792488" lon="14.304430207919996"><ele>553.0</ele><time>2026-05-01T12:59:48.999Z</time></trkpt><trkpt lat="45.791708766380225" lon="14.30455203178067"><ele>553.0</ele><time>2026-05-01T12:59:50.999Z</time></trkpt><trkpt lat="45.791769803202875" lon="14.304676316047752"><ele>553.0</ele><time>2026-05-01T12:59:52.999Z</time></trkpt><trkpt lat="45.79185573623403" lon="14.304758282379526"><ele>553.0</ele><time>2026-05-01T12:59:54.999Z</time></trkpt><trkpt lat="45.79196865143245" lon="14.304743807021794"><ele>553.0</ele><time>2026-05-01T12:59:56.999Z</time></trkpt><trkpt lat="45.792059899861435" lon="14.304675260946244"><ele>553.0</ele><time>2026-05-01T12:59:58.999Z</time></trkpt><trkpt lat="45.792111453386326" lon="14.304560829143938"><ele>553.0</ele><time>2026-05-01T13:00:00.999Z</time></trkpt><trkpt lat="45.79212787263693" lon="14.304447552533281"><ele>553.0</ele><time>2026-05-01T13:00:02.999Z</time></trkpt><trkpt lat="45.79211212572331" lon="14.304348420618169"><ele>553.0</ele><time>2026-05-01T13:00:04.999Z</time></trkpt><trkpt lat="45.79209800557596" lon="14.304255215859774"><ele>553.0</ele><time>2026-05-01T13:00:06.999Z</time></trkpt><trkpt lat="45.79206658785891" lon="14.30411161694325"><ele>553.0</ele><time>2026-05-01T13:00:08.999Z</time></trkpt><trkpt lat="45.79204824547192" lon="14.303994473225771"><ele>553.0</ele><time>2026-05-01T13:00:10.999Z</time></trkpt><trkpt lat="45.792066185149686" lon="14.303901521537592"><ele>553.0</ele><time>2026-05-01T13:00:12.999Z</time></trkpt><trkpt lat="45.79211566151395" lon="14.30383275948963"><ele>552.5</ele><time>2026-05-01T13:00:14.999Z</time></trkpt><trkpt lat="45.792184138798824" lon="14.303783524656703"><ele>552.0</ele><time>2026-05-01T13:00:16.999Z</time></trkpt><trkpt lat="45.79225949991281" lon="14.3037107332437"><ele>551.5</ele><time>2026-05-01T13:00:18.999Z</time></trkpt><trkpt lat="45.79234194814824" lon="14.303625597427576"><ele>551.0</ele><time>2026-05-01T13:00:20.999Z</time></trkpt><trkpt lat="45.792399785653" lon="14.303545516038024"><ele>550.5</ele><time>2026-05-01T13:00:22.999Z</time></trkpt><trkpt lat="45.792443703659316" lon="14.303453394886"><ele>550.0</ele><time>2026-05-01T13:00:25.999Z</time></trkpt><trkpt lat="45.7924617244792" lon="14.303344769889614"><ele>550.0</ele><time>2026-05-01T13:00:28.999Z</time></trkpt><trkpt lat="45.79246858599841" lon="14.303229390855218"><ele>550.0</ele><time>2026-05-01T13:00:32Z</time></trkpt><trkpt lat="45.79244389735093" lon="14.303098862877818"><ele>550.0</ele><time>2026-05-01T13:00:35Z</time></trkpt><trkpt lat="45.79241591568683" lon="14.303017347803237"><ele>550.0</ele><time>2026-05-01T13:00:37Z</time></trkpt><trkpt lat="45.792368722104186" lon="14.302935671297067"><ele>550.0</ele><time>2026-05-01T13:00:39Z</time></trkpt><trkpt lat="45.79231630618008" lon="14.30286887501374"><ele>550.0</ele><time>2026-05-01T13:00:41Z</time></trkpt><trkpt lat="45.79225740624408" lon="14.302803813861066"><ele>550.6666666666667</ele><time>2026-05-01T13:01:47Z</time></trkpt><trkpt lat="45.79219828339822" lon="14.302742369939434"><ele>551.3333333333334</ele><time>2026-05-01T13:02:30.999Z</time></trkpt><trkpt lat="45.792138535743646" lon="14.3026848076299"><ele>552.0</ele><time>2026-05-01T13:02:33.999Z</time></trkpt><trkpt lat="45.792065136214696" lon="14.302617334310442"><ele>552.6666666666666</ele><time>2026-05-01T13:02:36.999Z</time></trkpt><trkpt lat="45.792010704829046" lon="14.30257064454168"><ele>553.3333333333333</ele><time>2026-05-01T13:02:39Z</time></trkpt><trkpt lat="45.791951605123366" lon="14.302523741912413"><ele>554.0</ele><time>2026-05-01T13:02:41Z</time></trkpt><trkpt lat="45.79186632739508" lon="14.302463762036002"><ele>554.0</ele><time>2026-05-01T13:02:44Z</time></trkpt><trkpt lat="45.79179932402912" lon="14.302425637879699"><ele>554.0</ele><time>2026-05-01T13:02:46Z</time></trkpt><trkpt lat="45.79173507938912" lon="14.302399909876813"><ele>554.0</ele><time>2026-05-01T13:02:48Z</time></trkpt><trkpt lat="45.79166590845658" lon="14.30238826135051"><ele>554.0</ele><time>2026-05-01T13:02:50Z</time></trkpt><trkpt lat="45.79160079451068" lon="14.302404375770903"><ele>554.0</ele><time>2026-05-01T13:02:52Z</time></trkpt><trkpt lat="45.79166276092519" lon="14.302388338243905"><ele>554.0</ele><time>2026-05-01T13:03:30Z</time></trkpt><trkpt lat="45.791843389290285" lon="14.302448213785059"><ele>554.0</ele><time>2026-05-01T13:03:38Z</time></trkpt><trkpt lat="45.791918507618696" lon="14.302499466217583"><ele>554.0</ele><time>2026-05-01T13:03:41Z</time></trkpt><trkpt lat="45.791995249364504" lon="14.302557480051467"><ele>554.0</ele><time>2026-05-01T13:03:44Z</time></trkpt><trkpt lat="45.792073083189344" lon="14.302624150996296"><ele>554.0</ele><time>2026-05-01T13:03:47Z</time></trkpt><trkpt lat="45.79214339872855" lon="14.302689410519712"><ele>554.0</ele><time>2026-05-01T13:03:50Z</time></trkpt><trkpt lat="45.7922075074607" lon="14.302773630943731"><ele>554.0</ele><time>2026-05-01T13:03:53Z</time></trkpt><trkpt lat="45.79228561563017" lon="14.302835312306609"><ele>554.0</ele><time>2026-05-01T13:03:56Z</time></trkpt><trkpt lat="45.792331872793504" lon="14.302898039809294"><ele>554.0</ele><time>2026-05-01T13:03:58Z</time></trkpt><trkpt lat="45.79237371704961" lon="14.302969063343292"><ele>554.0</ele><time>2026-05-01T13:04:00Z</time></trkpt><trkpt lat="45.79243633739934" lon="14.303071137098025"><ele>554.0</ele><time>2026-05-01T13:04:03Z</time></trkpt><trkpt lat="45.79244892146075" lon="14.303162352397642"><ele>554.0</ele><time>2026-05-01T13:04:05Z</time></trkpt><trkpt lat="45.79248705783787" lon="14.303306984199224"><ele>554.0</ele><time>2026-05-01T13:04:08Z</time></trkpt><trkpt lat="45.79248725034873" lon="14.303407842790962"><ele>553.0</ele><time>2026-05-01T13:04:12Z</time></trkpt><trkpt lat="45.7926823084171" lon="14.30367856711136"><ele>552.0</ele><time>2026-05-01T13:05:02Z</time></trkpt><trkpt lat="45.79263132194708" lon="14.303602639963838"><ele>551.0</ele><time>2026-05-01T13:05:23Z</time></trkpt><trkpt lat="45.79258978569065" lon="14.303529997546171"><ele>550.0</ele><time>2026-05-01T13:05:27Z</time></trkpt><trkpt lat="45.792629046014675" lon="14.303446639327435"><ele>551.5</ele><time>2026-05-01T13:05:34Z</time></trkpt><trkpt lat="45.792696715066846" lon="14.303400289077548"><ele>553.0</ele><time>2026-05-01T13:05:39Z</time></trkpt><trkpt lat="45.792737205589795" lon="14.303325007827135"><ele>554.5</ele><time>2026-05-01T13:05:43Z</time></trkpt><trkpt lat="45.792766811804796" lon="14.303216763004414"><ele>556.0</ele><time>2026-05-01T13:05:47Z</time></trkpt><trkpt lat="45.79275433776502" lon="14.30310537890753"><ele>557.5</ele><time>2026-05-01T13:05:50Z</time></trkpt><trkpt lat="45.79272166403737" lon="14.303010475369094"><ele>559.0</ele><time>2026-05-01T13:05:54Z</time></trkpt><trkpt lat="45.79271938490395" lon="14.30288838497822"><ele>560.1666666666667</ele><time>2026-05-01T13:05:58Z</time></trkpt><trkpt lat="45.792735204501085" lon="14.302787591094473"><ele>561.3333333333334</ele><time>2026-05-01T13:06:01Z</time></trkpt><trkpt lat="45.79278606187824" lon="14.302716401224707"><ele>562.5</ele><time>2026-05-01T13:06:04Z</time></trkpt><trkpt lat="45.79284540327918" lon="14.302633671755503"><ele>563.6666666666666</ele><time>2026-05-01T13:06:59Z</time></trkpt><trkpt lat="45.7929346908218" lon="14.30263482818256"><ele>564.8333333333333</ele><time>2026-05-01T13:07:03Z</time></trkpt><trkpt lat="45.793012855369085" lon="14.302678240204614"><ele>566.0</ele><time>2026-05-01T13:07:06Z</time></trkpt><trkpt lat="45.79307849681636" lon="14.302698550605921"><ele>566.0</ele><time>2026-05-01T13:07:08Z</time></trkpt><trkpt lat="45.79314207452087" lon="14.302699385462285"><ele>566.0</ele><time>2026-05-01T13:07:10Z</time></trkpt><trkpt lat="45.793209028811376" lon="14.302672931718577"><ele>566.0</ele><time>2026-05-01T13:07:13Z</time></trkpt><trkpt lat="45.79328327353579" lon="14.302712573923785"><ele>566.0</ele><time>2026-05-01T13:07:16Z</time></trkpt><trkpt lat="45.79332528955638" lon="14.302820201711413"><ele>566.0</ele><time>2026-05-01T13:07:19Z</time></trkpt><trkpt lat="45.7933995436673" lon="14.302891274604356"><ele>566.0</ele><time>2026-05-01T13:07:22Z</time></trkpt><trkpt lat="45.79348001311931" lon="14.302942876026771"><ele>567.1666666666666</ele><time>2026-05-01T13:07:25Z</time></trkpt><trkpt lat="45.793529579374606" lon="14.3030182560433"><ele>568.3333333333333</ele><time>2026-05-01T13:07:28Z</time></trkpt><trkpt lat="45.7935945207112" lon="14.303106289837368"><ele>569.5</ele><time>2026-05-01T13:07:31Z</time></trkpt><trkpt lat="45.79364607656495" lon="14.303186134913991"><ele>570.6666666666666</ele><time>2026-05-01T13:07:34Z</time></trkpt><trkpt lat="45.79368539054122" lon="14.303298068028411"><ele>571.8333333333334</ele><time>2026-05-01T13:07:37Z</time></trkpt><trkpt lat="45.79375301795632" lon="14.303376774305347"><ele>573.0</ele><time>2026-05-01T13:07:40Z</time></trkpt><trkpt lat="45.79382343505513" lon="14.303452561471804"><ele>573.0</ele><time>2026-05-01T13:07:43Z</time></trkpt><trkpt lat="45.79386360407239" lon="14.303525559842312"><ele>573.0</ele><time>2026-05-01T13:07:45Z</time></trkpt><trkpt lat="45.793923880559255" lon="14.303608964026363"><ele>573.0</ele><time>2026-05-01T13:07:48Z</time></trkpt><trkpt lat="45.79398663902982" lon="14.303691421761883"><ele>573.0</ele><time>2026-05-01T13:07:51Z</time></trkpt><trkpt lat="45.794053735410095" lon="14.30375806051344"><ele>573.0</ele><time>2026-05-01T13:07:54Z</time></trkpt><trkpt lat="45.794116244626004" lon="14.303837189810316"><ele>573.0</ele><time>2026-05-01T13:07:57Z</time></trkpt><trkpt lat="45.79419887815099" lon="14.30388664688965"><ele>573.0</ele><time>2026-05-01T13:08:00Z</time></trkpt><trkpt lat="45.79427422459814" lon="14.303912526280126"><ele>573.0</ele><time>2026-05-01T13:08:03Z</time></trkpt><trkpt lat="45.7943479124688" lon="14.303959831019617"><ele>573.0</ele><time>2026-05-01T13:08:06Z</time></trkpt><trkpt lat="45.79441100284246" lon="14.304026298630019"><ele>573.0</ele><time>2026-05-01T13:08:09Z</time></trkpt><trkpt lat="45.794455851127324" lon="14.304093185837552"><ele>573.0</ele><time>2026-05-01T13:08:12Z</time></trkpt><trkpt lat="45.79449288314093" lon="14.304171807956793"><ele>573.0</ele><time>2026-05-01T13:08:22Z</time></trkpt><trkpt lat="45.7945542117743" lon="14.304233806067826"><ele>573.0</ele><time>2026-05-01T13:10:05Z</time></trkpt><trkpt lat="45.79459944772131" lon="14.304343689438417"><ele>574.5714285714286</ele><time>2026-05-01T13:10:09Z</time></trkpt><trkpt lat="45.79463034132736" lon="14.304457154770024"><ele>576.1428571428572</ele><time>2026-05-01T13:10:13Z</time></trkpt><trkpt lat="45.79463554064185" lon="14.304548070624618"><ele>577.7142857142858</ele><time>2026-05-01T13:10:15Z</time></trkpt><trkpt lat="45.79464883080258" lon="14.30464732565233"><ele>579.2857142857143</ele><time>2026-05-01T13:10:18Z</time></trkpt><trkpt lat="45.79462957859111" lon="14.304745084921606"><ele>580.8571428571429</ele><time>2026-05-01T13:10:20Z</time></trkpt><trkpt lat="45.7946032491544" lon="14.304865081525335"><ele>582.4285714285714</ele><time>2026-05-01T13:10:23Z</time></trkpt><trkpt lat="45.79459738101886" lon="14.304958662533213"><ele>584.0</ele><time>2026-05-01T13:10:27Z</time></trkpt><trkpt lat="45.79459684306532" lon="14.305055373099828"><ele>584.0</ele><time>2026-05-01T13:10:31Z</time></trkpt><trkpt lat="45.794622360809036" lon="14.305151818740216"><ele>584.0</ele><time>2026-05-01T13:10:34Z</time></trkpt><trkpt lat="45.79468352009028" lon="14.305225891683069"><ele>584.0</ele><time>2026-05-01T13:10:37Z</time></trkpt><trkpt lat="45.79472155012998" lon="14.30530331627389"><ele>584.0</ele><time>2026-05-01T13:10:39Z</time></trkpt><trkpt lat="45.79477397230538" lon="14.305396196110278"><ele>584.0</ele><time>2026-05-01T13:10:42Z</time></trkpt><trkpt lat="45.7948146251045" lon="14.305492324629606"><ele>584.0</ele><time>2026-05-01T13:10:45Z</time></trkpt><trkpt lat="45.794863056420844" lon="14.305585365566234"><ele>584.1666666666666</ele><time>2026-05-01T13:10:48Z</time></trkpt><trkpt lat="45.79489529015435" lon="14.305697796421086"><ele>584.3333333333333</ele><time>2026-05-01T13:10:51Z</time></trkpt><trkpt lat="45.79494291230505" lon="14.305796405614101"><ele>584.5</ele><time>2026-05-01T13:10:53.999Z</time></trkpt><trkpt lat="45.79498190072055" lon="14.305879454373581"><ele>584.6666666666666</ele><time>2026-05-01T13:10:56.999Z</time></trkpt><trkpt lat="45.79501836821995" lon="14.305970239017666"><ele>584.8333333333334</ele><time>2026-05-01T13:11:00Z</time></trkpt><trkpt lat="45.7950815828758" lon="14.30601866373764"><ele>585.0</ele><time>2026-05-01T13:11:03Z</time></trkpt><trkpt lat="45.79513805534114" lon="14.306095881486744"><ele>584.8333333333334</ele><time>2026-05-01T13:11:06Z</time></trkpt><trkpt lat="45.795194274014825" lon="14.30617229037461"><ele>584.6666666666666</ele><time>2026-05-01T13:11:09Z</time></trkpt><trkpt lat="45.79524233477448" lon="14.306243095073082"><ele>584.5</ele><time>2026-05-01T13:11:12Z</time></trkpt><trkpt lat="45.79527525545193" lon="14.30633227981274"><ele>584.3333333333333</ele><time>2026-05-01T13:11:15Z</time></trkpt><trkpt lat="45.79531949821857" lon="14.306454664236204"><ele>584.1666666666666</ele><time>2026-05-01T13:11:18Z</time></trkpt><trkpt lat="45.79534108889545" lon="14.306546173034844"><ele>584.0</ele><time>2026-05-01T13:11:20Z</time></trkpt><trkpt lat="45.795360198933196" lon="14.306683744764884"><ele>584.0</ele><time>2026-05-01T13:11:23Z</time></trkpt><trkpt lat="45.795374588792804" lon="14.306782905091367"><ele>584.0</ele><time>2026-05-01T13:11:25Z</time></trkpt><trkpt lat="45.79538952134754" lon="14.306902507249811"><ele>584.0</ele><time>2026-05-01T13:11:27Z</time></trkpt><trkpt lat="45.7954192447885" lon="14.307029487294281"><ele>584.0</ele><time>2026-05-01T13:11:29Z</time></trkpt><trkpt lat="45.795458848858374" lon="14.307107979787318"><ele>584.0</ele><time>2026-05-01T13:11:31Z</time></trkpt><trkpt lat="45.79552821852452" lon="14.307146713320623"><ele>584.0</ele><time>2026-05-01T13:11:34Z</time></trkpt><trkpt lat="45.79557261803874" lon="14.307216647150563"><ele>584.6666666666666</ele><time>2026-05-01T13:11:36Z</time></trkpt><trkpt lat="45.79561186100996" lon="14.307291101670328"><ele>585.3333333333333</ele><time>2026-05-01T13:11:38Z</time></trkpt><trkpt lat="45.7956803307255" lon="14.307363598246209"><ele>586.0</ele><time>2026-05-01T13:11:41Z</time></trkpt><trkpt lat="45.7957429204041" lon="14.307420284001383"><ele>586.6666666666666</ele><time>2026-05-01T13:11:44Z</time></trkpt><trkpt lat="45.795797030231554" lon="14.307485127538568"><ele>587.3333333333334</ele><time>2026-05-01T13:12:10Z</time></trkpt><trkpt lat="45.79585860722549" lon="14.307574155605108"><ele>588.0</ele><time>2026-05-01T13:12:55Z</time></trkpt><trkpt lat="45.79591455755589" lon="14.307647464052932"><ele>588.0</ele><time>2026-05-01T13:12:58Z</time></trkpt><trkpt lat="45.79597991759196" lon="14.307687149666691"><ele>588.0</ele><time>2026-05-01T13:13:03.999Z</time></trkpt><trkpt lat="45.79604050532269" lon="14.307744625343721"><ele>588.0</ele><time>2026-05-01T13:13:08Z</time></trkpt><trkpt lat="45.79609857105956" lon="14.307799452805138"><ele>588.0</ele><time>2026-05-01T13:13:11Z</time></trkpt><trkpt lat="45.79615033828878" lon="14.30786849434082"><ele>588.0</ele><time>2026-05-01T13:13:14Z</time></trkpt><trkpt lat="45.79620960198473" lon="14.307937557386788"><ele>588.0</ele><time>2026-05-01T13:13:18Z</time></trkpt><trkpt lat="45.79629084070827" lon="14.307968632169306"><ele>588.0</ele><time>2026-05-01T13:13:21Z</time></trkpt><trkpt lat="45.796373685491176" lon="14.30795085133084"><ele>587.6666666666666</ele><time>2026-05-01T13:13:24Z</time></trkpt><trkpt lat="45.79644384975093" lon="14.307943269772077"><ele>587.3333333333334</ele><time>2026-05-01T13:13:27Z</time></trkpt><trkpt lat="45.796536207674734" lon="14.307991268359253"><ele>587.0</ele><time>2026-05-01T13:13:30Z</time></trkpt><trkpt lat="45.79661694367179" lon="14.308040815981512"><ele>586.6666666666667</ele><time>2026-05-01T13:13:32Z</time></trkpt><trkpt lat="45.79667893147393" lon="14.30808165739891"><ele>586.3333333333334</ele><time>2026-05-01T13:13:34Z</time></trkpt><trkpt lat="45.796746156214425" lon="14.308138392814653"><ele>586.0</ele><time>2026-05-01T13:13:37Z</time></trkpt><trkpt lat="45.79680963453686" lon="14.308212218836722"><ele>584.9999999999999</ele><time>2026-05-01T13:13:40Z</time></trkpt><trkpt lat="45.79686201854957" lon="14.308272398578852"><ele>584.0</ele><time>2026-05-01T13:13:43Z</time></trkpt><trkpt lat="45.79691514116114" lon="14.308324662182603"><ele>583.0</ele><time>2026-05-01T13:13:48Z</time></trkpt><trkpt lat="45.7969724409071" lon="14.308386358681048"><ele>582.0</ele><time>2026-05-01T13:13:52Z</time></trkpt><trkpt lat="45.79701328778004" lon="14.3084739318251"><ele>581.0</ele><time>2026-05-01T13:13:55Z</time></trkpt><trkpt lat="45.797038333425895" lon="14.308573151303234"><ele>579.9999999999999</ele><time>2026-05-01T13:14:00Z</time></trkpt><trkpt lat="45.79707225642295" lon="14.308671222066325"><ele>579.0</ele><time>2026-05-01T13:14:04Z</time></trkpt><trkpt lat="45.79708068432452" lon="14.308776006340347"><ele>578.9999999999999</ele><time>2026-05-01T13:14:08Z</time></trkpt><trkpt lat="45.7970905117321" lon="14.308880145904162"><ele>579.0</ele><time>2026-05-01T13:14:12Z</time></trkpt><trkpt lat="45.79711669361944" lon="14.308986748249538"><ele>579.0</ele><time>2026-05-01T13:14:16Z</time></trkpt><trkpt lat="45.7971509796512" lon="14.309086873054222"><ele>579.0</ele><time>2026-05-01T13:14:20Z</time></trkpt><trkpt lat="45.797196087272646" lon="14.309165369368175"><ele>579.0</ele><time>2026-05-01T13:14:25Z</time></trkpt><trkpt lat="45.79725507527062" lon="14.309229305178691"><ele>578.9999999999999</ele><time>2026-05-01T13:14:29Z</time></trkpt><trkpt lat="45.79731784717127" lon="14.30925920524882"><ele>579.0</ele><time>2026-05-01T13:14:33Z</time></trkpt><trkpt lat="45.79738261609084" lon="14.309280085754938"><ele>579.1428571428571</ele><time>2026-05-01T13:14:36Z</time></trkpt><trkpt lat="45.79743451686384" lon="14.309336031927506"><ele>579.2857142857142</ele><time>2026-05-01T13:14:40Z</time></trkpt><trkpt lat="45.79749241345085" lon="14.309386458669318"><ele>579.4285714285714</ele><time>2026-05-01T13:14:48Z</time></trkpt><trkpt lat="45.797554569932885" lon="14.309458797579666"><ele>579.5714285714286</ele><time>2026-05-01T13:14:51.999Z</time></trkpt><trkpt lat="45.797630824555306" lon="14.309485437933388"><ele>579.7142857142858</ele><time>2026-05-01T13:14:55.999Z</time></trkpt><trkpt lat="45.79769420119358" lon="14.309506471830286"><ele>579.8571428571429</ele><time>2026-05-01T13:14:59.999Z</time></trkpt><trkpt lat="45.79775623400458" lon="14.309547143908143"><ele>580.0</ele><time>2026-05-01T13:15:02.999Z</time></trkpt><trkpt lat="45.797830071865604" lon="14.309598802255953"><ele>580.5</ele><time>2026-05-01T13:15:05.999Z</time></trkpt><trkpt lat="45.797881096522346" lon="14.309692056801921"><ele>581.0</ele><time>2026-05-01T13:15:09.999Z</time></trkpt><trkpt lat="45.79790020855722" lon="14.309790331816833"><ele>581.5</ele><time>2026-05-01T13:15:12.999Z</time></trkpt><trkpt lat="45.797909974636696" lon="14.309924534654824"><ele>582.0</ele><time>2026-05-01T13:15:15.999Z</time></trkpt><trkpt lat="45.79793329510528" lon="14.310044193582996"><ele>582.5</ele><time>2026-05-01T13:15:18.999Z</time></trkpt><trkpt lat="45.797943606398256" lon="14.310148589758414"><ele>583.0</ele><time>2026-05-01T13:15:22Z</time></trkpt><trkpt lat="45.79796555342083" lon="14.310251135039056"><ele>584.0</ele><time>2026-05-01T13:16:06.999Z</time></trkpt><trkpt lat="45.797974000610246" lon="14.310351850028768"><ele>585.0</ele><time>2026-05-01T13:16:10.999Z</time></trkpt><trkpt lat="45.797957811360895" lon="14.310459791588235"><ele>586.0</ele><time>2026-05-01T13:16:13.999Z</time></trkpt><trkpt lat="45.79793336071637" lon="14.310583576804557"><ele>587.0</ele><time>2026-05-01T13:16:16.999Z</time></trkpt><trkpt lat="45.79789355805374" lon="14.310704201393307"><ele>588.0</ele><time>2026-05-01T13:16:19.999Z</time></trkpt><trkpt lat="45.79785433546685" lon="14.31083576546111"><ele>589.0</ele><time>2026-05-01T13:16:22.999Z</time></trkpt><trkpt lat="45.79781954421203" lon="14.310947167152632"><ele>588.8333333333334</ele><time>2026-05-01T13:16:24.999Z</time></trkpt><trkpt lat="45.79778045204736" lon="14.311064357532258"><ele>588.6666666666667</ele><time>2026-05-01T13:16:26.999Z</time></trkpt><trkpt lat="45.79773471138998" lon="14.311161848548398"><ele>588.5</ele><time>2026-05-01T13:16:28.999Z</time></trkpt><trkpt lat="45.79768172618938" lon="14.31125872739238"><ele>588.3333333333334</ele><time>2026-05-01T13:16:30.999Z</time></trkpt><trkpt lat="45.79762338718862" lon="14.31131731032438"><ele>588.1666666666666</ele><time>2026-05-01T13:16:32.999Z</time></trkpt><trkpt lat="45.797684802349416" lon="14.311360652819237"><ele>588.0</ele><time>2026-05-01T13:17:25Z</time></trkpt><trkpt lat="45.79766786649247" lon="14.3114605421237"><ele>588.3333333333334</ele><time>2026-05-01T13:17:29Z</time></trkpt><trkpt lat="45.7976407363176" lon="14.311556906164743"><ele>588.6666666666666</ele><time>2026-05-01T13:17:33Z</time></trkpt><trkpt lat="45.797618535479856" lon="14.311675632378234"><ele>589.0</ele><time>2026-05-01T13:17:37Z</time></trkpt><trkpt lat="45.797613041426985" lon="14.311769923201428"><ele>589.3333333333333</ele><time>2026-05-01T13:17:40Z</time></trkpt><trkpt lat="45.79761037828708" lon="14.311897178579814"><ele>589.6666666666666</ele><time>2026-05-01T13:17:42.999Z</time></trkpt><trkpt lat="45.79759389610321" lon="14.312023711183942"><ele>590.0</ele><time>2026-05-01T13:17:45.999Z</time></trkpt><trkpt lat="45.79758466501724" lon="14.312125633235247"><ele>590.0000000000001</ele><time>2026-05-01T13:17:48.999Z</time></trkpt><trkpt lat="45.79757429310269" lon="14.3122270622445"><ele>590.0</ele><time>2026-05-01T13:18:14.999Z</time></trkpt><trkpt lat="45.7975650377599" lon="14.312335910569836"><ele>590.0</ele><time>2026-05-01T13:18:18.999Z</time></trkpt><trkpt lat="45.79755013142564" lon="14.312424173708871"><ele>590.0</ele><time>2026-05-01T13:18:20.999Z</time></trkpt><trkpt lat="45.79753493607299" lon="14.312519886622493"><ele>590.0</ele><time>2026-05-01T13:18:22.999Z</time></trkpt><trkpt lat="45.797507981920006" lon="14.312623476728985"><ele>590.0000000000001</ele><time>2026-05-01T13:18:24.999Z</time></trkpt><trkpt lat="45.797480693994366" lon="14.31272978448016"><ele>590.0</ele><time>2026-05-01T13:18:26.999Z</time></trkpt><trkpt lat="45.797446710173595" lon="14.312827583544024"><ele>590.0</ele><time>2026-05-01T13:18:28.999Z</time></trkpt><trkpt lat="45.797412165672576" lon="14.312929982595255"><ele>590.0</ele><time>2026-05-01T13:18:30.999Z</time></trkpt><trkpt lat="45.79738689954656" lon="14.313029502902566"><ele>590.0</ele><time>2026-05-01T13:18:32.999Z</time></trkpt><trkpt lat="45.79735867327146" lon="14.313139477714527"><ele>590.0</ele><time>2026-05-01T13:18:34.999Z</time></trkpt><trkpt lat="45.797327885008656" lon="14.31323851626863"><ele>590.0</ele><time>2026-05-01T13:18:36.999Z</time></trkpt><trkpt lat="45.79728829011044" lon="14.313325009880293"><ele>590.0</ele><time>2026-05-01T13:18:38.999Z</time></trkpt><trkpt lat="45.79725063341792" lon="14.313408131124241"><ele>590.0000000000001</ele><time>2026-05-01T13:18:40.999Z</time></trkpt><trkpt lat="45.79721227008791" lon="14.313499688841974"><ele>590.0</ele><time>2026-05-01T13:18:42.999Z</time></trkpt><trkpt lat="45.79717668023905" lon="14.31358255744759"><ele>590.0</ele><time>2026-05-01T13:18:44.999Z</time></trkpt><trkpt lat="45.79713331711736" lon="14.313674876654149"><ele>590.0</ele><time>2026-05-01T13:18:46.999Z</time></trkpt><trkpt lat="45.79709270847906" lon="14.313763488552908"><ele>590.0</ele><time>2026-05-01T13:18:48.999Z</time></trkpt><trkpt lat="45.797043578872646" lon="14.313835318348183"><ele>590.0000000000001</ele><time>2026-05-01T13:18:50.999Z</time></trkpt><trkpt lat="45.7969979365588" lon="14.313906433161755"><ele>590.0</ele><time>2026-05-01T13:18:52.999Z</time></trkpt><trkpt lat="45.79696486367673" lon="14.3139869110791"><ele>589.8571428571429</ele><time>2026-05-01T13:18:54.999Z</time></trkpt><trkpt lat="45.79692097384598" lon="14.3140850140845"><ele>589.7142857142858</ele><time>2026-05-01T13:18:57.999Z</time></trkpt><trkpt lat="45.79687733431337" lon="14.314161488562135"><ele>589.5714285714286</ele><time>2026-05-01T13:18:59.999Z</time></trkpt><trkpt lat="45.796836993705135" lon="14.314239295730154"><ele>589.4285714285714</ele><time>2026-05-01T13:19:01.999Z</time></trkpt><trkpt lat="45.79679593834573" lon="14.31432782293541"><ele>589.2857142857142</ele><time>2026-05-01T13:19:03.999Z</time></trkpt><trkpt lat="45.796757087644316" lon="14.314410666771844"><ele>589.1428571428571</ele><time>2026-05-01T13:19:05.999Z</time></trkpt><trkpt lat="45.7967190775526" lon="14.314490667847993"><ele>589.0</ele><time>2026-05-01T13:19:07.999Z</time></trkpt><trkpt lat="45.79667599587618" lon="14.314576159229173"><ele>589.0</ele><time>2026-05-01T13:19:09.999Z</time></trkpt><trkpt lat="45.796636186423164" lon="14.31465978922375"><ele>589.0</ele><time>2026-05-01T13:19:11.999Z</time></trkpt><trkpt lat="45.79659161767596" lon="14.314739054250222"><ele>589.0</ele><time>2026-05-01T13:19:13.999Z</time></trkpt><trkpt lat="45.796545365098396" lon="14.314825400197542"><ele>589.0</ele><time>2026-05-01T13:19:15.999Z</time></trkpt><trkpt lat="45.796505684453365" lon="14.31493358137484"><ele>589.0</ele><time>2026-05-01T13:19:18.999Z</time></trkpt><trkpt lat="45.79644276921744" lon="14.314997971454341"><ele>589.0</ele><time>2026-05-01T13:19:22Z</time></trkpt><trkpt lat="45.79637318917258" lon="14.3150569457599"><ele>589.1428571428571</ele><time>2026-05-01T13:19:26Z</time></trkpt><trkpt lat="45.796314891135005" lon="14.315125098420502"><ele>589.2857142857142</ele><time>2026-05-01T13:19:30Z</time></trkpt><trkpt lat="45.79625470549808" lon="14.315219444360135"><ele>589.4285714285714</ele><time>2026-05-01T13:19:33Z</time></trkpt><trkpt lat="45.79621842276694" lon="14.315294516979685"><ele>589.5714285714286</ele><time>2026-05-01T13:19:35Z</time></trkpt><trkpt lat="45.79616395293023" lon="14.315367485588725"><ele>589.7142857142858</ele><time>2026-05-01T13:19:38Z</time></trkpt><trkpt lat="45.79610749737338" lon="14.31541701546715"><ele>589.8571428571429</ele><time>2026-05-01T13:19:41Z</time></trkpt><trkpt lat="45.79603835349234" lon="14.31546672799196"><ele>590.0</ele><time>2026-05-01T13:19:44Z</time></trkpt><trkpt lat="45.79595326672095" lon="14.315508047103453"><ele>590.0</ele><time>2026-05-01T13:19:47Z</time></trkpt><trkpt lat="45.79589506336242" lon="14.315566623571613"><ele>590.0</ele><time>2026-05-01T13:19:49Z</time></trkpt><trkpt lat="45.795830918931784" lon="14.31562295864451"><ele>590.0</ele><time>2026-05-01T13:19:51Z</time></trkpt><trkpt lat="45.7957905933492" lon="14.315698723822527"><ele>590.0</ele><time>2026-05-01T13:19:53Z</time></trkpt><trkpt lat="45.795746785579624" lon="14.31582057806494"><ele>590.0</ele><time>2026-05-01T13:19:55.999Z</time></trkpt><trkpt lat="45.79571874294845" lon="14.315950449556315"><ele>590.0</ele><time>2026-05-01T13:19:58.999Z</time></trkpt><trkpt lat="45.79570589150012" lon="14.316047737670964"><ele>589.8333333333333</ele><time>2026-05-01T13:20:00.999Z</time></trkpt><trkpt lat="45.795693207186105" lon="14.31615564300452"><ele>589.6666666666666</ele><time>2026-05-01T13:20:02.999Z</time></trkpt><trkpt lat="45.795673787712495" lon="14.31626437630863"><ele>589.5</ele><time>2026-05-01T13:20:04.999Z</time></trkpt><trkpt lat="45.79565528918622" lon="14.316356232905678"><ele>589.3333333333334</ele><time>2026-05-01T13:20:06.999Z</time></trkpt><trkpt lat="45.795628189075686" lon="14.316499533730104"><ele>589.1666666666667</ele><time>2026-05-01T13:20:08.999Z</time></trkpt><trkpt lat="45.7956089471711" lon="14.316645410848608"><ele>589.0</ele><time>2026-05-01T13:20:10.999Z</time></trkpt><trkpt lat="45.79560374064732" lon="14.316794941325922"><ele>589.0</ele><time>2026-05-01T13:20:12.999Z</time></trkpt><trkpt lat="45.79560215623701" lon="14.316946740431737"><ele>589.0</ele><time>2026-05-01T13:20:14.999Z</time></trkpt><trkpt lat="45.7956075633028" lon="14.31709396518614"><ele>589.0</ele><time>2026-05-01T13:20:16.999Z</time></trkpt><trkpt lat="45.79560995556546" lon="14.317234242770306"><ele>589.0</ele><time>2026-05-01T13:20:18.999Z</time></trkpt><trkpt lat="45.79559669464818" lon="14.317367344961259"><ele>589.0</ele><time>2026-05-01T13:20:20.999Z</time></trkpt><trkpt lat="45.79556668911714" lon="14.317482051796839"><ele>588.8333333333334</ele><time>2026-05-01T13:20:22.999Z</time></trkpt><trkpt lat="45.79551075282135" lon="14.317550528416986"><ele>588.6666666666667</ele><time>2026-05-01T13:20:24.999Z</time></trkpt><trkpt lat="45.7954424773873" lon="14.317631070712135"><ele>588.5</ele><time>2026-05-01T13:20:26.999Z</time></trkpt><trkpt lat="45.79539942711057" lon="14.317728677857003"><ele>588.3333333333334</ele><time>2026-05-01T13:20:28.999Z</time></trkpt><trkpt lat="45.79535934005482" lon="14.317818818563248"><ele>588.1666666666666</ele><time>2026-05-01T13:20:30.999Z</time></trkpt><trkpt lat="45.7953138431285" lon="14.317907834904918"><ele>588.0</ele><time>2026-05-01T13:20:32.999Z</time></trkpt><trkpt lat="45.795260264472276" lon="14.31800743596885"><ele>588.5</ele><time>2026-05-01T13:20:34.999Z</time></trkpt><trkpt lat="45.79522387782496" lon="14.318103233692115"><ele>589.0</ele><time>2026-05-01T13:20:36.999Z</time></trkpt><trkpt lat="45.795189203462094" lon="14.318198764987256"><ele>589.5</ele><time>2026-05-01T13:20:38.999Z</time></trkpt><trkpt lat="45.79514824900456" lon="14.318306018591302"><ele>590.0</ele><time>2026-05-01T13:20:40.999Z</time></trkpt><trkpt lat="45.79511604708959" lon="14.318419613601883"><ele>590.5</ele><time>2026-05-01T13:20:42.999Z</time></trkpt><trkpt lat="45.795080924332105" lon="14.318531357561856"><ele>591.0</ele><time>2026-05-01T13:20:44.999Z</time></trkpt><trkpt lat="45.7950422041072" lon="14.318644117282805"><ele>589.6</ele><time>2026-05-01T13:20:46.999Z</time></trkpt><trkpt lat="45.79499825291929" lon="14.318767234472514"><ele>588.2</ele><time>2026-05-01T13:20:48.999Z</time></trkpt><trkpt lat="45.79496561521644" lon="14.318906905618226"><ele>586.8</ele><time>2026-05-01T13:20:50.999Z</time></trkpt><trkpt lat="45.79492943849485" lon="14.319042304353735"><ele>585.4</ele><time>2026-05-01T13:20:52.999Z</time></trkpt><trkpt lat="45.79487417502347" lon="14.319152494475782"><ele>584.0</ele><time>2026-05-01T13:20:54.999Z</time></trkpt><trkpt lat="45.79481781678225" lon="14.319255359632862"><ele>583.8333333333333</ele><time>2026-05-01T13:20:56.999Z</time></trkpt><trkpt lat="45.79476616133262" lon="14.319356575688756"><ele>583.6666666666666</ele><time>2026-05-01T13:20:58.999Z</time></trkpt><trkpt lat="45.79472226719359" lon="14.319460259240888"><ele>583.5</ele><time>2026-05-01T13:21:00.999Z</time></trkpt><trkpt lat="45.794694860543736" lon="14.31959574152207"><ele>583.3333333333334</ele><time>2026-05-01T13:21:02.999Z</time></trkpt><trkpt lat="45.79467176130628" lon="14.319709335866298"><ele>583.1666666666667</ele><time>2026-05-01T13:21:04.999Z</time></trkpt><trkpt lat="45.79464570259879" lon="14.319819129106861"><ele>583.0</ele><time>2026-05-01T13:21:06.999Z</time></trkpt><trkpt lat="45.79461543551493" lon="14.319916812570035"><ele>583.0000000000001</ele><time>2026-05-01T13:21:08.999Z</time></trkpt><trkpt lat="45.79458294837917" lon="14.320007893226244"><ele>583.0</ele><time>2026-05-01T13:21:10.999Z</time></trkpt><trkpt lat="45.79455132307295" lon="14.320092293504175"><ele>583.0</ele><time>2026-05-01T13:21:12.999Z</time></trkpt><trkpt lat="45.79451505075381" lon="14.320169555052127"><ele>583.0</ele><time>2026-05-01T13:21:15.999Z</time></trkpt><trkpt lat="45.79447340226542" lon="14.320263940603688"><ele>583.0</ele><time>2026-05-01T13:21:56Z</time></trkpt><trkpt lat="45.79444237820214" lon="14.320364039526304"><ele>583.0000000000001</ele><time>2026-05-01T13:21:59Z</time></trkpt><trkpt lat="45.79441787552127" lon="14.32045310774444"><ele>583.0</ele><time>2026-05-01T13:22:01Z</time></trkpt><trkpt lat="45.79438591247697" lon="14.320537367107148"><ele>583.0</ele><time>2026-05-01T13:22:03Z</time></trkpt><trkpt lat="45.79435468032761" lon="14.320646010945685"><ele>583.0</ele><time>2026-05-01T13:22:05Z</time></trkpt><trkpt lat="45.794325237486674" lon="14.320749160865402"><ele>583.0</ele><time>2026-05-01T13:22:07Z</time></trkpt><trkpt lat="45.79429025523318" lon="14.320855901794404"><ele>583.0</ele><time>2026-05-01T13:22:08.999Z</time></trkpt><trkpt lat="45.794256479448165" lon="14.320961018375254"><ele>583.0</ele><time>2026-05-01T13:22:10.999Z</time></trkpt><trkpt lat="45.794222118910405" lon="14.321064867318736"><ele>583.0</ele><time>2026-05-01T13:22:13.999Z</time></trkpt><trkpt lat="45.79419642794676" lon="14.321149905785918"><ele>582.0</ele><time>2026-05-01T13:22:44.999Z</time></trkpt><trkpt lat="45.79411627163801" lon="14.321196758571961"><ele>581.0</ele><time>2026-05-01T13:22:47.999Z</time></trkpt><trkpt lat="45.7940463597495" lon="14.321265683596279"><ele>580.0</ele><time>2026-05-01T13:22:49.999Z</time></trkpt><trkpt lat="45.79398859527088" lon="14.321377321977474"><ele>579.0</ele><time>2026-05-01T13:22:51.999Z</time></trkpt><trkpt lat="45.793927832718424" lon="14.321492112774836"><ele>578.0</ele><time>2026-05-01T13:22:53.999Z</time></trkpt><trkpt lat="45.793854550965015" lon="14.321595593580732"><ele>578.0</ele><time>2026-05-01T13:22:55.999Z</time></trkpt><trkpt lat="45.793780654469764" lon="14.32157340490906"><ele>578.0</ele><time>2026-05-01T13:22:56.999Z</time></trkpt><trkpt lat="45.79370156769461" lon="14.321639476651677"><ele>578.0</ele><time>2026-05-01T13:22:58.999Z</time></trkpt><trkpt lat="45.79361171757637" lon="14.321697386428973"><ele>578.0</ele><time>2026-05-01T13:23:00.999Z</time></trkpt><trkpt lat="45.793519016543556" lon="14.321748746482148"><ele>578.0</ele><time>2026-05-01T13:23:02.999Z</time></trkpt><trkpt lat="45.79344520086782" lon="14.321779885827345"><ele>578.0</ele><time>2026-05-01T13:23:04.999Z</time></trkpt><trkpt lat="45.79336768527871" lon="14.32177541348522"><ele>578.6666666666666</ele><time>2026-05-01T13:23:08.999Z</time></trkpt><trkpt lat="45.793321595450585" lon="14.322215101577774"><ele>579.3333333333334</ele><time>2026-05-01T13:23:37Z</time></trkpt><trkpt lat="45.793343282177396" lon="14.322353135949752"><ele>580.0</ele><time>2026-05-01T13:23:39Z</time></trkpt><trkpt lat="45.793355917563346" lon="14.322493165104467"><ele>580.0</ele><time>2026-05-01T13:23:41Z</time></trkpt><trkpt lat="45.79336308564318" lon="14.3226319590796"><ele>580.0</ele><time>2026-05-01T13:23:43Z</time></trkpt><trkpt lat="45.793358487293915" lon="14.322777888032498"><ele>580.0</ele><time>2026-05-01T13:23:45Z</time></trkpt><trkpt lat="45.79333899803427" lon="14.3229278790536"><ele>580.0</ele><time>2026-05-01T13:23:47Z</time></trkpt><trkpt lat="45.79332560138809" lon="14.323087304600993"><ele>580.0</ele><time>2026-05-01T13:23:49Z</time></trkpt><trkpt lat="45.79331069170951" lon="14.323245496113953"><ele>578.8333333333334</ele><time>2026-05-01T13:23:51Z</time></trkpt><trkpt lat="45.79329656219943" lon="14.3233884655141"><ele>577.6666666666667</ele><time>2026-05-01T13:23:53Z</time></trkpt><trkpt lat="45.79328319402597" lon="14.323523731334065"><ele>576.5</ele><time>2026-05-01T13:23:55Z</time></trkpt><trkpt lat="45.793276749046676" lon="14.323658933589314"><ele>575.3333333333334</ele><time>2026-05-01T13:23:57Z</time></trkpt><trkpt lat="45.79328406993671" lon="14.323752959028297"><ele>574.1666666666666</ele><time>2026-05-01T13:24:00Z</time></trkpt><trkpt lat="45.79327722458307" lon="14.323641610367513"><ele>573.0</ele><time>2026-05-01T13:24:43.999Z</time></trkpt><trkpt lat="45.79327582063353" lon="14.323546484410123"><ele>573.0</ele><time>2026-05-01T13:24:46.999Z</time></trkpt><trkpt lat="45.79301531874799" lon="14.323516146256877"><ele>573.0</ele><time>2026-05-01T13:24:55.999Z</time></trkpt><trkpt lat="45.792947401203044" lon="14.3235781582584"><ele>573.0</ele><time>2026-05-01T13:24:57.999Z</time></trkpt><trkpt lat="45.79286931904786" lon="14.323643200818015"><ele>573.0</ele><time>2026-05-01T13:24:59.999Z</time></trkpt><trkpt lat="45.79280880014639" lon="14.323739215483972"><ele>573.0</ele><time>2026-05-01T13:25:01.999Z</time></trkpt><trkpt lat="45.7927603506332" lon="14.323847078391697"><ele>573.0</ele><time>2026-05-01T13:25:03.999Z</time></trkpt><trkpt lat="45.79271173216745" lon="14.323963898194053"><ele>573.0</ele><time>2026-05-01T13:25:05.999Z</time></trkpt><trkpt lat="45.79266178516984" lon="14.324090947278036"><ele>573.0</ele><time>2026-05-01T13:25:07.999Z</time></trkpt><trkpt lat="45.79260758703393" lon="14.324226476457058"><ele>573.0</ele><time>2026-05-01T13:25:09.999Z</time></trkpt><trkpt lat="45.79254862406206" lon="14.324359283820117"><ele>573.4</ele><time>2026-05-01T13:25:11.999Z</time></trkpt><trkpt lat="45.792501189962366" lon="14.324500234177995"><ele>573.8</ele><time>2026-05-01T13:25:13.999Z</time></trkpt><trkpt lat="45.79243447657593" lon="14.324603442662195"><ele>574.2</ele><time>2026-05-01T13:25:15.999Z</time></trkpt><trkpt lat="45.79238446250846" lon="14.324710369830347"><ele>574.6</ele><time>2026-05-01T13:25:17.999Z</time></trkpt><trkpt lat="45.792334671139415" lon="14.324844432559136"><ele>575.0</ele><time>2026-05-01T13:25:19.999Z</time></trkpt><trkpt lat="45.792308399769276" lon="14.324974324743858"><ele>573.6</ele><time>2026-05-01T13:25:21.999Z</time></trkpt><trkpt lat="45.79227764847603" lon="14.32508910614304"><ele>572.2</ele><time>2026-05-01T13:25:23.999Z</time></trkpt><trkpt lat="45.79224568836653" lon="14.32522677089752"><ele>570.8</ele><time>2026-05-01T13:25:25.999Z</time></trkpt><trkpt lat="45.79220712019372" lon="14.325382352502787"><ele>569.4</ele><time>2026-05-01T13:25:27.999Z</time></trkpt><trkpt lat="45.792163527434596" lon="14.325522571495156"><ele>568.0</ele><time>2026-05-01T13:25:29.999Z</time></trkpt><trkpt lat="45.79211912552732" lon="14.32563396933002"><ele>566.8</ele><time>2026-05-01T13:25:31.999Z</time></trkpt><trkpt lat="45.79207209122154" lon="14.32572509941111"><ele>565.5999999999999</ele><time>2026-05-01T13:25:33.999Z</time></trkpt><trkpt lat="45.79199745873616" lon="14.325838179367741"><ele>564.4000000000001</ele><time>2026-05-01T13:25:35.999Z</time></trkpt><trkpt lat="45.7919297045661" lon="14.325949902440808"><ele>563.2</ele><time>2026-05-01T13:25:37.999Z</time></trkpt><trkpt lat="45.79185868875341" lon="14.326023730163648"><ele>562.0</ele><time>2026-05-01T13:25:40Z</time></trkpt><trkpt lat="45.791796493949136" lon="14.326103585038323"><ele>563.3333333333334</ele><time>2026-05-01T13:25:42Z</time></trkpt><trkpt lat="45.79174902162674" lon="14.3261839193051"><ele>564.6666666666667</ele><time>2026-05-01T13:25:44Z</time></trkpt><trkpt lat="45.79170459848785" lon="14.32626390945192"><ele>566.0</ele><time>2026-05-01T13:25:46Z</time></trkpt><trkpt lat="45.79166379663176" lon="14.32635106488922"><ele>567.3333333333334</ele><time>2026-05-01T13:25:48Z</time></trkpt><trkpt lat="45.79161831616945" lon="14.326431688103593"><ele>568.6666666666666</ele><time>2026-05-01T13:25:50Z</time></trkpt><trkpt lat="45.79156369438919" lon="14.326509965423798"><ele>570.0</ele><time>2026-05-01T13:25:52Z</time></trkpt><trkpt lat="45.7915139504028" lon="14.326606248245046"><ele>570.0</ele><time>2026-05-01T13:25:54Z</time></trkpt><trkpt lat="45.79145103264166" lon="14.326717597469193"><ele>570.0</ele><time>2026-05-01T13:25:56Z</time></trkpt><trkpt lat="45.79138096812585" lon="14.326824607010773"><ele>570.0</ele><time>2026-05-01T13:25:58Z</time></trkpt><trkpt lat="45.79130228381383" lon="14.326895684420752"><ele>570.0</ele><time>2026-05-01T13:26:00Z</time></trkpt><trkpt lat="45.791220908305334" lon="14.326930567205329"><ele>570.0</ele><time>2026-05-01T13:26:02Z</time></trkpt><trkpt lat="45.79111997469811" lon="14.326964249506068"><ele>570.0</ele><time>2026-05-01T13:26:04Z</time></trkpt><trkpt lat="45.7910208916458" lon="14.327011375732393"><ele>570.0</ele><time>2026-05-01T13:26:06Z</time></trkpt><trkpt lat="45.790911394992634" lon="14.327070496617798"><ele>570.0</ele><time>2026-05-01T13:26:08Z</time></trkpt><trkpt lat="45.79085311273926" lon="14.32710511593982"><ele>570.0</ele><time>2026-05-01T13:26:09Z</time></trkpt><trkpt lat="45.79079670741981" lon="14.327155295336231"><ele>570.0</ele><time>2026-05-01T13:26:10Z</time></trkpt><trkpt lat="45.7907260728241" lon="14.327184832919745"><ele>570.0</ele><time>2026-05-01T13:26:11Z</time></trkpt><trkpt lat="45.79066301484283" lon="14.32723840906443"><ele>569.1428571428571</ele><time>2026-05-01T13:26:12Z</time></trkpt><trkpt lat="45.79061243417343" lon="14.327300640310886"><ele>568.2857142857143</ele><time>2026-05-01T13:26:13Z</time></trkpt><trkpt lat="45.790579944729714" lon="14.327384259439253"><ele>567.4285714285714</ele><time>2026-05-01T13:26:14Z</time></trkpt><trkpt lat="45.790529800020856" lon="14.327442409922984"><ele>566.5714285714286</ele><time>2026-05-01T13:26:15Z</time></trkpt><trkpt lat="45.790479148075896" lon="14.327508515965887"><ele>565.7142857142857</ele><time>2026-05-01T13:26:16Z</time></trkpt><trkpt lat="45.79043220166828" lon="14.3275796821584"><ele>564.8571428571429</ele><time>2026-05-01T13:26:17Z</time></trkpt><trkpt lat="45.79037754044987" lon="14.327633288436902"><ele>564.0</ele><time>2026-05-01T13:26:18Z</time></trkpt><trkpt lat="45.790328594236506" lon="14.32769509725733"><ele>564.0</ele><time>2026-05-01T13:26:19Z</time></trkpt><trkpt lat="45.79027897084641" lon="14.327751931252322"><ele>564.0</ele><time>2026-05-01T13:26:20Z</time></trkpt><trkpt lat="45.79022796553601" lon="14.327807043872426"><ele>564.0</ele><time>2026-05-01T13:26:21Z</time></trkpt><trkpt lat="45.790123645139836" lon="14.327902943077822"><ele>564.0</ele><time>2026-05-01T13:26:23Z</time></trkpt><trkpt lat="45.7900034389757" lon="14.327950549102118"><ele>564.0</ele><time>2026-05-01T13:26:25Z</time></trkpt><trkpt lat="45.78993738516523" lon="14.327967699821341"><ele>564.0</ele><time>2026-05-01T13:26:26Z</time></trkpt><trkpt lat="45.78987400425159" lon="14.327998701354336"><ele>565.4</ele><time>2026-05-01T13:26:27Z</time></trkpt><trkpt lat="45.78981340165035" lon="14.32802638172516"><ele>566.8</ele><time>2026-05-01T13:26:28Z</time></trkpt><trkpt lat="45.789692158494645" lon="14.328067526415127"><ele>568.2</ele><time>2026-05-01T13:26:30Z</time></trkpt><trkpt lat="45.78958440667152" lon="14.328103920959526"><ele>569.6</ele><time>2026-05-01T13:26:32Z</time></trkpt><trkpt lat="45.78951468047501" lon="14.32815162037974"><ele>571.0</ele><time>2026-05-01T13:26:34Z</time></trkpt><trkpt lat="45.78943825656479" lon="14.328224961419405"><ele>571.5</ele><time>2026-05-01T13:26:36Z</time></trkpt><trkpt lat="45.78937622949801" lon="14.328301996850515"><ele>572.0</ele><time>2026-05-01T13:26:37.999Z</time></trkpt><trkpt lat="45.78932188308238" lon="14.328365344403775"><ele>572.5</ele><time>2026-05-01T13:26:39.999Z</time></trkpt><trkpt lat="45.78926797739979" lon="14.328476508452614"><ele>573.0</ele><time>2026-05-01T13:26:41.999Z</time></trkpt><trkpt lat="45.78921364721233" lon="14.328578934901623"><ele>573.5</ele><time>2026-05-01T13:26:43.999Z</time></trkpt><trkpt lat="45.78916103133497" lon="14.328678888402377"><ele>574.0</ele><time>2026-05-01T13:26:45.999Z</time></trkpt><trkpt lat="45.78910428711133" lon="14.328778740512302"><ele>574.0</ele><time>2026-05-01T13:26:47.999Z</time></trkpt><trkpt lat="45.789051133716995" lon="14.328874690299287"><ele>574.0</ele><time>2026-05-01T13:26:49.999Z</time></trkpt><trkpt lat="45.78897237212567" lon="14.328974325182894"><ele>574.0</ele><time>2026-05-01T13:26:51.999Z</time></trkpt><trkpt lat="45.78889366433434" lon="14.329072054712512"><ele>574.0</ele><time>2026-05-01T13:26:53.999Z</time></trkpt><trkpt lat="45.78880930875651" lon="14.32916776650077"><ele>574.0</ele><time>2026-05-01T13:26:55.999Z</time></trkpt><trkpt lat="45.78875075171239" lon="14.329312735025384"><ele>572.0</ele><time>2026-05-01T13:26:57.999Z</time></trkpt><trkpt lat="45.788720052271685" lon="14.32939939167911"><ele>570.0</ele><time>2026-05-01T13:26:58.999Z</time></trkpt><trkpt lat="45.78869432637913" lon="14.329488576878632"><ele>568.0</ele><time>2026-05-01T13:26:59.999Z</time></trkpt><trkpt lat="45.788678184642364" lon="14.329585145134377"><ele>566.0</ele><time>2026-05-01T13:27:00.999Z</time></trkpt><trkpt lat="45.78866081617264" lon="14.329683620064003"><ele>564.0</ele><time>2026-05-01T13:27:01.999Z</time></trkpt><trkpt lat="45.78865027894618" lon="14.329785542231345"><ele>562.0</ele><time>2026-05-01T13:27:02.999Z</time></trkpt><trkpt lat="45.788636527555475" lon="14.32988920545207"><ele>560.0</ele><time>2026-05-01T13:27:03.999Z</time></trkpt><trkpt lat="45.788625095094396" lon="14.329984487458502"><ele>560.6</ele><time>2026-05-01T13:27:04.999Z</time></trkpt><trkpt lat="45.788603751078185" lon="14.330077175291034"><ele>561.2</ele><time>2026-05-01T13:27:05.999Z</time></trkpt><trkpt lat="45.78856515224763" lon="14.33015251388463"><ele>561.8</ele><time>2026-05-01T13:27:06.999Z</time></trkpt><trkpt lat="45.78850845380572" lon="14.330302846940894"><ele>562.4</ele><time>2026-05-01T13:27:08.999Z</time></trkpt><trkpt lat="45.78845169073825" lon="14.330451455912216"><ele>563.0</ele><time>2026-05-01T13:27:10.999Z</time></trkpt><trkpt lat="45.78840636394714" lon="14.330592565001556"><ele>563.0</ele><time>2026-05-01T13:27:12.999Z</time></trkpt><trkpt lat="45.78837968712325" lon="14.330753454873305"><ele>563.0</ele><time>2026-05-01T13:27:14.999Z</time></trkpt><trkpt lat="45.788339219601795" lon="14.330905929483746"><ele>563.0</ele><time>2026-05-01T13:27:16.999Z</time></trkpt><trkpt lat="45.78831143319971" lon="14.331061605971511"><ele>563.0</ele><time>2026-05-01T13:27:18.999Z</time></trkpt><trkpt lat="45.78827049117774" lon="14.331210354161676"><ele>563.0</ele><time>2026-05-01T13:27:20.999Z</time></trkpt><trkpt lat="45.788195550304884" lon="14.331322320473674"><ele>563.0</ele><time>2026-05-01T13:27:22.999Z</time></trkpt><trkpt lat="45.78811426484683" lon="14.331428511179185"><ele>563.0</ele><time>2026-05-01T13:27:24.999Z</time></trkpt><trkpt lat="45.78803686639691" lon="14.331547180277964"><ele>563.0</ele><time>2026-05-01T13:27:26.999Z</time></trkpt><trkpt lat="45.78796651524128" lon="14.331663406610298"><ele>563.0</ele><time>2026-05-01T13:27:28.999Z</time></trkpt><trkpt lat="45.787886191760364" lon="14.331786383814853"><ele>561.0</ele><time>2026-05-01T13:27:30.999Z</time></trkpt><trkpt lat="45.78781655634398" lon="14.33193077304145"><ele>559.0</ele><time>2026-05-01T13:27:32.999Z</time></trkpt><trkpt lat="45.78778687917323" lon="14.332013176835977"><ele>557.0</ele><time>2026-05-01T13:27:33.999Z</time></trkpt><trkpt lat="45.787742944908146" lon="14.332184646273301"><ele>555.0</ele><time>2026-05-01T13:27:35.999Z</time></trkpt><trkpt lat="45.78771135874218" lon="14.33234740014807"><ele>553.0</ele><time>2026-05-01T13:27:37.999Z</time></trkpt><trkpt lat="45.78768749174035" lon="14.332508589199263"><ele>554.6</ele><time>2026-05-01T13:27:39.999Z</time></trkpt><trkpt lat="45.787665741660106" lon="14.332666691791554"><ele>556.1999999999999</ele><time>2026-05-01T13:27:41.999Z</time></trkpt><trkpt lat="45.78764490211152" lon="14.332817736508616"><ele>557.8</ele><time>2026-05-01T13:27:43.999Z</time></trkpt><trkpt lat="45.78762654159958" lon="14.332958829417432"><ele>559.4</ele><time>2026-05-01T13:27:46Z</time></trkpt><trkpt lat="45.78760994257026" lon="14.333096868014662"><ele>561.0</ele><time>2026-05-01T13:27:48Z</time></trkpt><trkpt lat="45.78759501009917" lon="14.333236783278071"><ele>561.0</ele><time>2026-05-01T13:27:50Z</time></trkpt><trkpt lat="45.78758116745275" lon="14.333373244348197"><ele>561.0</ele><time>2026-05-01T13:27:52Z</time></trkpt><trkpt lat="45.787577275757535" lon="14.33351484749335"><ele>561.0</ele><time>2026-05-01T13:27:54Z</time></trkpt><trkpt lat="45.78756135088129" lon="14.333672565709428"><ele>561.0</ele><time>2026-05-01T13:27:56Z</time></trkpt><trkpt lat="45.78754465880973" lon="14.333836744520118"><ele>561.0</ele><time>2026-05-01T13:27:58Z</time></trkpt><trkpt lat="45.7875374288867" lon="14.334000868267754"><ele>560.2</ele><time>2026-05-01T13:28:00Z</time></trkpt><trkpt lat="45.787539759848755" lon="14.334166296332194"><ele>559.4000000000001</ele><time>2026-05-01T13:28:02Z</time></trkpt><trkpt lat="45.78753840722164" lon="14.334329084285832"><ele>558.6</ele><time>2026-05-01T13:28:04Z</time></trkpt><trkpt lat="45.787532046324515" lon="14.33448090752967"><ele>557.8000000000001</ele><time>2026-05-01T13:28:06Z</time></trkpt><trkpt lat="45.787528823485076" lon="14.334611484493676"><ele>557.0</ele><time>2026-05-01T13:28:08Z</time></trkpt><trkpt lat="45.78752627224255" lon="14.334733621385721"><ele>557.0</ele><time>2026-05-01T13:28:10Z</time></trkpt><trkpt lat="45.78752101703404" lon="14.334866281457426"><ele>557.0</ele><time>2026-05-01T13:28:12Z</time></trkpt><trkpt lat="45.78751202642831" lon="14.335004032443466"><ele>557.0</ele><time>2026-05-01T13:28:14Z</time></trkpt><trkpt lat="45.78749760169291" lon="14.335147713695694"><ele>557.0</ele><time>2026-05-01T13:28:16Z</time></trkpt><trkpt lat="45.78748147286636" lon="14.335307133165283"><ele>557.0</ele><time>2026-05-01T13:28:18Z</time></trkpt><trkpt lat="45.78745888150973" lon="14.33547039065658"><ele>556.8000000000001</ele><time>2026-05-01T13:28:20Z</time></trkpt><trkpt lat="45.78744514594586" lon="14.335628087684087"><ele>556.6</ele><time>2026-05-01T13:28:22Z</time></trkpt><trkpt lat="45.78743920980708" lon="14.335778007496248"><ele>556.4000000000001</ele><time>2026-05-01T13:28:24Z</time></trkpt><trkpt lat="45.787431075332044" lon="14.335920028598442"><ele>556.2</ele><time>2026-05-01T13:28:26Z</time></trkpt><trkpt lat="45.78742506209688" lon="14.336064947753895"><ele>556.0</ele><time>2026-05-01T13:28:28Z</time></trkpt><trkpt lat="45.78741892002988" lon="14.336198526385541"><ele>556.0</ele><time>2026-05-01T13:28:30Z</time></trkpt><trkpt lat="45.78740755317948" lon="14.3363207688525"><ele>556.0</ele><time>2026-05-01T13:28:32Z</time></trkpt><trkpt lat="45.78740159031278" lon="14.336454214980867"><ele>556.0</ele><time>2026-05-01T13:28:34Z</time></trkpt><trkpt lat="45.78739167344014" lon="14.336561309373486"><ele>556.0</ele><time>2026-05-01T13:28:36Z</time></trkpt><trkpt lat="45.78738509330917" lon="14.336651111808866"><ele>556.0</ele><time>2026-05-01T13:28:38Z</time></trkpt><trkpt lat="45.78736716230264" lon="14.336770107664814"><ele>556.0</ele><time>2026-05-01T13:28:41Z</time></trkpt><trkpt lat="45.78733513759017" lon="14.336877347955069"><ele>555.8571428571429</ele><time>2026-05-01T13:28:45Z</time></trkpt><trkpt lat="45.78730227170245" lon="14.336967534426561"><ele>555.7142857142858</ele><time>2026-05-01T13:28:50Z</time></trkpt><trkpt lat="45.78726473673529" lon="14.337042473683463"><ele>555.5714285714287</ele><time>2026-05-01T13:28:54.999Z</time></trkpt><trkpt lat="45.78722047309357" lon="14.337110872623846"><ele>555.4285714285714</ele><time>2026-05-01T13:31:02Z</time></trkpt><trkpt lat="45.787174761687616" lon="14.337177385624722"><ele>555.2857142857143</ele><time>2026-05-01T13:31:05Z</time></trkpt><trkpt lat="45.787130271772675" lon="14.33724889290344"><ele>555.1428571428572</ele><time>2026-05-01T13:31:07Z</time></trkpt><trkpt lat="45.7870885239044" lon="14.337319206734982"><ele>555.0</ele><time>2026-05-01T13:31:08.999Z</time></trkpt><trkpt lat="45.78704682344885" lon="14.337389440711922"><ele>554.5714285714287</ele><time>2026-05-01T13:31:10.999Z</time></trkpt><trkpt lat="45.787014101015636" lon="14.337479077921156"><ele>554.1428571428571</ele><time>2026-05-01T13:31:12.999Z</time></trkpt><trkpt lat="45.786967940511374" lon="14.337557426159089"><ele>553.7142857142858</ele><time>2026-05-01T13:31:14.999Z</time></trkpt><trkpt lat="45.78691837965882" lon="14.337635770100214"><ele>553.2857142857143</ele><time>2026-05-01T13:31:16.999Z</time></trkpt><trkpt lat="45.786865929212794" lon="14.337710217874168"><ele>552.8571428571429</ele><time>2026-05-01T13:31:18.999Z</time></trkpt><trkpt lat="45.78682417892987" lon="14.337793677948293"><ele>552.4285714285714</ele><time>2026-05-01T13:31:20.999Z</time></trkpt><trkpt lat="45.78678444207125" lon="14.337879198037289"><ele>552.0</ele><time>2026-05-01T13:31:22.999Z</time></trkpt><trkpt lat="45.78674400759739" lon="14.337966870863898"><ele>552.8333333333334</ele><time>2026-05-01T13:31:24.999Z</time></trkpt><trkpt lat="45.7867025904059" lon="14.338056674488419"><ele>553.6666666666666</ele><time>2026-05-01T13:31:26.999Z</time></trkpt><trkpt lat="45.78665744581881" lon="14.338154560108254"><ele>554.5</ele><time>2026-05-01T13:31:28.999Z</time></trkpt><trkpt lat="45.786610087063124" lon="14.338254893166189"><ele>555.3333333333333</ele><time>2026-05-01T13:31:30.999Z</time></trkpt><trkpt lat="45.78656117840647" lon="14.338347707437975"><ele>556.1666666666666</ele><time>2026-05-01T13:31:32.999Z</time></trkpt><trkpt lat="45.78651270003598" lon="14.338436531888181"><ele>557.0</ele><time>2026-05-01T13:31:34.999Z</time></trkpt><trkpt lat="45.78646425683968" lon="14.338525291890795"><ele>557.0</ele><time>2026-05-01T13:31:36.999Z</time></trkpt><trkpt lat="45.78641628866806" lon="14.338613181529668"><ele>557.0</ele><time>2026-05-01T13:31:38.999Z</time></trkpt><trkpt lat="45.786367170991696" lon="14.338701774094963"><ele>557.0</ele><time>2026-05-01T13:31:40.999Z</time></trkpt><trkpt lat="45.78631417788485" lon="14.338791232355586"><ele>557.0</ele><time>2026-05-01T13:31:42.999Z</time></trkpt><trkpt lat="45.78625766122489" lon="14.338876102360476"><ele>557.0</ele><time>2026-05-01T13:31:44.999Z</time></trkpt><trkpt lat="45.78619533781998" lon="14.338958367870347"><ele>557.0</ele><time>2026-05-01T13:31:46.999Z</time></trkpt><trkpt lat="45.786132090844035" lon="14.339033158241573"><ele>556.6666666666666</ele><time>2026-05-01T13:31:48.999Z</time></trkpt><trkpt lat="45.7860716594792" lon="14.339098113768046"><ele>556.3333333333333</ele><time>2026-05-01T13:31:50.999Z</time></trkpt><trkpt lat="45.78599672421046" lon="14.339173719908201"><ele>556.0</ele><time>2026-05-01T13:31:53.999Z</time></trkpt><trkpt lat="45.785931386247434" lon="14.339168554348895"><ele>555.6666666666666</ele><time>2026-05-01T13:31:56.999Z</time></trkpt><trkpt lat="45.785863972096884" lon="14.339215414943311"><ele>555.3333333333334</ele><time>2026-05-01T13:34:27Z</time></trkpt><trkpt lat="45.78579232400403" lon="14.339235492772275"><ele>555.0</ele><time>2026-05-01T13:34:33Z</time></trkpt><trkpt lat="45.78572351402027" lon="14.339052876540375"><ele>555.0</ele><time>2026-05-01T13:34:35Z</time></trkpt><trkpt lat="45.78568352864823" lon="14.33894355865879"><ele>555.0</ele><time>2026-05-01T13:34:39Z</time></trkpt><trkpt lat="45.785646874796974" lon="14.338857908033193"><ele>555.0</ele><time>2026-05-01T13:34:42Z</time></trkpt><trkpt lat="45.78560893267931" lon="14.33877140164162"><ele>555.0</ele><time>2026-05-01T13:34:45Z</time></trkpt><trkpt lat="45.78556888203918" lon="14.338686897849946"><ele>555.0</ele><time>2026-05-01T13:34:48Z</time></trkpt><trkpt lat="45.78553367551313" lon="14.338606233519517"><ele>555.0</ele><time>2026-05-01T13:34:51Z</time></trkpt><trkpt lat="45.78548633988564" lon="14.338496620792169"><ele>556.5</ele><time>2026-05-01T13:34:55Z</time></trkpt><trkpt lat="45.785473507684166" lon="14.338398245789802"><ele>558.0</ele><time>2026-05-01T13:34:58Z</time></trkpt><trkpt lat="45.78548265070666" lon="14.338299868749589"><ele>559.5</ele><time>2026-05-01T13:35:01Z</time></trkpt><trkpt lat="45.78547014578986" lon="14.338202079636504"><ele>561.0</ele><time>2026-05-01T13:35:04Z</time></trkpt><trkpt lat="45.785474994840285" lon="14.338082269441472"><ele>562.5</ele><time>2026-05-01T13:35:08Z</time></trkpt><trkpt lat="45.78549290366675" lon="14.337969934392433"><ele>564.0</ele><time>2026-05-01T13:35:12Z</time></trkpt><trkpt lat="45.78551853761209" lon="14.33785747639925"><ele>564.8571428571429</ele><time>2026-05-01T13:35:16Z</time></trkpt><trkpt lat="45.78554470389597" lon="14.337773174355661"><ele>565.7142857142857</ele><time>2026-05-01T13:35:19Z</time></trkpt><trkpt lat="45.78556683109383" lon="14.337680220292256"><ele>566.5714285714286</ele><time>2026-05-01T13:35:22Z</time></trkpt><trkpt lat="45.785586948295915" lon="14.337586904706583"><ele>567.4285714285714</ele><time>2026-05-01T13:35:25Z</time></trkpt><trkpt lat="45.785604902368085" lon="14.33747297978503"><ele>568.2857142857143</ele><time>2026-05-01T13:35:29Z</time></trkpt><trkpt lat="45.7856343252111" lon="14.337385785577158"><ele>569.1428571428571</ele><time>2026-05-01T13:35:32Z</time></trkpt><trkpt lat="45.785657915369775" lon="14.337279027450496"><ele>570.0</ele><time>2026-05-01T13:35:35Z</time></trkpt><trkpt lat="45.7856786628712" lon="14.337174371922131"><ele>570.1666666666666</ele><time>2026-05-01T13:35:38Z</time></trkpt><trkpt lat="45.785697872715595" lon="14.337067579222362"><ele>570.3333333333334</ele><time>2026-05-01T13:35:41Z</time></trkpt><trkpt lat="45.78571419519187" lon="14.33696291249825"><ele>570.5</ele><time>2026-05-01T13:35:43.999Z</time></trkpt><trkpt lat="45.78574000524126" lon="14.336854723475925"><ele>570.6666666666667</ele><time>2026-05-01T13:35:46.999Z</time></trkpt><trkpt lat="45.78574494310627" lon="14.336743763924186"><ele>570.8333333333334</ele><time>2026-05-01T13:35:49.999Z</time></trkpt><trkpt lat="45.78573486532795" lon="14.336628032362604"><ele>571.0</ele><time>2026-05-01T13:36:10Z</time></trkpt><trkpt lat="45.78571704804666" lon="14.336533074327459"><ele>571.0</ele><time>2026-05-01T13:36:13Z</time></trkpt><trkpt lat="45.7856927508417" lon="14.336419947428888"><ele>571.0</ele><time>2026-05-01T13:36:16Z</time></trkpt><trkpt lat="45.785666821308546" lon="14.336299221257136"><ele>571.0</ele><time>2026-05-01T13:36:19Z</time></trkpt><trkpt lat="45.785647410484785" lon="14.336212422032617"><ele>571.0</ele><time>2026-05-01T13:36:21Z</time></trkpt><trkpt lat="45.78562749464073" lon="14.336125807061306"><ele>571.0</ele><time>2026-05-01T13:36:23Z</time></trkpt><trkpt lat="45.78560759860371" lon="14.336039278875154"><ele>571.0</ele><time>2026-05-01T13:36:25Z</time></trkpt><trkpt lat="45.78558590981959" lon="14.335944953989932"><ele>571.0</ele><time>2026-05-01T13:36:27Z</time></trkpt><trkpt lat="45.7855621565638" lon="14.335841650694926"><ele>570.6666666666667</ele><time>2026-05-01T13:36:29Z</time></trkpt><trkpt lat="45.78553636415975" lon="14.335729479017497"><ele>570.3333333333334</ele><time>2026-05-01T13:36:31Z</time></trkpt><trkpt lat="45.78550860937178" lon="14.335608772644033"><ele>570.0</ele><time>2026-05-01T13:36:33Z</time></trkpt><trkpt lat="45.78547881852244" lon="14.335483741002905"><ele>569.6666666666666</ele><time>2026-05-01T13:36:35Z</time></trkpt><trkpt lat="45.78544803886695" lon="14.335359082240618"><ele>569.3333333333333</ele><time>2026-05-01T13:36:37Z</time></trkpt><trkpt lat="45.78541805053967" lon="14.335233171584449"><ele>569.0</ele><time>2026-05-01T13:36:39Z</time></trkpt><trkpt lat="45.785388721012275" lon="14.335100773144674"><ele>568.4</ele><time>2026-05-01T13:36:41Z</time></trkpt><trkpt lat="45.7854021515971" lon="14.334948544246698"><ele>567.8</ele><time>2026-05-01T13:36:43Z</time></trkpt><trkpt lat="45.785435794024764" lon="14.334798178568679"><ele>567.2</ele><time>2026-05-01T13:36:45Z</time></trkpt><trkpt lat="45.78550420896564" lon="14.334658617217803"><ele>566.6</ele><time>2026-05-01T13:36:47Z</time></trkpt><trkpt lat="45.78552110683949" lon="14.33457064195569"><ele>566.0</ele><time>2026-05-01T13:36:48Z</time></trkpt><trkpt lat="45.785556550787874" lon="14.33449364088813"><ele>565.6666666666666</ele><time>2026-05-01T13:36:49Z</time></trkpt><trkpt lat="45.785579848161326" lon="14.334403410491097"><ele>565.3333333333333</ele><time>2026-05-01T13:36:50Z</time></trkpt><trkpt lat="45.78558836727948" lon="14.334308725598289"><ele>565.0</ele><time>2026-05-01T13:36:51Z</time></trkpt><trkpt lat="45.78560389660262" lon="14.334218221704429"><ele>564.6666666666666</ele><time>2026-05-01T13:36:52Z</time></trkpt><trkpt lat="45.785589868600965" lon="14.334119586206171"><ele>564.3333333333334</ele><time>2026-05-01T13:36:53Z</time></trkpt><trkpt lat="45.78553420805595" lon="14.33404550397659"><ele>564.0</ele><time>2026-05-01T13:36:54Z</time></trkpt><trkpt lat="45.78544515159499" lon="14.333928154270136"><ele>564.0</ele><time>2026-05-01T13:36:56Z</time></trkpt><trkpt lat="45.78535407041789" lon="14.33383482619949"><ele>564.0</ele><time>2026-05-01T13:36:58Z</time></trkpt><trkpt lat="45.7852704117729" lon="14.333754869692175"><ele>564.0</ele><time>2026-05-01T13:37:00Z</time></trkpt><trkpt lat="45.7851898334183" lon="14.333679618475804"><ele>564.0</ele><time>2026-05-01T13:37:02Z</time></trkpt><trkpt lat="45.78510842188837" lon="14.333604302787634"><ele>564.0</ele><time>2026-05-01T13:37:04Z</time></trkpt><trkpt lat="45.785028052938614" lon="14.33352954265617"><ele>564.0</ele><time>2026-05-01T13:37:06Z</time></trkpt><trkpt lat="45.78495309667103" lon="14.333458315533706"><ele>564.0</ele><time>2026-05-01T13:37:08Z</time></trkpt><trkpt lat="45.784866675345185" lon="14.333369669043782"><ele>564.0</ele><time>2026-05-01T13:37:10Z</time></trkpt><trkpt lat="45.784777453070646" lon="14.333274824682444"><ele>564.0</ele><time>2026-05-01T13:37:12Z</time></trkpt><trkpt lat="45.78469744867372" lon="14.333184066449594"><ele>564.0</ele><time>2026-05-01T13:37:14Z</time></trkpt><trkpt lat="45.784616981235345" lon="14.333083872913233"><ele>563.8</ele><time>2026-05-01T13:37:16Z</time></trkpt><trkpt lat="45.78454391914154" lon="14.332969192661633"><ele>563.5999999999999</ele><time>2026-05-01T13:37:18Z</time></trkpt><trkpt lat="45.78447610795107" lon="14.332843357334664"><ele>563.4</ele><time>2026-05-01T13:37:20Z</time></trkpt><trkpt lat="45.78440534234607" lon="14.33274777379848"><ele>563.1999999999999</ele><time>2026-05-01T13:37:22Z</time></trkpt><trkpt lat="45.784351263620366" lon="14.332643529047592"><ele>563.0</ele><time>2026-05-01T13:37:24Z</time></trkpt><trkpt lat="45.78428358141034" lon="14.332534776221157"><ele>563.0</ele><time>2026-05-01T13:37:26Z</time></trkpt><trkpt lat="45.7842014620228" lon="14.332465516219884"><ele>563.0</ele><time>2026-05-01T13:37:28Z</time></trkpt><trkpt lat="45.78412072190645" lon="14.332415381953407"><ele>563.0</ele><time>2026-05-01T13:37:30Z</time></trkpt><trkpt lat="45.78404182784781" lon="14.332370275617034"><ele>563.0</ele><time>2026-05-01T13:37:32Z</time></trkpt><trkpt lat="45.783954649010475" lon="14.332340265725817"><ele>563.0</ele><time>2026-05-01T13:37:34Z</time></trkpt><trkpt lat="45.78386882213757" lon="14.3323161149324"><ele>563.0</ele><time>2026-05-01T13:37:36Z</time></trkpt><trkpt lat="45.78379110146349" lon="14.332275103435652"><ele>563.0</ele><time>2026-05-01T13:37:38Z</time></trkpt><trkpt lat="45.783711191096174" lon="14.332247858135895"><ele>563.0</ele><time>2026-05-01T13:37:40Z</time></trkpt><trkpt lat="45.783629724727234" lon="14.332218768985838"><ele>563.0</ele><time>2026-05-01T13:37:42Z</time></trkpt><trkpt lat="45.7835497621847" lon="14.332187686132544"><ele>563.0</ele><time>2026-05-01T13:37:44Z</time></trkpt><trkpt lat="45.78347720325326" lon="14.332154432506718"><ele>563.0</ele><time>2026-05-01T13:37:46Z</time></trkpt><trkpt lat="45.78340670690115" lon="14.332119415036388"><ele>563.0</ele><time>2026-05-01T13:37:48Z</time></trkpt><trkpt lat="45.783347376369825" lon="14.33208790774592"><ele>563.2857142857142</ele><time>2026-05-01T13:37:50Z</time></trkpt><trkpt lat="45.783280556787744" lon="14.332050677792322"><ele>563.5714285714286</ele><time>2026-05-01T13:37:52Z</time></trkpt><trkpt lat="45.78321442772444" lon="14.332012373149352"><ele>563.8571428571429</ele><time>2026-05-01T13:37:54Z</time></trkpt><trkpt lat="45.783149000350896" lon="14.331974474954444"><ele>564.1428571428571</ele><time>2026-05-01T13:37:56Z</time></trkpt><trkpt lat="45.783080938308316" lon="14.33193505065215"><ele>564.4285714285714</ele><time>2026-05-01T13:37:58Z</time></trkpt><trkpt lat="45.783014330404086" lon="14.331896468644373"><ele>564.7142857142857</ele><time>2026-05-01T13:38:00Z</time></trkpt><trkpt lat="45.78294593815241" lon="14.331856011754587"><ele>565.0</ele><time>2026-05-01T13:38:01.999Z</time></trkpt><trkpt lat="45.78287876850359" lon="14.331816234595685"><ele>564.9999999999999</ele><time>2026-05-01T13:38:03.999Z</time></trkpt><trkpt lat="45.78281276397151" lon="14.331776502232318"><ele>565.0</ele><time>2026-05-01T13:38:05.999Z</time></trkpt><trkpt lat="45.782745505063566" lon="14.33173564090987"><ele>565.0</ele><time>2026-05-01T13:38:07.999Z</time></trkpt><trkpt lat="45.78267563023398" lon="14.331693190350629"><ele>565.0</ele><time>2026-05-01T13:38:09.999Z</time></trkpt><trkpt lat="45.78260877923835" lon="14.331652576839641"><ele>565.0</ele><time>2026-05-01T13:38:11.999Z</time></trkpt><trkpt lat="45.78254131848263" lon="14.3316115928932"><ele>564.9999999999999</ele><time>2026-05-01T13:38:13.999Z</time></trkpt><trkpt lat="45.782474847299" lon="14.33157121012542"><ele>565.0</ele><time>2026-05-01T13:38:16Z</time></trkpt><trkpt lat="45.782411684676084" lon="14.331533379352612"><ele>565.8333333333334</ele><time>2026-05-01T13:38:18Z</time></trkpt><trkpt lat="45.78234501072505" lon="14.331493798464516"><ele>566.6666666666667</ele><time>2026-05-01T13:38:20Z</time></trkpt><trkpt lat="45.7822834211324" lon="14.331457235909703"><ele>567.5</ele><time>2026-05-01T13:38:22Z</time></trkpt><trkpt lat="45.78222405435485" lon="14.33142199292229"><ele>568.3333333333334</ele><time>2026-05-01T13:38:24Z</time></trkpt><trkpt lat="45.78214153221077" lon="14.331373003783067"><ele>569.1666666666666</ele><time>2026-05-01T13:38:27Z</time></trkpt><trkpt lat="45.78205741394759" lon="14.331323067105712"><ele>570.0</ele><time>2026-05-01T13:38:30Z</time></trkpt><trkpt lat="45.781979094608914" lon="14.331276572954504"><ele>570.6666666666666</ele><time>2026-05-01T13:38:33Z</time></trkpt><trkpt lat="45.781895818691616" lon="14.331227136341377"><ele>571.3333333333334</ele><time>2026-05-01T13:38:36Z</time></trkpt><trkpt lat="45.78181307135017" lon="14.331178013517073"><ele>572.0</ele><time>2026-05-01T13:38:39Z</time></trkpt><trkpt lat="45.781730203320116" lon="14.331128819038618"><ele>572.6666666666667</ele><time>2026-05-01T13:38:42Z</time></trkpt><trkpt lat="45.7816481578831" lon="14.331080112895469"><ele>573.3333333333334</ele><time>2026-05-01T13:38:45Z</time></trkpt><trkpt lat="45.78156987163958" lon="14.331031149452242"><ele>574.0</ele><time>2026-05-01T13:38:48Z</time></trkpt><trkpt lat="45.78148974527318" lon="14.330981125073542"><ele>574.8333333333334</ele><time>2026-05-01T13:38:51Z</time></trkpt><trkpt lat="45.7814110399137" lon="14.330931956247365"><ele>575.6666666666667</ele><time>2026-05-01T13:38:54Z</time></trkpt><trkpt lat="45.78132693802975" lon="14.330877890755229"><ele>576.5</ele><time>2026-05-01T13:38:57Z</time></trkpt><trkpt lat="45.781255851174734" lon="14.330855544695144"><ele>577.3333333333334</ele><time>2026-05-01T13:38:59Z</time></trkpt><trkpt lat="45.78119343576758" lon="14.330810289261851"><ele>578.1666666666666</ele><time>2026-05-01T13:39:01Z</time></trkpt><trkpt lat="45.781137512705506" lon="14.33076710031621"><ele>579.0</ele><time>2026-05-01T13:39:03Z</time></trkpt><trkpt lat="45.78105160372631" lon="14.330716623747907"><ele>578.1666666666666</ele><time>2026-05-01T13:39:06Z</time></trkpt><trkpt lat="45.780974562231656" lon="14.330640294227555"><ele>577.3333333333334</ele><time>2026-05-01T13:39:09Z</time></trkpt><trkpt lat="45.7808938131663" lon="14.330580108043801"><ele>576.5</ele><time>2026-05-01T13:39:12Z</time></trkpt><trkpt lat="45.780815197112695" lon="14.3305201293738"><ele>575.6666666666667</ele><time>2026-05-01T13:39:15Z</time></trkpt><trkpt lat="45.78075721880152" lon="14.330481129677013"><ele>574.8333333333334</ele><time>2026-05-01T13:39:17Z</time></trkpt><trkpt lat="45.780676516803155" lon="14.330435681288256"><ele>574.0</ele><time>2026-05-01T13:39:20Z</time></trkpt><trkpt lat="45.780622158387104" lon="14.330388914381563"><ele>576.3333333333334</ele><time>2026-05-01T13:39:22Z</time></trkpt><trkpt lat="45.78056263316779" lon="14.330310101276853"><ele>578.6666666666667</ele><time>2026-05-01T13:39:25Z</time></trkpt><trkpt lat="45.780517568077876" lon="14.330224572617345"><ele>581.0</ele><time>2026-05-01T13:39:28Z</time></trkpt><trkpt lat="45.780473893615394" lon="14.33013197055808"><ele>583.3333333333334</ele><time>2026-05-01T13:39:31Z</time></trkpt><trkpt lat="45.78042622692487" lon="14.330022098837887"><ele>585.6666666666666</ele><time>2026-05-01T13:39:34Z</time></trkpt><trkpt lat="45.780374954231775" lon="14.329942641978654"><ele>588.0</ele><time>2026-05-01T13:39:37Z</time></trkpt><trkpt lat="45.78034411270383" lon="14.329853971283322"><ele>588.0</ele><time>2026-05-01T13:40:18.999Z</time></trkpt><trkpt lat="45.780304559661815" lon="14.329782964196728"><ele>588.0</ele><time>2026-05-01T13:47:33.999Z</time></trkpt><trkpt lat="45.78027499141541" lon="14.329687373850641"><ele>588.0</ele><time>2026-05-01T13:47:37.999Z</time></trkpt><trkpt lat="45.78023653126695" lon="14.329586170105028"><ele>588.0</ele><time>2026-05-01T13:47:41.999Z</time></trkpt><trkpt lat="45.78019683160674" lon="14.329495794217664"><ele>588.0</ele><time>2026-05-01T13:47:45.999Z</time></trkpt><trkpt lat="45.78015665719315" lon="14.329393204648179"><ele>588.0</ele><time>2026-05-01T13:47:49.999Z</time></trkpt><trkpt lat="45.78011560027664" lon="14.329291046753884"><ele>588.2857142857143</ele><time>2026-05-01T13:47:53.999Z</time></trkpt><trkpt lat="45.780094351742385" lon="14.329203477781693"><ele>588.5714285714286</ele><time>2026-05-01T13:47:56.999Z</time></trkpt><trkpt lat="45.78007708136838" lon="14.329111991446439"><ele>588.8571428571429</ele><time>2026-05-01T13:47:59.999Z</time></trkpt><trkpt lat="45.780066710045624" lon="14.329020545614481"><ele>589.1428571428571</ele><time>2026-05-01T13:48:02.999Z</time></trkpt><trkpt lat="45.780058291252985" lon="14.32890026608594"><ele>589.4285714285714</ele><time>2026-05-01T13:48:06.999Z</time></trkpt><trkpt lat="45.78005489855594" lon="14.328805418039583"><ele>589.7142857142858</ele><time>2026-05-01T13:48:09.999Z</time></trkpt><trkpt lat="45.780055249454875" lon="14.328710782285146"><ele>590.0</ele><time>2026-05-01T13:48:12.999Z</time></trkpt><trkpt lat="45.78006296020731" lon="14.328609831083693"><ele>590.0</ele><time>2026-05-01T13:48:15.999Z</time></trkpt><trkpt lat="45.78004965710462" lon="14.328505365595381"><ele>590.0</ele><time>2026-05-01T13:48:18.999Z</time></trkpt><trkpt lat="45.78002162142901" lon="14.328404783875621"><ele>590.0</ele><time>2026-05-01T13:48:21.999Z</time></trkpt><trkpt lat="45.77998377526832" lon="14.328312798606811"><ele>590.0</ele><time>2026-05-01T13:48:24.999Z</time></trkpt><trkpt lat="45.779934445466864" lon="14.328222845635118"><ele>590.0</ele><time>2026-05-01T13:48:27.999Z</time></trkpt><trkpt lat="45.77987923019468" lon="14.328134799238867"><ele>590.0</ele><time>2026-05-01T13:48:30.999Z</time></trkpt><trkpt lat="45.77982223299178" lon="14.328049323390955"><ele>591.0000000000001</ele><time>2026-05-01T13:48:33.999Z</time></trkpt><trkpt lat="45.77976256813509" lon="14.327972871255588"><ele>592.0</ele><time>2026-05-01T13:48:36.999Z</time></trkpt><trkpt lat="45.77970606200827" lon="14.32790378620088"><ele>593.0</ele><time>2026-05-01T13:48:39.999Z</time></trkpt><trkpt lat="45.7796480188615" lon="14.327826598499472"><ele>594.0</ele><time>2026-05-01T13:48:44Z</time></trkpt><trkpt lat="45.77960701872902" lon="14.327757301291044"><ele>595.0</ele><time>2026-05-01T13:53:20Z</time></trkpt><trkpt lat="45.779565817761394" lon="14.327670160547957"><ele>596.0000000000001</ele><time>2026-05-01T13:53:44.999Z</time></trkpt><trkpt lat="45.779529574291594" lon="14.327590104895675"><ele>597.0</ele><time>2026-05-01T13:53:48.999Z</time></trkpt><trkpt lat="45.77949066421694" lon="14.327502403762987"><ele>597.0</ele><time>2026-05-01T13:54:13.999Z</time></trkpt><trkpt lat="45.779449109313425" lon="14.327420636773075"><ele>597.0</ele><time>2026-05-01T13:54:17.999Z</time></trkpt><trkpt lat="45.77939723630823" lon="14.327333481125288"><ele>597.0</ele><time>2026-05-01T13:54:20.999Z</time></trkpt><trkpt lat="45.779346793448234" lon="14.32725513427787"><ele>597.0</ele><time>2026-05-01T13:54:23.999Z</time></trkpt><trkpt lat="45.7792907176029" lon="14.327175967227264"><ele>597.0</ele><time>2026-05-01T13:54:26.999Z</time></trkpt><trkpt lat="45.77921391770562" lon="14.32711679750086"><ele>597.0</ele><time>2026-05-01T13:54:29.999Z</time></trkpt><trkpt lat="45.7791591085184" lon="14.327039616920473"><ele>596.8333333333334</ele><time>2026-05-01T13:54:32.999Z</time></trkpt><trkpt lat="45.779082148234274" lon="14.326995492758353"><ele>596.6666666666666</ele><time>2026-05-01T13:54:35.999Z</time></trkpt><trkpt lat="45.7790047352611" lon="14.326963908493537"><ele>596.5</ele><time>2026-05-01T13:54:38.999Z</time></trkpt><trkpt lat="45.77892876537158" lon="14.326936169133793"><ele>596.3333333333333</ele><time>2026-05-01T13:54:41.999Z</time></trkpt><trkpt lat="45.7788569294744" lon="14.326905422444248"><ele>596.1666666666666</ele><time>2026-05-01T13:54:44.999Z</time></trkpt><trkpt lat="45.77878370898058" lon="14.326871002182855"><ele>596.0</ele><time>2026-05-01T13:54:47.999Z</time></trkpt><trkpt lat="45.77870643413855" lon="14.32683359188436"><ele>596.0</ele><time>2026-05-01T13:54:50.999Z</time></trkpt><trkpt lat="45.778635292038615" lon="14.326792645607002"><ele>596.0</ele><time>2026-05-01T13:54:53.999Z</time></trkpt><trkpt lat="45.77856956487555" lon="14.32674205594384"><ele>596.0</ele><time>2026-05-01T13:54:56.999Z</time></trkpt><trkpt lat="45.77850602656715" lon="14.326675190414903"><ele>596.0</ele><time>2026-05-01T13:55:00Z</time></trkpt><trkpt lat="45.77844685438619" lon="14.326598163153811"><ele>596.0</ele><time>2026-05-01T13:55:03Z</time></trkpt><trkpt lat="45.77838897909561" lon="14.326520580322379"><ele>596.0</ele><time>2026-05-01T13:55:06Z</time></trkpt><trkpt lat="45.77832773048519" lon="14.32644057485753"><ele>596.5714285714286</ele><time>2026-05-01T13:55:09Z</time></trkpt><trkpt lat="45.77826680509986" lon="14.326362339248707"><ele>597.1428571428571</ele><time>2026-05-01T13:55:12Z</time></trkpt><trkpt lat="45.7782073736368" lon="14.326286022054182"><ele>597.7142857142857</ele><time>2026-05-01T13:55:15Z</time></trkpt><trkpt lat="45.778160171960806" lon="14.326225409375164"><ele>598.2857142857142</ele><time>2026-05-01T13:55:17Z</time></trkpt><trkpt lat="45.7780948248494" lon="14.32614097781199"><ele>598.8571428571429</ele><time>2026-05-01T13:55:20Z</time></trkpt><trkpt lat="45.77804859415871" lon="14.326079222382052"><ele>599.4285714285713</ele><time>2026-05-01T13:55:22Z</time></trkpt><trkpt lat="45.778000188620254" lon="14.326012128509985"><ele>600.0</ele><time>2026-05-01T13:55:24Z</time></trkpt><trkpt lat="45.7779550644333" lon="14.325948932477859"><ele>600.0</ele><time>2026-05-01T13:55:26Z</time></trkpt><trkpt lat="45.77790909846628" lon="14.325884557531067"><ele>600.0</ele><time>2026-05-01T13:55:28Z</time></trkpt><trkpt lat="45.77785729868334" lon="14.325813619294314"><ele>600.0</ele><time>2026-05-01T13:55:30Z</time></trkpt><trkpt lat="45.777802179212436" lon="14.325741443127045"><ele>600.0</ele><time>2026-05-01T13:55:32Z</time></trkpt><trkpt lat="45.777737619896506" lon="14.32565988154103"><ele>600.0</ele><time>2026-05-01T13:55:34Z</time></trkpt><trkpt lat="45.777672028273976" lon="14.325582665713618"><ele>600.0</ele><time>2026-05-01T13:55:36Z</time></trkpt><trkpt lat="45.7776077655725" lon="14.325510259036953"><ele>599.8333333333334</ele><time>2026-05-01T13:55:38Z</time></trkpt><trkpt lat="45.777546453112016" lon="14.32544329444147"><ele>599.6666666666666</ele><time>2026-05-01T13:55:40Z</time></trkpt><trkpt lat="45.77748249512899" lon="14.325374931763193"><ele>599.5</ele><time>2026-05-01T13:55:42Z</time></trkpt><trkpt lat="45.777414570034516" lon="14.325306646084188"><ele>599.3333333333333</ele><time>2026-05-01T13:55:44Z</time></trkpt><trkpt lat="45.77734641052305" lon="14.325238124736043"><ele>599.1666666666666</ele><time>2026-05-01T13:55:46Z</time></trkpt><trkpt lat="45.77727597681935" lon="14.325169072196795"><ele>599.0</ele><time>2026-05-01T13:55:48Z</time></trkpt><trkpt lat="45.77720562803375" lon="14.325101687638611"><ele>599.0</ele><time>2026-05-01T13:55:50Z</time></trkpt><trkpt lat="45.77713303551434" lon="14.325035962105288"><ele>599.0</ele><time>2026-05-01T13:55:51.999Z</time></trkpt><trkpt lat="45.77705684218144" lon="14.324968087976922"><ele>599.0</ele><time>2026-05-01T13:55:53.999Z</time></trkpt><trkpt lat="45.776980566240375" lon="14.324900601859587"><ele>599.0</ele><time>2026-05-01T13:55:55.999Z</time></trkpt><trkpt lat="45.7769067445461" lon="14.324837092928508"><ele>599.0</ele><time>2026-05-01T13:55:57.999Z</time></trkpt><trkpt lat="45.776827749518084" lon="14.324769133420236"><ele>599.0</ele><time>2026-05-01T13:55:59.999Z</time></trkpt><trkpt lat="45.77674781375032" lon="14.324700364587368"><ele>599.2</ele><time>2026-05-01T13:56:01.999Z</time></trkpt><trkpt lat="45.776663332869276" lon="14.324644922214066"><ele>599.4</ele><time>2026-05-01T13:56:03.999Z</time></trkpt><trkpt lat="45.776584232175715" lon="14.324568901346334"><ele>599.6</ele><time>2026-05-01T13:56:05.999Z</time></trkpt><trkpt lat="45.776505685994266" lon="14.324498709852904"><ele>599.8</ele><time>2026-05-01T13:56:07.999Z</time></trkpt><trkpt lat="45.77642973322871" lon="14.324430945622675"><ele>600.0</ele><time>2026-05-01T13:56:09.999Z</time></trkpt><trkpt lat="45.77636748309888" lon="14.324353633254557"><ele>600.0</ele><time>2026-05-01T13:56:11.999Z</time></trkpt><trkpt lat="45.77630093955188" lon="14.32429068819633"><ele>600.0</ele><time>2026-05-01T13:56:13.999Z</time></trkpt><trkpt lat="45.77623519547499" lon="14.324228501016268"><ele>600.0</ele><time>2026-05-01T13:56:15.999Z</time></trkpt><trkpt lat="45.77617146088698" lon="14.324168211864237"><ele>600.0</ele><time>2026-05-01T13:56:17.999Z</time></trkpt><trkpt lat="45.77610592804159" lon="14.324104495401361"><ele>600.0</ele><time>2026-05-01T13:56:19.999Z</time></trkpt><trkpt lat="45.77604366715126" lon="14.324041596320944"><ele>600.0</ele><time>2026-05-01T13:56:21.999Z</time></trkpt><trkpt lat="45.77598663177491" lon="14.323978708484244"><ele>599.9999999999999</ele><time>2026-05-01T13:56:23.999Z</time></trkpt><trkpt lat="45.77593663204768" lon="14.323915902437427"><ele>600.0</ele><time>2026-05-01T13:56:25.999Z</time></trkpt><trkpt lat="45.775888961688146" lon="14.32384894406933"><ele>600.0</ele><time>2026-05-01T13:56:27.999Z</time></trkpt><trkpt lat="45.77584364201876" lon="14.323779644903361"><ele>600.0</ele><time>2026-05-01T13:56:29.999Z</time></trkpt><trkpt lat="45.77579465352711" lon="14.32370441825298"><ele>600.0</ele><time>2026-05-01T13:56:31.999Z</time></trkpt><trkpt lat="45.77574322623577" lon="14.323632046579315"><ele>599.9999999999999</ele><time>2026-05-01T13:56:33.999Z</time></trkpt><trkpt lat="45.77569290661054" lon="14.323566048641142"><ele>600.0</ele><time>2026-05-01T13:56:35.999Z</time></trkpt><trkpt lat="45.775643635024856" lon="14.323501275178927"><ele>599.9999999999999</ele><time>2026-05-01T13:56:37.999Z</time></trkpt><trkpt lat="45.77558607043143" lon="14.323456628841866"><ele>600.0</ele><time>2026-05-01T13:56:39.999Z</time></trkpt><trkpt lat="45.77553700104386" lon="14.323396184326807"><ele>600.0</ele><time>2026-05-01T13:56:41.999Z</time></trkpt><trkpt lat="45.775491149578784" lon="14.323325742992235"><ele>600.0</ele><time>2026-05-01T13:56:43.999Z</time></trkpt><trkpt lat="45.77543081588414" lon="14.323276941184478"><ele>600.0</ele><time>2026-05-01T13:56:45.999Z</time></trkpt><trkpt lat="45.775341308154594" lon="14.323232215994961"><ele>599.9999999999999</ele><time>2026-05-01T13:56:48.999Z</time></trkpt><trkpt lat="45.77527435165168" lon="14.323214074677932"><ele>600.0</ele><time>2026-05-01T13:56:50.999Z</time></trkpt><trkpt lat="45.77520039410797" lon="14.323194036609678"><ele>598.8333333333334</ele><time>2026-05-01T13:56:52.999Z</time></trkpt><trkpt lat="45.77512779195763" lon="14.323172298148961"><ele>597.6666666666666</ele><time>2026-05-01T13:56:54.999Z</time></trkpt><trkpt lat="45.775056716674165" lon="14.323150818800583"><ele>596.5</ele><time>2026-05-01T13:56:56.999Z</time></trkpt><trkpt lat="45.774983877129664" lon="14.323129886348125"><ele>595.3333333333333</ele><time>2026-05-01T13:56:58.999Z</time></trkpt><trkpt lat="45.774909689835404" lon="14.323108566566455"><ele>594.1666666666666</ele><time>2026-05-01T13:57:00.999Z</time></trkpt><trkpt lat="45.7748342522094" lon="14.323108719755844"><ele>593.0</ele><time>2026-05-01T13:57:02.999Z</time></trkpt><trkpt lat="45.774756453294614" lon="14.323064531848278"><ele>594.6666666666666</ele><time>2026-05-01T13:57:04.999Z</time></trkpt><trkpt lat="45.774677370918575" lon="14.32306004856253"><ele>596.3333333333333</ele><time>2026-05-01T13:57:07Z</time></trkpt><trkpt lat="45.77460110195253" lon="14.323033557868943"><ele>598.0</ele><time>2026-05-01T13:57:09Z</time></trkpt><trkpt lat="45.77452253558392" lon="14.32301167393525"><ele>599.6666666666666</ele><time>2026-05-01T13:57:11Z</time></trkpt><trkpt lat="45.774439793060395" lon="14.322974307345415"><ele>601.3333333333334</ele><time>2026-05-01T13:57:13Z</time></trkpt><trkpt lat="45.774353730585" lon="14.322947013899936"><ele>603.0</ele><time>2026-05-01T13:57:15Z</time></trkpt><trkpt lat="45.77427318975618" lon="14.322909314941501"><ele>603.0</ele><time>2026-05-01T13:57:17Z</time></trkpt><trkpt lat="45.77419789577124" lon="14.322871707957251"><ele>603.0</ele><time>2026-05-01T13:57:19Z</time></trkpt><trkpt lat="45.774128732590285" lon="14.322835789041374"><ele>603.0</ele><time>2026-05-01T13:57:21Z</time></trkpt><trkpt lat="45.77406780092606" lon="14.32280699869588"><ele>603.0</ele><time>2026-05-01T13:57:23Z</time></trkpt><trkpt lat="45.77400430026705" lon="14.322720057253985"><ele>603.0</ele><time>2026-05-01T13:57:26Z</time></trkpt><trkpt lat="45.77395198793527" lon="14.322666245661411"><ele>603.0</ele><time>2026-05-01T13:57:28Z</time></trkpt><trkpt lat="45.77389764030634" lon="14.32261034049489"><ele>603.0</ele><time>2026-05-01T13:57:30Z</time></trkpt><trkpt lat="45.77383534774834" lon="14.322556007585044"><ele>603.0</ele><time>2026-05-01T13:57:32Z</time></trkpt><trkpt lat="45.77376295561934" lon="14.322506103980785"><ele>603.0</ele><time>2026-05-01T13:57:34Z</time></trkpt><trkpt lat="45.773687579500915" lon="14.322463961688909"><ele>603.0</ele><time>2026-05-01T13:57:36Z</time></trkpt><trkpt lat="45.77361184167726" lon="14.322429686726432"><ele>603.0</ele><time>2026-05-01T13:57:38Z</time></trkpt><trkpt lat="45.77353604860419" lon="14.322400813736946"><ele>603.0</ele><time>2026-05-01T13:57:40Z</time></trkpt><trkpt lat="45.77346117433636" lon="14.322396301927238"><ele>603.0</ele><time>2026-05-01T13:57:42Z</time></trkpt><trkpt lat="45.773381236847264" lon="14.322380952489674"><ele>602.3333333333334</ele><time>2026-05-01T13:57:44Z</time></trkpt><trkpt lat="45.77329918213846" lon="14.32234380926886"><ele>601.6666666666666</ele><time>2026-05-01T13:57:46Z</time></trkpt><trkpt lat="45.77321555951189" lon="14.322330152372949"><ele>601.0</ele><time>2026-05-01T13:57:48Z</time></trkpt><trkpt lat="45.77312955557152" lon="14.322318553562905"><ele>600.3333333333333</ele><time>2026-05-01T13:57:50Z</time></trkpt><trkpt lat="45.77304223108064" lon="14.322307426964967"><ele>599.6666666666666</ele><time>2026-05-01T13:57:52Z</time></trkpt><trkpt lat="45.772960738243476" lon="14.322297776912023"><ele>599.0</ele><time>2026-05-01T13:57:54Z</time></trkpt><trkpt lat="45.77287540794344" lon="14.322287672435861"><ele>599.0</ele><time>2026-05-01T13:57:56Z</time></trkpt><trkpt lat="45.77278646826644" lon="14.322288560868778"><ele>599.0</ele><time>2026-05-01T13:57:58Z</time></trkpt><trkpt lat="45.7726965519593" lon="14.322271565997893"><ele>599.0</ele><time>2026-05-01T13:58:00Z</time></trkpt><trkpt lat="45.77259202822246" lon="14.32225697965232"><ele>599.0</ele><time>2026-05-01T13:58:02Z</time></trkpt><trkpt lat="45.77248548430871" lon="14.32224825896238"><ele>599.0</ele><time>2026-05-01T13:58:04Z</time></trkpt><trkpt lat="45.77238069406661" lon="14.322224682497305"><ele>598.6</ele><time>2026-05-01T13:58:05.999Z</time></trkpt><trkpt lat="45.772256501772866" lon="14.322242407752817"><ele>598.2</ele><time>2026-05-01T13:58:07.999Z</time></trkpt><trkpt lat="45.77213412931694" lon="14.322265740510337"><ele>597.8000000000001</ele><time>2026-05-01T13:58:09.999Z</time></trkpt><trkpt lat="45.772069750793946" lon="14.32228108409318"><ele>597.4</ele><time>2026-05-01T13:58:10.999Z</time></trkpt><trkpt lat="45.77200756895336" lon="14.322303930138302"><ele>597.0</ele><time>2026-05-01T13:58:11.999Z</time></trkpt><trkpt lat="45.77188628105861" lon="14.322309372532832"><ele>598.0</ele><time>2026-05-01T13:58:13.999Z</time></trkpt><trkpt lat="45.771782319622375" lon="14.322328800715574"><ele>599.0</ele><time>2026-05-01T13:58:15.999Z</time></trkpt><trkpt lat="45.771703636341876" lon="14.322359370419898"><ele>600.0</ele><time>2026-05-01T13:58:19.999Z</time></trkpt><trkpt lat="45.77161949088454" lon="14.32238668930934"><ele>601.0</ele><time>2026-05-01T13:58:22.999Z</time></trkpt><trkpt lat="45.771550992250646" lon="14.322396148201078"><ele>602.0</ele><time>2026-05-01T13:58:25.999Z</time></trkpt><trkpt lat="45.7715468950765" lon="14.322514336087506"><ele>603.0</ele><time>2026-05-01T14:00:13Z</time></trkpt><trkpt lat="45.77152615007556" lon="14.322627457392993"><ele>603.0</ele><time>2026-05-01T14:00:16Z</time></trkpt><trkpt lat="45.771527556942566" lon="14.3227220152948"><ele>603.0</ele><time>2026-05-01T14:00:18Z</time></trkpt><trkpt lat="45.77155367857898" lon="14.32280586259746"><ele>603.0</ele><time>2026-05-01T14:00:19.999Z</time></trkpt><trkpt lat="45.771555114868626" lon="14.32293132140304"><ele>603.0</ele><time>2026-05-01T14:00:22.999Z</time></trkpt><trkpt lat="45.77154755110293" lon="14.323058076659835"><ele>603.0</ele><time>2026-05-01T14:00:24.999Z</time></trkpt><trkpt lat="45.77157247895363" lon="14.323164174983235"><ele>603.0</ele><time>2026-05-01T14:00:26.999Z</time></trkpt><trkpt lat="45.77157409710797" lon="14.32326185592757"><ele>602.5714285714286</ele><time>2026-05-01T14:00:28.999Z</time></trkpt><trkpt lat="45.77157972142091" lon="14.3233581324195"><ele>602.1428571428571</ele><time>2026-05-01T14:00:30.999Z</time></trkpt><trkpt lat="45.77160202604488" lon="14.32344637764879"><ele>601.7142857142857</ele><time>2026-05-01T14:00:32.999Z</time></trkpt><trkpt lat="45.771638463519025" lon="14.323541601001489"><ele>601.2857142857142</ele><time>2026-05-01T14:00:34.999Z</time></trkpt><trkpt lat="45.77166296838673" lon="14.323631891845746"><ele>600.8571428571429</ele><time>2026-05-01T14:00:36.999Z</time></trkpt><trkpt lat="45.77168169263856" lon="14.323727880360519"><ele>600.4285714285713</ele><time>2026-05-01T14:00:38.999Z</time></trkpt><trkpt lat="45.771706474784956" lon="14.323818953557248"><ele>600.0</ele><time>2026-05-01T14:00:40.999Z</time></trkpt><trkpt lat="45.77170690172329" lon="14.323915464039265"><ele>599.0</ele><time>2026-05-01T14:00:42.999Z</time></trkpt><trkpt lat="45.77168855615688" lon="14.324045207776352"><ele>598.0</ele><time>2026-05-01T14:00:45.999Z</time></trkpt><trkpt lat="45.77165195329183" lon="14.324169788819347"><ele>597.0</ele><time>2026-05-01T14:00:48.999Z</time></trkpt><trkpt lat="45.77162806737061" lon="14.324264385377228"><ele>596.0</ele><time>2026-05-01T14:00:50.999Z</time></trkpt><trkpt lat="45.77160081967337" lon="14.32437596691687"><ele>595.0</ele><time>2026-05-01T14:00:52.999Z</time></trkpt><trkpt lat="45.77157720740866" lon="14.32451053394733"><ele>594.0</ele><time>2026-05-01T14:00:54.999Z</time></trkpt><trkpt lat="45.771569663220596" lon="14.324647666497771"><ele>592.5</ele><time>2026-05-01T14:00:56.999Z</time></trkpt><trkpt lat="45.77156475196272" lon="14.324776165267144"><ele>591.0</ele><time>2026-05-01T14:00:58.999Z</time></trkpt><trkpt lat="45.77155631995687" lon="14.32488006656037"><ele>589.5</ele><time>2026-05-01T14:01:00.999Z</time></trkpt><trkpt lat="45.771520785948375" lon="14.325000160653786"><ele>588.0</ele><time>2026-05-01T14:01:04.999Z</time></trkpt><trkpt lat="45.77148899122832" lon="14.325109378907115"><ele>586.5</ele><time>2026-05-01T14:01:06.999Z</time></trkpt><trkpt lat="45.771444782996745" lon="14.325224361786825"><ele>585.0</ele><time>2026-05-01T14:01:08.999Z</time></trkpt><trkpt lat="45.771379266357904" lon="14.325321210493133"><ele>585.0</ele><time>2026-05-01T14:01:10.999Z</time></trkpt><trkpt lat="45.77128047741097" lon="14.325418761272278"><ele>585.0</ele><time>2026-05-01T14:01:12.999Z</time></trkpt><trkpt lat="45.77123324536469" lon="14.325479206430096"><ele>585.0</ele><time>2026-05-01T14:01:13.999Z</time></trkpt><trkpt lat="45.77118916287741" lon="14.325562567149504"><ele>585.0</ele><time>2026-05-01T14:01:14.999Z</time></trkpt><trkpt lat="45.771166453323204" lon="14.325663031315248"><ele>585.0</ele><time>2026-05-01T14:01:15.999Z</time></trkpt><trkpt lat="45.771122973791535" lon="14.325752095861276"><ele>585.0</ele><time>2026-05-01T14:01:16.999Z</time></trkpt><trkpt lat="45.77110418260963" lon="14.32585601324537"><ele>583.0</ele><time>2026-05-01T14:01:18Z</time></trkpt><trkpt lat="45.77109223637079" lon="14.325957332912253"><ele>581.0</ele><time>2026-05-01T14:01:19Z</time></trkpt><trkpt lat="45.771081441757936" lon="14.326049198953717"><ele>579.0</ele><time>2026-05-01T14:01:20Z</time></trkpt><trkpt lat="45.77107247786754" lon="14.32621491563532"><ele>577.0</ele><time>2026-05-01T14:01:22Z</time></trkpt><trkpt lat="45.77104554092359" lon="14.326334442890296"><ele>575.0</ele><time>2026-05-01T14:01:24Z</time></trkpt><trkpt lat="45.771023802475554" lon="14.326454749571651"><ele>573.0</ele><time>2026-05-01T14:01:26Z</time></trkpt><trkpt lat="45.77101150567397" lon="14.326575734317196"><ele>577.0</ele><time>2026-05-01T14:01:28Z</time></trkpt><trkpt lat="45.77097862763442" lon="14.326690447810531"><ele>581.0</ele><time>2026-05-01T14:01:30Z</time></trkpt><trkpt lat="45.770935562557646" lon="14.326787074387125"><ele>585.0</ele><time>2026-05-01T14:01:32Z</time></trkpt><trkpt lat="45.77090367625672" lon="14.32688494452964"><ele>589.0</ele><time>2026-05-01T14:01:34Z</time></trkpt><trkpt lat="45.77087268794693" lon="14.32698005819758"><ele>593.0</ele><time>2026-05-01T14:01:36Z</time></trkpt><trkpt lat="45.770851514583725" lon="14.327088576118047"><ele>597.0</ele><time>2026-05-01T14:01:38Z</time></trkpt><trkpt lat="45.77080347073031" lon="14.327169486354428"><ele>596.0000000000001</ele><time>2026-05-01T14:01:40Z</time></trkpt><trkpt lat="45.770767903470876" lon="14.327260021974018"><ele>595.0</ele><time>2026-05-01T14:01:42Z</time></trkpt><trkpt lat="45.77073484163108" lon="14.327341829442531"><ele>594.0</ele><time>2026-05-01T14:01:44Z</time></trkpt><trkpt lat="45.77071550803062" lon="14.32743379150848"><ele>593.0</ele><time>2026-05-01T14:01:46Z</time></trkpt><trkpt lat="45.77067756008651" lon="14.327514306317731"><ele>592.0</ele><time>2026-05-01T14:01:48Z</time></trkpt><trkpt lat="45.770631395642305" lon="14.327584523038178"><ele>591.0000000000001</ele><time>2026-05-01T14:01:50Z</time></trkpt><trkpt lat="45.770617189618264" lon="14.327673161287409"><ele>590.0</ele><time>2026-05-01T14:01:52Z</time></trkpt><trkpt lat="45.770596156953424" lon="14.327799906761587"><ele>590.0</ele><time>2026-05-01T14:01:55Z</time></trkpt><trkpt lat="45.77058337150632" lon="14.327888507773046"><ele>590.0</ele><time>2026-05-01T14:01:57Z</time></trkpt><trkpt lat="45.77057079535017" lon="14.328015770025392"><ele>590.0</ele><time>2026-05-01T14:02:00Z</time></trkpt><trkpt lat="45.77054181114491" lon="14.328139878772204"><ele>590.0</ele><time>2026-05-01T14:02:03Z</time></trkpt><trkpt lat="45.7705244182123" lon="14.328259325022318"><ele>590.0</ele><time>2026-05-01T14:02:06Z</time></trkpt><trkpt lat="45.77050164941078" lon="14.32838259434042"><ele>590.0</ele><time>2026-05-01T14:02:09Z</time></trkpt><trkpt lat="45.77047842486616" lon="14.328507952598326"><ele>589.7142857142858</ele><time>2026-05-01T14:02:12Z</time></trkpt><trkpt lat="45.77046499220074" lon="14.328600797095804"><ele>589.4285714285714</ele><time>2026-05-01T14:02:14Z</time></trkpt><trkpt lat="45.77047314791207" lon="14.328703085318734"><ele>589.1428571428571</ele><time>2026-05-01T14:02:16Z</time></trkpt><trkpt lat="45.77045673293249" lon="14.328803043614792"><ele>588.8571428571429</ele><time>2026-05-01T14:02:18Z</time></trkpt><trkpt lat="45.770443125129084" lon="14.328911176275007"><ele>588.5714285714286</ele><time>2026-05-01T14:02:20Z</time></trkpt><trkpt lat="45.77045867270816" lon="14.329021190566047"><ele>588.2857142857143</ele><time>2026-05-01T14:02:22Z</time></trkpt><trkpt lat="45.770450547648466" lon="14.329135687919715"><ele>588.0</ele><time>2026-05-01T14:02:24Z</time></trkpt><trkpt lat="45.77048322258776" lon="14.329246543346562"><ele>588.0</ele><time>2026-05-01T14:02:26Z</time></trkpt><trkpt lat="45.77050617905529" lon="14.329365964923442"><ele>588.0</ele><time>2026-05-01T14:02:28Z</time></trkpt><trkpt lat="45.77054748260472" lon="14.329492095094738"><ele>588.0</ele><time>2026-05-01T14:02:30Z</time></trkpt><trkpt lat="45.770590985695414" lon="14.32962453531277"><ele>588.0</ele><time>2026-05-01T14:02:32Z</time></trkpt><trkpt lat="45.77062354358243" lon="14.329764070217365"><ele>588.0</ele><time>2026-05-01T14:02:34Z</time></trkpt><trkpt lat="45.77065338549479" lon="14.329899185906891"><ele>588.8</ele><time>2026-05-01T14:02:35.999Z</time></trkpt><trkpt lat="45.77066439182853" lon="14.330024411925512"><ele>589.5999999999999</ele><time>2026-05-01T14:02:37.999Z</time></trkpt><trkpt lat="45.770666799110856" lon="14.330154233431045"><ele>590.4000000000001</ele><time>2026-05-01T14:02:39.999Z</time></trkpt><trkpt lat="45.77067050718053" lon="14.330292139263179"><ele>591.2</ele><time>2026-05-01T14:02:41.999Z</time></trkpt><trkpt lat="45.77066203594959" lon="14.330425176696634"><ele>592.0</ele><time>2026-05-01T14:02:43.999Z</time></trkpt><trkpt lat="45.77063574305867" lon="14.33054721990655"><ele>592.4</ele><time>2026-05-01T14:02:45.999Z</time></trkpt><trkpt lat="45.77059611388499" lon="14.33068399209913"><ele>592.8000000000001</ele><time>2026-05-01T14:02:47.999Z</time></trkpt><trkpt lat="45.77054787372903" lon="14.330819981809285"><ele>593.2</ele><time>2026-05-01T14:02:49.999Z</time></trkpt><trkpt lat="45.77047861509592" lon="14.330927876520821"><ele>593.6</ele><time>2026-05-01T14:02:51.999Z</time></trkpt><trkpt lat="45.770428506062956" lon="14.331051771760148"><ele>594.0</ele><time>2026-05-01T14:02:53.999Z</time></trkpt><trkpt lat="45.77039923766456" lon="14.331177435465955"><ele>594.0</ele><time>2026-05-01T14:02:55.999Z</time></trkpt><trkpt lat="45.770379634641216" lon="14.331319229224988"><ele>594.0</ele><time>2026-05-01T14:02:57.999Z</time></trkpt><trkpt lat="45.77039201248998" lon="14.331446994789324"><ele>594.0</ele><time>2026-05-01T14:02:59.999Z</time></trkpt><trkpt lat="45.77040174466819" lon="14.33154966899329"><ele>594.0</ele><time>2026-05-01T14:03:01.999Z</time></trkpt><trkpt lat="45.77042033511277" lon="14.331642906383697"><ele>594.0</ele><time>2026-05-01T14:03:03.999Z</time></trkpt><trkpt lat="45.770441605087605" lon="14.331733750678604"><ele>594.0</ele><time>2026-05-01T14:03:05.999Z</time></trkpt><trkpt lat="45.770466548953245" lon="14.331820278712843"><ele>594.0</ele><time>2026-05-01T14:03:07.999Z</time></trkpt><trkpt lat="45.77049897107316" lon="14.331918459088232"><ele>594.0</ele><time>2026-05-01T14:03:09.999Z</time></trkpt><trkpt lat="45.77053375033675" lon="14.33201131457998"><ele>594.0</ele><time>2026-05-01T14:03:11.999Z</time></trkpt><trkpt lat="45.770569572813336" lon="14.332085816551194"><ele>594.0</ele><time>2026-05-01T14:03:13.999Z</time></trkpt><trkpt lat="45.77060759307206" lon="14.33219035121077"><ele>594.0</ele><time>2026-05-01T14:03:16.999Z</time></trkpt><trkpt lat="45.77062894718682" lon="14.332302842013656"><ele>594.0</ele><time>2026-05-01T14:03:19.999Z</time></trkpt><trkpt lat="45.77063429658301" lon="14.332393425192098"><ele>594.0</ele><time>2026-05-01T14:03:21.999Z</time></trkpt><trkpt lat="45.770628145681584" lon="14.332494342676805"><ele>593.6</ele><time>2026-05-01T14:03:24Z</time></trkpt><trkpt lat="45.770618949975926" lon="14.332607620193471"><ele>593.2</ele><time>2026-05-01T14:03:26Z</time></trkpt><trkpt lat="45.77061052763871" lon="14.332734163668146"><ele>592.8000000000001</ele><time>2026-05-01T14:03:28Z</time></trkpt><trkpt lat="45.77060263077702" lon="14.332858219129019"><ele>592.4</ele><time>2026-05-01T14:03:30Z</time></trkpt><trkpt lat="45.770571914399355" lon="14.332978235319139"><ele>592.0</ele><time>2026-05-01T14:03:32Z</time></trkpt><trkpt lat="45.770562987367796" lon="14.333134685937216"><ele>591.0</ele><time>2026-05-01T14:03:34Z</time></trkpt><trkpt lat="45.77053825433028" lon="14.333274555091235"><ele>590.0</ele><time>2026-05-01T14:03:36Z</time></trkpt><trkpt lat="45.770498552713654" lon="14.333393329997927"><ele>589.0</ele><time>2026-05-01T14:03:38Z</time></trkpt><trkpt lat="45.77046453230704" lon="14.333516239335768"><ele>588.0</ele><time>2026-05-01T14:03:40Z</time></trkpt><trkpt lat="45.77040979627567" lon="14.333642317593286"><ele>587.0</ele><time>2026-05-01T14:03:42Z</time></trkpt><trkpt lat="45.77034292114204" lon="14.333766312795744"><ele>588.0</ele><time>2026-05-01T14:03:44Z</time></trkpt><trkpt lat="45.770267321374114" lon="14.333893350818421"><ele>589.0</ele><time>2026-05-01T14:03:46Z</time></trkpt><trkpt lat="45.770170568123305" lon="14.333995928736043"><ele>590.0</ele><time>2026-05-01T14:03:48Z</time></trkpt><trkpt lat="45.770064057955004" lon="14.334083872185628"><ele>591.0</ele><time>2026-05-01T14:03:50Z</time></trkpt><trkpt lat="45.77000882054494" lon="14.334143053525855"><ele>592.0</ele><time>2026-05-01T14:03:51Z</time></trkpt><trkpt lat="45.76995684878194" lon="14.334198735962225"><ele>592.0</ele><time>2026-05-01T14:03:52Z</time></trkpt><trkpt lat="45.76990366445924" lon="14.334253691187943"><ele>592.0</ele><time>2026-05-01T14:03:53Z</time></trkpt><trkpt lat="45.76985856337174" lon="14.334319517497319"><ele>592.0</ele><time>2026-05-01T14:03:54Z</time></trkpt><trkpt lat="45.76980912171717" lon="14.334376526305164"><ele>592.0</ele><time>2026-05-01T14:03:55Z</time></trkpt><trkpt lat="45.769755890246614" lon="14.334425103386362"><ele>592.0</ele><time>2026-05-01T14:03:56Z</time></trkpt><trkpt lat="45.76964537801003" lon="14.334514802089393"><ele>592.0</ele><time>2026-05-01T14:03:58Z</time></trkpt><trkpt lat="45.76955232465721" lon="14.334626739119365"><ele>592.0</ele><time>2026-05-01T14:04:00Z</time></trkpt><trkpt lat="45.7694368545236" lon="14.334702692718716"><ele>592.0</ele><time>2026-05-01T14:04:02Z</time></trkpt><trkpt lat="45.76933403272843" lon="14.33479051921217"><ele>592.0</ele><time>2026-05-01T14:04:04Z</time></trkpt><trkpt lat="45.76922585396456" lon="14.33488149884027"><ele>592.0</ele><time>2026-05-01T14:04:06Z</time></trkpt><trkpt lat="45.76913027984733" lon="14.334989185177882"><ele>591.8000000000001</ele><time>2026-05-01T14:04:08Z</time></trkpt><trkpt lat="45.76902202005607" lon="14.335069139506142"><ele>591.6</ele><time>2026-05-01T14:04:10Z</time></trkpt><trkpt lat="45.768965558028036" lon="14.335116364721818"><ele>591.4000000000001</ele><time>2026-05-01T14:04:11Z</time></trkpt><trkpt lat="45.768859588045785" lon="14.335213516808208"><ele>591.2</ele><time>2026-05-01T14:04:13Z</time></trkpt><trkpt lat="45.76877482410704" lon="14.335338056281946"><ele>591.0</ele><time>2026-05-01T14:04:15Z</time></trkpt><trkpt lat="45.7686977111329" lon="14.335458584006114"><ele>590.4</ele><time>2026-05-01T14:04:17Z</time></trkpt><trkpt lat="45.76862793134073" lon="14.335610262530508"><ele>589.8</ele><time>2026-05-01T14:04:19Z</time></trkpt><trkpt lat="45.76857463807634" lon="14.335669139853234"><ele>589.1999999999999</ele><time>2026-05-01T14:04:20Z</time></trkpt><trkpt lat="45.76851976575825" lon="14.335718137546037"><ele>588.6</ele><time>2026-05-01T14:04:21Z</time></trkpt><trkpt lat="45.76839932913887" lon="14.335763083840478"><ele>588.0</ele><time>2026-05-01T14:04:23Z</time></trkpt><trkpt lat="45.76828177994697" lon="14.335837036490373"><ele>588.0</ele><time>2026-05-01T14:04:25Z</time></trkpt><trkpt lat="45.76822061388536" lon="14.335875165984243"><ele>588.0</ele><time>2026-05-01T14:04:26Z</time></trkpt><trkpt lat="45.76816325515026" lon="14.33593722664189"><ele>588.0</ele><time>2026-05-01T14:04:27Z</time></trkpt><trkpt lat="45.76809366069285" lon="14.335957041405083"><ele>588.0</ele><time>2026-05-01T14:04:28Z</time></trkpt><trkpt lat="45.7680344111871" lon="14.336018684552553"><ele>588.0</ele><time>2026-05-01T14:04:29Z</time></trkpt><trkpt lat="45.76796126846601" lon="14.336048929249124"><ele>588.0</ele><time>2026-05-01T14:04:30Z</time></trkpt><trkpt lat="45.767904896846574" lon="14.336115917237795"><ele>588.0</ele><time>2026-05-01T14:04:31Z</time></trkpt><trkpt lat="45.76783300711302" lon="14.336169302502256"><ele>588.0</ele><time>2026-05-01T14:04:32Z</time></trkpt><trkpt lat="45.767759029777146" lon="14.33621461899695"><ele>588.0</ele><time>2026-05-01T14:04:33Z</time></trkpt><trkpt lat="45.76769798300078" lon="14.336284415875914"><ele>588.0</ele><time>2026-05-01T14:04:34Z</time></trkpt><trkpt lat="45.76764446441558" lon="14.336369113899805"><ele>588.0</ele><time>2026-05-01T14:04:35Z</time></trkpt><trkpt lat="45.76761040378163" lon="14.336467332182476"><ele>588.0</ele><time>2026-05-01T14:04:36Z</time></trkpt><trkpt lat="45.767567075517206" lon="14.336544020638613"><ele>588.0</ele><time>2026-05-01T14:04:37Z</time></trkpt><trkpt lat="45.76749143045744" lon="14.336682660124149"><ele>588.0</ele><time>2026-05-01T14:04:39Z</time></trkpt><trkpt lat="45.76741818345888" lon="14.336814567235757"><ele>588.0</ele><time>2026-05-01T14:04:41Z</time></trkpt><trkpt lat="45.76735289371411" lon="14.3369552369582"><ele>588.0</ele><time>2026-05-01T14:04:43Z</time></trkpt><trkpt lat="45.76729746715444" lon="14.337101291605439"><ele>588.0</ele><time>2026-05-01T14:04:45Z</time></trkpt><trkpt lat="45.76725033560475" lon="14.337232515553755"><ele>586.6</ele><time>2026-05-01T14:04:46.999Z</time></trkpt><trkpt lat="45.767207942964795" lon="14.337370070279597"><ele>585.1999999999999</ele><time>2026-05-01T14:04:48.999Z</time></trkpt><trkpt lat="45.76716384628197" lon="14.337502833842603"><ele>583.8</ele><time>2026-05-01T14:04:50.999Z</time></trkpt><trkpt lat="45.76711752320427" lon="14.337636311992588"><ele>582.4</ele><time>2026-05-01T14:04:52.999Z</time></trkpt><trkpt lat="45.76707092420113" lon="14.33777341124327"><ele>581.0</ele><time>2026-05-01T14:04:54.999Z</time></trkpt><trkpt lat="45.76702587434916" lon="14.337912198730347"><ele>579.5</ele><time>2026-05-01T14:04:56.999Z</time></trkpt><trkpt lat="45.76698430782804" lon="14.3380726460249"><ele>578.0</ele><time>2026-05-01T14:04:58.999Z</time></trkpt><trkpt lat="45.766928774720945" lon="14.33822282275934"><ele>576.5</ele><time>2026-05-01T14:05:00.999Z</time></trkpt><trkpt lat="45.76690995847223" lon="14.338388548783437"><ele>575.0</ele><time>2026-05-01T14:05:02.999Z</time></trkpt><trkpt lat="45.76689991353639" lon="14.33852688543894"><ele>575.0</ele><time>2026-05-01T14:05:04.999Z</time></trkpt><trkpt lat="45.76689942168955" lon="14.338619753937662"><ele>575.0</ele><time>2026-05-01T14:05:06.999Z</time></trkpt><trkpt lat="45.76692341547056" lon="14.338740141704262"><ele>575.0</ele><time>2026-05-01T14:05:09.999Z</time></trkpt><trkpt lat="45.76694328647443" lon="14.338830558327997"><ele>575.0</ele><time>2026-05-01T14:05:12.999Z</time></trkpt><trkpt lat="45.7669962011715" lon="14.338896493703182"><ele>575.0</ele><time>2026-05-01T14:05:15.999Z</time></trkpt><trkpt lat="45.767070259912" lon="14.338941402782714"><ele>575.0</ele><time>2026-05-01T14:07:15.999Z</time></trkpt><trkpt lat="45.767135909370765" lon="14.33899814656613"><ele>575.0</ele><time>2026-05-01T14:07:19.999Z</time></trkpt><trkpt lat="45.76719104157425" lon="14.33904277064869"><ele>576.6666666666666</ele><time>2026-05-01T14:07:21.999Z</time></trkpt><trkpt lat="45.767265739080656" lon="14.3391024419288"><ele>578.3333333333333</ele><time>2026-05-01T14:07:24.999Z</time></trkpt><trkpt lat="45.767328353933515" lon="14.339135524718602"><ele>580.0</ele><time>2026-05-01T14:07:27.999Z</time></trkpt><trkpt lat="45.76737477628077" lon="14.339211526616314"><ele>581.6666666666666</ele><time>2026-05-01T14:07:30.999Z</time></trkpt><trkpt lat="45.76744378066678" lon="14.339303196347739"><ele>583.3333333333334</ele><time>2026-05-01T14:07:33.999Z</time></trkpt><trkpt lat="45.7674908379661" lon="14.339373398394276"><ele>585.0</ele><time>2026-05-01T14:07:36Z</time></trkpt><trkpt lat="45.76755105813631" lon="14.339434465216875"><ele>585.0</ele><time>2026-05-01T14:07:38Z</time></trkpt><trkpt lat="45.76759600839175" lon="14.339509372645201"><ele>585.0</ele><time>2026-05-01T14:07:40Z</time></trkpt><trkpt lat="45.767640424973344" lon="14.339583390769615"><ele>585.0</ele><time>2026-05-01T14:07:42Z</time></trkpt><trkpt lat="45.7676887717271" lon="14.339663958314738"><ele>585.0</ele><time>2026-05-01T14:07:44Z</time></trkpt><trkpt lat="45.76771937482745" lon="14.339747104015737"><ele>585.0</ele><time>2026-05-01T14:07:46Z</time></trkpt><trkpt lat="45.76778665015854" lon="14.339808219804373"><ele>585.0</ele><time>2026-05-01T14:07:48Z</time></trkpt><trkpt lat="45.767827651269684" lon="14.339882941262424"><ele>585.0</ele><time>2026-05-01T14:07:50Z</time></trkpt><trkpt lat="45.76787102373525" lon="14.33996014658069"><ele>584.1428571428571</ele><time>2026-05-01T14:07:52Z</time></trkpt><trkpt lat="45.767917134760246" lon="14.340045567601777"><ele>583.2857142857142</ele><time>2026-05-01T14:07:54Z</time></trkpt><trkpt lat="45.767947925148235" lon="14.340137435309662"><ele>582.4285714285713</ele><time>2026-05-01T14:07:56Z</time></trkpt><trkpt lat="45.76798282241426" lon="14.340236307488695"><ele>581.5714285714286</ele><time>2026-05-01T14:07:58Z</time></trkpt><trkpt lat="45.76799089843147" lon="14.34033930242464"><ele>580.7142857142857</ele><time>2026-05-01T14:08:00Z</time></trkpt><trkpt lat="45.76801850000367" lon="14.340432084620701"><ele>579.8571428571428</ele><time>2026-05-01T14:08:02Z</time></trkpt><trkpt lat="45.76802436202582" lon="14.340532553149256"><ele>579.0</ele><time>2026-05-01T14:08:04Z</time></trkpt><trkpt lat="45.76802257375823" lon="14.34063440347564"><ele>579.0</ele><time>2026-05-01T14:08:06Z</time></trkpt><trkpt lat="45.76802802474218" lon="14.34074327048272"><ele>579.0</ele><time>2026-05-01T14:08:08Z</time></trkpt><trkpt lat="45.76802313741601" lon="14.340852008616015"><ele>579.0</ele><time>2026-05-01T14:08:10Z</time></trkpt><trkpt lat="45.76802811480675" lon="14.340969624307835"><ele>579.0</ele><time>2026-05-01T14:08:12Z</time></trkpt><trkpt lat="45.76802602493935" lon="14.3410869352149"><ele>579.0</ele><time>2026-05-01T14:08:14Z</time></trkpt><trkpt lat="45.76803504990566" lon="14.341203583919912"><ele>579.0</ele><time>2026-05-01T14:08:16Z</time></trkpt><trkpt lat="45.768046939432026" lon="14.341325337290456"><ele>579.1666666666666</ele><time>2026-05-01T14:08:18Z</time></trkpt><trkpt lat="45.768059458420446" lon="14.341449684756983"><ele>579.3333333333334</ele><time>2026-05-01T14:08:20Z</time></trkpt><trkpt lat="45.7680573231457" lon="14.341568274195264"><ele>579.5</ele><time>2026-05-01T14:08:22Z</time></trkpt><trkpt lat="45.7680667966634" lon="14.341688842925745"><ele>579.6666666666667</ele><time>2026-05-01T14:08:24Z</time></trkpt><trkpt lat="45.76807682545471" lon="14.341811667717998"><ele>579.8333333333334</ele><time>2026-05-01T14:08:26Z</time></trkpt><trkpt lat="45.76808501542502" lon="14.341930629978492"><ele>580.0</ele><time>2026-05-01T14:08:28Z</time></trkpt><trkpt lat="45.76808405684552" lon="14.342042744867404"><ele>580.0</ele><time>2026-05-01T14:08:30Z</time></trkpt><trkpt lat="45.76808211942492" lon="14.342161740610207"><ele>580.0</ele><time>2026-05-01T14:08:32Z</time></trkpt><trkpt lat="45.76804196244299" lon="14.342259496385932"><ele>580.0</ele><time>2026-05-01T14:08:34Z</time></trkpt><trkpt lat="45.76801091090598" lon="14.342354523953121"><ele>580.0</ele><time>2026-05-01T14:08:36Z</time></trkpt><trkpt lat="45.76798757527781" lon="14.342470997352113"><ele>580.0</ele><time>2026-05-01T14:08:38Z</time></trkpt><trkpt lat="45.767933317274945" lon="14.342573288777146"><ele>580.0</ele><time>2026-05-01T14:08:40Z</time></trkpt><trkpt lat="45.76788885122238" lon="14.34269603711402"><ele>578.8</ele><time>2026-05-01T14:08:42Z</time></trkpt><trkpt lat="45.76785213963499" lon="14.342829184786705"><ele>577.6</ele><time>2026-05-01T14:08:44Z</time></trkpt><trkpt lat="45.76780477240683" lon="14.342946152057943"><ele>576.4</ele><time>2026-05-01T14:08:46Z</time></trkpt><trkpt lat="45.76774274842871" lon="14.343059518267658"><ele>575.2</ele><time>2026-05-01T14:08:48Z</time></trkpt><trkpt lat="45.76767400915898" lon="14.343174211466994"><ele>574.0</ele><time>2026-05-01T14:08:50Z</time></trkpt><trkpt lat="45.76758796165652" lon="14.343281338283635"><ele>577.2</ele><time>2026-05-01T14:08:52Z</time></trkpt><trkpt lat="45.76749804177254" lon="14.343382425052155"><ele>580.4</ele><time>2026-05-01T14:08:54Z</time></trkpt><trkpt lat="45.767426690447145" lon="14.343506301369887"><ele>583.6</ele><time>2026-05-01T14:08:56Z</time></trkpt><trkpt lat="45.76736791608775" lon="14.34353971772567"><ele>586.8</ele><time>2026-05-01T14:08:57Z</time></trkpt><trkpt lat="45.76733325700665" lon="14.34361925739751"><ele>590.0</ele><time>2026-05-01T14:08:58Z</time></trkpt><trkpt lat="45.76725909198668" lon="14.343754570808251"><ele>590.0</ele><time>2026-05-01T14:09:00Z</time></trkpt><trkpt lat="45.767236354775804" lon="14.343843359790764"><ele>590.0</ele><time>2026-05-01T14:09:01Z</time></trkpt><trkpt lat="45.76721418692172" lon="14.34400625938763"><ele>590.0</ele><time>2026-05-01T14:09:03Z</time></trkpt><trkpt lat="45.76719482805131" lon="14.344165812229644"><ele>590.0</ele><time>2026-05-01T14:09:05Z</time></trkpt><trkpt lat="45.76720683319949" lon="14.344324145965501"><ele>590.0</ele><time>2026-05-01T14:09:07Z</time></trkpt><trkpt lat="45.767214162567754" lon="14.344478031964602"><ele>587.6</ele><time>2026-05-01T14:09:09Z</time></trkpt><trkpt lat="45.767199448437786" lon="14.344649455446"><ele>585.2</ele><time>2026-05-01T14:09:11Z</time></trkpt><trkpt lat="45.76720364523774" lon="14.344806513327482"><ele>582.8</ele><time>2026-05-01T14:09:13Z</time></trkpt><trkpt lat="45.76718804886708" lon="14.344960846371556"><ele>580.4</ele><time>2026-05-01T14:09:15Z</time></trkpt><trkpt lat="45.76715654792103" lon="14.345102134017344"><ele>578.0</ele><time>2026-05-01T14:09:17Z</time></trkpt><trkpt lat="45.767130751109526" lon="14.345235642616323"><ele>577.3333333333333</ele><time>2026-05-01T14:09:19Z</time></trkpt><trkpt lat="45.76710269695925" lon="14.345359912039921"><ele>576.6666666666666</ele><time>2026-05-01T14:09:21Z</time></trkpt><trkpt lat="45.76707263621098" lon="14.345444053829882"><ele>576.0</ele><time>2026-05-01T14:09:23Z</time></trkpt><trkpt lat="45.76702924227202" lon="14.345532681362593"><ele>575.3333333333334</ele><time>2026-05-01T14:20:45.999Z</time></trkpt><trkpt lat="45.76698794286043" lon="14.34564462389616"><ele>574.6666666666667</ele><time>2026-05-01T14:20:48.999Z</time></trkpt><trkpt lat="45.76695587949073" lon="14.34573163548551"><ele>574.0</ele><time>2026-05-01T14:20:50.999Z</time></trkpt><trkpt lat="45.766928128848775" lon="14.345853498090088"><ele>573.0</ele><time>2026-05-01T14:20:53.999Z</time></trkpt><trkpt lat="45.7668838026359" lon="14.345923702138137"><ele>572.0</ele><time>2026-05-01T14:20:55.999Z</time></trkpt><trkpt lat="45.766851640299905" lon="14.346005075099514"><ele>571.0</ele><time>2026-05-01T14:20:57.999Z</time></trkpt><trkpt lat="45.76681930740568" lon="14.346087058648651"><ele>570.0</ele><time>2026-05-01T14:20:59.999Z</time></trkpt><trkpt lat="45.76678548217747" lon="14.346214295094287"><ele>569.0</ele><time>2026-05-01T14:21:02.999Z</time></trkpt><trkpt lat="45.76673853448722" lon="14.346280189088734"><ele>568.0</ele><time>2026-05-01T14:21:04.999Z</time></trkpt><trkpt lat="45.766699133590436" lon="14.346404011626648"><ele>571.2857142857142</ele><time>2026-05-01T14:21:07.999Z</time></trkpt><trkpt lat="45.76665553996558" lon="14.34647774372347"><ele>574.5714285714286</ele><time>2026-05-01T14:21:09.999Z</time></trkpt><trkpt lat="45.76661462300488" lon="14.34655484226676"><ele>577.8571428571429</ele><time>2026-05-01T14:21:11.999Z</time></trkpt><trkpt lat="45.76657375005269" lon="14.346624876772127"><ele>581.1428571428571</ele><time>2026-05-01T14:21:13.999Z</time></trkpt><trkpt lat="45.76652476828471" lon="14.34669837012684"><ele>584.4285714285714</ele><time>2026-05-01T14:21:15.999Z</time></trkpt><trkpt lat="45.766465537315966" lon="14.346754518908046"><ele>587.7142857142857</ele><time>2026-05-01T14:21:17.999Z</time></trkpt><trkpt lat="45.766427695216024" lon="14.346835360626196"><ele>591.0</ele><time>2026-05-01T14:21:19.999Z</time></trkpt><trkpt lat="45.76638159274551" lon="14.346901609513742"><ele>591.0</ele><time>2026-05-01T14:21:21.999Z</time></trkpt><trkpt lat="45.766313321055804" lon="14.346991633279215"><ele>591.0</ele><time>2026-05-01T14:21:24.999Z</time></trkpt><trkpt lat="45.76626498697053" lon="14.347063787504478"><ele>591.0</ele><time>2026-05-01T14:21:26.999Z</time></trkpt><trkpt lat="45.76620799960536" lon="14.347108231115016"><ele>591.0</ele><time>2026-05-01T14:21:28.999Z</time></trkpt><trkpt lat="45.766167328483085" lon="14.347190650206855"><ele>591.0</ele><time>2026-05-01T14:21:30.999Z</time></trkpt><trkpt lat="45.7661205442698" lon="14.347255470914341"><ele>591.0</ele><time>2026-05-01T14:21:32.999Z</time></trkpt><trkpt lat="45.76607083169422" lon="14.347311359576151"><ele>591.0</ele><time>2026-05-01T14:21:34.999Z</time></trkpt><trkpt lat="45.76601963453773" lon="14.347370644325084"><ele>591.7142857142857</ele><time>2026-05-01T14:21:36.999Z</time></trkpt><trkpt lat="45.76597484386762" lon="14.347435966725234"><ele>592.4285714285714</ele><time>2026-05-01T14:21:38.999Z</time></trkpt><trkpt lat="45.76591976029185" lon="14.347503631496263"><ele>593.1428571428571</ele><time>2026-05-01T14:21:40.999Z</time></trkpt><trkpt lat="45.76586223549571" lon="14.3475587114468"><ele>593.8571428571429</ele><time>2026-05-01T14:21:42.999Z</time></trkpt><trkpt lat="45.765811865224144" lon="14.347641153937738"><ele>594.5714285714286</ele><time>2026-05-01T14:21:44.999Z</time></trkpt><trkpt lat="45.76574783984948" lon="14.347714367453364"><ele>595.2857142857142</ele><time>2026-05-01T14:21:46.999Z</time></trkpt><trkpt lat="45.76568634396229" lon="14.34779355170071"><ele>596.0</ele><time>2026-05-01T14:21:48.999Z</time></trkpt><trkpt lat="45.76562171417549" lon="14.347871922466862"><ele>596.0</ele><time>2026-05-01T14:21:50.999Z</time></trkpt><trkpt lat="45.76555838107303" lon="14.347955685478835"><ele>596.0</ele><time>2026-05-01T14:21:52.999Z</time></trkpt><trkpt lat="45.76550992442328" lon="14.348057658014639"><ele>596.0</ele><time>2026-05-01T14:21:54.999Z</time></trkpt><trkpt lat="45.76547267006406" lon="14.348162717776969"><ele>596.0</ele><time>2026-05-01T14:21:56.999Z</time></trkpt><trkpt lat="45.76544888736497" lon="14.348275241297761"><ele>596.0</ele><time>2026-05-01T14:21:58.999Z</time></trkpt><trkpt lat="45.76541907557267" lon="14.348388368518872"><ele>596.0</ele><time>2026-05-01T14:22:00.999Z</time></trkpt><trkpt lat="45.76536703224551" lon="14.348501224799548"><ele>596.4</ele><time>2026-05-01T14:22:02.999Z</time></trkpt><trkpt lat="45.765329977754114" lon="14.34862326097499"><ele>596.8</ele><time>2026-05-01T14:22:04.999Z</time></trkpt><trkpt lat="45.76529290337931" lon="14.348745362564362"><ele>597.1999999999999</ele><time>2026-05-01T14:22:06.999Z</time></trkpt><trkpt lat="45.765255375513604" lon="14.348868957735018"><ele>597.6</ele><time>2026-05-01T14:22:08.999Z</time></trkpt><trkpt lat="45.76521682610203" lon="14.348995917356007"><ele>598.0</ele><time>2026-05-01T14:22:10.999Z</time></trkpt><trkpt lat="45.76519361212446" lon="14.349131833116141"><ele>598.0</ele><time>2026-05-01T14:22:12.999Z</time></trkpt><trkpt lat="45.765154967036224" lon="14.349251703455614"><ele>598.0</ele><time>2026-05-01T14:22:14.999Z</time></trkpt><trkpt lat="45.765118377245415" lon="14.349367555544498"><ele>598.0</ele><time>2026-05-01T14:22:17Z</time></trkpt><trkpt lat="45.76507748605911" lon="14.34948213693019"><ele>598.0</ele><time>2026-05-01T14:22:19Z</time></trkpt><trkpt lat="45.76503833793119" lon="14.34960285037451"><ele>598.0</ele><time>2026-05-01T14:22:21Z</time></trkpt><trkpt lat="45.765000606917084" lon="14.349715668078352"><ele>596.0</ele><time>2026-05-01T14:22:23Z</time></trkpt><trkpt lat="45.76496243572424" lon="14.349829057709945"><ele>594.0</ele><time>2026-05-01T14:22:25Z</time></trkpt><trkpt lat="45.7649197008232" lon="14.349941005094578"><ele>592.0</ele><time>2026-05-01T14:22:27Z</time></trkpt><trkpt lat="45.76487794485563" lon="14.35005916272493"><ele>590.0</ele><time>2026-05-01T14:22:29Z</time></trkpt><trkpt lat="45.76483695891217" lon="14.35017153760011"><ele>588.0</ele><time>2026-05-01T14:22:31Z</time></trkpt><trkpt lat="45.7647922922073" lon="14.350286442037449"><ele>586.0</ele><time>2026-05-01T14:22:33Z</time></trkpt><trkpt lat="45.76474696461151" lon="14.350408969312577"><ele>586.0</ele><time>2026-05-01T14:22:35Z</time></trkpt><trkpt lat="45.76470049425893" lon="14.350530233941702"><ele>586.0</ele><time>2026-05-01T14:22:37Z</time></trkpt><trkpt lat="45.76466603581995" lon="14.350650772844233"><ele>586.0</ele><time>2026-05-01T14:22:39Z</time></trkpt><trkpt lat="45.76463353921381" lon="14.350772563492505"><ele>586.0</ele><time>2026-05-01T14:22:41Z</time></trkpt><trkpt lat="45.76460393149065" lon="14.350894974399589"><ele>586.0</ele><time>2026-05-01T14:22:43Z</time></trkpt><trkpt lat="45.76457202377449" lon="14.351012253563319"><ele>587.3333333333334</ele><time>2026-05-01T14:22:45Z</time></trkpt><trkpt lat="45.76453485072315" lon="14.351123773797115"><ele>588.6666666666667</ele><time>2026-05-01T14:22:47Z</time></trkpt><trkpt lat="45.7645040743549" lon="14.351238610313299"><ele>590.0</ele><time>2026-05-01T14:22:49Z</time></trkpt><trkpt lat="45.76446706495963" lon="14.351350845755094"><ele>591.3333333333334</ele><time>2026-05-01T14:22:50.999Z</time></trkpt><trkpt lat="45.764429172728974" lon="14.351458418314039"><ele>592.6666666666666</ele><time>2026-05-01T14:22:52.999Z</time></trkpt><trkpt lat="45.764389264844304" lon="14.351553383643228"><ele>594.0</ele><time>2026-05-01T14:22:54.999Z</time></trkpt><trkpt lat="45.76434493154698" lon="14.351646766536843"><ele>594.0</ele><time>2026-05-01T14:22:56.999Z</time></trkpt><trkpt lat="45.764306250439354" lon="14.35174492442337"><ele>594.0</ele><time>2026-05-01T14:22:58.999Z</time></trkpt><trkpt lat="45.764252416112186" lon="14.351844231285178"><ele>594.0</ele><time>2026-05-01T14:23:00.999Z</time></trkpt><trkpt lat="45.76418974482107" lon="14.351943710247236"><ele>594.0</ele><time>2026-05-01T14:23:02.999Z</time></trkpt><trkpt lat="45.76413108812071" lon="14.352041964073399"><ele>594.0</ele><time>2026-05-01T14:23:04.999Z</time></trkpt><trkpt lat="45.76406996146041" lon="14.352132375834639"><ele>594.0</ele><time>2026-05-01T14:23:06.999Z</time></trkpt><trkpt lat="45.76400227166903" lon="14.352222971298039"><ele>590.4</ele><time>2026-05-01T14:23:08.999Z</time></trkpt><trkpt lat="45.763918492808656" lon="14.352296490287005"><ele>586.8</ele><time>2026-05-01T14:23:10.999Z</time></trkpt><trkpt lat="45.763847736675295" lon="14.352413696813041"><ele>583.2</ele><time>2026-05-01T14:23:12.999Z</time></trkpt><trkpt lat="45.76375811280881" lon="14.352489505398971"><ele>579.6</ele><time>2026-05-01T14:23:14.999Z</time></trkpt><trkpt lat="45.763685779966174" lon="14.352594724792509"><ele>576.0</ele><time>2026-05-01T14:23:16.999Z</time></trkpt><trkpt lat="45.76361006448651" lon="14.35267911712423"><ele>580.2</ele><time>2026-05-01T14:23:18.999Z</time></trkpt><trkpt lat="45.763527493472246" lon="14.352763382507243"><ele>584.4000000000001</ele><time>2026-05-01T14:23:20.999Z</time></trkpt><trkpt lat="45.763450449765315" lon="14.352835819270975"><ele>588.6</ele><time>2026-05-01T14:23:22.999Z</time></trkpt><trkpt lat="45.76336795084226" lon="14.352884838861799"><ele>592.8000000000001</ele><time>2026-05-01T14:23:24.999Z</time></trkpt><trkpt lat="45.763304062069224" lon="14.352961821011329"><ele>597.0</ele><time>2026-05-01T14:23:26.999Z</time></trkpt><trkpt lat="45.76322516240062" lon="14.35300561002001"><ele>594.8333333333334</ele><time>2026-05-01T14:23:28.999Z</time></trkpt><trkpt lat="45.7631546884592" lon="14.353064456942505"><ele>592.6666666666666</ele><time>2026-05-01T14:23:30.999Z</time></trkpt><trkpt lat="45.76309201329252" lon="14.353142132221802"><ele>590.5</ele><time>2026-05-01T14:23:32.999Z</time></trkpt><trkpt lat="45.76300927003294" lon="14.353180861601594"><ele>588.3333333333333</ele><time>2026-05-01T14:23:34.999Z</time></trkpt><trkpt lat="45.76294317169018" lon="14.353253297285734"><ele>586.1666666666666</ele><time>2026-05-01T14:23:36.999Z</time></trkpt><trkpt lat="45.76286490474882" lon="14.353290992473788"><ele>584.0</ele><time>2026-05-01T14:23:38.999Z</time></trkpt><trkpt lat="45.762798027274314" lon="14.353364992767442"><ele>584.0</ele><time>2026-05-01T14:23:40.999Z</time></trkpt><trkpt lat="45.76271915429987" lon="14.353393445905263"><ele>584.0</ele><time>2026-05-01T14:23:42.999Z</time></trkpt><trkpt lat="45.76265108303535" lon="14.353465231883018"><ele>584.0</ele><time>2026-05-01T14:23:44.999Z</time></trkpt><trkpt lat="45.76256765806603" lon="14.35349795331758"><ele>584.0</ele><time>2026-05-01T14:23:46.999Z</time></trkpt><trkpt lat="45.7624929344561" lon="14.35355328007372"><ele>584.0</ele><time>2026-05-01T14:23:48.999Z</time></trkpt><trkpt lat="45.762421100850915" lon="14.353608205373558"><ele>584.0</ele><time>2026-05-01T14:23:50.999Z</time></trkpt><trkpt lat="45.7623605855572" lon="14.353679335763909"><ele>584.1428571428571</ele><time>2026-05-01T14:23:52.999Z</time></trkpt><trkpt lat="45.76228320446194" lon="14.353719602853321"><ele>584.2857142857143</ele><time>2026-05-01T14:23:54.999Z</time></trkpt><trkpt lat="45.76222080030031" lon="14.3537913191579"><ele>584.4285714285714</ele><time>2026-05-01T14:23:56.999Z</time></trkpt><trkpt lat="45.76214908079287" lon="14.353829452067167"><ele>584.5714285714286</ele><time>2026-05-01T14:23:58.999Z</time></trkpt><trkpt lat="45.76208879255738" lon="14.353878634349442"><ele>584.7142857142857</ele><time>2026-05-01T14:24:00.999Z</time></trkpt><trkpt lat="45.7620318539434" lon="14.35392407917032"><ele>584.8571428571429</ele><time>2026-05-01T14:24:57Z</time></trkpt><trkpt lat="45.76197406021748" lon="14.353970204687528"><ele>585.0</ele><time>2026-05-01T14:25:38.999Z</time></trkpt><trkpt lat="45.76189998309508" lon="14.354029326027076"><ele>587.0</ele><time>2026-05-01T14:25:41.999Z</time></trkpt><trkpt lat="45.76184998286636" lon="14.354090392540149"><ele>589.0</ele><time>2026-05-01T14:25:43.999Z</time></trkpt><trkpt lat="45.76178783009301" lon="14.35413062609742"><ele>591.0</ele><time>2026-05-01T14:25:45.999Z</time></trkpt><trkpt lat="45.76172279492418" lon="14.354184934329119"><ele>593.0</ele><time>2026-05-01T14:25:47.999Z</time></trkpt><trkpt lat="45.76164822544041" lon="14.3542132101407"><ele>595.0</ele><time>2026-05-01T14:25:49.999Z</time></trkpt><trkpt lat="45.76158244061507" lon="14.35427204679063"><ele>597.0</ele><time>2026-05-01T14:25:51.999Z</time></trkpt><trkpt lat="45.761510473952676" lon="14.354304869930992"><ele>599.0</ele><time>2026-05-01T14:25:53.999Z</time></trkpt><trkpt lat="45.76143972631363" lon="14.354340175849906"><ele>599.0</ele><time>2026-05-01T14:25:55.999Z</time></trkpt><trkpt lat="45.761365826825475" lon="14.354364423037568"><ele>599.0</ele><time>2026-05-01T14:25:57.999Z</time></trkpt><trkpt lat="45.76129194314445" lon="14.354391812005874"><ele>599.0</ele><time>2026-05-01T14:25:59.999Z</time></trkpt><trkpt lat="45.76121403512691" lon="14.354390497072018"><ele>599.0</ele><time>2026-05-01T14:26:01.999Z</time></trkpt><trkpt lat="45.76113281267816" lon="14.354407852809967"><ele>599.0</ele><time>2026-05-01T14:26:03.999Z</time></trkpt><trkpt lat="45.761047321133894" lon="14.354422290251147"><ele>599.0</ele><time>2026-05-01T14:26:05.999Z</time></trkpt><trkpt lat="45.76096361209013" lon="14.354430467541667"><ele>600.3333333333333</ele><time>2026-05-01T14:26:07.999Z</time></trkpt><trkpt lat="45.76087941549956" lon="14.354435182958019"><ele>601.6666666666666</ele><time>2026-05-01T14:26:09.999Z</time></trkpt><trkpt lat="45.76079616488268" lon="14.354427964144884"><ele>603.0</ele><time>2026-05-01T14:26:11.999Z</time></trkpt><trkpt lat="45.7607117281931" lon="14.35442599980741"><ele>604.3333333333334</ele><time>2026-05-01T14:26:13.999Z</time></trkpt><trkpt lat="45.76062706402449" lon="14.354394756892713"><ele>605.6666666666667</ele><time>2026-05-01T14:26:15.999Z</time></trkpt><trkpt lat="45.76054101279915" lon="14.354364137495084"><ele>607.0</ele><time>2026-05-01T14:26:17.999Z</time></trkpt><trkpt lat="45.7604561456763" lon="14.354340575077595"><ele>607.0</ele><time>2026-05-01T14:26:19.999Z</time></trkpt><trkpt lat="45.760372648714394" lon="14.354327780993735"><ele>607.0</ele><time>2026-05-01T14:26:21.999Z</time></trkpt><trkpt lat="45.76028841317236" lon="14.354328542445204"><ele>607.0</ele><time>2026-05-01T14:26:23.999Z</time></trkpt><trkpt lat="45.760211800207856" lon="14.35431364242935"><ele>607.0</ele><time>2026-05-01T14:26:26Z</time></trkpt><trkpt lat="45.76012928970995" lon="14.354367313824403"><ele>607.0</ele><time>2026-05-01T14:26:28Z</time></trkpt><trkpt lat="45.76004592704576" lon="14.354417249868655"><ele>607.0</ele><time>2026-05-01T14:26:30Z</time></trkpt><trkpt lat="45.759966805068835" lon="14.354486046359286"><ele>607.4</ele><time>2026-05-01T14:26:32Z</time></trkpt><trkpt lat="45.75989041626847" lon="14.354543177272987"><ele>607.8000000000001</ele><time>2026-05-01T14:26:34Z</time></trkpt><trkpt lat="45.75980769140657" lon="14.354602134006646"><ele>608.2</ele><time>2026-05-01T14:26:36Z</time></trkpt><trkpt lat="45.75972408073789" lon="14.354667556067351"><ele>608.6</ele><time>2026-05-01T14:26:38Z</time></trkpt><trkpt lat="45.75963957072214" lon="14.354730394834283"><ele>609.0</ele><time>2026-05-01T14:26:40Z</time></trkpt><trkpt lat="45.759544121450034" lon="14.35480148610066"><ele>606.8</ele><time>2026-05-01T14:26:42Z</time></trkpt><trkpt lat="45.75945217568766" lon="14.354866116793689"><ele>604.5999999999999</ele><time>2026-05-01T14:26:44Z</time></trkpt><trkpt lat="45.7593577850538" lon="14.354931264830691"><ele>602.4</ele><time>2026-05-01T14:26:46Z</time></trkpt><trkpt lat="45.759260250185285" lon="14.355010587041386"><ele>600.1999999999999</ele><time>2026-05-01T14:26:48Z</time></trkpt><trkpt lat="45.75915098737294" lon="14.35509257468068"><ele>598.0</ele><time>2026-05-01T14:26:50Z</time></trkpt><trkpt lat="45.75903687055724" lon="14.355146077069282"><ele>598.0</ele><time>2026-05-01T14:26:52Z</time></trkpt><trkpt lat="45.75895574951512" lon="14.35519568830511"><ele>598.0</ele><time>2026-05-01T14:26:54Z</time></trkpt><trkpt lat="45.758888014159496" lon="14.35526307432736"><ele>598.0</ele><time>2026-05-01T14:26:56Z</time></trkpt><trkpt lat="45.7588180782218" lon="14.35528113611412"><ele>598.0</ele><time>2026-05-01T14:26:58Z</time></trkpt><trkpt lat="45.75882434859758" lon="14.355474612644093"><ele>598.0</ele><time>2026-05-01T14:27:41.999Z</time></trkpt><trkpt lat="45.75883719429429" lon="14.35556627342617"><ele>598.0</ele><time>2026-05-01T14:27:43.999Z</time></trkpt><trkpt lat="45.75885386167559" lon="14.35569150423058"><ele>595.6</ele><time>2026-05-01T14:27:45.999Z</time></trkpt><trkpt lat="45.75889951344145" lon="14.35582563959172"><ele>593.1999999999999</ele><time>2026-05-01T14:27:47.999Z</time></trkpt><trkpt lat="45.758949413687354" lon="14.35597006085508"><ele>590.8</ele><time>2026-05-01T14:27:49.999Z</time></trkpt><trkpt lat="45.75897411534347" lon="14.356127073594678"><ele>588.4</ele><time>2026-05-01T14:27:51.999Z</time></trkpt><trkpt lat="45.75900719743092" lon="14.356273251779944"><ele>586.0</ele><time>2026-05-01T14:27:53.999Z</time></trkpt><trkpt lat="45.759036739638454" lon="14.356379105537009"><ele>585.6</ele><time>2026-05-01T14:27:55.999Z</time></trkpt><trkpt lat="45.75909459717093" lon="14.356488222741007"><ele>585.2</ele><time>2026-05-01T14:27:57.999Z</time></trkpt><trkpt lat="45.759188977164634" lon="14.356583296116282"><ele>584.8</ele><time>2026-05-01T14:27:59.999Z</time></trkpt><trkpt lat="45.75926725846596" lon="14.356697936765109"><ele>584.4</ele><time>2026-05-01T14:28:01.999Z</time></trkpt><trkpt lat="45.75934343120457" lon="14.35675880262637"><ele>584.0</ele><time>2026-05-01T14:28:03.999Z</time></trkpt><trkpt lat="45.75942548675506" lon="14.356797371704413"><ele>581.2</ele><time>2026-05-01T14:28:05.999Z</time></trkpt><trkpt lat="45.759530230175855" lon="14.356841787516522"><ele>578.4</ele><time>2026-05-01T14:28:07.999Z</time></trkpt><trkpt lat="45.7596291562236" lon="14.356899508587947"><ele>575.6</ele><time>2026-05-01T14:28:09.999Z</time></trkpt><trkpt lat="45.75973150354899" lon="14.356919161005965"><ele>572.8</ele><time>2026-05-01T14:28:11.999Z</time></trkpt><trkpt lat="45.759820839858996" lon="14.356958557238782"><ele>570.0</ele><time>2026-05-01T14:28:13.999Z</time></trkpt><trkpt lat="45.759916474678505" lon="14.357031253071588"><ele>570.0</ele><time>2026-05-01T14:28:15.999Z</time></trkpt><trkpt lat="45.76000588219552" lon="14.357135728566867"><ele>570.0</ele><time>2026-05-01T14:28:17.999Z</time></trkpt><trkpt lat="45.76008340649731" lon="14.357214713801161"><ele>570.0</ele><time>2026-05-01T14:28:19.999Z</time></trkpt><trkpt lat="45.76012353519207" lon="14.357299978823495"><ele>570.0</ele><time>2026-05-01T14:28:57Z</time></trkpt><trkpt lat="45.76014888705645" lon="14.357383910868377"><ele>570.0</ele><time>2026-05-01T14:29:03Z</time></trkpt><trkpt lat="45.760156757671595" lon="14.357498587666944"><ele>570.0</ele><time>2026-05-01T14:29:05Z</time></trkpt><trkpt lat="45.760164671990424" lon="14.357629429459069"><ele>570.2</ele><time>2026-05-01T14:29:07Z</time></trkpt><trkpt lat="45.760163278961755" lon="14.357777529831049"><ele>570.4</ele><time>2026-05-01T14:29:09Z</time></trkpt><trkpt lat="45.76013190559997" lon="14.357914612037309"><ele>570.6</ele><time>2026-05-01T14:29:11Z</time></trkpt><trkpt lat="45.76009930605858" lon="14.358059629343444"><ele>570.8</ele><time>2026-05-01T14:29:13Z</time></trkpt><trkpt lat="45.76009745679111" lon="14.358229384895955"><ele>571.0</ele><time>2026-05-01T14:29:15Z</time></trkpt><trkpt lat="45.760098562945906" lon="14.358401397942561"><ele>571.0</ele><time>2026-05-01T14:29:17Z</time></trkpt><trkpt lat="45.76012354419207" lon="14.358488061006186"><ele>571.0</ele><time>2026-05-01T14:29:18Z</time></trkpt><trkpt lat="45.760154769125" lon="14.358567089687623"><ele>571.0</ele><time>2026-05-01T14:29:19Z</time></trkpt><trkpt lat="45.760188224985086" lon="14.358648182537978"><ele>571.0</ele><time>2026-05-01T14:29:20Z</time></trkpt><trkpt lat="45.760217586244735" lon="14.358731902715975"><ele>571.0</ele><time>2026-05-01T14:29:21Z</time></trkpt><trkpt lat="45.760272063534394" lon="14.358889089148485"><ele>571.0</ele><time>2026-05-01T14:29:23Z</time></trkpt><trkpt lat="45.76033311742478" lon="14.359048902803114"><ele>567.6666666666667</ele><time>2026-05-01T14:29:25Z</time></trkpt><trkpt lat="45.76037482166675" lon="14.359127175051718"><ele>564.3333333333334</ele><time>2026-05-01T14:29:26Z</time></trkpt><trkpt lat="45.76041408163611" lon="14.359211057105314"><ele>561.0</ele><time>2026-05-01T14:29:26.999Z</time></trkpt><trkpt lat="45.76045992956679" lon="14.359298713278754"><ele>557.6666666666666</ele><time>2026-05-01T14:29:27.999Z</time></trkpt><trkpt lat="45.76050641824814" lon="14.359380441205227"><ele>554.3333333333333</ele><time>2026-05-01T14:29:28.999Z</time></trkpt><trkpt lat="45.760542583714944" lon="14.359457228375257"><ele>551.0</ele><time>2026-05-01T14:29:29.999Z</time></trkpt><trkpt lat="45.76061614106963" lon="14.359606880963964"><ele>550.9999999999999</ele><time>2026-05-01T14:29:31.999Z</time></trkpt><trkpt lat="45.760667186430595" lon="14.359665020386464"><ele>551.0</ele><time>2026-05-01T14:29:32.999Z</time></trkpt><trkpt lat="45.76070852186275" lon="14.359739398791625"><ele>551.0</ele><time>2026-05-01T14:29:33.999Z</time></trkpt><trkpt lat="45.76074099686391" lon="14.359825946515217"><ele>551.0</ele><time>2026-05-01T14:29:34.999Z</time></trkpt><trkpt lat="45.760793932688124" lon="14.359881425813263"><ele>551.0</ele><time>2026-05-01T14:29:35.999Z</time></trkpt><trkpt lat="45.76083623282611" lon="14.359956416024305"><ele>550.9999999999999</ele><time>2026-05-01T14:29:36.999Z</time></trkpt><trkpt lat="45.76087795954548" lon="14.360034139056475"><ele>551.0</ele><time>2026-05-01T14:29:37.999Z</time></trkpt><trkpt lat="45.76092390519142" lon="14.360107608627358"><ele>550.8571428571428</ele><time>2026-05-01T14:29:38.999Z</time></trkpt><trkpt lat="45.760971754028695" lon="14.36017614101279"><ele>550.7142857142857</ele><time>2026-05-01T14:29:39.999Z</time></trkpt><trkpt lat="45.76102349236505" lon="14.360243729151264"><ele>550.5714285714286</ele><time>2026-05-01T14:29:40.999Z</time></trkpt><trkpt lat="45.76107898797232" lon="14.360303823735482"><ele>550.4285714285713</ele><time>2026-05-01T14:29:41.999Z</time></trkpt><trkpt lat="45.76113818995843" lon="14.36035902528215"><ele>550.2857142857142</ele><time>2026-05-01T14:29:42.999Z</time></trkpt><trkpt lat="45.76119982836245" lon="14.360398793988074"><ele>550.1428571428571</ele><time>2026-05-01T14:29:43.999Z</time></trkpt><trkpt lat="45.761270301279076" lon="14.360412920522766"><ele>550.0</ele><time>2026-05-01T14:29:44.999Z</time></trkpt><trkpt lat="45.761331385583595" lon="14.360460033015853"><ele>550.0</ele><time>2026-05-01T14:29:45.999Z</time></trkpt><trkpt lat="45.76139317367872" lon="14.360507307106246"><ele>550.0</ele><time>2026-05-01T14:29:46.999Z</time></trkpt><trkpt lat="45.761459101259" lon="14.360523821433542"><ele>550.0</ele><time>2026-05-01T14:29:47.999Z</time></trkpt><trkpt lat="45.761523269256244" lon="14.360544586788247"><ele>550.0</ele><time>2026-05-01T14:29:48.999Z</time></trkpt><trkpt lat="45.76160910831602" lon="14.360637985629353"><ele>550.0</ele><time>2026-05-01T14:29:50.999Z</time></trkpt><trkpt lat="45.76168065081819" lon="14.360712822352776"><ele>550.0</ele><time>2026-05-01T14:29:52.999Z</time></trkpt><trkpt lat="45.761721183077086" lon="14.360820854592511"><ele>550.3333333333334</ele><time>2026-05-01T14:29:54.999Z</time></trkpt><trkpt lat="45.76174261207161" lon="14.360922104404048"><ele>550.6666666666667</ele><time>2026-05-01T14:29:56.999Z</time></trkpt><trkpt lat="45.7617597161831" lon="14.361022371207943"><ele>551.0</ele><time>2026-05-01T14:29:58.999Z</time></trkpt><trkpt lat="45.761796107169836" lon="14.361129993338777"><ele>551.3333333333334</ele><time>2026-05-01T14:30:00.999Z</time></trkpt><trkpt lat="45.761804201943434" lon="14.36123395090429"><ele>551.6666666666666</ele><time>2026-05-01T14:30:02.999Z</time></trkpt><trkpt lat="45.76182689620972" lon="14.361340344200148"><ele>552.0</ele><time>2026-05-01T14:30:04.999Z</time></trkpt><trkpt lat="45.76190227388734" lon="14.361361285266272"><ele>551.8000000000001</ele><time>2026-05-01T14:30:05.999Z</time></trkpt><trkpt lat="45.76196789747193" lon="14.361444604710087"><ele>551.6</ele><time>2026-05-01T14:30:07.999Z</time></trkpt><trkpt lat="45.76203700810014" lon="14.36153615909537"><ele>551.4000000000001</ele><time>2026-05-01T14:30:09.999Z</time></trkpt><trkpt lat="45.762109986995746" lon="14.361619027194115"><ele>551.2</ele><time>2026-05-01T14:30:11.999Z</time></trkpt><trkpt lat="45.762181387342864" lon="14.361701991308776"><ele>551.0</ele><time>2026-05-01T14:30:13.999Z</time></trkpt><trkpt lat="45.762258978488276" lon="14.361776501235136"><ele>551.0</ele><time>2026-05-01T14:30:15.999Z</time></trkpt><trkpt lat="45.762335918108064" lon="14.361833918579887"><ele>551.0</ele><time>2026-05-01T14:30:17.999Z</time></trkpt><trkpt lat="45.76241106342521" lon="14.361875051495877"><ele>551.0</ele><time>2026-05-01T14:30:19.999Z</time></trkpt><trkpt lat="45.762479716031216" lon="14.361928405389657"><ele>551.0</ele><time>2026-05-01T14:30:23.999Z</time></trkpt><trkpt lat="45.76242146075541" lon="14.361859917071214"><ele>551.0</ele><time>2026-05-01T14:30:53Z</time></trkpt><trkpt lat="45.762359677144765" lon="14.36188451522455"><ele>551.0</ele><time>2026-05-01T14:30:55Z</time></trkpt><trkpt lat="45.76228102054776" lon="14.361840573110515"><ele>551.0</ele><time>2026-05-01T14:30:58Z</time></trkpt><trkpt lat="45.76217744485921" lon="14.362012068868632"><ele>551.0</ele><time>2026-05-01T14:31:00Z</time></trkpt><trkpt lat="45.762143623009585" lon="14.362107244148348"><ele>551.0</ele><time>2026-05-01T14:31:02Z</time></trkpt><trkpt lat="45.762123409097484" lon="14.36223350260859"><ele>551.0</ele><time>2026-05-01T14:31:05Z</time></trkpt><trkpt lat="45.762144760299954" lon="14.36214391294206"><ele>551.0</ele><time>2026-05-01T14:31:16Z</time></trkpt><trkpt lat="45.762085884465435" lon="14.36209324988192"><ele>551.0</ele><time>2026-05-01T14:31:19Z</time></trkpt><trkpt lat="45.76199389877481" lon="14.362086407281621"><ele>551.0</ele><time>2026-05-01T14:31:22Z</time></trkpt><trkpt lat="45.761913120621934" lon="14.362127700241219"><ele>551.0</ele><time>2026-05-01T14:31:24Z</time></trkpt><trkpt lat="45.76183966580278" lon="14.362181511390137"><ele>551.0</ele><time>2026-05-01T14:31:26Z</time></trkpt><trkpt lat="45.76176212732451" lon="14.362228666833103"><ele>551.0</ele><time>2026-05-01T14:31:28Z</time></trkpt><trkpt lat="45.76169180093833" lon="14.362249479716889"><ele>551.0</ele><time>2026-05-01T14:31:30Z</time></trkpt><trkpt lat="45.76166100205984" lon="14.362333712898026"><ele>551.0</ele><time>2026-05-01T14:31:36Z</time></trkpt><trkpt lat="45.761741070799665" lon="14.3622785950256"><ele>551.0</ele><time>2026-05-01T14:31:39.999Z</time></trkpt><trkpt lat="45.76179595594667" lon="14.362227985767154"><ele>551.0</ele><time>2026-05-01T14:31:41.999Z</time></trkpt><trkpt lat="45.76187268585376" lon="14.362162742380672"><ele>551.0</ele><time>2026-05-01T14:31:43.999Z</time></trkpt><trkpt lat="45.761941307444715" lon="14.362121020815172"><ele>551.0</ele><time>2026-05-01T14:31:45.999Z</time></trkpt><trkpt lat="45.76200408029008" lon="14.362084589781261"><ele>551.0</ele><time>2026-05-01T14:31:47.999Z</time></trkpt><trkpt lat="45.76208766681768" lon="14.362112952189994"><ele>552.5714285714286</ele><time>2026-05-01T14:31:50.999Z</time></trkpt><trkpt lat="45.762118792988346" lon="14.3622136991801"><ele>554.1428571428571</ele><time>2026-05-01T14:31:53.999Z</time></trkpt><trkpt lat="45.76210623044739" lon="14.362309198763805"><ele>555.7142857142858</ele><time>2026-05-01T14:31:55.999Z</time></trkpt><trkpt lat="45.762081141096424" lon="14.362406021555243"><ele>557.2857142857142</ele><time>2026-05-01T14:31:57.999Z</time></trkpt><trkpt lat="45.762062244809094" lon="14.362496872517506"><ele>558.8571428571429</ele><time>2026-05-01T14:31:59.999Z</time></trkpt><trkpt lat="45.76204950153837" lon="14.362602028719088"><ele>560.4285714285714</ele><time>2026-05-01T14:32:02.999Z</time></trkpt><trkpt lat="45.76208755369046" lon="14.362689936049374"><ele>562.0</ele><time>2026-05-01T14:32:06.999Z</time></trkpt><trkpt lat="45.76202709522321" lon="14.362740892716445"><ele>562.0000000000001</ele><time>2026-05-01T14:32:54Z</time></trkpt><trkpt lat="45.76205222510591" lon="14.362827931885406"><ele>562.0</ele><time>2026-05-01T14:32:59Z</time></trkpt><trkpt lat="45.76203785571232" lon="14.36292945412873"><ele>562.0</ele><time>2026-05-01T14:33:03Z</time></trkpt><trkpt lat="45.76205046706265" lon="14.363044860155465"><ele>562.0</ele><time>2026-05-01T14:33:09Z</time></trkpt><trkpt lat="45.76206188228069" lon="14.363134035720641"><ele>562.0</ele><time>2026-05-01T14:33:12Z</time></trkpt><trkpt lat="45.76208733965031" lon="14.363216974347043"><ele>562.0000000000001</ele><time>2026-05-01T14:33:15Z</time></trkpt><trkpt lat="45.76213029616502" lon="14.363285079600047"><ele>562.0</ele><time>2026-05-01T14:33:18Z</time></trkpt><trkpt lat="45.762187579654714" lon="14.363358388810491"><ele>563.3333333333334</ele><time>2026-05-01T14:33:22Z</time></trkpt><trkpt lat="45.76224275083009" lon="14.363445252100563"><ele>564.6666666666667</ele><time>2026-05-01T14:33:25Z</time></trkpt><trkpt lat="45.762309417816105" lon="14.363526769161432"><ele>566.0</ele><time>2026-05-01T14:33:28Z</time></trkpt><trkpt lat="45.76236350468785" lon="14.363604945284246"><ele>567.3333333333334</ele><time>2026-05-01T14:33:31Z</time></trkpt><trkpt lat="45.76238409463617" lon="14.363694793525182"><ele>568.6666666666666</ele><time>2026-05-01T14:33:34Z</time></trkpt><trkpt lat="45.76244713165741" lon="14.36379058651712"><ele>570.0</ele><time>2026-05-01T14:33:37Z</time></trkpt><trkpt lat="45.762509174697485" lon="14.363846800077273"><ele>569.6666666666666</ele><time>2026-05-01T14:35:58Z</time></trkpt><trkpt lat="45.76257147827852" lon="14.363953165618533"><ele>569.3333333333334</ele><time>2026-05-01T14:36:01Z</time></trkpt><trkpt lat="45.762648804128276" lon="14.36403527572681"><ele>569.0</ele><time>2026-05-01T14:36:04Z</time></trkpt><trkpt lat="45.762711513231686" lon="14.364102310415685"><ele>568.6666666666667</ele><time>2026-05-01T14:36:06Z</time></trkpt><trkpt lat="45.76277431717877" lon="14.36418912972642"><ele>568.3333333333334</ele><time>2026-05-01T14:36:08Z</time></trkpt><trkpt lat="45.76285942687739" lon="14.364192875461262"><ele>568.0</ele><time>2026-05-01T14:36:11Z</time></trkpt><trkpt lat="45.76294739532697" lon="14.364091912596635"><ele>568.0</ele><time>2026-05-01T14:36:14Z</time></trkpt><trkpt lat="45.76300158251032" lon="14.364040108504158"><ele>568.0</ele><time>2026-05-01T14:36:16Z</time></trkpt><trkpt lat="45.7630823084939" lon="14.363976376782118"><ele>568.0</ele><time>2026-05-01T14:36:19Z</time></trkpt><trkpt lat="45.7631427093382" lon="14.363911109610198"><ele>568.0</ele><time>2026-05-01T14:36:21Z</time></trkpt><trkpt lat="45.76320377809496" lon="14.363844864976851"><ele>568.0</ele><time>2026-05-01T14:36:35.999Z</time></trkpt><trkpt lat="45.76326894386874" lon="14.363788976114856"><ele>568.0</ele><time>2026-05-01T14:36:38.999Z</time></trkpt><trkpt lat="45.76333172614931" lon="14.363758965963711"><ele>566.6</ele><time>2026-05-01T14:36:40.999Z</time></trkpt><trkpt lat="45.76342416309546" lon="14.363714764714217"><ele>565.1999999999999</ele><time>2026-05-01T14:36:43.999Z</time></trkpt><trkpt lat="45.763508589609344" lon="14.363638309848199"><ele>563.8</ele><time>2026-05-01T14:36:46.999Z</time></trkpt><trkpt lat="45.763553190115964" lon="14.363530537602681"><ele>562.4</ele><time>2026-05-01T14:36:48.999Z</time></trkpt><trkpt lat="45.76365084434332" lon="14.363468517978983"><ele>561.0</ele><time>2026-05-01T14:36:50.999Z</time></trkpt><trkpt lat="45.76374395236998" lon="14.36336304117981"><ele>561.0</ele><time>2026-05-01T14:36:52.999Z</time></trkpt><trkpt lat="45.76379446964393" lon="14.363241017452658"><ele>561.0</ele><time>2026-05-01T14:36:54.999Z</time></trkpt><trkpt lat="45.76383749301224" lon="14.363114850586703"><ele>561.0</ele><time>2026-05-01T14:36:57Z</time></trkpt><trkpt lat="45.76389710923113" lon="14.36300392514385"><ele>561.0</ele><time>2026-05-01T14:36:59Z</time></trkpt><trkpt lat="45.763944384214625" lon="14.362915920304824"><ele>561.0</ele><time>2026-05-01T14:37:01Z</time></trkpt><trkpt lat="45.76398871247105" lon="14.362810157612303"><ele>561.8333333333334</ele><time>2026-05-01T14:37:03Z</time></trkpt><trkpt lat="45.76403651184738" lon="14.362705956595747"><ele>562.6666666666666</ele><time>2026-05-01T14:37:05Z</time></trkpt><trkpt lat="45.76411063441689" lon="14.362593275507578"><ele>563.5</ele><time>2026-05-01T14:37:07Z</time></trkpt><trkpt lat="45.76415510540412" lon="14.36247740703105"><ele>564.3333333333333</ele><time>2026-05-01T14:37:09Z</time></trkpt><trkpt lat="45.76417670876472" lon="14.36237729441626"><ele>565.1666666666666</ele><time>2026-05-01T14:37:11Z</time></trkpt><trkpt lat="45.76420046900291" lon="14.362273211077921"><ele>566.0</ele><time>2026-05-01T14:37:13Z</time></trkpt><trkpt lat="45.76423454081527" lon="14.362182645685454"><ele>563.6666666666666</ele><time>2026-05-01T14:37:16Z</time></trkpt><trkpt lat="45.76428097070064" lon="14.362107184998523"><ele>561.3333333333333</ele><time>2026-05-01T14:37:20Z</time></trkpt><trkpt lat="45.76435379543614" lon="14.362038323197215"><ele>559.0</ele><time>2026-05-01T14:37:25Z</time></trkpt><trkpt lat="45.76441128402959" lon="14.361939528080704"><ele>556.6666666666666</ele><time>2026-05-01T14:37:27Z</time></trkpt><trkpt lat="45.764479167329" lon="14.361892488211817"><ele>554.3333333333334</ele><time>2026-05-01T14:40:45Z</time></trkpt><trkpt lat="45.76455395405102" lon="14.361889202128737"><ele>552.0</ele><time>2026-05-01T14:40:49.999Z</time></trkpt><trkpt lat="45.76463231530344" lon="14.361852245813038"><ele>551.4285714285714</ele><time>2026-05-01T14:40:53.999Z</time></trkpt><trkpt lat="45.76470632449597" lon="14.361819184738932"><ele>550.8571428571429</ele><time>2026-05-01T14:40:56.999Z</time></trkpt><trkpt lat="45.76477962577301" lon="14.361809020242811"><ele>550.2857142857143</ele><time>2026-05-01T14:40:59.999Z</time></trkpt><trkpt lat="45.764844333890395" lon="14.36177946669001"><ele>549.7142857142858</ele><time>2026-05-01T14:41:02.999Z</time></trkpt><trkpt lat="45.76491866362887" lon="14.3617424156576"><ele>549.1428571428571</ele><time>2026-05-01T14:41:07Z</time></trkpt><trkpt lat="45.764981060363496" lon="14.361699681336797"><ele>548.5714285714287</ele><time>2026-05-01T14:41:10Z</time></trkpt><trkpt lat="45.765053494872454" lon="14.361668919318573"><ele>548.0</ele><time>2026-05-01T14:45:23Z</time></trkpt><trkpt lat="45.76511956824448" lon="14.36161958807291"><ele>548.0000000000001</ele><time>2026-05-01T14:45:26Z</time></trkpt><trkpt lat="45.76520495591308" lon="14.36157737030434"><ele>548.0</ele><time>2026-05-01T14:45:29Z</time></trkpt><trkpt lat="45.76526527169574" lon="14.361540439181079"><ele>548.0</ele><time>2026-05-01T14:45:31Z</time></trkpt><trkpt lat="45.76532902661577" lon="14.361500350593195"><ele>548.0</ele><time>2026-05-01T14:45:33Z</time></trkpt><trkpt lat="45.76538962072227" lon="14.361467778264908"><ele>548.0</ele><time>2026-05-01T14:45:35Z</time></trkpt><trkpt lat="45.765463498978036" lon="14.361428091903935"><ele>548.0000000000001</ele><time>2026-05-01T14:45:38Z</time></trkpt><trkpt lat="45.76552990082085" lon="14.361399792371653"><ele>548.0</ele><time>2026-05-01T14:45:42Z</time></trkpt><trkpt lat="45.765586635923455" lon="14.361351440853046"><ele>548.0</ele><time>2026-05-01T14:46:07Z</time></trkpt><trkpt lat="45.76566273801726" lon="14.361311524685275"><ele>548.0</ele><time>2026-05-01T14:46:20Z</time></trkpt><trkpt lat="45.76574397770834" lon="14.361287098462029"><ele>548.0</ele><time>2026-05-01T14:46:23Z</time></trkpt><trkpt lat="45.765808819169656" lon="14.36125289241742"><ele>548.0</ele><time>2026-05-01T14:46:25Z</time></trkpt><trkpt lat="45.76588248687576" lon="14.361212814095147"><ele>548.0</ele><time>2026-05-01T14:46:27Z</time></trkpt><trkpt lat="45.76596175784589" lon="14.361169639654092"><ele>548.0</ele><time>2026-05-01T14:46:29Z</time></trkpt><trkpt lat="45.76603996680465" lon="14.361127043669445"><ele>548.0</ele><time>2026-05-01T14:46:31Z</time></trkpt><trkpt lat="45.766113597527244" lon="14.36106540798923"><ele>548.0</ele><time>2026-05-01T14:46:33Z</time></trkpt><trkpt lat="45.76619406367938" lon="14.36101927014391"><ele>548.0</ele><time>2026-05-01T14:46:35Z</time></trkpt><trkpt lat="45.766277057803066" lon="14.360974182865348"><ele>548.0</ele><time>2026-05-01T14:46:37Z</time></trkpt><trkpt lat="45.76636101346" lon="14.360939810837248"><ele>548.0</ele><time>2026-05-01T14:46:39Z</time></trkpt><trkpt lat="45.76644414824514" lon="14.360889949165873"><ele>548.0</ele><time>2026-05-01T14:46:41Z</time></trkpt><trkpt lat="45.766534337016296" lon="14.360844504834198"><ele>548.0</ele><time>2026-05-01T14:46:43Z</time></trkpt><trkpt lat="45.766621620859965" lon="14.360793296568465"><ele>548.0</ele><time>2026-05-01T14:46:45Z</time></trkpt><trkpt lat="45.76670785339295" lon="14.360743050849512"><ele>548.0</ele><time>2026-05-01T14:46:47Z</time></trkpt><trkpt lat="45.76679498080229" lon="14.3607052519072"><ele>548.0</ele><time>2026-05-01T14:46:49Z</time></trkpt><trkpt lat="45.76687922463841" lon="14.360662605665983"><ele>548.0</ele><time>2026-05-01T14:46:51Z</time></trkpt><trkpt lat="45.76696193435455" lon="14.360618399775783"><ele>548.1666666666666</ele><time>2026-05-01T14:46:53Z</time></trkpt><trkpt lat="45.767044981927455" lon="14.360572608508154"><ele>548.3333333333333</ele><time>2026-05-01T14:46:55Z</time></trkpt><trkpt lat="45.76712932562604" lon="14.360529693538684"><ele>548.5</ele><time>2026-05-01T14:46:57Z</time></trkpt><trkpt lat="45.76721088493428" lon="14.360479908533605"><ele>548.6666666666666</ele><time>2026-05-01T14:46:59Z</time></trkpt><trkpt lat="45.7672931425396" lon="14.360435819890723"><ele>548.8333333333334</ele><time>2026-05-01T14:47:01Z</time></trkpt><trkpt lat="45.76736958518886" lon="14.360395111316743"><ele>549.0</ele><time>2026-05-01T14:47:03Z</time></trkpt><trkpt lat="45.76744379003472" lon="14.360356466716965"><ele>549.0</ele><time>2026-05-01T14:47:05Z</time></trkpt><trkpt lat="45.76751929060937" lon="14.36031896339899"><ele>549.0</ele><time>2026-05-01T14:47:07Z</time></trkpt><trkpt lat="45.76758734604046" lon="14.3602767149523"><ele>549.0</ele><time>2026-05-01T14:47:09Z</time></trkpt><trkpt lat="45.76765170797488" lon="14.360249547990929"><ele>549.0</ele><time>2026-05-01T14:47:11Z</time></trkpt><trkpt lat="45.767735956967" lon="14.360199953169213"><ele>549.0</ele><time>2026-05-01T14:47:14Z</time></trkpt><trkpt lat="45.7678085724543" lon="14.360154737160801"><ele>549.0</ele><time>2026-05-01T14:47:17Z</time></trkpt><trkpt lat="45.767876092232484" lon="14.360120714034919"><ele>549.1666666666666</ele><time>2026-05-01T14:47:20Z</time></trkpt><trkpt lat="45.767950979197465" lon="14.3600740821748"><ele>549.3333333333334</ele><time>2026-05-01T14:47:23Z</time></trkpt><trkpt lat="45.76801715733984" lon="14.360034999116838"><ele>549.5</ele><time>2026-05-01T14:47:25Z</time></trkpt><trkpt lat="45.76809124516182" lon="14.359994923684859"><ele>549.6666666666667</ele><time>2026-05-01T14:47:27Z</time></trkpt><trkpt lat="45.768168740228624" lon="14.359949238665699"><ele>549.8333333333334</ele><time>2026-05-01T14:47:29Z</time></trkpt><trkpt lat="45.76824815646065" lon="14.359907878409519"><ele>550.0</ele><time>2026-05-01T14:47:31Z</time></trkpt><trkpt lat="45.768331505973414" lon="14.359867336846566"><ele>550.0</ele><time>2026-05-01T14:47:33Z</time></trkpt><trkpt lat="45.76841931511236" lon="14.359813582558019"><ele>550.0</ele><time>2026-05-01T14:47:35Z</time></trkpt><trkpt lat="45.768507365832754" lon="14.359768763748303"><ele>550.0</ele><time>2026-05-01T14:47:37Z</time></trkpt><trkpt lat="45.76859078239491" lon="14.359723578837565"><ele>550.0</ele><time>2026-05-01T14:47:39Z</time></trkpt><trkpt lat="45.768674005064184" lon="14.35968527025601"><ele>550.0</ele><time>2026-05-01T14:47:41Z</time></trkpt><trkpt lat="45.768755305433224" lon="14.359635167122711"><ele>550.1666666666667</ele><time>2026-05-01T14:47:43Z</time></trkpt><trkpt lat="45.768836550784464" lon="14.359589654913448"><ele>550.3333333333334</ele><time>2026-05-01T14:47:45Z</time></trkpt><trkpt lat="45.76892106579232" lon="14.35954333011826"><ele>550.5</ele><time>2026-05-01T14:47:47Z</time></trkpt><trkpt lat="45.76900344630952" lon="14.359497815704747"><ele>550.6666666666666</ele><time>2026-05-01T14:47:49Z</time></trkpt><trkpt lat="45.76908857902322" lon="14.359453765858754"><ele>550.8333333333333</ele><time>2026-05-01T14:47:51Z</time></trkpt><trkpt lat="45.769169045303954" lon="14.359404957787277"><ele>551.0</ele><time>2026-05-01T14:47:53Z</time></trkpt><trkpt lat="45.76924775185593" lon="14.359359477991887"><ele>551.0</ele><time>2026-05-01T14:47:55Z</time></trkpt><trkpt lat="45.76933324634427" lon="14.35931704448454"><ele>551.0</ele><time>2026-05-01T14:47:57Z</time></trkpt><trkpt lat="45.769418115599485" lon="14.359276548899116"><ele>551.0</ele><time>2026-05-01T14:47:59Z</time></trkpt><trkpt lat="45.7695050092205" lon="14.359229128529579"><ele>551.0</ele><time>2026-05-01T14:48:01Z</time></trkpt><trkpt lat="45.769592844107734" lon="14.359181241322373"><ele>551.0</ele><time>2026-05-01T14:48:03Z</time></trkpt><trkpt lat="45.769682759772905" lon="14.359133030423491"><ele>550.8</ele><time>2026-05-01T14:48:05Z</time></trkpt><trkpt lat="45.769773737680445" lon="14.359087942962109"><ele>550.6</ele><time>2026-05-01T14:48:07Z</time></trkpt><trkpt lat="45.76986308554267" lon="14.359038556787004"><ele>550.4</ele><time>2026-05-01T14:48:09Z</time></trkpt><trkpt lat="45.76995531053261" lon="14.35899466615984"><ele>550.2</ele><time>2026-05-01T14:48:11Z</time></trkpt><trkpt lat="45.77004572337544" lon="14.358939761762178"><ele>550.0</ele><time>2026-05-01T14:48:13Z</time></trkpt><trkpt lat="45.770134002981116" lon="14.358883056101625"><ele>550.4</ele><time>2026-05-01T14:48:15Z</time></trkpt><trkpt lat="45.7702242418655" lon="14.358831657386633"><ele>550.8</ele><time>2026-05-01T14:48:17Z</time></trkpt><trkpt lat="45.770314867383604" lon="14.358784435255318"><ele>551.2</ele><time>2026-05-01T14:48:19Z</time></trkpt><trkpt lat="45.77040925481473" lon="14.358755803781877"><ele>551.6</ele><time>2026-05-01T14:48:21Z</time></trkpt><trkpt lat="45.77049879240455" lon="14.358711518674014"><ele>552.0</ele><time>2026-05-01T14:48:23Z</time></trkpt><trkpt lat="45.770588339176136" lon="14.358666742456519"><ele>552.0</ele><time>2026-05-01T14:48:25Z</time></trkpt><trkpt lat="45.77067521568473" lon="14.35861660235074"><ele>552.0</ele><time>2026-05-01T14:48:27Z</time></trkpt><trkpt lat="45.7707621612803" lon="14.358567485347221"><ele>552.0</ele><time>2026-05-01T14:48:29Z</time></trkpt><trkpt lat="45.77084943755161" lon="14.358521959900918"><ele>552.0</ele><time>2026-05-01T14:48:31Z</time></trkpt><trkpt lat="45.77093733819323" lon="14.358471898226377"><ele>552.0</ele><time>2026-05-01T14:48:33Z</time></trkpt><trkpt lat="45.77102805023579" lon="14.358421980302097"><ele>552.0</ele><time>2026-05-01T14:48:35Z</time></trkpt><trkpt lat="45.77111615602935" lon="14.358367321212665"><ele>552.0</ele><time>2026-05-01T14:48:37Z</time></trkpt><trkpt lat="45.77120393163895" lon="14.358317837003128"><ele>552.0</ele><time>2026-05-01T14:48:39Z</time></trkpt><trkpt lat="45.771294068527794" lon="14.358266034929482"><ele>552.0</ele><time>2026-05-01T14:48:41Z</time></trkpt><trkpt lat="45.77138523024566" lon="14.358209811214891"><ele>552.0</ele><time>2026-05-01T14:48:43Z</time></trkpt><trkpt lat="45.771479139409166" lon="14.358157209639245"><ele>552.0</ele><time>2026-05-01T14:48:45Z</time></trkpt><trkpt lat="45.771567867561146" lon="14.358108260086988"><ele>552.0</ele><time>2026-05-01T14:48:47Z</time></trkpt><trkpt lat="45.771650591819586" lon="14.358060572071814"><ele>552.0</ele><time>2026-05-01T14:48:49Z</time></trkpt><trkpt lat="45.77173049527321" lon="14.358013667562643"><ele>552.0</ele><time>2026-05-01T14:48:51Z</time></trkpt><trkpt lat="45.771806013016246" lon="14.357969670062987"><ele>552.0</ele><time>2026-05-01T14:48:53Z</time></trkpt><trkpt lat="45.77187564530278" lon="14.357930761340807"><ele>552.0</ele><time>2026-05-01T14:48:55Z</time></trkpt><trkpt lat="45.77194184404925" lon="14.357891643107196"><ele>551.5</ele><time>2026-05-01T14:48:57Z</time></trkpt><trkpt lat="45.7720045207016" lon="14.357850306726531"><ele>551.0</ele><time>2026-05-01T14:48:59Z</time></trkpt><trkpt lat="45.77208445394998" lon="14.357806758019544"><ele>550.5</ele><time>2026-05-01T14:49:02Z</time></trkpt><trkpt lat="45.77215017075888" lon="14.357779341481619"><ele>550.0</ele><time>2026-05-01T14:49:05Z</time></trkpt><trkpt lat="45.771958109114976" lon="14.357084534562746"><ele>549.8333333333334</ele><time>2026-05-01T14:49:59Z</time></trkpt><trkpt lat="45.771940715316894" lon="14.356974098088473"><ele>549.6666666666667</ele><time>2026-05-01T14:50:01Z</time></trkpt><trkpt lat="45.771923759834884" lon="14.356867558131258"><ele>549.5</ele><time>2026-05-01T14:50:03Z</time></trkpt><trkpt lat="45.771907508224054" lon="14.356735264390293"><ele>549.3333333333334</ele><time>2026-05-01T14:50:06Z</time></trkpt><trkpt lat="45.77191057707245" lon="14.356623336704578"><ele>549.1666666666666</ele><time>2026-05-01T14:50:08Z</time></trkpt><trkpt lat="45.77191130931047" lon="14.35652634099073"><ele>549.0</ele><time>2026-05-01T14:50:10Z</time></trkpt><trkpt lat="45.77191493330141" lon="14.356409933345176"><ele>549.0</ele><time>2026-05-01T14:50:13Z</time></trkpt><trkpt lat="45.77190120332962" lon="14.356318995612988"><ele>549.0</ele><time>2026-05-01T14:50:16Z</time></trkpt><trkpt lat="45.77190146022897" lon="14.35620807741549"><ele>549.0</ele><time>2026-05-01T14:50:19Z</time></trkpt><trkpt lat="45.77190174202753" lon="14.3561107918937"><ele>549.0</ele><time>2026-05-01T14:50:22Z</time></trkpt><trkpt lat="45.771909214883536" lon="14.356014821795156"><ele>549.0</ele><time>2026-05-01T14:50:24.999Z</time></trkpt><trkpt lat="45.77189028647982" lon="14.355921016560698"><ele>549.0</ele><time>2026-05-01T14:50:49.999Z</time></trkpt><trkpt lat="45.77184254776443" lon="14.355840491590651"><ele>549.0</ele><time>2026-05-01T14:51:10.999Z</time></trkpt><trkpt lat="45.771785648213545" lon="14.355765175751994"><ele>548.8571428571429</ele><time>2026-05-01T14:51:12.999Z</time></trkpt><trkpt lat="45.77172045694199" lon="14.355710601956238"><ele>548.7142857142858</ele><time>2026-05-01T14:51:14.999Z</time></trkpt><trkpt lat="45.771658270055916" lon="14.35564820975899"><ele>548.5714285714287</ele><time>2026-05-01T14:51:16.999Z</time></trkpt><trkpt lat="45.771608507057906" lon="14.355592056853288"><ele>548.4285714285714</ele><time>2026-05-01T14:51:18.999Z</time></trkpt><trkpt lat="45.77155301446907" lon="14.355512101174421"><ele>548.2857142857143</ele><time>2026-05-01T14:51:22.999Z</time></trkpt><trkpt lat="45.771509435905045" lon="14.355419918380973"><ele>548.1428571428572</ele><time>2026-05-01T14:51:26.999Z</time></trkpt><trkpt lat="45.77147173074793" lon="14.355341243297726"><ele>548.0</ele><time>2026-05-01T14:51:30.999Z</time></trkpt><trkpt lat="45.771422664895184" lon="14.355222121135357"><ele>548.3333333333333</ele><time>2026-05-01T14:51:34.999Z</time></trkpt><trkpt lat="45.77136223633632" lon="14.355169008095242"><ele>548.6666666666666</ele><time>2026-05-01T14:51:37Z</time></trkpt><trkpt lat="45.77130364011917" lon="14.35505904820687"><ele>549.0</ele><time>2026-05-01T14:51:40Z</time></trkpt><trkpt lat="45.771280902230195" lon="14.354969974323543"><ele>549.3333333333334</ele><time>2026-05-01T14:51:42Z</time></trkpt><trkpt lat="45.77124150729048" lon="14.354892013707842"><ele>549.6666666666667</ele><time>2026-05-01T14:51:44Z</time></trkpt><trkpt lat="45.771194173393475" lon="14.354811239095582"><ele>550.0</ele><time>2026-05-01T14:51:46Z</time></trkpt><trkpt lat="45.771135691482066" lon="14.354712152762787"><ele>550.0</ele><time>2026-05-01T14:51:49Z</time></trkpt><trkpt lat="45.77107161313384" lon="14.35466084844372"><ele>550.0</ele><time>2026-05-01T14:51:55.999Z</time></trkpt><trkpt lat="45.771014352252834" lon="14.354601420452333"><ele>550.0</ele><time>2026-05-01T14:51:58.999Z</time></trkpt><trkpt lat="45.770969541308666" lon="14.354523670635807"><ele>550.0</ele><time>2026-05-01T14:52:00.999Z</time></trkpt><trkpt lat="45.770933123072" lon="14.354428813822722"><ele>550.0</ele><time>2026-05-01T14:52:02.999Z</time></trkpt><trkpt lat="45.77089900284679" lon="14.354322132023471"><ele>550.0</ele><time>2026-05-01T14:52:04.999Z</time></trkpt><trkpt lat="45.77085112847129" lon="14.354216399121995"><ele>550.0</ele><time>2026-05-01T14:52:06.999Z</time></trkpt><trkpt lat="45.77079341697936" lon="14.35411973101944"><ele>550.0</ele><time>2026-05-01T14:52:08.999Z</time></trkpt><trkpt lat="45.770727259475514" lon="14.354036428895323"><ele>550.0</ele><time>2026-05-01T14:52:10.999Z</time></trkpt><trkpt lat="45.77065094643879" lon="14.353969181846724"><ele>550.0</ele><time>2026-05-01T14:52:12.999Z</time></trkpt><trkpt lat="45.77058960593991" lon="14.353902990957698"><ele>550.0</ele><time>2026-05-01T14:52:14.999Z</time></trkpt><trkpt lat="45.770542721281586" lon="14.353833276973578"><ele>550.0</ele><time>2026-05-01T14:52:17.999Z</time></trkpt><trkpt lat="45.770492942670856" lon="14.35375442355434"><ele>549.8333333333334</ele><time>2026-05-01T14:52:21.999Z</time></trkpt><trkpt lat="45.77044287089044" lon="14.353649491780153"><ele>549.6666666666667</ele><time>2026-05-01T14:52:24.999Z</time></trkpt><trkpt lat="45.770404129435526" lon="14.353562071965259"><ele>549.5</ele><time>2026-05-01T14:52:26.999Z</time></trkpt><trkpt lat="45.77036962711263" lon="14.353479282762377"><ele>549.3333333333334</ele><time>2026-05-01T14:52:28.999Z</time></trkpt><trkpt lat="45.77034364444142" lon="14.353376548264736"><ele>549.1666666666666</ele><time>2026-05-01T14:52:30.999Z</time></trkpt><trkpt lat="45.77028702652561" lon="14.353296239008168"><ele>549.0</ele><time>2026-05-01T14:52:32.999Z</time></trkpt><trkpt lat="45.77022291653616" lon="14.353216716696906"><ele>548.8</ele><time>2026-05-01T14:52:34.999Z</time></trkpt><trkpt lat="45.77016070906092" lon="14.353124157984535"><ele>548.5999999999999</ele><time>2026-05-01T14:52:36.999Z</time></trkpt><trkpt lat="45.770103456111165" lon="14.353021347263013"><ele>548.4</ele><time>2026-05-01T14:52:38.999Z</time></trkpt><trkpt lat="45.77005108278469" lon="14.352915121922726"><ele>548.1999999999999</ele><time>2026-05-01T14:52:40.999Z</time></trkpt><trkpt lat="45.7699937112462" lon="14.352808659675377"><ele>548.0</ele><time>2026-05-01T14:52:42.999Z</time></trkpt><trkpt lat="45.769931813919214" lon="14.35270472481882"><ele>548.0</ele><time>2026-05-01T14:52:44.999Z</time></trkpt><trkpt lat="45.76986524583311" lon="14.352609949045705"><ele>548.0</ele><time>2026-05-01T14:52:46.999Z</time></trkpt><trkpt lat="45.769799080138185" lon="14.352511592089689"><ele>548.0</ele><time>2026-05-01T14:52:48.999Z</time></trkpt><trkpt lat="45.76973256586088" lon="14.3524078893149"><ele>548.0</ele><time>2026-05-01T14:52:50.999Z</time></trkpt><trkpt lat="45.76967544616834" lon="14.35229652841283"><ele>548.0</ele><time>2026-05-01T14:52:52.999Z</time></trkpt><trkpt lat="45.769625031769614" lon="14.352183140343188"><ele>548.0</ele><time>2026-05-01T14:52:54.999Z</time></trkpt><trkpt lat="45.76957290249695" lon="14.35206686797441"><ele>548.0</ele><time>2026-05-01T14:52:56.999Z</time></trkpt><trkpt lat="45.76950941491703" lon="14.35195720096622"><ele>548.0</ele><time>2026-05-01T14:52:58.999Z</time></trkpt><trkpt lat="45.76944468658833" lon="14.351852000276587"><ele>548.0</ele><time>2026-05-01T14:53:00.999Z</time></trkpt><trkpt lat="45.769378166067035" lon="14.351740800684242"><ele>548.0</ele><time>2026-05-01T14:53:02.999Z</time></trkpt><trkpt lat="45.76931768390642" lon="14.351624861129771"><ele>548.0</ele><time>2026-05-01T14:53:04.999Z</time></trkpt><trkpt lat="45.76926125162269" lon="14.351513577352435"><ele>548.0</ele><time>2026-05-01T14:53:06.999Z</time></trkpt><trkpt lat="45.76920760561854" lon="14.351387013439735"><ele>548.0</ele><time>2026-05-01T14:53:08.999Z</time></trkpt><trkpt lat="45.769152819602205" lon="14.351265550469279"><ele>548.0</ele><time>2026-05-01T14:53:10.999Z</time></trkpt><trkpt lat="45.76909779934262" lon="14.351139054486904"><ele>548.0</ele><time>2026-05-01T14:53:12.999Z</time></trkpt><trkpt lat="45.76906517928211" lon="14.35100990169642"><ele>548.0</ele><time>2026-05-01T14:53:14.999Z</time></trkpt><trkpt lat="45.76903299826319" lon="14.350887112386054"><ele>548.0</ele><time>2026-05-01T14:53:16.999Z</time></trkpt><trkpt lat="45.76898364724501" lon="14.350769490944232"><ele>548.0</ele><time>2026-05-01T14:53:18.999Z</time></trkpt><trkpt lat="45.76892785913546" lon="14.350648805611744"><ele>548.0</ele><time>2026-05-01T14:53:20.999Z</time></trkpt><trkpt lat="45.76887948770533" lon="14.350521503836916"><ele>548.0</ele><time>2026-05-01T14:53:22.999Z</time></trkpt><trkpt lat="45.76883031993363" lon="14.350386700040795"><ele>548.0</ele><time>2026-05-01T14:53:24.999Z</time></trkpt><trkpt lat="45.76877356964559" lon="14.350260653318578"><ele>548.0</ele><time>2026-05-01T14:53:26.999Z</time></trkpt><trkpt lat="45.768718754577684" lon="14.350135798266237"><ele>548.0</ele><time>2026-05-01T14:53:28.999Z</time></trkpt><trkpt lat="45.768667294956806" lon="14.350012360691068"><ele>548.0</ele><time>2026-05-01T14:53:30.999Z</time></trkpt><trkpt lat="45.76861918888129" lon="14.349882493713888"><ele>548.0</ele><time>2026-05-01T14:53:32.999Z</time></trkpt><trkpt lat="45.76857844585055" lon="14.34974271125596"><ele>547.8</ele><time>2026-05-01T14:53:34.999Z</time></trkpt><trkpt lat="45.76853087433279" lon="14.34961029343924"><ele>547.5999999999999</ele><time>2026-05-01T14:53:36.999Z</time></trkpt><trkpt lat="45.76848786712759" lon="14.34947227654479"><ele>547.4000000000001</ele><time>2026-05-01T14:53:38.999Z</time></trkpt><trkpt lat="45.76845072228974" lon="14.349331556226925"><ele>547.2</ele><time>2026-05-01T14:53:40.999Z</time></trkpt><trkpt lat="45.76842589146422" lon="14.349192511565894"><ele>547.0</ele><time>2026-05-01T14:53:43Z</time></trkpt><trkpt lat="45.76838581861697" lon="14.349054897134108"><ele>547.0</ele><time>2026-05-01T14:53:45Z</time></trkpt><trkpt lat="45.76834263309723" lon="14.348930666816909"><ele>547.0</ele><time>2026-05-01T14:53:47Z</time></trkpt><trkpt lat="45.7683112802975" lon="14.348799800939545"><ele>547.0</ele><time>2026-05-01T14:53:49Z</time></trkpt><trkpt lat="45.76828158278805" lon="14.34866246629741"><ele>547.0</ele><time>2026-05-01T14:53:51Z</time></trkpt><trkpt lat="45.76824587488948" lon="14.348536877762971"><ele>547.0</ele><time>2026-05-01T14:53:53Z</time></trkpt><trkpt lat="45.76819214283148" lon="14.348437745043691"><ele>547.0</ele><time>2026-05-01T14:53:55Z</time></trkpt><trkpt lat="45.76814204644714" lon="14.348338868521358"><ele>547.0</ele><time>2026-05-01T14:53:57Z</time></trkpt><trkpt lat="45.76811095146108" lon="14.348226098061351"><ele>547.0</ele><time>2026-05-01T14:53:59Z</time></trkpt><trkpt lat="45.76807161869755" lon="14.348121107955647"><ele>547.0</ele><time>2026-05-01T14:54:01Z</time></trkpt><trkpt lat="45.76803906540279" lon="14.348033696973477"><ele>547.0</ele><time>2026-05-01T14:54:03Z</time></trkpt><trkpt lat="45.76799678632443" lon="14.347919647865067"><ele>547.0</ele><time>2026-05-01T14:54:06Z</time></trkpt><trkpt lat="45.7679650526202" lon="14.347825383894673"><ele>547.0</ele><time>2026-05-01T14:54:09Z</time></trkpt><trkpt lat="45.76793043964118" lon="14.347748812647993"><ele>547.0</ele><time>2026-05-01T14:54:30.999Z</time></trkpt><trkpt lat="45.76799225721059" lon="14.347779261623733"><ele>547.0</ele><time>2026-05-01T15:00:37Z</time></trkpt><trkpt lat="45.768050227215795" lon="14.347727897067992"><ele>547.0</ele><time>2026-05-01T15:00:40Z</time></trkpt><trkpt lat="45.768102305984904" lon="14.347653918292497"><ele>547.0</ele><time>2026-05-01T15:00:42Z</time></trkpt><trkpt lat="45.76815291157854" lon="14.347549513474506"><ele>547.0</ele><time>2026-05-01T15:00:45Z</time></trkpt><trkpt lat="45.76818483954079" lon="14.347435712264241"><ele>547.0</ele><time>2026-05-01T15:00:47Z</time></trkpt><trkpt lat="45.76822205392978" lon="14.347338339596932"><ele>547.0</ele><time>2026-05-01T15:00:49Z</time></trkpt><trkpt lat="45.7682615899243" lon="14.347240192873375"><ele>547.0</ele><time>2026-05-01T15:00:51Z</time></trkpt><trkpt lat="45.76830629785016" lon="14.347156585017691"><ele>547.0</ele><time>2026-05-01T15:00:52.999Z</time></trkpt><trkpt lat="45.76834710064691" lon="14.347075624315401"><ele>547.0</ele><time>2026-05-01T15:00:54.999Z</time></trkpt><trkpt lat="45.76838833562073" lon="14.346996571329951"><ele>547.0</ele><time>2026-05-01T15:00:56.999Z</time></trkpt><trkpt lat="45.768437040202016" lon="14.346924459023482"><ele>547.0</ele><time>2026-05-01T15:00:58.999Z</time></trkpt><trkpt lat="45.7684820487019" lon="14.346850666980902"><ele>547.0</ele><time>2026-05-01T15:01:00.999Z</time></trkpt><trkpt lat="45.76853432493579" lon="14.346780350334337"><ele>546.8571428571429</ele><time>2026-05-01T15:01:02.999Z</time></trkpt><trkpt lat="45.76858569779659" lon="14.346709440390402"><ele>546.7142857142857</ele><time>2026-05-01T15:01:04.999Z</time></trkpt><trkpt lat="45.768644328327504" lon="14.346653484145737"><ele>546.5714285714286</ele><time>2026-05-01T15:01:06.999Z</time></trkpt><trkpt lat="45.76870357826218" lon="14.346593250819232"><ele>546.4285714285714</ele><time>2026-05-01T15:01:08.999Z</time></trkpt><trkpt lat="45.76875180873317" lon="14.346524865632345"><ele>546.2857142857142</ele><time>2026-05-01T15:01:10.999Z</time></trkpt><trkpt lat="45.76880123438434" lon="14.346461067226334"><ele>546.1428571428571</ele><time>2026-05-01T15:01:12.999Z</time></trkpt><trkpt lat="45.76886838430429" lon="14.346372167652117"><ele>546.0</ele><time>2026-05-01T15:01:15.999Z</time></trkpt><trkpt lat="45.768933384134996" lon="14.34628911199318"><ele>546.0</ele><time>2026-05-01T15:01:18.999Z</time></trkpt><trkpt lat="45.76897346087872" lon="14.346218195833414"><ele>546.0</ele><time>2026-05-01T15:01:20.999Z</time></trkpt><trkpt lat="45.769039241211004" lon="14.34613285055639"><ele>546.0</ele><time>2026-05-01T15:01:23.999Z</time></trkpt><trkpt lat="45.7691006794083" lon="14.346030953136372"><ele>546.0</ele><time>2026-05-01T15:01:26.999Z</time></trkpt><trkpt lat="45.769154792893296" lon="14.345927651445134"><ele>546.0</ele><time>2026-05-01T15:01:29.999Z</time></trkpt><trkpt lat="45.769187471002056" lon="14.345802800495893"><ele>546.0</ele><time>2026-05-01T15:01:32.999Z</time></trkpt><trkpt lat="45.76921897183242" lon="14.345683340860244"><ele>546.0</ele><time>2026-05-01T15:01:35.999Z</time></trkpt><trkpt lat="45.76924313639855" lon="14.345557291152552"><ele>546.0</ele><time>2026-05-01T15:01:38.999Z</time></trkpt><trkpt lat="45.76925393472031" lon="14.34543218059739"><ele>546.0</ele><time>2026-05-01T15:01:41.999Z</time></trkpt><trkpt lat="45.76924561929307" lon="14.345312695954552"><ele>546.0</ele><time>2026-05-01T15:01:44.999Z</time></trkpt><trkpt lat="45.76922303024486" lon="14.345197712735942"><ele>546.0</ele><time>2026-05-01T15:01:47.999Z</time></trkpt><trkpt lat="45.76919372595887" lon="14.345093199203875"><ele>546.0</ele><time>2026-05-01T15:01:50.999Z</time></trkpt><trkpt lat="45.76915659993181" lon="14.344984321105072"><ele>546.1666666666666</ele><time>2026-05-01T15:01:53.999Z</time></trkpt><trkpt lat="45.76911785611704" lon="14.344878800578977"><ele>546.3333333333334</ele><time>2026-05-01T15:01:56.999Z</time></trkpt><trkpt lat="45.7690799782334" lon="14.344769658867481"><ele>546.5</ele><time>2026-05-01T15:01:59.999Z</time></trkpt><trkpt lat="45.76905779365915" lon="14.34466616726667"><ele>546.6666666666667</ele><time>2026-05-01T15:02:02.999Z</time></trkpt><trkpt lat="45.76905894458788" lon="14.344548780051257"><ele>546.8333333333334</ele><time>2026-05-01T15:02:06Z</time></trkpt><trkpt lat="45.76907560602877" lon="14.344425980148552"><ele>547.0</ele><time>2026-05-01T15:02:09Z</time></trkpt><trkpt lat="45.769084716558744" lon="14.344324199371712"><ele>547.0</ele><time>2026-05-01T15:02:12Z</time></trkpt><trkpt lat="45.769101102801386" lon="14.344228243145686"><ele>547.0</ele><time>2026-05-01T15:02:15Z</time></trkpt><trkpt lat="45.769120993248386" lon="14.344128287282684"><ele>547.0</ele><time>2026-05-01T15:04:35Z</time></trkpt><trkpt lat="45.76912492921768" lon="14.344033571176183"><ele>547.0</ele><time>2026-05-01T15:04:38Z</time></trkpt><trkpt lat="45.769155855996125" lon="14.343920827010171"><ele>547.0</ele><time>2026-05-01T15:04:41Z</time></trkpt><trkpt lat="45.76917239504869" lon="14.343806077540496"><ele>547.0</ele><time>2026-05-01T15:04:44Z</time></trkpt><trkpt lat="45.769197492739806" lon="14.343711042568998"><ele>547.0</ele><time>2026-05-01T15:04:49Z</time></trkpt><trkpt lat="45.769212036033" lon="14.343599529550863"><ele>547.0</ele><time>2026-05-01T15:04:53Z</time></trkpt><trkpt lat="45.769237667771954" lon="14.343503300629388"><ele>547.0</ele><time>2026-05-01T15:04:56Z</time></trkpt><trkpt lat="45.76925233146264" lon="14.343414592672099"><ele>547.0</ele><time>2026-05-01T15:04:59Z</time></trkpt><trkpt lat="45.76928646450256" lon="14.343324643276258"><ele>547.0</ele><time>2026-05-01T15:05:02Z</time></trkpt><trkpt lat="45.76931553488935" lon="14.34322572487701"><ele>547.0</ele><time>2026-05-01T15:05:05Z</time></trkpt><trkpt lat="45.76934013477692" lon="14.343126518677211"><ele>547.0</ele><time>2026-05-01T15:05:08Z</time></trkpt><trkpt lat="45.769374566380414" lon="14.343019794744539"><ele>547.0</ele><time>2026-05-01T15:05:12Z</time></trkpt><trkpt lat="45.76939430171088" lon="14.342913109025556"><ele>546.8571428571429</ele><time>2026-05-01T15:05:15Z</time></trkpt><trkpt lat="45.769420992347115" lon="14.342821278698787"><ele>546.7142857142857</ele><time>2026-05-01T15:05:18.999Z</time></trkpt><trkpt lat="45.76945473828451" lon="14.34273018059979"><ele>546.5714285714286</ele><time>2026-05-01T15:05:21.999Z</time></trkpt><trkpt lat="45.769495553559885" lon="14.34261714970229"><ele>546.4285714285714</ele><time>2026-05-01T15:05:25.999Z</time></trkpt><trkpt lat="45.769525799034994" lon="14.342531103925586"><ele>546.2857142857142</ele><time>2026-05-01T15:05:28.999Z</time></trkpt><trkpt lat="45.76955211692484" lon="14.34244430436222"><ele>546.1428571428571</ele><time>2026-05-01T15:05:30.999Z</time></trkpt><trkpt lat="45.76957836939999" lon="14.342359774743167"><ele>546.0</ele><time>2026-05-01T15:05:32.999Z</time></trkpt><trkpt lat="45.76959719987888" lon="14.3422558385793"><ele>546.1666666666666</ele><time>2026-05-01T15:05:34.999Z</time></trkpt><trkpt lat="45.769620860530665" lon="14.342147165810536"><ele>546.3333333333334</ele><time>2026-05-01T15:05:36.999Z</time></trkpt><trkpt lat="45.76963709346453" lon="14.342028589605034"><ele>546.5</ele><time>2026-05-01T15:05:38.999Z</time></trkpt><trkpt lat="45.7696458301548" lon="14.341911127268096"><ele>546.6666666666667</ele><time>2026-05-01T15:05:40.999Z</time></trkpt><trkpt lat="45.76966134911372" lon="14.341812677175012"><ele>546.8333333333334</ele><time>2026-05-01T15:05:42.999Z</time></trkpt><trkpt lat="45.76968298790238" lon="14.341674044051613"><ele>547.0</ele><time>2026-05-01T15:05:45.999Z</time></trkpt><trkpt lat="45.7697416354664" lon="14.341609612010721"><ele>547.0</ele><time>2026-05-01T15:05:47.999Z</time></trkpt><trkpt lat="45.76980575839225" lon="14.341556640756826"><ele>547.0</ele><time>2026-05-01T15:05:49.999Z</time></trkpt><trkpt lat="45.76987352423153" lon="14.3414625139459"><ele>547.0</ele><time>2026-05-01T15:05:52.999Z</time></trkpt><trkpt lat="45.76988423945895" lon="14.341363371835051"><ele>547.0</ele><time>2026-05-01T15:05:54.999Z</time></trkpt><trkpt lat="45.76987787940129" lon="14.34124922359818"><ele>547.0</ele><time>2026-05-01T15:05:58.999Z</time></trkpt><trkpt lat="45.769884618563836" lon="14.341145279672492"><ele>547.0</ele><time>2026-05-01T15:06:01.999Z</time></trkpt><trkpt lat="45.769904369924774" lon="14.34103790492602"><ele>547.1666666666667</ele><time>2026-05-01T15:06:04.999Z</time></trkpt><trkpt lat="45.769930067385474" lon="14.340921935207065"><ele>547.3333333333334</ele><time>2026-05-01T15:06:07.999Z</time></trkpt><trkpt lat="45.76995920859181" lon="14.340805601887844"><ele>547.5</ele><time>2026-05-01T15:06:10.999Z</time></trkpt><trkpt lat="45.769992463800975" lon="14.340694115100522"><ele>547.6666666666666</ele><time>2026-05-01T15:06:13.999Z</time></trkpt><trkpt lat="45.77003579725349" lon="14.340596621958573"><ele>547.8333333333333</ele><time>2026-05-01T15:06:17Z</time></trkpt><trkpt lat="45.77009748974258" lon="14.340535419984725"><ele>548.0</ele><time>2026-05-01T15:06:21Z</time></trkpt><trkpt lat="45.770171740895265" lon="14.340565080763694"><ele>547.8</ele><time>2026-05-01T15:06:25Z</time></trkpt><trkpt lat="45.77025418272104" lon="14.340605049881837"><ele>547.5999999999999</ele><time>2026-05-01T15:06:28Z</time></trkpt><trkpt lat="45.77034601814207" lon="14.340657395637445"><ele>547.4000000000001</ele><time>2026-05-01T15:06:30Z</time></trkpt><trkpt lat="45.770436789056" lon="14.340716912768078"><ele>547.2</ele><time>2026-05-01T15:06:32Z</time></trkpt><trkpt lat="45.77053484306362" lon="14.340757035436207"><ele>547.0</ele><time>2026-05-01T15:06:34Z</time></trkpt><trkpt lat="45.77063258467551" lon="14.340760849681981"><ele>547.0</ele><time>2026-05-01T15:06:36Z</time></trkpt><trkpt lat="45.77072106046105" lon="14.340755416833128"><ele>547.0</ele><time>2026-05-01T15:06:38Z</time></trkpt><trkpt lat="45.770805224856325" lon="14.340717396213945"><ele>547.0</ele><time>2026-05-01T15:06:40Z</time></trkpt><trkpt lat="45.77087923609422" lon="14.340700068047633"><ele>547.0</ele><time>2026-05-01T15:06:42Z</time></trkpt><trkpt lat="45.770939902721366" lon="14.340739927900666"><ele>547.0</ele><time>2026-05-01T15:07:33.999Z</time></trkpt><trkpt lat="45.77102266078352" lon="14.34071016394722"><ele>547.0</ele><time>2026-05-01T15:08:46.998Z</time></trkpt><trkpt lat="45.771109255074805" lon="14.340729359674762"><ele>547.0</ele><time>2026-05-01T15:08:49.998Z</time></trkpt><trkpt lat="45.77116918993943" lon="14.34069731762184"><ele>547.0</ele><time>2026-05-01T15:08:51.998Z</time></trkpt><trkpt lat="45.77123439031627" lon="14.340640695722486"><ele>547.0</ele><time>2026-05-01T15:08:54.997Z</time></trkpt><trkpt lat="45.771289247008184" lon="14.340595274025496"><ele>547.0</ele><time>2026-05-01T15:08:57.997Z</time></trkpt><trkpt lat="45.771356670798276" lon="14.340523705768849"><ele>547.0</ele><time>2026-05-01T15:09:00.997Z</time></trkpt><trkpt lat="45.77143902632166" lon="14.340459646230373"><ele>547.0</ele><time>2026-05-01T15:09:03.997Z</time></trkpt><trkpt lat="45.77151542779327" lon="14.340387373177482"><ele>547.0</ele><time>2026-05-01T15:09:06.997Z</time></trkpt><trkpt lat="45.771595352364066" lon="14.34031432120323"><ele>547.0</ele><time>2026-05-01T15:09:09.997Z</time></trkpt><trkpt lat="45.77166620989878" lon="14.340241598187367"><ele>547.0</ele><time>2026-05-01T15:09:12.996Z</time></trkpt><trkpt lat="45.77173793054716" lon="14.340187028540644"><ele>547.0</ele><time>2026-05-01T15:09:15.996Z</time></trkpt><trkpt lat="45.771802967516734" lon="14.340096034730525"><ele>547.0</ele><time>2026-05-01T15:09:18.996Z</time></trkpt><trkpt lat="45.771864233083015" lon="14.340056151132586"><ele>547.0</ele><time>2026-05-01T15:09:20.996Z</time></trkpt><trkpt lat="45.77194912099151" lon="14.34000148391814"><ele>547.0</ele><time>2026-05-01T15:09:23.996Z</time></trkpt><trkpt lat="45.77201531329026" lon="14.339920012724276"><ele>547.0</ele><time>2026-05-01T15:09:26.996Z</time></trkpt><trkpt lat="45.7720686905615" lon="14.339827866490053"><ele>547.0</ele><time>2026-05-01T15:09:29.996Z</time></trkpt><trkpt lat="45.772108777032315" lon="14.339744038285142"><ele>547.0</ele><time>2026-05-01T15:09:32.996Z</time></trkpt><trkpt lat="45.77216531855031" lon="14.33966592702219"><ele>547.0</ele><time>2026-05-01T15:09:35.996Z</time></trkpt><trkpt lat="45.7722190776333" lon="14.339573953343839"><ele>547.0</ele><time>2026-05-01T15:09:38.996Z</time></trkpt><trkpt lat="45.772263524190706" lon="14.339475941748326"><ele>547.0</ele><time>2026-05-01T15:09:41.996Z</time></trkpt><trkpt lat="45.77232469826112" lon="14.339406117431206"><ele>547.0</ele><time>2026-05-01T15:10:12.996Z</time></trkpt><trkpt lat="45.77239554671606" lon="14.339318544665462"><ele>547.0</ele><time>2026-05-01T15:10:15.996Z</time></trkpt><trkpt lat="45.77244814126019" lon="14.339237577095478"><ele>547.0</ele><time>2026-05-01T15:10:18.996Z</time></trkpt><trkpt lat="45.772498934242485" lon="14.339166980247223"><ele>547.0</ele><time>2026-05-01T15:10:21.996Z</time></trkpt><trkpt lat="45.77255263828008" lon="14.33908762314265"><ele>547.0</ele><time>2026-05-01T15:10:24.996Z</time></trkpt><trkpt lat="45.77261054960804" lon="14.338998295527514"><ele>547.0</ele><time>2026-05-01T15:10:27.996Z</time></trkpt><trkpt lat="45.77267568259864" lon="14.338899687749105"><ele>547.0</ele><time>2026-05-01T15:10:30.996Z</time></trkpt><trkpt lat="45.772745319380235" lon="14.3388114511983"><ele>547.0</ele><time>2026-05-01T15:10:33.997Z</time></trkpt><trkpt lat="45.772801822037486" lon="14.338753871103064"><ele>547.0</ele><time>2026-05-01T15:10:35.998Z</time></trkpt><trkpt lat="45.772843813646524" lon="14.338675238110055"><ele>547.0</ele><time>2026-05-01T15:10:37.998Z</time></trkpt><trkpt lat="45.77289275192269" lon="14.338606607455445"><ele>547.0</ele><time>2026-05-01T15:10:39.998Z</time></trkpt><trkpt lat="45.772940191623974" lon="14.338539038262185"><ele>547.2857142857142</ele><time>2026-05-01T15:10:41.998Z</time></trkpt><trkpt lat="45.772988746561126" lon="14.338472790232782"><ele>547.5714285714286</ele><time>2026-05-01T15:10:43.999Z</time></trkpt><trkpt lat="45.77303566458857" lon="14.338402624779771"><ele>547.8571428571429</ele><time>2026-05-01T15:10:45.999Z</time></trkpt><trkpt lat="45.773080000632774" lon="14.338329387352163"><ele>548.1428571428571</ele><time>2026-05-01T15:10:47.999Z</time></trkpt><trkpt lat="45.77311934046804" lon="14.338252099834095"><ele>548.4285714285714</ele><time>2026-05-01T15:10:49.999Z</time></trkpt><trkpt lat="45.7731567371284" lon="14.338172976472585"><ele>548.7142857142857</ele><time>2026-05-01T15:10:51.999Z</time></trkpt><trkpt lat="45.77319712688657" lon="14.338087722807805"><ele>549.0</ele><time>2026-05-01T15:10:53.999Z</time></trkpt><trkpt lat="45.77324375969673" lon="14.338002942876793"><ele>549.0</ele><time>2026-05-01T15:10:55.999Z</time></trkpt><trkpt lat="45.77329514261347" lon="14.337923725043435"><ele>549.0</ele><time>2026-05-01T15:10:57.999Z</time></trkpt><trkpt lat="45.773345146474846" lon="14.337846609833301"><ele>549.0</ele><time>2026-05-01T15:11:00Z</time></trkpt><trkpt lat="45.773391584918606" lon="14.337761280704399"><ele>549.0</ele><time>2026-05-01T15:11:02Z</time></trkpt><trkpt lat="45.77344423798728" lon="14.337690495534241"><ele>549.0</ele><time>2026-05-01T15:11:04Z</time></trkpt><trkpt lat="45.773491614520516" lon="14.337619755032412"><ele>549.0</ele><time>2026-05-01T15:11:06Z</time></trkpt><trkpt lat="45.773545098592514" lon="14.337532616439862"><ele>549.0</ele><time>2026-05-01T15:11:08Z</time></trkpt><trkpt lat="45.77359233893716" lon="14.337448408576329"><ele>549.0</ele><time>2026-05-01T15:11:10Z</time></trkpt><trkpt lat="45.77364185472704" lon="14.337371436271171"><ele>549.0</ele><time>2026-05-01T15:11:12Z</time></trkpt><trkpt lat="45.77368513155501" lon="14.337298477914668"><ele>549.0</ele><time>2026-05-01T15:11:14Z</time></trkpt><trkpt lat="45.77373951464458" lon="14.337216601165697"><ele>549.0</ele><time>2026-05-01T15:11:17Z</time></trkpt><trkpt lat="45.77380819557482" lon="14.337177046383088"><ele>549.0</ele><time>2026-05-01T15:11:27Z</time></trkpt><trkpt lat="45.77387974618254" lon="14.337184525147757"><ele>549.0</ele><time>2026-05-01T15:11:30Z</time></trkpt><trkpt lat="45.773965792161974" lon="14.337206670334027"><ele>548.8333333333334</ele><time>2026-05-01T15:11:33Z</time></trkpt><trkpt lat="45.774057494658734" lon="14.337225021267258"><ele>548.6666666666666</ele><time>2026-05-01T15:11:36Z</time></trkpt><trkpt lat="45.77412005287441" lon="14.3372424143739"><ele>548.5</ele><time>2026-05-01T15:11:38Z</time></trkpt><trkpt lat="45.77420786423963" lon="14.33726791670889"><ele>548.3333333333333</ele><time>2026-05-01T15:11:41Z</time></trkpt><trkpt lat="45.77428913873592" lon="14.337311471780163"><ele>548.1666666666666</ele><time>2026-05-01T15:11:44Z</time></trkpt><trkpt lat="45.774372558221884" lon="14.337341202449526"><ele>548.0</ele><time>2026-05-01T15:11:47Z</time></trkpt><trkpt lat="45.77443609882753" lon="14.337372280544647"><ele>547.8333333333333</ele><time>2026-05-01T15:11:49Z</time></trkpt><trkpt lat="45.77450090894916" lon="14.337405432332876"><ele>547.6666666666666</ele><time>2026-05-01T15:11:51Z</time></trkpt><trkpt lat="45.77456563538805" lon="14.3374367785576"><ele>547.5</ele><time>2026-05-01T15:11:53Z</time></trkpt><trkpt lat="45.774655754006" lon="14.337480814823545"><ele>547.3333333333334</ele><time>2026-05-01T15:11:56Z</time></trkpt><trkpt lat="45.77471763796632" lon="14.337513852223404"><ele>547.1666666666667</ele><time>2026-05-01T15:11:58Z</time></trkpt><trkpt lat="45.77477502559452" lon="14.33755211452272"><ele>547.0</ele><time>2026-05-01T15:12:00Z</time></trkpt><trkpt lat="45.77486090429236" lon="14.337588864943443"><ele>547.0</ele><time>2026-05-01T15:12:03Z</time></trkpt><trkpt lat="45.77492349038864" lon="14.33760974353093"><ele>547.0</ele><time>2026-05-01T15:12:05Z</time></trkpt><trkpt lat="45.775016341394455" lon="14.337635996499623"><ele>547.0</ele><time>2026-05-01T15:12:08Z</time></trkpt><trkpt lat="45.77507978151352" lon="14.337657001617721"><ele>547.0</ele><time>2026-05-01T15:12:10Z</time></trkpt><trkpt lat="45.775143192511074" lon="14.337680139163947"><ele>547.0</ele><time>2026-05-01T15:12:12Z</time></trkpt><trkpt lat="45.77520478693155" lon="14.337703721819013"><ele>547.0</ele><time>2026-05-01T15:12:14Z</time></trkpt><trkpt lat="45.77529771946187" lon="14.337726064252191"><ele>547.0</ele><time>2026-05-01T15:12:17Z</time></trkpt><trkpt lat="45.775361147927356" lon="14.337755645322881"><ele>547.1428571428571</ele><time>2026-05-01T15:12:19Z</time></trkpt><trkpt lat="45.77542437394057" lon="14.337774969382574"><ele>547.2857142857142</ele><time>2026-05-01T15:12:21Z</time></trkpt><trkpt lat="45.77548874461203" lon="14.337799519782594"><ele>547.4285714285714</ele><time>2026-05-01T15:12:22.999Z</time></trkpt><trkpt lat="45.7755531015826" lon="14.337821645374527"><ele>547.5714285714286</ele><time>2026-05-01T15:12:24.999Z</time></trkpt><trkpt lat="45.7756163541633" lon="14.337843752421769"><ele>547.7142857142858</ele><time>2026-05-01T15:12:26.999Z</time></trkpt><trkpt lat="45.77570471587857" lon="14.337875864550341"><ele>547.8571428571429</ele><time>2026-05-01T15:12:29.999Z</time></trkpt><trkpt lat="45.775797079542485" lon="14.337899759373668"><ele>548.0</ele><time>2026-05-01T15:12:32.999Z</time></trkpt><trkpt lat="45.77589063049438" lon="14.337926593663699"><ele>548.0000000000001</ele><time>2026-05-01T15:12:36Z</time></trkpt><trkpt lat="45.77595833695269" lon="14.337934634145093"><ele>548.0</ele><time>2026-05-01T15:12:38Z</time></trkpt><trkpt lat="45.77602256893926" lon="14.337942426600126"><ele>548.0</ele><time>2026-05-01T15:12:40Z</time></trkpt><trkpt lat="45.7760902726736" lon="14.337945372243436"><ele>548.0</ele><time>2026-05-01T15:12:42Z</time></trkpt><trkpt lat="45.77615625336993" lon="14.337950046666219"><ele>548.0</ele><time>2026-05-01T15:12:44Z</time></trkpt><trkpt lat="45.77622313663249" lon="14.33795466665494"><ele>548.0000000000001</ele><time>2026-05-01T15:12:46Z</time></trkpt><trkpt lat="45.776286244229375" lon="14.337965933913544"><ele>548.0</ele><time>2026-05-01T15:12:48Z</time></trkpt><trkpt lat="45.776375538008956" lon="14.337990720489417"><ele>548.1999999999999</ele><time>2026-05-01T15:12:51Z</time></trkpt><trkpt lat="45.776462003255105" lon="14.338035479866006"><ele>548.4</ele><time>2026-05-01T15:12:54Z</time></trkpt><trkpt lat="45.776543799146836" lon="14.338094628989092"><ele>548.5999999999999</ele><time>2026-05-01T15:12:57Z</time></trkpt><trkpt lat="45.77662249452639" lon="14.338152345154068"><ele>548.8</ele><time>2026-05-01T15:13:00Z</time></trkpt><trkpt lat="45.776708659962836" lon="14.338196032157708"><ele>549.0</ele><time>2026-05-01T15:13:03Z</time></trkpt><trkpt lat="45.77679589409894" lon="14.338217934596393"><ele>549.1666666666666</ele><time>2026-05-01T15:13:06Z</time></trkpt><trkpt lat="45.776882204836426" lon="14.3382158781576"><ele>549.3333333333334</ele><time>2026-05-01T15:13:09Z</time></trkpt><trkpt lat="45.77697141823291" lon="14.338220299962192"><ele>549.5</ele><time>2026-05-01T15:13:12Z</time></trkpt><trkpt lat="45.77706023817974" lon="14.338239965362874"><ele>549.6666666666667</ele><time>2026-05-01T15:13:15Z</time></trkpt><trkpt lat="45.77714951277007" lon="14.338266582586144"><ele>549.8333333333334</ele><time>2026-05-01T15:13:18Z</time></trkpt><trkpt lat="45.77721214185138" lon="14.3382903673797"><ele>550.0</ele><time>2026-05-01T15:13:20Z</time></trkpt><trkpt lat="45.77730019953805" lon="14.338328591415237"><ele>550.0</ele><time>2026-05-01T15:13:23Z</time></trkpt><trkpt lat="45.77738631976825" lon="14.338372823832804"><ele>550.0</ele><time>2026-05-01T15:13:26Z</time></trkpt><trkpt lat="45.777474198314" lon="14.338418575551334"><ele>550.0</ele><time>2026-05-01T15:13:29Z</time></trkpt><trkpt lat="45.7775595870369" lon="14.33845784065458"><ele>550.0</ele><time>2026-05-01T15:13:32Z</time></trkpt><trkpt lat="45.777651737550464" lon="14.3384901644701"><ele>550.0</ele><time>2026-05-01T15:13:35Z</time></trkpt><trkpt lat="45.77773545945724" lon="14.338496018517498"><ele>549.5</ele><time>2026-05-01T15:13:38Z</time></trkpt><trkpt lat="45.77782338575504" lon="14.33849525594733"><ele>549.0</ele><time>2026-05-01T15:13:41Z</time></trkpt><trkpt lat="45.777913063915925" lon="14.338487878697133"><ele>548.5</ele><time>2026-05-01T15:13:44Z</time></trkpt><trkpt lat="45.77797803544046" lon="14.338482653880407"><ele>548.0</ele><time>2026-05-01T15:13:46Z</time></trkpt><trkpt lat="45.778040801940634" lon="14.338471106878545"><ele>547.5</ele><time>2026-05-01T15:13:48Z</time></trkpt><trkpt lat="45.778126611145915" lon="14.338450054995622"><ele>547.0</ele><time>2026-05-01T15:13:51Z</time></trkpt><trkpt lat="45.77821044872876" lon="14.338431101428435"><ele>547.0</ele><time>2026-05-01T15:13:54Z</time></trkpt><trkpt lat="45.77830259550043" lon="14.338418794726511"><ele>547.0</ele><time>2026-05-01T15:13:57Z</time></trkpt><trkpt lat="45.77839249800021" lon="14.33843857434865"><ele>547.0</ele><time>2026-05-01T15:14:00Z</time></trkpt><trkpt lat="45.77848429506481" lon="14.338468284446089"><ele>547.0</ele><time>2026-05-01T15:14:03Z</time></trkpt><trkpt lat="45.778547097663186" lon="14.338476575881751"><ele>547.0</ele><time>2026-05-01T15:14:05Z</time></trkpt><trkpt lat="45.7786369927658" lon="14.33847047924316"><ele>547.0</ele><time>2026-05-01T15:14:08Z</time></trkpt><trkpt lat="45.778729605397146" lon="14.338447713960536"><ele>547.1428571428571</ele><time>2026-05-01T15:14:11Z</time></trkpt><trkpt lat="45.7788032776924" lon="14.338433161633905"><ele>547.2857142857142</ele><time>2026-05-01T15:14:13Z</time></trkpt><trkpt lat="45.778881200600416" lon="14.338435691913666"><ele>547.4285714285714</ele><time>2026-05-01T15:14:15Z</time></trkpt><trkpt lat="45.778951998321645" lon="14.338449984201793"><ele>547.5714285714286</ele><time>2026-05-01T15:14:17Z</time></trkpt><trkpt lat="45.779020601646295" lon="14.338472316926612"><ele>547.7142857142858</ele><time>2026-05-01T15:14:19Z</time></trkpt><trkpt lat="45.77909009947918" lon="14.338497906420073"><ele>547.8571428571429</ele><time>2026-05-01T15:14:21Z</time></trkpt><trkpt lat="45.7791602467031" lon="14.338518484698506"><ele>548.0</ele><time>2026-05-01T15:14:23Z</time></trkpt><trkpt lat="45.77923035247529" lon="14.338520245657836"><ele>548.0000000000001</ele><time>2026-05-01T15:14:25Z</time></trkpt><trkpt lat="45.77930187972499" lon="14.338507729105224"><ele>548.0</ele><time>2026-05-01T15:14:26.999Z</time></trkpt><trkpt lat="45.77936855312262" lon="14.33849100638897"><ele>548.0</ele><time>2026-05-01T15:14:28.999Z</time></trkpt><trkpt lat="45.77944616983734" lon="14.338489640364582"><ele>548.0</ele><time>2026-05-01T15:14:30.999Z</time></trkpt><trkpt lat="45.77951193675022" lon="14.338515950521579"><ele>548.0</ele><time>2026-05-01T15:14:32.999Z</time></trkpt><trkpt lat="45.779574144847096" lon="14.338538037555153"><ele>548.0000000000001</ele><time>2026-05-01T15:14:34.999Z</time></trkpt><trkpt lat="45.7796351270985" lon="14.338562465728344"><ele>548.0</ele><time>2026-05-01T15:14:36.999Z</time></trkpt><trkpt lat="45.77972502806848" lon="14.338608162078573"><ele>548.0000000000001</ele><time>2026-05-01T15:14:39.999Z</time></trkpt><trkpt lat="45.77979207307857" lon="14.338637414629513"><ele>548.0</ele><time>2026-05-01T15:14:42Z</time></trkpt><trkpt lat="45.77986273582023" lon="14.338661668619627"><ele>548.0</ele><time>2026-05-01T15:14:44Z</time></trkpt><trkpt lat="45.779928288744" lon="14.33868428647593"><ele>548.0</ele><time>2026-05-01T15:14:46Z</time></trkpt><trkpt lat="45.779991424699894" lon="14.338723826424228"><ele>548.0</ele><time>2026-05-01T15:14:48Z</time></trkpt><trkpt lat="45.78005350984861" lon="14.33875560924065"><ele>548.0000000000001</ele><time>2026-05-01T15:14:50Z</time></trkpt><trkpt lat="45.78012033191181" lon="14.338777957719842"><ele>548.0</ele><time>2026-05-01T15:14:52Z</time></trkpt><trkpt lat="45.78019063240518" lon="14.338781021209385"><ele>548.1666666666666</ele><time>2026-05-01T15:14:54Z</time></trkpt><trkpt lat="45.7802614097521" lon="14.338766433702569"><ele>548.3333333333333</ele><time>2026-05-01T15:14:56Z</time></trkpt><trkpt lat="45.7803292344229" lon="14.338763904089788"><ele>548.5</ele><time>2026-05-01T15:14:58Z</time></trkpt><trkpt lat="45.780424899351424" lon="14.338766591900754"><ele>548.6666666666666</ele><time>2026-05-01T15:15:01Z</time></trkpt><trkpt lat="45.78051259527543" lon="14.338783349527425"><ele>548.8333333333334</ele><time>2026-05-01T15:15:04Z</time></trkpt><trkpt lat="45.78057739911651" lon="14.338791308521168"><ele>549.0</ele><time>2026-05-01T15:15:06Z</time></trkpt><trkpt lat="45.78064744360023" lon="14.338781717828146"><ele>549.0</ele><time>2026-05-01T15:15:08Z</time></trkpt><trkpt lat="45.7807268852362" lon="14.338757095000036"><ele>549.0</ele><time>2026-05-01T15:15:10Z</time></trkpt><trkpt lat="45.78079319436391" lon="14.338725869570938"><ele>549.0</ele><time>2026-05-01T15:15:12Z</time></trkpt><trkpt lat="45.78087555519082" lon="14.338701634037742"><ele>549.0</ele><time>2026-05-01T15:15:15Z</time></trkpt><trkpt lat="45.78093868756504" lon="14.338699134221326"><ele>549.0</ele><time>2026-05-01T15:15:17Z</time></trkpt><trkpt lat="45.78100194161497" lon="14.338696119857051"><ele>549.0</ele><time>2026-05-01T15:15:19Z</time></trkpt><trkpt lat="45.78107210575965" lon="14.338702244819691"><ele>549.0</ele><time>2026-05-01T15:15:21Z</time></trkpt><trkpt lat="45.781140534130095" lon="14.338716095976332"><ele>549.1666666666666</ele><time>2026-05-01T15:15:23Z</time></trkpt><trkpt lat="45.781218867703146" lon="14.33872945744892"><ele>549.3333333333334</ele><time>2026-05-01T15:15:25Z</time></trkpt><trkpt lat="45.7812972147517" lon="14.338739522012792"><ele>549.5</ele><time>2026-05-01T15:15:27Z</time></trkpt><trkpt lat="45.781377229020805" lon="14.3387560571707"><ele>549.6666666666667</ele><time>2026-05-01T15:15:29Z</time></trkpt><trkpt lat="45.78145159229541" lon="14.338773776707171"><ele>549.8333333333334</ele><time>2026-05-01T15:15:31Z</time></trkpt><trkpt lat="45.78151950619712" lon="14.338795102813005"><ele>550.0</ele><time>2026-05-01T15:15:33Z</time></trkpt><trkpt lat="45.781584625562544" lon="14.338817014558696"><ele>550.0</ele><time>2026-05-01T15:15:35Z</time></trkpt><trkpt lat="45.78165015030768" lon="14.338843378612756"><ele>550.0</ele><time>2026-05-01T15:15:37Z</time></trkpt><trkpt lat="45.78171776775191" lon="14.338868629386965"><ele>550.0</ele><time>2026-05-01T15:15:39Z</time></trkpt><trkpt lat="45.781781043550154" lon="14.338898312557996"><ele>550.0</ele><time>2026-05-01T15:15:41Z</time></trkpt><trkpt lat="45.78184760023769" lon="14.33892168497585"><ele>550.0</ele><time>2026-05-01T15:15:43Z</time></trkpt><trkpt lat="45.781914136488815" lon="14.338944661706892"><ele>550.0</ele><time>2026-05-01T15:15:45Z</time></trkpt><trkpt lat="45.781981493716046" lon="14.338966984412107"><ele>550.0</ele><time>2026-05-01T15:15:47Z</time></trkpt><trkpt lat="45.7820504791853" lon="14.338988729674526"><ele>550.0</ele><time>2026-05-01T15:15:49Z</time></trkpt><trkpt lat="45.782119753697856" lon="14.339008953057448"><ele>550.0</ele><time>2026-05-01T15:15:51Z</time></trkpt><trkpt lat="45.78218619022302" lon="14.339027712498423"><ele>550.0</ele><time>2026-05-01T15:15:53Z</time></trkpt><trkpt lat="45.78225228027075" lon="14.339049895878674"><ele>550.0</ele><time>2026-05-01T15:15:55Z</time></trkpt><trkpt lat="45.782320179356695" lon="14.339072725972798"><ele>550.0</ele><time>2026-05-01T15:15:57Z</time></trkpt><trkpt lat="45.78239109644585" lon="14.339098555056657"><ele>550.0</ele><time>2026-05-01T15:15:59Z</time></trkpt><trkpt lat="45.782461222666186" lon="14.339125096543832"><ele>550.0</ele><time>2026-05-01T15:16:01Z</time></trkpt><trkpt lat="45.78253043272625" lon="14.339154974150519"><ele>550.0</ele><time>2026-05-01T15:16:03Z</time></trkpt><trkpt lat="45.782593428833685" lon="14.339180003650883"><ele>550.0</ele><time>2026-05-01T15:16:05Z</time></trkpt><trkpt lat="45.78265693802805" lon="14.33920926991715"><ele>550.0</ele><time>2026-05-01T15:16:07Z</time></trkpt><trkpt lat="45.78271574559064" lon="14.339251733936521"><ele>550.0</ele><time>2026-05-01T15:16:09Z</time></trkpt><trkpt lat="45.78277012446087" lon="14.339302814013944"><ele>550.0</ele><time>2026-05-01T15:16:11Z</time></trkpt><trkpt lat="45.782826595936214" lon="14.339354732493366"><ele>550.0</ele><time>2026-05-01T15:16:13Z</time></trkpt><trkpt lat="45.78288667554317" lon="14.339403381032207"><ele>550.0</ele><time>2026-05-01T15:16:15Z</time></trkpt><trkpt lat="45.7829620484094" lon="14.33942845152854"><ele>550.0</ele><time>2026-05-01T15:16:18Z</time></trkpt><trkpt lat="45.7830181452812" lon="14.339497914952224"><ele>550.0</ele><time>2026-05-01T15:17:35Z</time></trkpt><trkpt lat="45.78307483380422" lon="14.33957992343447"><ele>550.0</ele><time>2026-05-01T15:17:39Z</time></trkpt><trkpt lat="45.78312469459875" lon="14.339653391166959"><ele>550.0</ele><time>2026-05-01T15:17:45Z</time></trkpt><trkpt lat="45.78316690420653" lon="14.339731435465122"><ele>550.0</ele><time>2026-05-01T15:17:48Z</time></trkpt><trkpt lat="45.783226515017006" lon="14.3398173385107"><ele>550.0</ele><time>2026-05-01T15:17:51Z</time></trkpt><trkpt lat="45.78328244090116" lon="14.339909149712298"><ele>550.0</ele><time>2026-05-01T15:17:54Z</time></trkpt><trkpt lat="45.78334514599753" lon="14.340001485677671"><ele>550.0</ele><time>2026-05-01T15:17:57Z</time></trkpt><trkpt lat="45.78338347325697" lon="14.340073999314797"><ele>550.0</ele><time>2026-05-01T15:17:59Z</time></trkpt><trkpt lat="45.78342676782282" lon="14.340142683380716"><ele>550.0</ele><time>2026-05-01T15:18:01Z</time></trkpt><trkpt lat="45.78346980285706" lon="14.340212136803313"><ele>550.0</ele><time>2026-05-01T15:18:03Z</time></trkpt><trkpt lat="45.78350949259105" lon="14.340283380698551"><ele>550.0</ele><time>2026-05-01T15:18:05Z</time></trkpt><trkpt lat="45.78354631623645" lon="14.340365199649144"><ele>550.0</ele><time>2026-05-01T15:18:07Z</time></trkpt><trkpt lat="45.78358642882185" lon="14.340452111600992"><ele>550.0</ele><time>2026-05-01T15:18:09Z</time></trkpt><trkpt lat="45.78362438354746" lon="14.340530991997106"><ele>550.0</ele><time>2026-05-01T15:18:11Z</time></trkpt><trkpt lat="45.78366041396212" lon="14.340623131932503"><ele>550.0</ele><time>2026-05-01T15:18:13Z</time></trkpt><trkpt lat="45.783691172449416" lon="14.340706639546788"><ele>550.0</ele><time>2026-05-01T15:18:15Z</time></trkpt><trkpt lat="45.78372101936949" lon="14.34079904980272"><ele>550.0</ele><time>2026-05-01T15:18:17Z</time></trkpt><trkpt lat="45.78375295012927" lon="14.3408908362438"><ele>550.0</ele><time>2026-05-01T15:18:19Z</time></trkpt><trkpt lat="45.78378684627154" lon="14.340984597672572"><ele>550.0</ele><time>2026-05-01T15:18:21Z</time></trkpt><trkpt lat="45.78380924518502" lon="14.341074347155713"><ele>549.8571428571429</ele><time>2026-05-01T15:18:23Z</time></trkpt><trkpt lat="45.78381789233589" lon="14.341174901238269"><ele>549.7142857142857</ele><time>2026-05-01T15:18:25Z</time></trkpt><trkpt lat="45.78383042820359" lon="14.34128384396151"><ele>549.5714285714286</ele><time>2026-05-01T15:18:27Z</time></trkpt><trkpt lat="45.78384198357182" lon="14.341388027517453"><ele>549.4285714285714</ele><time>2026-05-01T15:18:29Z</time></trkpt><trkpt lat="45.783855479953814" lon="14.341482289514706"><ele>549.2857142857143</ele><time>2026-05-01T15:18:31Z</time></trkpt><trkpt lat="45.783875844296716" lon="14.341575689529021"><ele>549.1428571428571</ele><time>2026-05-01T15:18:33Z</time></trkpt><trkpt lat="45.78389317781789" lon="14.341685067329657"><ele>549.0</ele><time>2026-05-01T15:18:35Z</time></trkpt><trkpt lat="45.783908010633134" lon="14.341791044761909"><ele>549.8333333333334</ele><time>2026-05-01T15:18:37Z</time></trkpt><trkpt lat="45.78393320202502" lon="14.341896464758463"><ele>550.6666666666666</ele><time>2026-05-01T15:18:39Z</time></trkpt><trkpt lat="45.78395996583385" lon="14.342003278821052"><ele>551.5</ele><time>2026-05-01T15:18:41Z</time></trkpt><trkpt lat="45.783991453702086" lon="14.342115102723087"><ele>552.3333333333333</ele><time>2026-05-01T15:18:43Z</time></trkpt><trkpt lat="45.78402125557503" lon="14.342235770172671"><ele>553.1666666666666</ele><time>2026-05-01T15:18:45Z</time></trkpt><trkpt lat="45.784055662703" lon="14.3423545160974"><ele>554.0</ele><time>2026-05-01T15:18:47Z</time></trkpt><trkpt lat="45.7841025527518" lon="14.342468744640195"><ele>554.0</ele><time>2026-05-01T15:18:49Z</time></trkpt><trkpt lat="45.78415785561352" lon="14.342554754109559"><ele>554.0</ele><time>2026-05-01T15:18:51Z</time></trkpt><trkpt lat="45.784210916179454" lon="14.342631819266057"><ele>554.0</ele><time>2026-05-01T15:18:53Z</time></trkpt><trkpt lat="45.78427481543591" lon="14.34269661635129"><ele>554.0</ele><time>2026-05-01T15:18:56Z</time></trkpt><trkpt lat="45.784335197214425" lon="14.342772862880272"><ele>554.0</ele><time>2026-05-01T15:19:08Z</time></trkpt><trkpt lat="45.78439106127821" lon="14.342857029832707"><ele>554.0</ele><time>2026-05-01T15:19:11Z</time></trkpt><trkpt lat="45.78442385285423" lon="14.342946931838325"><ele>553.8333333333333</ele><time>2026-05-01T15:19:13Z</time></trkpt><trkpt lat="45.78446286815798" lon="14.343038662523123"><ele>553.6666666666666</ele><time>2026-05-01T15:19:15Z</time></trkpt><trkpt lat="45.78450215226454" lon="14.34312920575362"><ele>553.5</ele><time>2026-05-01T15:19:17Z</time></trkpt><trkpt lat="45.784544055091395" lon="14.343222445034508"><ele>553.3333333333334</ele><time>2026-05-01T15:19:19Z</time></trkpt><trkpt lat="45.78458891483823" lon="14.34330987548807"><ele>553.1666666666667</ele><time>2026-05-01T15:19:21Z</time></trkpt><trkpt lat="45.784631359665546" lon="14.343403723525713"><ele>553.0</ele><time>2026-05-01T15:19:23Z</time></trkpt><trkpt lat="45.78468047162754" lon="14.34349130750913"><ele>553.0</ele><time>2026-05-01T15:19:25Z</time></trkpt><trkpt lat="45.784734221143225" lon="14.343574119026195"><ele>553.0</ele><time>2026-05-01T15:19:27Z</time></trkpt><trkpt lat="45.784781379191976" lon="14.343656980720917"><ele>553.0</ele><time>2026-05-01T15:19:29Z</time></trkpt><trkpt lat="45.78482690624102" lon="14.343727055781931"><ele>553.0</ele><time>2026-05-01T15:19:31Z</time></trkpt><trkpt lat="45.784882933847264" lon="14.343828430308058"><ele>553.0</ele><time>2026-05-01T15:19:34Z</time></trkpt><trkpt lat="45.784939681675255" lon="14.343914719797212"><ele>553.0</ele><time>2026-05-01T15:19:37Z</time></trkpt><trkpt lat="45.78497668353042" lon="14.343992962281082"><ele>553.0</ele><time>2026-05-01T15:19:39Z</time></trkpt><trkpt lat="45.785016480392734" lon="14.34408115317509"><ele>553.0</ele><time>2026-05-01T15:19:41Z</time></trkpt><trkpt lat="45.78505648402674" lon="14.344173516287194"><ele>553.0</ele><time>2026-05-01T15:19:43Z</time></trkpt><trkpt lat="45.78509418507492" lon="14.344269409652732"><ele>553.0</ele><time>2026-05-01T15:19:45Z</time></trkpt><trkpt lat="45.78512865297007" lon="14.344374205346556"><ele>553.0</ele><time>2026-05-01T15:19:47Z</time></trkpt><trkpt lat="45.78517204577196" lon="14.344467593617901"><ele>553.0</ele><time>2026-05-01T15:19:49Z</time></trkpt><trkpt lat="45.78522073331628" lon="14.344566723627047"><ele>553.1666666666667</ele><time>2026-05-01T15:19:51Z</time></trkpt><trkpt lat="45.785265764835685" lon="14.344654468006361"><ele>553.3333333333334</ele><time>2026-05-01T15:19:53Z</time></trkpt><trkpt lat="45.78530333718297" lon="14.344739377888489"><ele>553.5</ele><time>2026-05-01T15:19:55Z</time></trkpt><trkpt lat="45.785371070511225" lon="14.344817418394879"><ele>553.6666666666666</ele><time>2026-05-01T15:19:58Z</time></trkpt><trkpt lat="45.78545543712905" lon="14.34483161256045"><ele>553.8333333333333</ele><time>2026-05-01T15:20:01Z</time></trkpt><trkpt lat="45.78552493448386" lon="14.344809703019527"><ele>554.0</ele><time>2026-05-01T15:20:04Z</time></trkpt><trkpt lat="45.78559921126513" lon="14.34475819476984"><ele>554.0</ele><time>2026-05-01T15:20:07Z</time></trkpt><trkpt lat="45.785658240837726" lon="14.344653695991813"><ele>554.0</ele><time>2026-05-01T15:20:10Z</time></trkpt><trkpt lat="45.78570002842641" lon="14.344580622004703"><ele>554.0</ele><time>2026-05-01T15:20:12Z</time></trkpt><trkpt lat="45.78573521938001" lon="14.344473022147001"><ele>554.0</ele><time>2026-05-01T15:20:14Z</time></trkpt><trkpt lat="45.785779893545445" lon="14.344387390417376"><ele>554.0</ele><time>2026-05-01T15:20:16Z</time></trkpt><trkpt lat="45.7858129468207" lon="14.344278905952766"><ele>554.0</ele><time>2026-05-01T15:20:18Z</time></trkpt><trkpt lat="45.785825069945076" lon="14.344145106804737"><ele>554.0</ele><time>2026-05-01T15:20:20Z</time></trkpt><trkpt lat="45.78584461133323" lon="14.344010502173754"><ele>554.0</ele><time>2026-05-01T15:20:22Z</time></trkpt><trkpt lat="45.78587542337897" lon="14.343885818040182"><ele>554.0</ele><time>2026-05-01T15:20:24Z</time></trkpt><trkpt lat="45.78593362519852" lon="14.343789873944337"><ele>554.0</ele><time>2026-05-01T15:20:26Z</time></trkpt><trkpt lat="45.785985768295106" lon="14.343727704723248"><ele>554.0</ele><time>2026-05-01T15:20:28Z</time></trkpt><trkpt lat="45.786043086575475" lon="14.343651292529882"><ele>554.0</ele><time>2026-05-01T15:20:31Z</time></trkpt><trkpt lat="45.786097396480194" lon="14.343590667289476"><ele>553.8571428571429</ele><time>2026-05-01T15:20:35Z</time></trkpt><trkpt lat="45.78614860407793" lon="14.343526604072338"><ele>553.7142857142857</ele><time>2026-05-01T15:20:38Z</time></trkpt><trkpt lat="45.78622887828771" lon="14.343495765608287"><ele>553.5714285714286</ele><time>2026-05-01T15:20:42Z</time></trkpt><trkpt lat="45.78627612455337" lon="14.343398534995455"><ele>553.4285714285714</ele><time>2026-05-01T15:20:46Z</time></trkpt><trkpt lat="45.78628922808978" lon="14.343308551300645"><ele>553.2857142857142</ele><time>2026-05-01T15:20:48Z</time></trkpt><trkpt lat="45.78629615488057" lon="14.343209373583875"><ele>553.1428571428571</ele><time>2026-05-01T15:20:50Z</time></trkpt><trkpt lat="45.786308760500674" lon="14.343098041992148"><ele>553.0</ele><time>2026-05-01T15:20:52Z</time></trkpt><trkpt lat="45.78632661652813" lon="14.342979423971734"><ele>552.6</ele><time>2026-05-01T15:20:54Z</time></trkpt><trkpt lat="45.78633897136186" lon="14.34285188268728"><ele>552.1999999999999</ele><time>2026-05-01T15:20:56Z</time></trkpt><trkpt lat="45.78634680663211" lon="14.342718050953827"><ele>551.8</ele><time>2026-05-01T15:20:58Z</time></trkpt><trkpt lat="45.78635450354817" lon="14.342583103134423"><ele>551.4</ele><time>2026-05-01T15:21:00Z</time></trkpt><trkpt lat="45.78636059065739" lon="14.342447731993753"><ele>551.0</ele><time>2026-05-01T15:21:02Z</time></trkpt><trkpt lat="45.78635770344275" lon="14.342309859241393"><ele>551.0</ele><time>2026-05-01T15:21:04Z</time></trkpt><trkpt lat="45.78634366343583" lon="14.342174591870025"><ele>551.0</ele><time>2026-05-01T15:21:06Z</time></trkpt><trkpt lat="45.78632016926522" lon="14.342043072450123"><ele>551.0</ele><time>2026-05-01T15:21:08Z</time></trkpt><trkpt lat="45.78628800401495" lon="14.341914871296455"><ele>551.0</ele><time>2026-05-01T15:21:10Z</time></trkpt><trkpt lat="45.78625912226096" lon="14.341779974304606"><ele>551.0</ele><time>2026-05-01T15:21:12Z</time></trkpt><trkpt lat="45.786229564483904" lon="14.341639052840563"><ele>551.0</ele><time>2026-05-01T15:21:14Z</time></trkpt><trkpt lat="45.78620326722768" lon="14.341502110249717"><ele>551.0</ele><time>2026-05-01T15:21:16Z</time></trkpt><trkpt lat="45.78618253250377" lon="14.341364045159821"><ele>551.0</ele><time>2026-05-01T15:21:18Z</time></trkpt><trkpt lat="45.78616970958365" lon="14.341211474307269"><ele>551.0</ele><time>2026-05-01T15:21:20Z</time></trkpt><trkpt lat="45.78614862140549" lon="14.341064149909581"><ele>551.0</ele><time>2026-05-01T15:21:22Z</time></trkpt><trkpt lat="45.78612610093336" lon="14.340922616045672"><ele>551.2</ele><time>2026-05-01T15:21:24Z</time></trkpt><trkpt lat="45.78609911746656" lon="14.340778992843024"><ele>551.4000000000001</ele><time>2026-05-01T15:21:26Z</time></trkpt><trkpt lat="45.78607975186132" lon="14.340686250129009"><ele>551.6</ele><time>2026-05-01T15:21:27Z</time></trkpt><trkpt lat="45.786056700216626" lon="14.340572934862209"><ele>551.8000000000001</ele><time>2026-05-01T15:21:29Z</time></trkpt><trkpt lat="45.786029792907186" lon="14.340421420790733"><ele>552.0</ele><time>2026-05-01T15:21:31Z</time></trkpt><trkpt lat="45.78599707176876" lon="14.340275705887434"><ele>552.2</ele><time>2026-05-01T15:21:33Z</time></trkpt><trkpt lat="45.785968116520806" lon="14.340122614683219"><ele>552.4000000000001</ele><time>2026-05-01T15:21:35Z</time></trkpt><trkpt lat="45.78593984891503" lon="14.339977458675127"><ele>552.5999999999999</ele><time>2026-05-01T15:21:37Z</time></trkpt><trkpt lat="45.785915569336076" lon="14.339839789760036"><ele>552.8</ele><time>2026-05-01T15:21:39Z</time></trkpt><trkpt lat="45.785888079512645" lon="14.339709012540743"><ele>553.0</ele><time>2026-05-01T15:21:41Z</time></trkpt><trkpt lat="45.78588093462991" lon="14.339595660266413"><ele>555.0</ele><time>2026-05-01T15:21:43Z</time></trkpt><trkpt lat="45.785882222509606" lon="14.339488214276434"><ele>555.0</ele><time>2026-05-01T15:21:45Z</time></trkpt><trkpt lat="45.78584866511193" lon="14.339378946106287"><ele>555.0</ele><time>2026-05-01T15:21:48Z</time></trkpt><trkpt lat="45.78582093861845" lon="14.339266096034393"><ele>555.0</ele><time>2026-05-01T15:21:53Z</time></trkpt><trkpt lat="45.78579859175514" lon="14.339175109208517"><ele>555.0</ele><time>2026-05-01T15:21:56Z</time></trkpt></trkseg></trk></gpx>